<?xml version="1.0" encoding="UTF-8" standalone="no" ?>
<gpx xmlns="http://www.topografix.com/GPX/1/1" xmlns:xsi="http://www.w3.org/2001/XMLSchema-instance" xsi:schemaLocation="http://www.topografix.com/GPX/1/1 http://www.topografix.com/GPX/1/1/gpx.xsd" version="1.1" creator="VisuGPX - https://www.visugpx.com">
  <metadata>
    <name>L'Argentière / Fort de Brégançon</name>
    <desc><![CDATA[Balade pour bons marcheurs sur le très beau sentier littoral entre l'Argentière et le Fort de Brégançon.]]></desc>
  </metadata>
  <trk>
    <name><![CDATA[17-MAI-17 FORT DE BREGANCON]]></name>
    <trkseg>
      <trkpt lat="43.12133" lon="6.26423">
        <ele>-39.76</ele>
        <time>2017-05-17T07:04:01Z</time>
      </trkpt>
      <trkpt lat="43.12132" lon="6.26437">
        <ele>-39.76</ele>
        <time>2017-05-17T07:04:10Z</time>
      </trkpt>
      <trkpt lat="43.1213" lon="6.26443">
        <ele>-39.76</ele>
        <time>2017-05-17T07:04:16Z</time>
      </trkpt>
      <trkpt lat="43.12134" lon="6.26461">
        <ele>-36.39</ele>
        <time>2017-05-17T07:04:29Z</time>
      </trkpt>
      <trkpt lat="43.12133" lon="6.26465">
        <ele>-32.55</ele>
        <time>2017-05-17T07:04:32Z</time>
      </trkpt>
      <trkpt lat="43.12133" lon="6.26468">
        <ele>-29.18</ele>
        <time>2017-05-17T07:04:34Z</time>
      </trkpt>
      <trkpt lat="43.12133" lon="6.2647">
        <ele>-29.18</ele>
        <time>2017-05-17T07:04:35Z</time>
      </trkpt>
      <trkpt lat="43.12133" lon="6.26473">
        <ele>-27.26</ele>
        <time>2017-05-17T07:04:37Z</time>
      </trkpt>
      <trkpt lat="43.12133" lon="6.26479">
        <ele>-22.45</ele>
        <time>2017-05-17T07:04:41Z</time>
      </trkpt>
      <trkpt lat="43.12134" lon="6.26482">
        <ele>-21.97</ele>
        <time>2017-05-17T07:04:43Z</time>
      </trkpt>
      <trkpt lat="43.12134" lon="6.26489">
        <ele>-18.61</ele>
        <time>2017-05-17T07:04:47Z</time>
      </trkpt>
      <trkpt lat="43.12134" lon="6.26493">
        <ele>-17.17</ele>
        <time>2017-05-17T07:04:50Z</time>
      </trkpt>
      <trkpt lat="43.12134" lon="6.26495">
        <ele>-16.21</ele>
        <time>2017-05-17T07:04:51Z</time>
      </trkpt>
      <trkpt lat="43.12133" lon="6.26507">
        <ele>-12.36</ele>
        <time>2017-05-17T07:04:59Z</time>
      </trkpt>
      <trkpt lat="43.12133" lon="6.26509">
        <ele>-11.88</ele>
        <time>2017-05-17T07:05:00Z</time>
      </trkpt>
      <trkpt lat="43.12134" lon="6.26517">
        <ele>-9.96</ele>
        <time>2017-05-17T07:05:05Z</time>
      </trkpt>
      <trkpt lat="43.12132" lon="6.26534">
        <ele>-6.59</ele>
        <time>2017-05-17T07:05:17Z</time>
      </trkpt>
      <trkpt lat="43.12132" lon="6.26536">
        <ele>-6.11</ele>
        <time>2017-05-17T07:05:19Z</time>
      </trkpt>
      <trkpt lat="43.12129" lon="6.26553">
        <ele>-4.19</ele>
        <time>2017-05-17T07:05:33Z</time>
      </trkpt>
      <trkpt lat="43.12129" lon="6.26558">
        <ele>-3.23</ele>
        <time>2017-05-17T07:05:43Z</time>
      </trkpt>
      <trkpt lat="43.12126" lon="6.26576">
        <ele>-2.75</ele>
        <time>2017-05-17T07:05:55Z</time>
      </trkpt>
      <trkpt lat="43.12125" lon="6.26598">
        <ele>-2.27</ele>
        <time>2017-05-17T07:06:13Z</time>
      </trkpt>
      <trkpt lat="43.12139" lon="6.26601">
        <ele>-1.3</ele>
        <time>2017-05-17T07:06:27Z</time>
      </trkpt>
      <trkpt lat="43.12142" lon="6.26609">
        <ele>2.06</ele>
        <time>2017-05-17T07:06:41Z</time>
      </trkpt>
      <trkpt lat="43.12144" lon="6.26616">
        <ele>4.94</ele>
        <time>2017-05-17T07:06:56Z</time>
      </trkpt>
      <trkpt lat="43.12138" lon="6.26622">
        <ele>6.87</ele>
        <time>2017-05-17T07:07:08Z</time>
      </trkpt>
      <trkpt lat="43.12128" lon="6.2663">
        <ele>7.83</ele>
        <time>2017-05-17T07:07:22Z</time>
      </trkpt>
      <trkpt lat="43.12125" lon="6.26634">
        <ele>8.79</ele>
        <time>2017-05-17T07:07:28Z</time>
      </trkpt>
      <trkpt lat="43.12122" lon="6.26637">
        <ele>9.27</ele>
        <time>2017-05-17T07:07:32Z</time>
      </trkpt>
      <trkpt lat="43.12111" lon="6.26645">
        <ele>10.23</ele>
        <time>2017-05-17T07:07:45Z</time>
      </trkpt>
      <trkpt lat="43.12107" lon="6.26654">
        <ele>10.71</ele>
        <time>2017-05-17T07:07:53Z</time>
      </trkpt>
      <trkpt lat="43.12103" lon="6.26659">
        <ele>11.67</ele>
        <time>2017-05-17T07:07:58Z</time>
      </trkpt>
      <trkpt lat="43.12096" lon="6.26663">
        <ele>11.67</ele>
        <time>2017-05-17T07:08:08Z</time>
      </trkpt>
      <trkpt lat="43.12099" lon="6.26659">
        <ele>11.67</ele>
        <time>2017-05-17T07:08:27Z</time>
      </trkpt>
      <trkpt lat="43.121" lon="6.26662">
        <ele>11.67</ele>
        <time>2017-05-17T07:08:48Z</time>
      </trkpt>
      <trkpt lat="43.12099" lon="6.26661">
        <ele>11.67</ele>
        <time>2017-05-17T07:09:12Z</time>
      </trkpt>
      <trkpt lat="43.12097" lon="6.26658">
        <ele>11.67</ele>
        <time>2017-05-17T07:09:33Z</time>
      </trkpt>
      <trkpt lat="43.12094" lon="6.26658">
        <ele>12.15</ele>
        <time>2017-05-17T07:10:04Z</time>
      </trkpt>
      <trkpt lat="43.12087" lon="6.26665">
        <ele>12.63</ele>
        <time>2017-05-17T07:10:13Z</time>
      </trkpt>
      <trkpt lat="43.12084" lon="6.26673">
        <ele>13.12</ele>
        <time>2017-05-17T07:10:27Z</time>
      </trkpt>
      <trkpt lat="43.1208" lon="6.26682">
        <ele>13.12</ele>
        <time>2017-05-17T07:10:37Z</time>
      </trkpt>
      <trkpt lat="43.12074" lon="6.26687">
        <ele>11.67</ele>
        <time>2017-05-17T07:10:50Z</time>
      </trkpt>
      <trkpt lat="43.12069" lon="6.26689">
        <ele>10.71</ele>
        <time>2017-05-17T07:11:14Z</time>
      </trkpt>
      <trkpt lat="43.12066" lon="6.2669">
        <ele>9.75</ele>
        <time>2017-05-17T07:11:22Z</time>
      </trkpt>
      <trkpt lat="43.12058" lon="6.26704">
        <ele>8.31</ele>
        <time>2017-05-17T07:11:34Z</time>
      </trkpt>
      <trkpt lat="43.12053" lon="6.26705">
        <ele>6.39</ele>
        <time>2017-05-17T07:11:46Z</time>
      </trkpt>
      <trkpt lat="43.12052" lon="6.26706">
        <ele>5.42</ele>
        <time>2017-05-17T07:11:49Z</time>
      </trkpt>
      <trkpt lat="43.1205" lon="6.26712">
        <ele>4.94</ele>
        <time>2017-05-17T07:11:55Z</time>
      </trkpt>
      <trkpt lat="43.1205" lon="6.2672">
        <ele>3.02</ele>
        <time>2017-05-17T07:12:06Z</time>
      </trkpt>
      <trkpt lat="43.1205" lon="6.26726">
        <ele>0.62</ele>
        <time>2017-05-17T07:12:18Z</time>
      </trkpt>
      <trkpt lat="43.12055" lon="6.26728">
        <ele>-0.82</ele>
        <time>2017-05-17T07:12:25Z</time>
      </trkpt>
      <trkpt lat="43.12059" lon="6.26728">
        <ele>-1.3</ele>
        <time>2017-05-17T07:12:29Z</time>
      </trkpt>
      <trkpt lat="43.12062" lon="6.26733">
        <ele>-0.34</ele>
        <time>2017-05-17T07:12:39Z</time>
      </trkpt>
      <trkpt lat="43.12062" lon="6.26734">
        <ele>-0.82</ele>
        <time>2017-05-17T07:12:41Z</time>
      </trkpt>
      <trkpt lat="43.12063" lon="6.26742">
        <ele>-2.27</ele>
        <time>2017-05-17T07:12:49Z</time>
      </trkpt>
      <trkpt lat="43.12063" lon="6.26748">
        <ele>-2.27</ele>
        <time>2017-05-17T07:12:54Z</time>
      </trkpt>
      <trkpt lat="43.12063" lon="6.26751">
        <ele>-1.79</ele>
        <time>2017-05-17T07:12:57Z</time>
      </trkpt>
      <trkpt lat="43.12065" lon="6.26751">
        <ele>0.14</ele>
        <time>2017-05-17T07:13:00Z</time>
      </trkpt>
      <trkpt lat="43.12067" lon="6.26752">
        <ele>0.14</ele>
        <time>2017-05-17T07:13:05Z</time>
      </trkpt>
      <trkpt lat="43.12067" lon="6.26757">
        <ele>1.1</ele>
        <time>2017-05-17T07:13:08Z</time>
      </trkpt>
      <trkpt lat="43.12069" lon="6.26768">
        <ele>2.06</ele>
        <time>2017-05-17T07:13:18Z</time>
      </trkpt>
      <trkpt lat="43.12067" lon="6.26773">
        <ele>3.98</ele>
        <time>2017-05-17T07:13:28Z</time>
      </trkpt>
      <trkpt lat="43.12068" lon="6.26779">
        <ele>4.94</ele>
        <time>2017-05-17T07:13:37Z</time>
      </trkpt>
      <trkpt lat="43.12069" lon="6.26778">
        <ele>6.39</ele>
        <time>2017-05-17T07:13:39Z</time>
      </trkpt>
      <trkpt lat="43.12069" lon="6.26779">
        <ele>4.94</ele>
        <time>2017-05-17T07:13:43Z</time>
      </trkpt>
      <trkpt lat="43.12071" lon="6.26779">
        <ele>3.98</ele>
        <time>2017-05-17T07:14:04Z</time>
      </trkpt>
      <trkpt lat="43.12073" lon="6.26782">
        <ele>5.91</ele>
        <time>2017-05-17T07:14:07Z</time>
      </trkpt>
      <trkpt lat="43.12076" lon="6.26785">
        <ele>5.91</ele>
        <time>2017-05-17T07:14:11Z</time>
      </trkpt>
      <trkpt lat="43.12079" lon="6.26788">
        <ele>6.87</ele>
        <time>2017-05-17T07:14:14Z</time>
      </trkpt>
      <trkpt lat="43.12085" lon="6.26793">
        <ele>7.35</ele>
        <time>2017-05-17T07:14:22Z</time>
      </trkpt>
      <trkpt lat="43.12087" lon="6.26797">
        <ele>6.39</ele>
        <time>2017-05-17T07:14:25Z</time>
      </trkpt>
      <trkpt lat="43.1209" lon="6.26801">
        <ele>4.94</ele>
        <time>2017-05-17T07:14:30Z</time>
      </trkpt>
      <trkpt lat="43.12094" lon="6.26807">
        <ele>3.98</ele>
        <time>2017-05-17T07:14:35Z</time>
      </trkpt>
      <trkpt lat="43.12094" lon="6.2681">
        <ele>3.02</ele>
        <time>2017-05-17T07:14:37Z</time>
      </trkpt>
      <trkpt lat="43.12096" lon="6.26818">
        <ele>3.02</ele>
        <time>2017-05-17T07:14:51Z</time>
      </trkpt>
      <trkpt lat="43.12097" lon="6.2682">
        <ele>3.02</ele>
        <time>2017-05-17T07:15:12Z</time>
      </trkpt>
      <trkpt lat="43.121" lon="6.26821">
        <ele>3.02</ele>
        <time>2017-05-17T07:15:25Z</time>
      </trkpt>
      <trkpt lat="43.12108" lon="6.26829">
        <ele>2.06</ele>
        <time>2017-05-17T07:15:34Z</time>
      </trkpt>
      <trkpt lat="43.12114" lon="6.26844">
        <ele>1.1</ele>
        <time>2017-05-17T07:15:44Z</time>
      </trkpt>
      <trkpt lat="43.12114" lon="6.26852">
        <ele>0.62</ele>
        <time>2017-05-17T07:15:50Z</time>
      </trkpt>
      <trkpt lat="43.12119" lon="6.26869">
        <ele>-0.82</ele>
        <time>2017-05-17T07:16:01Z</time>
      </trkpt>
      <trkpt lat="43.12119" lon="6.2687">
        <ele>-0.82</ele>
        <time>2017-05-17T07:16:03Z</time>
      </trkpt>
      <trkpt lat="43.12113" lon="6.26881">
        <ele>-2.75</ele>
        <time>2017-05-17T07:16:11Z</time>
      </trkpt>
      <trkpt lat="43.12111" lon="6.2689">
        <ele>-2.75</ele>
        <time>2017-05-17T07:16:15Z</time>
      </trkpt>
      <trkpt lat="43.12113" lon="6.26912">
        <ele>-3.23</ele>
        <time>2017-05-17T07:16:27Z</time>
      </trkpt>
      <trkpt lat="43.12116" lon="6.26934">
        <ele>-2.75</ele>
        <time>2017-05-17T07:16:38Z</time>
      </trkpt>
      <trkpt lat="43.12118" lon="6.26954">
        <ele>-2.75</ele>
        <time>2017-05-17T07:16:49Z</time>
      </trkpt>
      <trkpt lat="43.12119" lon="6.26974">
        <ele>-2.75</ele>
        <time>2017-05-17T07:17:00Z</time>
      </trkpt>
      <trkpt lat="43.12122" lon="6.27004">
        <ele>-3.23</ele>
        <time>2017-05-17T07:17:12Z</time>
      </trkpt>
      <trkpt lat="43.12124" lon="6.27041">
        <ele>-3.23</ele>
        <time>2017-05-17T07:17:29Z</time>
      </trkpt>
      <trkpt lat="43.12122" lon="6.27065">
        <ele>-2.75</ele>
        <time>2017-05-17T07:17:42Z</time>
      </trkpt>
      <trkpt lat="43.12121" lon="6.27089">
        <ele>-3.71</ele>
        <time>2017-05-17T07:17:55Z</time>
      </trkpt>
      <trkpt lat="43.12118" lon="6.27123">
        <ele>-2.75</ele>
        <time>2017-05-17T07:18:08Z</time>
      </trkpt>
      <trkpt lat="43.12115" lon="6.27152">
        <ele>-2.75</ele>
        <time>2017-05-17T07:18:23Z</time>
      </trkpt>
      <trkpt lat="43.12116" lon="6.27183">
        <ele>-3.71</ele>
        <time>2017-05-17T07:18:36Z</time>
      </trkpt>
      <trkpt lat="43.12118" lon="6.27214">
        <ele>-3.23</ele>
        <time>2017-05-17T07:18:51Z</time>
      </trkpt>
      <trkpt lat="43.12118" lon="6.27227">
        <ele>-3.71</ele>
        <time>2017-05-17T07:18:58Z</time>
      </trkpt>
      <trkpt lat="43.1212" lon="6.27244">
        <ele>-2.27</ele>
        <time>2017-05-17T07:19:08Z</time>
      </trkpt>
      <trkpt lat="43.12123" lon="6.2725">
        <ele>-2.75</ele>
        <time>2017-05-17T07:19:17Z</time>
      </trkpt>
      <trkpt lat="43.1212" lon="6.2726">
        <ele>-3.23</ele>
        <time>2017-05-17T07:19:24Z</time>
      </trkpt>
      <trkpt lat="43.12121" lon="6.27277">
        <ele>-3.23</ele>
        <time>2017-05-17T07:19:33Z</time>
      </trkpt>
      <trkpt lat="43.12121" lon="6.27302">
        <ele>-2.75</ele>
        <time>2017-05-17T07:19:46Z</time>
      </trkpt>
      <trkpt lat="43.12119" lon="6.27321">
        <ele>-2.75</ele>
        <time>2017-05-17T07:19:58Z</time>
      </trkpt>
      <trkpt lat="43.12118" lon="6.27334">
        <ele>-2.75</ele>
        <time>2017-05-17T07:20:05Z</time>
      </trkpt>
      <trkpt lat="43.12118" lon="6.27358">
        <ele>-2.75</ele>
        <time>2017-05-17T07:20:18Z</time>
      </trkpt>
      <trkpt lat="43.12118" lon="6.27375">
        <ele>-1.79</ele>
        <time>2017-05-17T07:20:28Z</time>
      </trkpt>
      <trkpt lat="43.12118" lon="6.27382">
        <ele>-2.75</ele>
        <time>2017-05-17T07:20:32Z</time>
      </trkpt>
      <trkpt lat="43.12118" lon="6.27399">
        <ele>-2.27</ele>
        <time>2017-05-17T07:20:41Z</time>
      </trkpt>
      <trkpt lat="43.12116" lon="6.27417">
        <ele>-2.75</ele>
        <time>2017-05-17T07:20:52Z</time>
      </trkpt>
      <trkpt lat="43.12113" lon="6.2743">
        <ele>-3.23</ele>
        <time>2017-05-17T07:21:00Z</time>
      </trkpt>
      <trkpt lat="43.12113" lon="6.27438">
        <ele>-2.75</ele>
        <time>2017-05-17T07:21:12Z</time>
      </trkpt>
      <trkpt lat="43.12114" lon="6.2744">
        <ele>-2.75</ele>
        <time>2017-05-17T07:21:17Z</time>
      </trkpt>
      <trkpt lat="43.12113" lon="6.27442">
        <ele>-2.27</ele>
        <time>2017-05-17T07:21:20Z</time>
      </trkpt>
      <trkpt lat="43.12106" lon="6.2746">
        <ele>-2.27</ele>
        <time>2017-05-17T07:21:31Z</time>
      </trkpt>
      <trkpt lat="43.12105" lon="6.27475">
        <ele>-2.27</ele>
        <time>2017-05-17T07:21:41Z</time>
      </trkpt>
      <trkpt lat="43.12103" lon="6.27493">
        <ele>-2.27</ele>
        <time>2017-05-17T07:21:52Z</time>
      </trkpt>
      <trkpt lat="43.12102" lon="6.27503">
        <ele>-2.75</ele>
        <time>2017-05-17T07:22:00Z</time>
      </trkpt>
      <trkpt lat="43.12102" lon="6.27516">
        <ele>-2.75</ele>
        <time>2017-05-17T07:22:11Z</time>
      </trkpt>
      <trkpt lat="43.12103" lon="6.27518">
        <ele>-2.75</ele>
        <time>2017-05-17T07:22:16Z</time>
      </trkpt>
      <trkpt lat="43.12101" lon="6.27521">
        <ele>-2.27</ele>
        <time>2017-05-17T07:22:19Z</time>
      </trkpt>
      <trkpt lat="43.121" lon="6.27527">
        <ele>-2.75</ele>
        <time>2017-05-17T07:22:25Z</time>
      </trkpt>
      <trkpt lat="43.12097" lon="6.27542">
        <ele>-3.23</ele>
        <time>2017-05-17T07:22:36Z</time>
      </trkpt>
      <trkpt lat="43.12096" lon="6.27548">
        <ele>-2.27</ele>
        <time>2017-05-17T07:22:41Z</time>
      </trkpt>
      <trkpt lat="43.12095" lon="6.27551">
        <ele>-2.75</ele>
        <time>2017-05-17T07:22:43Z</time>
      </trkpt>
      <trkpt lat="43.12094" lon="6.27555">
        <ele>-2.75</ele>
        <time>2017-05-17T07:22:46Z</time>
      </trkpt>
      <trkpt lat="43.12091" lon="6.2757">
        <ele>-3.23</ele>
        <time>2017-05-17T07:22:57Z</time>
      </trkpt>
      <trkpt lat="43.12086" lon="6.27587">
        <ele>-2.75</ele>
        <time>2017-05-17T07:23:08Z</time>
      </trkpt>
      <trkpt lat="43.12081" lon="6.27604">
        <ele>-1.79</ele>
        <time>2017-05-17T07:23:19Z</time>
      </trkpt>
      <trkpt lat="43.12074" lon="6.27621">
        <ele>-1.79</ele>
        <time>2017-05-17T07:23:30Z</time>
      </trkpt>
      <trkpt lat="43.12068" lon="6.27636">
        <ele>-2.27</ele>
        <time>2017-05-17T07:23:41Z</time>
      </trkpt>
      <trkpt lat="43.12067" lon="6.27638">
        <ele>-1.79</ele>
        <time>2017-05-17T07:23:43Z</time>
      </trkpt>
      <trkpt lat="43.12059" lon="6.27653">
        <ele>-2.75</ele>
        <time>2017-05-17T07:23:55Z</time>
      </trkpt>
      <trkpt lat="43.12051" lon="6.27667">
        <ele>-1.79</ele>
        <time>2017-05-17T07:24:05Z</time>
      </trkpt>
      <trkpt lat="43.12048" lon="6.2767">
        <ele>-2.75</ele>
        <time>2017-05-17T07:24:08Z</time>
      </trkpt>
      <trkpt lat="43.12039" lon="6.27683">
        <ele>-1.79</ele>
        <time>2017-05-17T07:24:19Z</time>
      </trkpt>
      <trkpt lat="43.12034" lon="6.2769">
        <ele>-2.27</ele>
        <time>2017-05-17T07:24:26Z</time>
      </trkpt>
      <trkpt lat="43.12028" lon="6.27697">
        <ele>-2.27</ele>
        <time>2017-05-17T07:24:32Z</time>
      </trkpt>
      <trkpt lat="43.12018" lon="6.2771">
        <ele>-1.79</ele>
        <time>2017-05-17T07:24:44Z</time>
      </trkpt>
      <trkpt lat="43.12017" lon="6.27712">
        <ele>-2.75</ele>
        <time>2017-05-17T07:24:46Z</time>
      </trkpt>
      <trkpt lat="43.12009" lon="6.27722">
        <ele>-2.27</ele>
        <time>2017-05-17T07:24:55Z</time>
      </trkpt>
      <trkpt lat="43.12006" lon="6.27729">
        <ele>-2.27</ele>
        <time>2017-05-17T07:25:05Z</time>
      </trkpt>
      <trkpt lat="43.11997" lon="6.27736">
        <ele>-2.75</ele>
        <time>2017-05-17T07:25:14Z</time>
      </trkpt>
      <trkpt lat="43.11989" lon="6.27746">
        <ele>-2.27</ele>
        <time>2017-05-17T07:25:25Z</time>
      </trkpt>
      <trkpt lat="43.11979" lon="6.27756">
        <ele>-1.79</ele>
        <time>2017-05-17T07:25:36Z</time>
      </trkpt>
      <trkpt lat="43.11968" lon="6.27766">
        <ele>-1.79</ele>
        <time>2017-05-17T07:25:47Z</time>
      </trkpt>
      <trkpt lat="43.11958" lon="6.27775">
        <ele>-1.3</ele>
        <time>2017-05-17T07:25:57Z</time>
      </trkpt>
      <trkpt lat="43.11951" lon="6.27779">
        <ele>-2.75</ele>
        <time>2017-05-17T07:26:04Z</time>
      </trkpt>
      <trkpt lat="43.11947" lon="6.27782">
        <ele>-2.27</ele>
        <time>2017-05-17T07:26:08Z</time>
      </trkpt>
      <trkpt lat="43.1194" lon="6.27794">
        <ele>-0.82</ele>
        <time>2017-05-17T07:26:18Z</time>
      </trkpt>
      <trkpt lat="43.11935" lon="6.27796">
        <ele>-0.34</ele>
        <time>2017-05-17T07:26:25Z</time>
      </trkpt>
      <trkpt lat="43.1193" lon="6.27798">
        <ele>-1.3</ele>
        <time>2017-05-17T07:26:32Z</time>
      </trkpt>
      <trkpt lat="43.11925" lon="6.27797">
        <ele>1.1</ele>
        <time>2017-05-17T07:26:39Z</time>
      </trkpt>
      <trkpt lat="43.11919" lon="6.27791">
        <ele>2.06</ele>
        <time>2017-05-17T07:26:49Z</time>
      </trkpt>
      <trkpt lat="43.11911" lon="6.27785">
        <ele>3.02</ele>
        <time>2017-05-17T07:27:01Z</time>
      </trkpt>
      <trkpt lat="43.11909" lon="6.27786">
        <ele>2.54</ele>
        <time>2017-05-17T07:27:04Z</time>
      </trkpt>
      <trkpt lat="43.11903" lon="6.27787">
        <ele>3.5</ele>
        <time>2017-05-17T07:27:09Z</time>
      </trkpt>
      <trkpt lat="43.11895" lon="6.27786">
        <ele>3.02</ele>
        <time>2017-05-17T07:27:19Z</time>
      </trkpt>
      <trkpt lat="43.11885" lon="6.27785">
        <ele>4.94</ele>
        <time>2017-05-17T07:27:29Z</time>
      </trkpt>
      <trkpt lat="43.11874" lon="6.27782">
        <ele>3.98</ele>
        <time>2017-05-17T07:27:40Z</time>
      </trkpt>
      <trkpt lat="43.11863" lon="6.2778">
        <ele>4.94</ele>
        <time>2017-05-17T07:27:51Z</time>
      </trkpt>
      <trkpt lat="43.11861" lon="6.2778">
        <ele>4.46</ele>
        <time>2017-05-17T07:27:53Z</time>
      </trkpt>
      <trkpt lat="43.1185" lon="6.27779">
        <ele>4.94</ele>
        <time>2017-05-17T07:28:04Z</time>
      </trkpt>
      <trkpt lat="43.11845" lon="6.27778">
        <ele>4.94</ele>
        <time>2017-05-17T07:28:09Z</time>
      </trkpt>
      <trkpt lat="43.11845" lon="6.27775">
        <ele>4.94</ele>
        <time>2017-05-17T07:28:13Z</time>
      </trkpt>
      <trkpt lat="43.11845" lon="6.27771">
        <ele>4.46</ele>
        <time>2017-05-17T07:28:17Z</time>
      </trkpt>
      <trkpt lat="43.11845" lon="6.27758">
        <ele>2.54</ele>
        <time>2017-05-17T07:28:29Z</time>
      </trkpt>
      <trkpt lat="43.11844" lon="6.27753">
        <ele>2.06</ele>
        <time>2017-05-17T07:28:33Z</time>
      </trkpt>
      <trkpt lat="43.11842" lon="6.27751">
        <ele>2.06</ele>
        <time>2017-05-17T07:28:35Z</time>
      </trkpt>
      <trkpt lat="43.1184" lon="6.27748">
        <ele>2.54</ele>
        <time>2017-05-17T07:28:39Z</time>
      </trkpt>
      <trkpt lat="43.11838" lon="6.27747">
        <ele>2.54</ele>
        <time>2017-05-17T07:28:41Z</time>
      </trkpt>
      <trkpt lat="43.11835" lon="6.27747">
        <ele>2.54</ele>
        <time>2017-05-17T07:28:56Z</time>
      </trkpt>
      <trkpt lat="43.11834" lon="6.27749">
        <ele>2.54</ele>
        <time>2017-05-17T07:29:21Z</time>
      </trkpt>
      <trkpt lat="43.11833" lon="6.27749">
        <ele>2.54</ele>
        <time>2017-05-17T07:30:01Z</time>
      </trkpt>
      <trkpt lat="43.11832" lon="6.27751">
        <ele>3.02</ele>
        <time>2017-05-17T07:30:16Z</time>
      </trkpt>
      <trkpt lat="43.1183" lon="6.27753">
        <ele>3.02</ele>
        <time>2017-05-17T07:30:34Z</time>
      </trkpt>
      <trkpt lat="43.1183" lon="6.27754">
        <ele>3.02</ele>
        <time>2017-05-17T07:30:36Z</time>
      </trkpt>
      <trkpt lat="43.11826" lon="6.27759">
        <ele>4.46</ele>
        <time>2017-05-17T07:30:49Z</time>
      </trkpt>
      <trkpt lat="43.11825" lon="6.2776">
        <ele>1.58</ele>
        <time>2017-05-17T07:30:52Z</time>
      </trkpt>
      <trkpt lat="43.11825" lon="6.2776">
        <ele>6.39</ele>
        <time>2017-05-17T07:30:53Z</time>
      </trkpt>
      <trkpt lat="43.11824" lon="6.27761">
        <ele>4.46</ele>
        <time>2017-05-17T07:30:54Z</time>
      </trkpt>
      <trkpt lat="43.11825" lon="6.27762">
        <ele>3.98</ele>
        <time>2017-05-17T07:30:55Z</time>
      </trkpt>
      <trkpt lat="43.11828" lon="6.27767">
        <ele>4.94</ele>
        <time>2017-05-17T07:31:05Z</time>
      </trkpt>
      <trkpt lat="43.11829" lon="6.27775">
        <ele>5.91</ele>
        <time>2017-05-17T07:31:15Z</time>
      </trkpt>
      <trkpt lat="43.11827" lon="6.27779">
        <ele>5.91</ele>
        <time>2017-05-17T07:31:19Z</time>
      </trkpt>
      <trkpt lat="43.11825" lon="6.27783">
        <ele>5.91</ele>
        <time>2017-05-17T07:31:22Z</time>
      </trkpt>
      <trkpt lat="43.11819" lon="6.27792">
        <ele>5.91</ele>
        <time>2017-05-17T07:31:33Z</time>
      </trkpt>
      <trkpt lat="43.1182" lon="6.27795">
        <ele>5.91</ele>
        <time>2017-05-17T07:31:38Z</time>
      </trkpt>
      <trkpt lat="43.11824" lon="6.27802">
        <ele>5.42</ele>
        <time>2017-05-17T07:31:44Z</time>
      </trkpt>
      <trkpt lat="43.11825" lon="6.27811">
        <ele>4.94</ele>
        <time>2017-05-17T07:31:55Z</time>
      </trkpt>
      <trkpt lat="43.11825" lon="6.27812">
        <ele>4.94</ele>
        <time>2017-05-17T07:32:10Z</time>
      </trkpt>
      <trkpt lat="43.11827" lon="6.27815">
        <ele>3.98</ele>
        <time>2017-05-17T07:32:27Z</time>
      </trkpt>
      <trkpt lat="43.11825" lon="6.27821">
        <ele>2.54</ele>
        <time>2017-05-17T07:32:38Z</time>
      </trkpt>
      <trkpt lat="43.11825" lon="6.27823">
        <ele>2.54</ele>
        <time>2017-05-17T07:32:54Z</time>
      </trkpt>
      <trkpt lat="43.11825" lon="6.27827">
        <ele>1.58</ele>
        <time>2017-05-17T07:33:11Z</time>
      </trkpt>
      <trkpt lat="43.11823" lon="6.27829">
        <ele>1.1</ele>
        <time>2017-05-17T07:33:21Z</time>
      </trkpt>
      <trkpt lat="43.11822" lon="6.27831">
        <ele>-0.34</ele>
        <time>2017-05-17T07:33:25Z</time>
      </trkpt>
      <trkpt lat="43.11819" lon="6.27839">
        <ele>-1.3</ele>
        <time>2017-05-17T07:33:30Z</time>
      </trkpt>
      <trkpt lat="43.11817" lon="6.27849">
        <ele>-0.82</ele>
        <time>2017-05-17T07:33:39Z</time>
      </trkpt>
      <trkpt lat="43.11814" lon="6.27854">
        <ele>-1.3</ele>
        <time>2017-05-17T07:33:48Z</time>
      </trkpt>
      <trkpt lat="43.11814" lon="6.27857">
        <ele>-0.82</ele>
        <time>2017-05-17T07:34:12Z</time>
      </trkpt>
      <trkpt lat="43.11812" lon="6.27861">
        <ele>-0.82</ele>
        <time>2017-05-17T07:34:24Z</time>
      </trkpt>
      <trkpt lat="43.11809" lon="6.27867">
        <ele>-0.82</ele>
        <time>2017-05-17T07:34:35Z</time>
      </trkpt>
      <trkpt lat="43.11808" lon="6.27872">
        <ele>-1.3</ele>
        <time>2017-05-17T07:34:40Z</time>
      </trkpt>
      <trkpt lat="43.11805" lon="6.27876">
        <ele>-0.34</ele>
        <time>2017-05-17T07:34:46Z</time>
      </trkpt>
      <trkpt lat="43.11801" lon="6.27882">
        <ele>-0.82</ele>
        <time>2017-05-17T07:34:54Z</time>
      </trkpt>
      <trkpt lat="43.118" lon="6.27884">
        <ele>-1.3</ele>
        <time>2017-05-17T07:34:57Z</time>
      </trkpt>
      <trkpt lat="43.11796" lon="6.27888">
        <ele>-1.79</ele>
        <time>2017-05-17T07:35:01Z</time>
      </trkpt>
      <trkpt lat="43.11793" lon="6.27894">
        <ele>-1.79</ele>
        <time>2017-05-17T07:35:07Z</time>
      </trkpt>
      <trkpt lat="43.11787" lon="6.27901">
        <ele>-0.34</ele>
        <time>2017-05-17T07:35:17Z</time>
      </trkpt>
      <trkpt lat="43.11786" lon="6.27905">
        <ele>-1.3</ele>
        <time>2017-05-17T07:35:20Z</time>
      </trkpt>
      <trkpt lat="43.1178" lon="6.27905">
        <ele>-0.34</ele>
        <time>2017-05-17T07:35:29Z</time>
      </trkpt>
      <trkpt lat="43.11774" lon="6.2791">
        <ele>1.1</ele>
        <time>2017-05-17T07:35:40Z</time>
      </trkpt>
      <trkpt lat="43.11766" lon="6.27901">
        <ele>2.06</ele>
        <time>2017-05-17T07:35:53Z</time>
      </trkpt>
      <trkpt lat="43.11759" lon="6.27898">
        <ele>3.98</ele>
        <time>2017-05-17T07:36:06Z</time>
      </trkpt>
      <trkpt lat="43.11757" lon="6.27897">
        <ele>2.54</ele>
        <time>2017-05-17T07:36:11Z</time>
      </trkpt>
      <trkpt lat="43.11749" lon="6.27892">
        <ele>3.02</ele>
        <time>2017-05-17T07:36:20Z</time>
      </trkpt>
      <trkpt lat="43.11745" lon="6.27883">
        <ele>2.06</ele>
        <time>2017-05-17T07:36:28Z</time>
      </trkpt>
      <trkpt lat="43.11737" lon="6.27879">
        <ele>3.02</ele>
        <time>2017-05-17T07:36:40Z</time>
      </trkpt>
      <trkpt lat="43.11736" lon="6.27878">
        <ele>3.02</ele>
        <time>2017-05-17T07:36:42Z</time>
      </trkpt>
      <trkpt lat="43.11728" lon="6.27876">
        <ele>3.5</ele>
        <time>2017-05-17T07:36:54Z</time>
      </trkpt>
      <trkpt lat="43.11725" lon="6.27873">
        <ele>3.5</ele>
        <time>2017-05-17T07:36:59Z</time>
      </trkpt>
      <trkpt lat="43.11717" lon="6.27873">
        <ele>3.98</ele>
        <time>2017-05-17T07:37:10Z</time>
      </trkpt>
      <trkpt lat="43.11715" lon="6.27875">
        <ele>4.46</ele>
        <time>2017-05-17T07:37:13Z</time>
      </trkpt>
      <trkpt lat="43.11715" lon="6.2788">
        <ele>4.94</ele>
        <time>2017-05-17T07:37:17Z</time>
      </trkpt>
      <trkpt lat="43.11713" lon="6.2789">
        <ele>5.91</ele>
        <time>2017-05-17T07:37:29Z</time>
      </trkpt>
      <trkpt lat="43.11712" lon="6.27895">
        <ele>6.39</ele>
        <time>2017-05-17T07:37:35Z</time>
      </trkpt>
      <trkpt lat="43.11717" lon="6.27903">
        <ele>7.83</ele>
        <time>2017-05-17T07:37:47Z</time>
      </trkpt>
      <trkpt lat="43.11717" lon="6.27904">
        <ele>7.83</ele>
        <time>2017-05-17T07:37:49Z</time>
      </trkpt>
      <trkpt lat="43.11723" lon="6.2791">
        <ele>8.79</ele>
        <time>2017-05-17T07:38:01Z</time>
      </trkpt>
      <trkpt lat="43.11722" lon="6.27914">
        <ele>8.79</ele>
        <time>2017-05-17T07:38:06Z</time>
      </trkpt>
      <trkpt lat="43.11717" lon="6.27921">
        <ele>10.23</ele>
        <time>2017-05-17T07:38:17Z</time>
      </trkpt>
      <trkpt lat="43.11715" lon="6.27924">
        <ele>10.71</ele>
        <time>2017-05-17T07:38:22Z</time>
      </trkpt>
      <trkpt lat="43.11704" lon="6.27932">
        <ele>11.19</ele>
        <time>2017-05-17T07:38:35Z</time>
      </trkpt>
      <trkpt lat="43.11695" lon="6.27939">
        <ele>11.19</ele>
        <time>2017-05-17T07:38:46Z</time>
      </trkpt>
      <trkpt lat="43.11688" lon="6.27944">
        <ele>10.71</ele>
        <time>2017-05-17T07:38:53Z</time>
      </trkpt>
      <trkpt lat="43.11676" lon="6.27952">
        <ele>11.19</ele>
        <time>2017-05-17T07:39:05Z</time>
      </trkpt>
      <trkpt lat="43.11674" lon="6.27955">
        <ele>11.19</ele>
        <time>2017-05-17T07:39:09Z</time>
      </trkpt>
      <trkpt lat="43.11665" lon="6.27966">
        <ele>10.71</ele>
        <time>2017-05-17T07:39:20Z</time>
      </trkpt>
      <trkpt lat="43.1166" lon="6.27982">
        <ele>10.71</ele>
        <time>2017-05-17T07:39:31Z</time>
      </trkpt>
      <trkpt lat="43.1166" lon="6.27988">
        <ele>10.71</ele>
        <time>2017-05-17T07:39:34Z</time>
      </trkpt>
      <trkpt lat="43.11665" lon="6.28005">
        <ele>9.75</ele>
        <time>2017-05-17T07:39:46Z</time>
      </trkpt>
      <trkpt lat="43.11667" lon="6.28008">
        <ele>9.75</ele>
        <time>2017-05-17T07:39:49Z</time>
      </trkpt>
      <trkpt lat="43.11677" lon="6.28016">
        <ele>8.79</ele>
        <time>2017-05-17T07:40:00Z</time>
      </trkpt>
      <trkpt lat="43.11684" lon="6.28019">
        <ele>8.79</ele>
        <time>2017-05-17T07:40:07Z</time>
      </trkpt>
      <trkpt lat="43.11696" lon="6.28026">
        <ele>7.83</ele>
        <time>2017-05-17T07:40:18Z</time>
      </trkpt>
      <trkpt lat="43.11706" lon="6.28031">
        <ele>7.35</ele>
        <time>2017-05-17T07:40:28Z</time>
      </trkpt>
      <trkpt lat="43.1171" lon="6.28036">
        <ele>7.35</ele>
        <time>2017-05-17T07:40:34Z</time>
      </trkpt>
      <trkpt lat="43.11711" lon="6.28053">
        <ele>7.35</ele>
        <time>2017-05-17T07:40:46Z</time>
      </trkpt>
      <trkpt lat="43.1171" lon="6.28056">
        <ele>7.35</ele>
        <time>2017-05-17T07:40:48Z</time>
      </trkpt>
      <trkpt lat="43.11709" lon="6.28071">
        <ele>6.87</ele>
        <time>2017-05-17T07:40:58Z</time>
      </trkpt>
      <trkpt lat="43.11709" lon="6.28077">
        <ele>6.87</ele>
        <time>2017-05-17T07:41:03Z</time>
      </trkpt>
      <trkpt lat="43.11708" lon="6.28085">
        <ele>6.39</ele>
        <time>2017-05-17T07:41:17Z</time>
      </trkpt>
      <trkpt lat="43.11708" lon="6.28086">
        <ele>5.91</ele>
        <time>2017-05-17T07:41:20Z</time>
      </trkpt>
      <trkpt lat="43.11709" lon="6.28089">
        <ele>5.91</ele>
        <time>2017-05-17T07:41:37Z</time>
      </trkpt>
      <trkpt lat="43.1171" lon="6.281">
        <ele>4.94</ele>
        <time>2017-05-17T07:41:51Z</time>
      </trkpt>
      <trkpt lat="43.1171" lon="6.28101">
        <ele>5.42</ele>
        <time>2017-05-17T07:41:52Z</time>
      </trkpt>
      <trkpt lat="43.11709" lon="6.28111">
        <ele>4.94</ele>
        <time>2017-05-17T07:41:58Z</time>
      </trkpt>
      <trkpt lat="43.11711" lon="6.28129">
        <ele>3.98</ele>
        <time>2017-05-17T07:42:09Z</time>
      </trkpt>
      <trkpt lat="43.11715" lon="6.28136">
        <ele>3.5</ele>
        <time>2017-05-17T07:42:14Z</time>
      </trkpt>
      <trkpt lat="43.11727" lon="6.28147">
        <ele>3.02</ele>
        <time>2017-05-17T07:42:25Z</time>
      </trkpt>
      <trkpt lat="43.1173" lon="6.28157">
        <ele>3.02</ele>
        <time>2017-05-17T07:42:34Z</time>
      </trkpt>
      <trkpt lat="43.11728" lon="6.28162">
        <ele>3.02</ele>
        <time>2017-05-17T07:42:38Z</time>
      </trkpt>
      <trkpt lat="43.11724" lon="6.28174">
        <ele>3.5</ele>
        <time>2017-05-17T07:42:46Z</time>
      </trkpt>
      <trkpt lat="43.11725" lon="6.28183">
        <ele>3.5</ele>
        <time>2017-05-17T07:42:51Z</time>
      </trkpt>
      <trkpt lat="43.11728" lon="6.28189">
        <ele>3.5</ele>
        <time>2017-05-17T07:42:56Z</time>
      </trkpt>
      <trkpt lat="43.11728" lon="6.28196">
        <ele>4.46</ele>
        <time>2017-05-17T07:43:01Z</time>
      </trkpt>
      <trkpt lat="43.11727" lon="6.28208">
        <ele>4.46</ele>
        <time>2017-05-17T07:43:08Z</time>
      </trkpt>
      <trkpt lat="43.11727" lon="6.28237">
        <ele>4.46</ele>
        <time>2017-05-17T07:43:26Z</time>
      </trkpt>
      <trkpt lat="43.11727" lon="6.28262">
        <ele>4.94</ele>
        <time>2017-05-17T07:43:45Z</time>
      </trkpt>
      <trkpt lat="43.11727" lon="6.28266">
        <ele>4.94</ele>
        <time>2017-05-17T07:44:04Z</time>
      </trkpt>
      <trkpt lat="43.11729" lon="6.28269">
        <ele>4.46</ele>
        <time>2017-05-17T07:44:22Z</time>
      </trkpt>
      <trkpt lat="43.11721" lon="6.28276">
        <ele>3.98</ele>
        <time>2017-05-17T07:44:42Z</time>
      </trkpt>
      <trkpt lat="43.11717" lon="6.28281">
        <ele>3.02</ele>
        <time>2017-05-17T07:44:50Z</time>
      </trkpt>
      <trkpt lat="43.11708" lon="6.28287">
        <ele>1.58</ele>
        <time>2017-05-17T07:45:02Z</time>
      </trkpt>
      <trkpt lat="43.117" lon="6.28298">
        <ele>2.54</ele>
        <time>2017-05-17T07:45:14Z</time>
      </trkpt>
      <trkpt lat="43.11685" lon="6.28303">
        <ele>3.98</ele>
        <time>2017-05-17T07:45:31Z</time>
      </trkpt>
      <trkpt lat="43.11682" lon="6.28303">
        <ele>3.98</ele>
        <time>2017-05-17T07:45:35Z</time>
      </trkpt>
      <trkpt lat="43.1168" lon="6.283">
        <ele>4.46</ele>
        <time>2017-05-17T07:45:38Z</time>
      </trkpt>
      <trkpt lat="43.11672" lon="6.28287">
        <ele>4.94</ele>
        <time>2017-05-17T07:45:50Z</time>
      </trkpt>
      <trkpt lat="43.11669" lon="6.28284">
        <ele>5.42</ele>
        <time>2017-05-17T07:45:53Z</time>
      </trkpt>
      <trkpt lat="43.11658" lon="6.2828">
        <ele>6.87</ele>
        <time>2017-05-17T07:46:03Z</time>
      </trkpt>
      <trkpt lat="43.11644" lon="6.28284">
        <ele>6.87</ele>
        <time>2017-05-17T07:46:16Z</time>
      </trkpt>
      <trkpt lat="43.11632" lon="6.28291">
        <ele>7.83</ele>
        <time>2017-05-17T07:46:31Z</time>
      </trkpt>
      <trkpt lat="43.1162" lon="6.28296">
        <ele>7.83</ele>
        <time>2017-05-17T07:46:43Z</time>
      </trkpt>
      <trkpt lat="43.11613" lon="6.28297">
        <ele>7.83</ele>
        <time>2017-05-17T07:46:51Z</time>
      </trkpt>
      <trkpt lat="43.11611" lon="6.28299">
        <ele>7.35</ele>
        <time>2017-05-17T07:46:54Z</time>
      </trkpt>
      <trkpt lat="43.11602" lon="6.28303">
        <ele>7.35</ele>
        <time>2017-05-17T07:47:03Z</time>
      </trkpt>
      <trkpt lat="43.1159" lon="6.28304">
        <ele>6.39</ele>
        <time>2017-05-17T07:47:16Z</time>
      </trkpt>
      <trkpt lat="43.11587" lon="6.28304">
        <ele>5.42</ele>
        <time>2017-05-17T07:47:19Z</time>
      </trkpt>
      <trkpt lat="43.11584" lon="6.28304">
        <ele>5.42</ele>
        <time>2017-05-17T07:47:22Z</time>
      </trkpt>
      <trkpt lat="43.11574" lon="6.28309">
        <ele>4.94</ele>
        <time>2017-05-17T07:47:33Z</time>
      </trkpt>
      <trkpt lat="43.11571" lon="6.2832">
        <ele>4.94</ele>
        <time>2017-05-17T07:47:48Z</time>
      </trkpt>
      <trkpt lat="43.11571" lon="6.28321">
        <ele>4.94</ele>
        <time>2017-05-17T07:47:49Z</time>
      </trkpt>
      <trkpt lat="43.11569" lon="6.28336">
        <ele>4.94</ele>
        <time>2017-05-17T07:48:02Z</time>
      </trkpt>
      <trkpt lat="43.11565" lon="6.28348">
        <ele>4.94</ele>
        <time>2017-05-17T07:48:13Z</time>
      </trkpt>
      <trkpt lat="43.11558" lon="6.28365">
        <ele>4.46</ele>
        <time>2017-05-17T07:48:25Z</time>
      </trkpt>
      <trkpt lat="43.11558" lon="6.28368">
        <ele>4.94</ele>
        <time>2017-05-17T07:48:27Z</time>
      </trkpt>
      <trkpt lat="43.11555" lon="6.28375">
        <ele>5.91</ele>
        <time>2017-05-17T07:48:33Z</time>
      </trkpt>
      <trkpt lat="43.11554" lon="6.28384">
        <ele>5.91</ele>
        <time>2017-05-17T07:48:44Z</time>
      </trkpt>
      <trkpt lat="43.11555" lon="6.28385">
        <ele>5.91</ele>
        <time>2017-05-17T07:48:45Z</time>
      </trkpt>
      <trkpt lat="43.11557" lon="6.28398">
        <ele>6.87</ele>
        <time>2017-05-17T07:48:57Z</time>
      </trkpt>
      <trkpt lat="43.11558" lon="6.284">
        <ele>6.87</ele>
        <time>2017-05-17T07:48:59Z</time>
      </trkpt>
      <trkpt lat="43.11562" lon="6.28409">
        <ele>7.83</ele>
        <time>2017-05-17T07:49:07Z</time>
      </trkpt>
      <trkpt lat="43.11566" lon="6.28425">
        <ele>7.83</ele>
        <time>2017-05-17T07:49:18Z</time>
      </trkpt>
      <trkpt lat="43.11571" lon="6.28439">
        <ele>6.87</ele>
        <time>2017-05-17T07:49:30Z</time>
      </trkpt>
      <trkpt lat="43.11574" lon="6.28444">
        <ele>6.39</ele>
        <time>2017-05-17T07:49:42Z</time>
      </trkpt>
      <trkpt lat="43.11574" lon="6.28454">
        <ele>5.42</ele>
        <time>2017-05-17T07:49:56Z</time>
      </trkpt>
      <trkpt lat="43.11575" lon="6.28457">
        <ele>4.94</ele>
        <time>2017-05-17T07:50:13Z</time>
      </trkpt>
      <trkpt lat="43.11576" lon="6.28463">
        <ele>3.98</ele>
        <time>2017-05-17T07:50:25Z</time>
      </trkpt>
      <trkpt lat="43.11576" lon="6.28464">
        <ele>3.5</ele>
        <time>2017-05-17T07:50:27Z</time>
      </trkpt>
      <trkpt lat="43.11577" lon="6.2847">
        <ele>3.02</ele>
        <time>2017-05-17T07:50:32Z</time>
      </trkpt>
      <trkpt lat="43.11578" lon="6.28473">
        <ele>2.54</ele>
        <time>2017-05-17T07:50:38Z</time>
      </trkpt>
      <trkpt lat="43.11576" lon="6.2848">
        <ele>0.62</ele>
        <time>2017-05-17T07:50:46Z</time>
      </trkpt>
      <trkpt lat="43.11574" lon="6.28483">
        <ele>-0.34</ele>
        <time>2017-05-17T07:50:54Z</time>
      </trkpt>
      <trkpt lat="43.11575" lon="6.28483">
        <ele>-0.34</ele>
        <time>2017-05-17T07:51:05Z</time>
      </trkpt>
      <trkpt lat="43.11577" lon="6.28485">
        <ele>-0.34</ele>
        <time>2017-05-17T07:51:25Z</time>
      </trkpt>
      <trkpt lat="43.11578" lon="6.28483">
        <ele>-0.34</ele>
        <time>2017-05-17T07:51:57Z</time>
      </trkpt>
      <trkpt lat="43.11576" lon="6.28488">
        <ele>-0.34</ele>
        <time>2017-05-17T07:52:22Z</time>
      </trkpt>
      <trkpt lat="43.11578" lon="6.28504">
        <ele>-0.82</ele>
        <time>2017-05-17T07:52:32Z</time>
      </trkpt>
      <trkpt lat="43.11579" lon="6.2851">
        <ele>-0.34</ele>
        <time>2017-05-17T07:52:36Z</time>
      </trkpt>
      <trkpt lat="43.11582" lon="6.28528">
        <ele>-0.34</ele>
        <time>2017-05-17T07:52:47Z</time>
      </trkpt>
      <trkpt lat="43.11584" lon="6.28544">
        <ele>-0.82</ele>
        <time>2017-05-17T07:52:57Z</time>
      </trkpt>
      <trkpt lat="43.11584" lon="6.28559">
        <ele>-0.82</ele>
        <time>2017-05-17T07:53:07Z</time>
      </trkpt>
      <trkpt lat="43.11583" lon="6.28576">
        <ele>-0.82</ele>
        <time>2017-05-17T07:53:18Z</time>
      </trkpt>
      <trkpt lat="43.11583" lon="6.28584">
        <ele>-0.82</ele>
        <time>2017-05-17T07:53:23Z</time>
      </trkpt>
      <trkpt lat="43.11582" lon="6.28593">
        <ele>-0.34</ele>
        <time>2017-05-17T07:53:28Z</time>
      </trkpt>
      <trkpt lat="43.11577" lon="6.28614">
        <ele>-0.34</ele>
        <time>2017-05-17T07:53:42Z</time>
      </trkpt>
      <trkpt lat="43.11573" lon="6.28631">
        <ele>-0.82</ele>
        <time>2017-05-17T07:53:53Z</time>
      </trkpt>
      <trkpt lat="43.11568" lon="6.28646">
        <ele>-0.82</ele>
        <time>2017-05-17T07:54:03Z</time>
      </trkpt>
      <trkpt lat="43.11562" lon="6.2866">
        <ele>-0.82</ele>
        <time>2017-05-17T07:54:13Z</time>
      </trkpt>
      <trkpt lat="43.11556" lon="6.28676">
        <ele>-0.82</ele>
        <time>2017-05-17T07:54:24Z</time>
      </trkpt>
      <trkpt lat="43.11548" lon="6.28691">
        <ele>-0.82</ele>
        <time>2017-05-17T07:54:35Z</time>
      </trkpt>
      <trkpt lat="43.11541" lon="6.28705">
        <ele>-1.3</ele>
        <time>2017-05-17T07:54:46Z</time>
      </trkpt>
      <trkpt lat="43.11533" lon="6.28718">
        <ele>-0.34</ele>
        <time>2017-05-17T07:54:56Z</time>
      </trkpt>
      <trkpt lat="43.11526" lon="6.28729">
        <ele>-0.82</ele>
        <time>2017-05-17T07:55:06Z</time>
      </trkpt>
      <trkpt lat="43.11518" lon="6.28739">
        <ele>-0.82</ele>
        <time>2017-05-17T07:55:16Z</time>
      </trkpt>
      <trkpt lat="43.1151" lon="6.2875">
        <ele>-0.82</ele>
        <time>2017-05-17T07:55:26Z</time>
      </trkpt>
      <trkpt lat="43.11508" lon="6.28753">
        <ele>-0.82</ele>
        <time>2017-05-17T07:55:31Z</time>
      </trkpt>
      <trkpt lat="43.11498" lon="6.28765">
        <ele>-0.34</ele>
        <time>2017-05-17T07:55:43Z</time>
      </trkpt>
      <trkpt lat="43.11493" lon="6.28771">
        <ele>-0.82</ele>
        <time>2017-05-17T07:55:48Z</time>
      </trkpt>
      <trkpt lat="43.11484" lon="6.28783">
        <ele>-0.34</ele>
        <time>2017-05-17T07:55:59Z</time>
      </trkpt>
      <trkpt lat="43.11482" lon="6.28786">
        <ele>-0.34</ele>
        <time>2017-05-17T07:56:02Z</time>
      </trkpt>
      <trkpt lat="43.11473" lon="6.28797">
        <ele>-0.82</ele>
        <time>2017-05-17T07:56:13Z</time>
      </trkpt>
      <trkpt lat="43.11472" lon="6.28799">
        <ele>-0.82</ele>
        <time>2017-05-17T07:56:15Z</time>
      </trkpt>
      <trkpt lat="43.1146" lon="6.28809">
        <ele>-0.82</ele>
        <time>2017-05-17T07:56:27Z</time>
      </trkpt>
      <trkpt lat="43.11451" lon="6.28818">
        <ele>-0.34</ele>
        <time>2017-05-17T07:56:37Z</time>
      </trkpt>
      <trkpt lat="43.11442" lon="6.28827">
        <ele>-0.34</ele>
        <time>2017-05-17T07:56:47Z</time>
      </trkpt>
      <trkpt lat="43.11432" lon="6.28836">
        <ele>0.14</ele>
        <time>2017-05-17T07:56:57Z</time>
      </trkpt>
      <trkpt lat="43.11421" lon="6.28844">
        <ele>0.14</ele>
        <time>2017-05-17T07:57:08Z</time>
      </trkpt>
      <trkpt lat="43.11416" lon="6.28847">
        <ele>0.14</ele>
        <time>2017-05-17T07:57:13Z</time>
      </trkpt>
      <trkpt lat="43.11412" lon="6.2885">
        <ele>0.14</ele>
        <time>2017-05-17T07:57:18Z</time>
      </trkpt>
      <trkpt lat="43.11402" lon="6.28855">
        <ele>0.14</ele>
        <time>2017-05-17T07:57:27Z</time>
      </trkpt>
      <trkpt lat="43.114" lon="6.28856">
        <ele>0.14</ele>
        <time>2017-05-17T07:57:29Z</time>
      </trkpt>
      <trkpt lat="43.1139" lon="6.28865">
        <ele>0.62</ele>
        <time>2017-05-17T07:57:40Z</time>
      </trkpt>
      <trkpt lat="43.11378" lon="6.28877">
        <ele>0.62</ele>
        <time>2017-05-17T07:57:52Z</time>
      </trkpt>
      <trkpt lat="43.11375" lon="6.2888">
        <ele>1.1</ele>
        <time>2017-05-17T07:57:56Z</time>
      </trkpt>
      <trkpt lat="43.11374" lon="6.28883">
        <ele>1.1</ele>
        <time>2017-05-17T07:58:10Z</time>
      </trkpt>
      <trkpt lat="43.11369" lon="6.28881">
        <ele>0.62</ele>
        <time>2017-05-17T07:58:22Z</time>
      </trkpt>
      <trkpt lat="43.11369" lon="6.28881">
        <ele>0.62</ele>
        <time>2017-05-17T07:58:42Z</time>
      </trkpt>
      <trkpt lat="43.1137" lon="6.2888">
        <ele>0.62</ele>
        <time>2017-05-17T07:59:15Z</time>
      </trkpt>
      <trkpt lat="43.1137" lon="6.28881">
        <ele>1.1</ele>
        <time>2017-05-17T07:59:46Z</time>
      </trkpt>
      <trkpt lat="43.11371" lon="6.28879">
        <ele>1.1</ele>
        <time>2017-05-17T08:00:17Z</time>
      </trkpt>
      <trkpt lat="43.1137" lon="6.2888">
        <ele>1.1</ele>
        <time>2017-05-17T08:00:52Z</time>
      </trkpt>
      <trkpt lat="43.11364" lon="6.28877">
        <ele>1.1</ele>
        <time>2017-05-17T08:01:06Z</time>
      </trkpt>
      <trkpt lat="43.11364" lon="6.28878">
        <ele>1.58</ele>
        <time>2017-05-17T08:01:24Z</time>
      </trkpt>
      <trkpt lat="43.11355" lon="6.28878">
        <ele>1.1</ele>
        <time>2017-05-17T08:01:32Z</time>
      </trkpt>
      <trkpt lat="43.11342" lon="6.28879">
        <ele>1.1</ele>
        <time>2017-05-17T08:01:46Z</time>
      </trkpt>
      <trkpt lat="43.11333" lon="6.28876">
        <ele>1.1</ele>
        <time>2017-05-17T08:01:55Z</time>
      </trkpt>
      <trkpt lat="43.11332" lon="6.28875">
        <ele>1.1</ele>
        <time>2017-05-17T08:01:58Z</time>
      </trkpt>
      <trkpt lat="43.11328" lon="6.28867">
        <ele>2.06</ele>
        <time>2017-05-17T08:02:09Z</time>
      </trkpt>
      <trkpt lat="43.11327" lon="6.28865">
        <ele>1.58</ele>
        <time>2017-05-17T08:02:13Z</time>
      </trkpt>
      <trkpt lat="43.11325" lon="6.28865">
        <ele>1.58</ele>
        <time>2017-05-17T08:02:15Z</time>
      </trkpt>
      <trkpt lat="43.11323" lon="6.28864">
        <ele>1.1</ele>
        <time>2017-05-17T08:02:20Z</time>
      </trkpt>
      <trkpt lat="43.11321" lon="6.28859">
        <ele>1.58</ele>
        <time>2017-05-17T08:02:25Z</time>
      </trkpt>
      <trkpt lat="43.11318" lon="6.28859">
        <ele>2.06</ele>
        <time>2017-05-17T08:02:28Z</time>
      </trkpt>
      <trkpt lat="43.1131" lon="6.28857">
        <ele>1.58</ele>
        <time>2017-05-17T08:02:38Z</time>
      </trkpt>
      <trkpt lat="43.11305" lon="6.28857">
        <ele>2.06</ele>
        <time>2017-05-17T08:02:48Z</time>
      </trkpt>
      <trkpt lat="43.11299" lon="6.28864">
        <ele>2.54</ele>
        <time>2017-05-17T08:02:58Z</time>
      </trkpt>
      <trkpt lat="43.11296" lon="6.28865">
        <ele>0.62</ele>
        <time>2017-05-17T08:03:02Z</time>
      </trkpt>
      <trkpt lat="43.11291" lon="6.28867">
        <ele>3.02</ele>
        <time>2017-05-17T08:03:06Z</time>
      </trkpt>
      <trkpt lat="43.11288" lon="6.28866">
        <ele>2.54</ele>
        <time>2017-05-17T08:03:09Z</time>
      </trkpt>
      <trkpt lat="43.11284" lon="6.28864">
        <ele>2.54</ele>
        <time>2017-05-17T08:03:13Z</time>
      </trkpt>
      <trkpt lat="43.11281" lon="6.28865">
        <ele>3.02</ele>
        <time>2017-05-17T08:03:16Z</time>
      </trkpt>
      <trkpt lat="43.11276" lon="6.28866">
        <ele>2.54</ele>
        <time>2017-05-17T08:03:21Z</time>
      </trkpt>
      <trkpt lat="43.11274" lon="6.28868">
        <ele>3.02</ele>
        <time>2017-05-17T08:03:23Z</time>
      </trkpt>
      <trkpt lat="43.1127" lon="6.28868">
        <ele>3.02</ele>
        <time>2017-05-17T08:03:27Z</time>
      </trkpt>
      <trkpt lat="43.11263" lon="6.2887">
        <ele>3.02</ele>
        <time>2017-05-17T08:03:38Z</time>
      </trkpt>
      <trkpt lat="43.11262" lon="6.28869">
        <ele>2.06</ele>
        <time>2017-05-17T08:03:41Z</time>
      </trkpt>
      <trkpt lat="43.11258" lon="6.28865">
        <ele>2.06</ele>
        <time>2017-05-17T08:03:46Z</time>
      </trkpt>
      <trkpt lat="43.11246" lon="6.28863">
        <ele>1.58</ele>
        <time>2017-05-17T08:03:56Z</time>
      </trkpt>
      <trkpt lat="43.11242" lon="6.28863">
        <ele>2.54</ele>
        <time>2017-05-17T08:04:00Z</time>
      </trkpt>
      <trkpt lat="43.11236" lon="6.28861">
        <ele>1.58</ele>
        <time>2017-05-17T08:04:05Z</time>
      </trkpt>
      <trkpt lat="43.11226" lon="6.28853">
        <ele>1.58</ele>
        <time>2017-05-17T08:04:16Z</time>
      </trkpt>
      <trkpt lat="43.11226" lon="6.28855">
        <ele>1.58</ele>
        <time>2017-05-17T08:04:37Z</time>
      </trkpt>
      <trkpt lat="43.11225" lon="6.28855">
        <ele>1.58</ele>
        <time>2017-05-17T08:04:54Z</time>
      </trkpt>
      <trkpt lat="43.11215" lon="6.28847">
        <ele>1.58</ele>
        <time>2017-05-17T08:05:05Z</time>
      </trkpt>
      <trkpt lat="43.11214" lon="6.28847">
        <ele>1.58</ele>
        <time>2017-05-17T08:05:06Z</time>
      </trkpt>
      <trkpt lat="43.112" lon="6.28836">
        <ele>1.58</ele>
        <time>2017-05-17T08:05:19Z</time>
      </trkpt>
      <trkpt lat="43.11191" lon="6.28828">
        <ele>1.58</ele>
        <time>2017-05-17T08:05:30Z</time>
      </trkpt>
      <trkpt lat="43.11185" lon="6.28823">
        <ele>1.58</ele>
        <time>2017-05-17T08:05:39Z</time>
      </trkpt>
      <trkpt lat="43.1118" lon="6.28817">
        <ele>1.1</ele>
        <time>2017-05-17T08:05:53Z</time>
      </trkpt>
      <trkpt lat="43.11178" lon="6.28814">
        <ele>1.58</ele>
        <time>2017-05-17T08:06:14Z</time>
      </trkpt>
      <trkpt lat="43.11176" lon="6.28814">
        <ele>1.58</ele>
        <time>2017-05-17T08:06:29Z</time>
      </trkpt>
      <trkpt lat="43.11172" lon="6.28812">
        <ele>2.54</ele>
        <time>2017-05-17T08:06:43Z</time>
      </trkpt>
      <trkpt lat="43.11168" lon="6.28799">
        <ele>3.98</ele>
        <time>2017-05-17T08:06:57Z</time>
      </trkpt>
      <trkpt lat="43.11163" lon="6.28791">
        <ele>5.91</ele>
        <time>2017-05-17T08:07:11Z</time>
      </trkpt>
      <trkpt lat="43.11163" lon="6.28784">
        <ele>7.35</ele>
        <time>2017-05-17T08:07:24Z</time>
      </trkpt>
      <trkpt lat="43.11164" lon="6.2878">
        <ele>7.83</ele>
        <time>2017-05-17T08:07:29Z</time>
      </trkpt>
      <trkpt lat="43.11166" lon="6.28778">
        <ele>7.83</ele>
        <time>2017-05-17T08:07:32Z</time>
      </trkpt>
      <trkpt lat="43.11169" lon="6.28765">
        <ele>9.27</ele>
        <time>2017-05-17T08:07:44Z</time>
      </trkpt>
      <trkpt lat="43.11168" lon="6.28755">
        <ele>11.19</ele>
        <time>2017-05-17T08:07:55Z</time>
      </trkpt>
      <trkpt lat="43.11166" lon="6.28746">
        <ele>12.63</ele>
        <time>2017-05-17T08:08:07Z</time>
      </trkpt>
      <trkpt lat="43.11162" lon="6.28737">
        <ele>14.56</ele>
        <time>2017-05-17T08:08:18Z</time>
      </trkpt>
      <trkpt lat="43.1116" lon="6.28732">
        <ele>16</ele>
        <time>2017-05-17T08:08:27Z</time>
      </trkpt>
      <trkpt lat="43.11159" lon="6.2873">
        <ele>16.48</ele>
        <time>2017-05-17T08:08:29Z</time>
      </trkpt>
      <trkpt lat="43.11156" lon="6.28726">
        <ele>16.48</ele>
        <time>2017-05-17T08:08:35Z</time>
      </trkpt>
      <trkpt lat="43.11158" lon="6.28722">
        <ele>16.48</ele>
        <time>2017-05-17T08:08:39Z</time>
      </trkpt>
      <trkpt lat="43.11151" lon="6.28712">
        <ele>17.44</ele>
        <time>2017-05-17T08:08:52Z</time>
      </trkpt>
      <trkpt lat="43.11142" lon="6.28705">
        <ele>19.36</ele>
        <time>2017-05-17T08:09:06Z</time>
      </trkpt>
      <trkpt lat="43.1114" lon="6.28701">
        <ele>18.88</ele>
        <time>2017-05-17T08:09:10Z</time>
      </trkpt>
      <trkpt lat="43.11137" lon="6.28698">
        <ele>18.4</ele>
        <time>2017-05-17T08:09:13Z</time>
      </trkpt>
      <trkpt lat="43.11131" lon="6.28693">
        <ele>18.88</ele>
        <time>2017-05-17T08:09:22Z</time>
      </trkpt>
      <trkpt lat="43.11123" lon="6.28693">
        <ele>19.36</ele>
        <time>2017-05-17T08:09:31Z</time>
      </trkpt>
      <trkpt lat="43.11116" lon="6.28691">
        <ele>18.88</ele>
        <time>2017-05-17T08:09:42Z</time>
      </trkpt>
      <trkpt lat="43.11113" lon="6.28689">
        <ele>18.4</ele>
        <time>2017-05-17T08:09:48Z</time>
      </trkpt>
      <trkpt lat="43.11105" lon="6.28684">
        <ele>16.96</ele>
        <time>2017-05-17T08:10:00Z</time>
      </trkpt>
      <trkpt lat="43.11096" lon="6.28683">
        <ele>16.48</ele>
        <time>2017-05-17T08:10:13Z</time>
      </trkpt>
      <trkpt lat="43.11093" lon="6.28683">
        <ele>16</ele>
        <time>2017-05-17T08:10:16Z</time>
      </trkpt>
      <trkpt lat="43.1109" lon="6.28681">
        <ele>16.48</ele>
        <time>2017-05-17T08:10:20Z</time>
      </trkpt>
      <trkpt lat="43.11085" lon="6.2868">
        <ele>16</ele>
        <time>2017-05-17T08:10:32Z</time>
      </trkpt>
      <trkpt lat="43.11083" lon="6.28681">
        <ele>16</ele>
        <time>2017-05-17T08:10:39Z</time>
      </trkpt>
      <trkpt lat="43.1108" lon="6.28683">
        <ele>19.36</ele>
        <time>2017-05-17T08:10:44Z</time>
      </trkpt>
      <trkpt lat="43.11076" lon="6.28688">
        <ele>18.88</ele>
        <time>2017-05-17T08:10:54Z</time>
      </trkpt>
      <trkpt lat="43.11069" lon="6.28695">
        <ele>19.84</ele>
        <time>2017-05-17T08:11:07Z</time>
      </trkpt>
      <trkpt lat="43.11066" lon="6.28703">
        <ele>21.77</ele>
        <time>2017-05-17T08:11:19Z</time>
      </trkpt>
      <trkpt lat="43.11063" lon="6.28708">
        <ele>22.25</ele>
        <time>2017-05-17T08:11:30Z</time>
      </trkpt>
      <trkpt lat="43.11058" lon="6.28715">
        <ele>25.13</ele>
        <time>2017-05-17T08:11:41Z</time>
      </trkpt>
      <trkpt lat="43.11056" lon="6.28721">
        <ele>25.13</ele>
        <time>2017-05-17T08:11:56Z</time>
      </trkpt>
      <trkpt lat="43.11054" lon="6.28726">
        <ele>26.09</ele>
        <time>2017-05-17T08:12:09Z</time>
      </trkpt>
      <trkpt lat="43.1105" lon="6.28733">
        <ele>27.53</ele>
        <time>2017-05-17T08:12:22Z</time>
      </trkpt>
      <trkpt lat="43.11047" lon="6.28736">
        <ele>27.05</ele>
        <time>2017-05-17T08:12:33Z</time>
      </trkpt>
      <trkpt lat="43.11042" lon="6.28736">
        <ele>26.09</ele>
        <time>2017-05-17T08:12:39Z</time>
      </trkpt>
      <trkpt lat="43.11039" lon="6.28746">
        <ele>27.05</ele>
        <time>2017-05-17T08:12:51Z</time>
      </trkpt>
      <trkpt lat="43.11038" lon="6.28757">
        <ele>29.94</ele>
        <time>2017-05-17T08:13:02Z</time>
      </trkpt>
      <trkpt lat="43.11038" lon="6.28765">
        <ele>30.9</ele>
        <time>2017-05-17T08:13:12Z</time>
      </trkpt>
      <trkpt lat="43.11038" lon="6.28772">
        <ele>30.9</ele>
        <time>2017-05-17T08:13:26Z</time>
      </trkpt>
      <trkpt lat="43.11034" lon="6.28781">
        <ele>30.42</ele>
        <time>2017-05-17T08:13:39Z</time>
      </trkpt>
      <trkpt lat="43.1103" lon="6.28788">
        <ele>28.98</ele>
        <time>2017-05-17T08:13:52Z</time>
      </trkpt>
      <trkpt lat="43.1103" lon="6.28788">
        <ele>29.46</ele>
        <time>2017-05-17T08:13:53Z</time>
      </trkpt>
      <trkpt lat="43.11029" lon="6.28795">
        <ele>28.98</ele>
        <time>2017-05-17T08:13:59Z</time>
      </trkpt>
      <trkpt lat="43.11028" lon="6.288">
        <ele>28.5</ele>
        <time>2017-05-17T08:14:03Z</time>
      </trkpt>
      <trkpt lat="43.11027" lon="6.28802">
        <ele>28.5</ele>
        <time>2017-05-17T08:14:06Z</time>
      </trkpt>
      <trkpt lat="43.11023" lon="6.28808">
        <ele>27.53</ele>
        <time>2017-05-17T08:14:12Z</time>
      </trkpt>
      <trkpt lat="43.11023" lon="6.28821">
        <ele>26.57</ele>
        <time>2017-05-17T08:14:25Z</time>
      </trkpt>
      <trkpt lat="43.1102" lon="6.28821">
        <ele>27.53</ele>
        <time>2017-05-17T08:14:31Z</time>
      </trkpt>
      <trkpt lat="43.11017" lon="6.28825">
        <ele>27.05</ele>
        <time>2017-05-17T08:14:35Z</time>
      </trkpt>
      <trkpt lat="43.11009" lon="6.28837">
        <ele>27.05</ele>
        <time>2017-05-17T08:14:48Z</time>
      </trkpt>
      <trkpt lat="43.11" lon="6.28847">
        <ele>28.02</ele>
        <time>2017-05-17T08:15:02Z</time>
      </trkpt>
      <trkpt lat="43.10998" lon="6.28847">
        <ele>28.02</ele>
        <time>2017-05-17T08:15:05Z</time>
      </trkpt>
      <trkpt lat="43.10994" lon="6.28855">
        <ele>28.5</ele>
        <time>2017-05-17T08:15:15Z</time>
      </trkpt>
      <trkpt lat="43.10992" lon="6.28862">
        <ele>28.02</ele>
        <time>2017-05-17T08:15:25Z</time>
      </trkpt>
      <trkpt lat="43.10987" lon="6.28869">
        <ele>27.05</ele>
        <time>2017-05-17T08:15:38Z</time>
      </trkpt>
      <trkpt lat="43.10986" lon="6.28877">
        <ele>26.57</ele>
        <time>2017-05-17T08:15:44Z</time>
      </trkpt>
      <trkpt lat="43.1099" lon="6.28886">
        <ele>25.61</ele>
        <time>2017-05-17T08:15:54Z</time>
      </trkpt>
      <trkpt lat="43.10988" lon="6.28897">
        <ele>24.65</ele>
        <time>2017-05-17T08:16:07Z</time>
      </trkpt>
      <trkpt lat="43.10984" lon="6.28902">
        <ele>24.17</ele>
        <time>2017-05-17T08:16:15Z</time>
      </trkpt>
      <trkpt lat="43.10977" lon="6.28909">
        <ele>23.21</ele>
        <time>2017-05-17T08:16:24Z</time>
      </trkpt>
      <trkpt lat="43.10971" lon="6.28917">
        <ele>22.73</ele>
        <time>2017-05-17T08:16:35Z</time>
      </trkpt>
      <trkpt lat="43.1097" lon="6.28925">
        <ele>22.25</ele>
        <time>2017-05-17T08:16:47Z</time>
      </trkpt>
      <trkpt lat="43.10968" lon="6.28934">
        <ele>22.25</ele>
        <time>2017-05-17T08:17:01Z</time>
      </trkpt>
      <trkpt lat="43.10962" lon="6.28945">
        <ele>20.81</ele>
        <time>2017-05-17T08:17:14Z</time>
      </trkpt>
      <trkpt lat="43.10961" lon="6.28946">
        <ele>20.81</ele>
        <time>2017-05-17T08:17:15Z</time>
      </trkpt>
      <trkpt lat="43.10949" lon="6.28948">
        <ele>21.29</ele>
        <time>2017-05-17T08:17:29Z</time>
      </trkpt>
      <trkpt lat="43.10948" lon="6.28949">
        <ele>21.29</ele>
        <time>2017-05-17T08:17:30Z</time>
      </trkpt>
      <trkpt lat="43.10935" lon="6.28956">
        <ele>23.21</ele>
        <time>2017-05-17T08:17:47Z</time>
      </trkpt>
      <trkpt lat="43.10933" lon="6.28961">
        <ele>23.69</ele>
        <time>2017-05-17T08:17:51Z</time>
      </trkpt>
      <trkpt lat="43.10923" lon="6.2898">
        <ele>24.65</ele>
        <time>2017-05-17T08:18:08Z</time>
      </trkpt>
      <trkpt lat="43.1091" lon="6.28998">
        <ele>25.61</ele>
        <time>2017-05-17T08:18:26Z</time>
      </trkpt>
      <trkpt lat="43.10898" lon="6.29012">
        <ele>26.57</ele>
        <time>2017-05-17T08:18:41Z</time>
      </trkpt>
      <trkpt lat="43.10894" lon="6.29017">
        <ele>27.05</ele>
        <time>2017-05-17T08:18:57Z</time>
      </trkpt>
      <trkpt lat="43.10892" lon="6.29019">
        <ele>27.05</ele>
        <time>2017-05-17T08:19:17Z</time>
      </trkpt>
      <trkpt lat="43.10891" lon="6.29018">
        <ele>27.05</ele>
        <time>2017-05-17T08:19:50Z</time>
      </trkpt>
      <trkpt lat="43.10892" lon="6.29015">
        <ele>27.05</ele>
        <time>2017-05-17T08:20:27Z</time>
      </trkpt>
      <trkpt lat="43.10891" lon="6.29014">
        <ele>26.57</ele>
        <time>2017-05-17T08:21:02Z</time>
      </trkpt>
      <trkpt lat="43.10893" lon="6.29013">
        <ele>27.05</ele>
        <time>2017-05-17T08:21:35Z</time>
      </trkpt>
      <trkpt lat="43.10893" lon="6.29013">
        <ele>26.57</ele>
        <time>2017-05-17T08:21:52Z</time>
      </trkpt>
      <trkpt lat="43.10893" lon="6.29015">
        <ele>26.09</ele>
        <time>2017-05-17T08:22:12Z</time>
      </trkpt>
      <trkpt lat="43.10895" lon="6.29018">
        <ele>25.61</ele>
        <time>2017-05-17T08:22:54Z</time>
      </trkpt>
      <trkpt lat="43.10893" lon="6.29018">
        <ele>25.61</ele>
        <time>2017-05-17T08:23:31Z</time>
      </trkpt>
      <trkpt lat="43.10892" lon="6.29019">
        <ele>25.61</ele>
        <time>2017-05-17T08:24:05Z</time>
      </trkpt>
      <trkpt lat="43.10891" lon="6.29019">
        <ele>25.61</ele>
        <time>2017-05-17T08:24:37Z</time>
      </trkpt>
      <trkpt lat="43.1089" lon="6.29022">
        <ele>25.61</ele>
        <time>2017-05-17T08:25:15Z</time>
      </trkpt>
      <trkpt lat="43.10889" lon="6.29018">
        <ele>26.09</ele>
        <time>2017-05-17T08:25:47Z</time>
      </trkpt>
      <trkpt lat="43.10885" lon="6.29019">
        <ele>26.09</ele>
        <time>2017-05-17T08:26:23Z</time>
      </trkpt>
      <trkpt lat="43.1089" lon="6.29021">
        <ele>26.09</ele>
        <time>2017-05-17T08:26:52Z</time>
      </trkpt>
      <trkpt lat="43.10893" lon="6.29016">
        <ele>26.57</ele>
        <time>2017-05-17T08:27:22Z</time>
      </trkpt>
      <trkpt lat="43.10889" lon="6.29018">
        <ele>26.57</ele>
        <time>2017-05-17T08:27:55Z</time>
      </trkpt>
      <trkpt lat="43.10889" lon="6.29014">
        <ele>26.57</ele>
        <time>2017-05-17T08:28:28Z</time>
      </trkpt>
      <trkpt lat="43.10893" lon="6.29015">
        <ele>26.09</ele>
        <time>2017-05-17T08:28:58Z</time>
      </trkpt>
      <trkpt lat="43.1089" lon="6.2901">
        <ele>27.05</ele>
        <time>2017-05-17T08:29:37Z</time>
      </trkpt>
      <trkpt lat="43.1089" lon="6.29018">
        <ele>27.53</ele>
        <time>2017-05-17T08:30:10Z</time>
      </trkpt>
      <trkpt lat="43.10887" lon="6.29016">
        <ele>27.53</ele>
        <time>2017-05-17T08:30:45Z</time>
      </trkpt>
      <trkpt lat="43.1089" lon="6.29022">
        <ele>28.02</ele>
        <time>2017-05-17T08:31:14Z</time>
      </trkpt>
      <trkpt lat="43.10892" lon="6.29029">
        <ele>25.61</ele>
        <time>2017-05-17T08:31:26Z</time>
      </trkpt>
      <trkpt lat="43.10893" lon="6.29035">
        <ele>23.69</ele>
        <time>2017-05-17T08:31:40Z</time>
      </trkpt>
      <trkpt lat="43.10896" lon="6.2904">
        <ele>21.29</ele>
        <time>2017-05-17T08:31:53Z</time>
      </trkpt>
      <trkpt lat="43.10898" lon="6.29043">
        <ele>20.32</ele>
        <time>2017-05-17T08:32:21Z</time>
      </trkpt>
      <trkpt lat="43.10901" lon="6.29052">
        <ele>17.92</ele>
        <time>2017-05-17T08:32:32Z</time>
      </trkpt>
      <trkpt lat="43.10905" lon="6.29059">
        <ele>16</ele>
        <time>2017-05-17T08:32:42Z</time>
      </trkpt>
      <trkpt lat="43.10906" lon="6.29062">
        <ele>15.52</ele>
        <time>2017-05-17T08:32:44Z</time>
      </trkpt>
      <trkpt lat="43.10912" lon="6.2907">
        <ele>13.12</ele>
        <time>2017-05-17T08:32:57Z</time>
      </trkpt>
      <trkpt lat="43.10917" lon="6.29081">
        <ele>11.19</ele>
        <time>2017-05-17T08:33:07Z</time>
      </trkpt>
      <trkpt lat="43.10921" lon="6.29088">
        <ele>10.71</ele>
        <time>2017-05-17T08:33:13Z</time>
      </trkpt>
      <trkpt lat="43.10931" lon="6.29094">
        <ele>7.83</ele>
        <time>2017-05-17T08:33:26Z</time>
      </trkpt>
      <trkpt lat="43.10936" lon="6.29101">
        <ele>6.87</ele>
        <time>2017-05-17T08:33:32Z</time>
      </trkpt>
      <trkpt lat="43.10936" lon="6.29106">
        <ele>6.87</ele>
        <time>2017-05-17T08:33:36Z</time>
      </trkpt>
      <trkpt lat="43.1093" lon="6.29113">
        <ele>5.42</ele>
        <time>2017-05-17T08:33:46Z</time>
      </trkpt>
      <trkpt lat="43.10925" lon="6.29127">
        <ele>3.5</ele>
        <time>2017-05-17T08:33:59Z</time>
      </trkpt>
      <trkpt lat="43.10924" lon="6.29131">
        <ele>3.98</ele>
        <time>2017-05-17T08:34:02Z</time>
      </trkpt>
      <trkpt lat="43.10923" lon="6.29145">
        <ele>3.02</ele>
        <time>2017-05-17T08:34:14Z</time>
      </trkpt>
      <trkpt lat="43.10923" lon="6.29146">
        <ele>3.02</ele>
        <time>2017-05-17T08:34:17Z</time>
      </trkpt>
      <trkpt lat="43.10921" lon="6.29151">
        <ele>3.98</ele>
        <time>2017-05-17T08:34:29Z</time>
      </trkpt>
      <trkpt lat="43.1092" lon="6.29152">
        <ele>3.98</ele>
        <time>2017-05-17T08:34:30Z</time>
      </trkpt>
      <trkpt lat="43.1092" lon="6.29157">
        <ele>3.02</ele>
        <time>2017-05-17T08:34:34Z</time>
      </trkpt>
      <trkpt lat="43.10918" lon="6.29161">
        <ele>3.98</ele>
        <time>2017-05-17T08:34:38Z</time>
      </trkpt>
      <trkpt lat="43.10918" lon="6.29162">
        <ele>3.98</ele>
        <time>2017-05-17T08:34:40Z</time>
      </trkpt>
      <trkpt lat="43.10921" lon="6.29169">
        <ele>3.98</ele>
        <time>2017-05-17T08:34:51Z</time>
      </trkpt>
      <trkpt lat="43.10923" lon="6.29167">
        <ele>3.98</ele>
        <time>2017-05-17T08:35:05Z</time>
      </trkpt>
      <trkpt lat="43.10926" lon="6.2917">
        <ele>3.98</ele>
        <time>2017-05-17T08:35:18Z</time>
      </trkpt>
      <trkpt lat="43.10928" lon="6.29169">
        <ele>4.94</ele>
        <time>2017-05-17T08:35:35Z</time>
      </trkpt>
      <trkpt lat="43.10925" lon="6.29168">
        <ele>4.46</ele>
        <time>2017-05-17T08:35:52Z</time>
      </trkpt>
      <trkpt lat="43.10921" lon="6.29178">
        <ele>3.98</ele>
        <time>2017-05-17T08:36:03Z</time>
      </trkpt>
      <trkpt lat="43.1092" lon="6.29182">
        <ele>-3.71</ele>
        <time>2017-05-17T08:36:20Z</time>
      </trkpt>
      <trkpt lat="43.1092" lon="6.29182">
        <ele>2.54</ele>
        <time>2017-05-17T08:36:22Z</time>
      </trkpt>
      <trkpt lat="43.1092" lon="6.29182">
        <ele>3.02</ele>
        <time>2017-05-17T08:36:23Z</time>
      </trkpt>
      <trkpt lat="43.1092" lon="6.29181">
        <ele>15.04</ele>
        <time>2017-05-17T08:36:29Z</time>
      </trkpt>
      <trkpt lat="43.10921" lon="6.29181">
        <ele>3.98</ele>
        <time>2017-05-17T08:36:30Z</time>
      </trkpt>
      <trkpt lat="43.10919" lon="6.29177">
        <ele>3.5</ele>
        <time>2017-05-17T08:36:49Z</time>
      </trkpt>
      <trkpt lat="43.1092" lon="6.29181">
        <ele>3.98</ele>
        <time>2017-05-17T08:37:04Z</time>
      </trkpt>
      <trkpt lat="43.1092" lon="6.29181">
        <ele>4.46</ele>
        <time>2017-05-17T08:37:20Z</time>
      </trkpt>
      <trkpt lat="43.1092" lon="6.2918">
        <ele>4.46</ele>
        <time>2017-05-17T08:37:42Z</time>
      </trkpt>
      <trkpt lat="43.10923" lon="6.29179">
        <ele>3.98</ele>
        <time>2017-05-17T08:38:06Z</time>
      </trkpt>
      <trkpt lat="43.10923" lon="6.2918">
        <ele>3.98</ele>
        <time>2017-05-17T08:38:19Z</time>
      </trkpt>
      <trkpt lat="43.10925" lon="6.2918">
        <ele>3.98</ele>
        <time>2017-05-17T08:39:13Z</time>
      </trkpt>
      <trkpt lat="43.10923" lon="6.29182">
        <ele>3.98</ele>
        <time>2017-05-17T08:40:02Z</time>
      </trkpt>
      <trkpt lat="43.10925" lon="6.29181">
        <ele>3.98</ele>
        <time>2017-05-17T08:40:48Z</time>
      </trkpt>
      <trkpt lat="43.10925" lon="6.29181">
        <ele>4.46</ele>
        <time>2017-05-17T08:41:19Z</time>
      </trkpt>
      <trkpt lat="43.10925" lon="6.2918">
        <ele>4.46</ele>
        <time>2017-05-17T08:41:58Z</time>
      </trkpt>
      <trkpt lat="43.10925" lon="6.2918">
        <ele>4.46</ele>
        <time>2017-05-17T08:42:37Z</time>
      </trkpt>
      <trkpt lat="43.10924" lon="6.29182">
        <ele>4.46</ele>
        <time>2017-05-17T08:43:14Z</time>
      </trkpt>
      <trkpt lat="43.10924" lon="6.29181">
        <ele>4.46</ele>
        <time>2017-05-17T08:43:57Z</time>
      </trkpt>
      <trkpt lat="43.10925" lon="6.29181">
        <ele>3.98</ele>
        <time>2017-05-17T08:44:46Z</time>
      </trkpt>
      <trkpt lat="43.10925" lon="6.29182">
        <ele>3.98</ele>
        <time>2017-05-17T08:45:22Z</time>
      </trkpt>
      <trkpt lat="43.10925" lon="6.29181">
        <ele>3.98</ele>
        <time>2017-05-17T08:46:00Z</time>
      </trkpt>
      <trkpt lat="43.10925" lon="6.2918">
        <ele>3.98</ele>
        <time>2017-05-17T08:46:30Z</time>
      </trkpt>
      <trkpt lat="43.10926" lon="6.29181">
        <ele>3.98</ele>
        <time>2017-05-17T08:47:08Z</time>
      </trkpt>
      <trkpt lat="43.10925" lon="6.29181">
        <ele>3.98</ele>
        <time>2017-05-17T08:47:40Z</time>
      </trkpt>
      <trkpt lat="43.10924" lon="6.29182">
        <ele>3.98</ele>
        <time>2017-05-17T08:48:08Z</time>
      </trkpt>
      <trkpt lat="43.10926" lon="6.29182">
        <ele>3.98</ele>
        <time>2017-05-17T08:48:40Z</time>
      </trkpt>
      <trkpt lat="43.10925" lon="6.29181">
        <ele>4.46</ele>
        <time>2017-05-17T08:49:13Z</time>
      </trkpt>
      <trkpt lat="43.10922" lon="6.29179">
        <ele>3.98</ele>
        <time>2017-05-17T08:49:28Z</time>
      </trkpt>
      <trkpt lat="43.10921" lon="6.2918">
        <ele>3.98</ele>
        <time>2017-05-17T08:49:30Z</time>
      </trkpt>
      <trkpt lat="43.10921" lon="6.29183">
        <ele>-0.34</ele>
        <time>2017-05-17T08:49:33Z</time>
      </trkpt>
      <trkpt lat="43.10921" lon="6.29182">
        <ele>3.98</ele>
        <time>2017-05-17T08:49:34Z</time>
      </trkpt>
      <trkpt lat="43.10922" lon="6.29181">
        <ele>3.98</ele>
        <time>2017-05-17T08:50:00Z</time>
      </trkpt>
      <trkpt lat="43.10922" lon="6.29181">
        <ele>3.98</ele>
        <time>2017-05-17T08:50:16Z</time>
      </trkpt>
      <trkpt lat="43.10921" lon="6.29181">
        <ele>3.98</ele>
        <time>2017-05-17T08:50:39Z</time>
      </trkpt>
      <trkpt lat="43.10922" lon="6.29175">
        <ele>3.98</ele>
        <time>2017-05-17T08:50:57Z</time>
      </trkpt>
      <trkpt lat="43.10924" lon="6.29171">
        <ele>4.46</ele>
        <time>2017-05-17T08:51:04Z</time>
      </trkpt>
      <trkpt lat="43.10924" lon="6.2917">
        <ele>5.42</ele>
        <time>2017-05-17T08:51:06Z</time>
      </trkpt>
      <trkpt lat="43.10927" lon="6.29168">
        <ele>4.46</ele>
        <time>2017-05-17T08:51:20Z</time>
      </trkpt>
      <trkpt lat="43.10927" lon="6.29171">
        <ele>4.94</ele>
        <time>2017-05-17T08:51:32Z</time>
      </trkpt>
      <trkpt lat="43.1093" lon="6.29174">
        <ele>7.83</ele>
        <time>2017-05-17T08:51:41Z</time>
      </trkpt>
      <trkpt lat="43.10932" lon="6.29176">
        <ele>4.46</ele>
        <time>2017-05-17T08:51:45Z</time>
      </trkpt>
      <trkpt lat="43.10933" lon="6.29176">
        <ele>9.27</ele>
        <time>2017-05-17T08:51:46Z</time>
      </trkpt>
      <trkpt lat="43.10941" lon="6.29176">
        <ele>7.83</ele>
        <time>2017-05-17T08:51:57Z</time>
      </trkpt>
      <trkpt lat="43.10946" lon="6.29178">
        <ele>8.79</ele>
        <time>2017-05-17T08:52:03Z</time>
      </trkpt>
      <trkpt lat="43.10949" lon="6.29183">
        <ele>7.35</ele>
        <time>2017-05-17T08:52:09Z</time>
      </trkpt>
      <trkpt lat="43.10948" lon="6.29188">
        <ele>7.83</ele>
        <time>2017-05-17T08:52:14Z</time>
      </trkpt>
      <trkpt lat="43.10945" lon="6.29192">
        <ele>5.91</ele>
        <time>2017-05-17T08:52:19Z</time>
      </trkpt>
      <trkpt lat="43.10941" lon="6.29195">
        <ele>9.75</ele>
        <time>2017-05-17T08:52:27Z</time>
      </trkpt>
      <trkpt lat="43.10938" lon="6.29198">
        <ele>8.79</ele>
        <time>2017-05-17T08:52:31Z</time>
      </trkpt>
      <trkpt lat="43.10936" lon="6.29199">
        <ele>8.79</ele>
        <time>2017-05-17T08:52:34Z</time>
      </trkpt>
      <trkpt lat="43.10934" lon="6.29201">
        <ele>9.75</ele>
        <time>2017-05-17T08:52:36Z</time>
      </trkpt>
      <trkpt lat="43.10933" lon="6.29206">
        <ele>8.79</ele>
        <time>2017-05-17T08:52:40Z</time>
      </trkpt>
      <trkpt lat="43.10933" lon="6.29214">
        <ele>8.79</ele>
        <time>2017-05-17T08:52:46Z</time>
      </trkpt>
      <trkpt lat="43.10934" lon="6.29217">
        <ele>8.79</ele>
        <time>2017-05-17T08:52:49Z</time>
      </trkpt>
      <trkpt lat="43.1094" lon="6.29229">
        <ele>10.23</ele>
        <time>2017-05-17T08:53:00Z</time>
      </trkpt>
      <trkpt lat="43.10941" lon="6.29231">
        <ele>9.75</ele>
        <time>2017-05-17T08:53:02Z</time>
      </trkpt>
      <trkpt lat="43.10943" lon="6.29237">
        <ele>9.75</ele>
        <time>2017-05-17T08:53:07Z</time>
      </trkpt>
      <trkpt lat="43.10942" lon="6.29254">
        <ele>9.75</ele>
        <time>2017-05-17T08:53:19Z</time>
      </trkpt>
      <trkpt lat="43.10941" lon="6.29268">
        <ele>10.71</ele>
        <time>2017-05-17T08:53:30Z</time>
      </trkpt>
      <trkpt lat="43.10942" lon="6.2927">
        <ele>9.27</ele>
        <time>2017-05-17T08:53:32Z</time>
      </trkpt>
      <trkpt lat="43.10942" lon="6.29274">
        <ele>9.75</ele>
        <time>2017-05-17T08:53:35Z</time>
      </trkpt>
      <trkpt lat="43.10944" lon="6.29286">
        <ele>10.23</ele>
        <time>2017-05-17T08:53:43Z</time>
      </trkpt>
      <trkpt lat="43.10944" lon="6.29289">
        <ele>9.75</ele>
        <time>2017-05-17T08:53:45Z</time>
      </trkpt>
      <trkpt lat="43.10943" lon="6.29295">
        <ele>10.71</ele>
        <time>2017-05-17T08:53:52Z</time>
      </trkpt>
      <trkpt lat="43.10942" lon="6.29313">
        <ele>10.71</ele>
        <time>2017-05-17T08:54:04Z</time>
      </trkpt>
      <trkpt lat="43.1094" lon="6.29321">
        <ele>10.23</ele>
        <time>2017-05-17T08:54:10Z</time>
      </trkpt>
      <trkpt lat="43.10939" lon="6.29324">
        <ele>11.19</ele>
        <time>2017-05-17T08:54:13Z</time>
      </trkpt>
      <trkpt lat="43.1093" lon="6.2933">
        <ele>11.67</ele>
        <time>2017-05-17T08:54:25Z</time>
      </trkpt>
      <trkpt lat="43.10921" lon="6.29332">
        <ele>12.15</ele>
        <time>2017-05-17T08:54:33Z</time>
      </trkpt>
      <trkpt lat="43.10907" lon="6.29335">
        <ele>11.67</ele>
        <time>2017-05-17T08:54:46Z</time>
      </trkpt>
      <trkpt lat="43.10896" lon="6.29338">
        <ele>11.19</ele>
        <time>2017-05-17T08:54:58Z</time>
      </trkpt>
      <trkpt lat="43.10893" lon="6.29341">
        <ele>11.67</ele>
        <time>2017-05-17T08:55:01Z</time>
      </trkpt>
      <trkpt lat="43.10891" lon="6.29343">
        <ele>11.19</ele>
        <time>2017-05-17T08:55:03Z</time>
      </trkpt>
      <trkpt lat="43.10888" lon="6.29346">
        <ele>12.15</ele>
        <time>2017-05-17T08:55:06Z</time>
      </trkpt>
      <trkpt lat="43.10878" lon="6.29356">
        <ele>12.15</ele>
        <time>2017-05-17T08:55:17Z</time>
      </trkpt>
      <trkpt lat="43.10866" lon="6.29367">
        <ele>12.15</ele>
        <time>2017-05-17T08:55:29Z</time>
      </trkpt>
      <trkpt lat="43.10864" lon="6.2937">
        <ele>12.15</ele>
        <time>2017-05-17T08:55:32Z</time>
      </trkpt>
      <trkpt lat="43.10854" lon="6.29382">
        <ele>13.12</ele>
        <time>2017-05-17T08:55:44Z</time>
      </trkpt>
      <trkpt lat="43.10851" lon="6.29393">
        <ele>14.08</ele>
        <time>2017-05-17T08:55:53Z</time>
      </trkpt>
      <trkpt lat="43.1085" lon="6.29401">
        <ele>12.63</ele>
        <time>2017-05-17T08:56:04Z</time>
      </trkpt>
      <trkpt lat="43.10852" lon="6.29401">
        <ele>13.6</ele>
        <time>2017-05-17T08:56:26Z</time>
      </trkpt>
      <trkpt lat="43.10852" lon="6.29401">
        <ele>13.12</ele>
        <time>2017-05-17T08:56:56Z</time>
      </trkpt>
      <trkpt lat="43.10851" lon="6.294">
        <ele>13.12</ele>
        <time>2017-05-17T08:57:18Z</time>
      </trkpt>
      <trkpt lat="43.10851" lon="6.29401">
        <ele>13.12</ele>
        <time>2017-05-17T08:57:54Z</time>
      </trkpt>
      <trkpt lat="43.10851" lon="6.29401">
        <ele>13.12</ele>
        <time>2017-05-17T08:58:09Z</time>
      </trkpt>
      <trkpt lat="43.10854" lon="6.29406">
        <ele>12.63</ele>
        <time>2017-05-17T08:58:23Z</time>
      </trkpt>
      <trkpt lat="43.10855" lon="6.29405">
        <ele>13.12</ele>
        <time>2017-05-17T08:58:43Z</time>
      </trkpt>
      <trkpt lat="43.10856" lon="6.29401">
        <ele>13.6</ele>
        <time>2017-05-17T08:59:06Z</time>
      </trkpt>
      <trkpt lat="43.10865" lon="6.29408">
        <ele>15.52</ele>
        <time>2017-05-17T08:59:19Z</time>
      </trkpt>
      <trkpt lat="43.1087" lon="6.29418">
        <ele>17.92</ele>
        <time>2017-05-17T08:59:31Z</time>
      </trkpt>
      <trkpt lat="43.1087" lon="6.29421">
        <ele>17.92</ele>
        <time>2017-05-17T08:59:34Z</time>
      </trkpt>
      <trkpt lat="43.10873" lon="6.29426">
        <ele>19.36</ele>
        <time>2017-05-17T08:59:39Z</time>
      </trkpt>
      <trkpt lat="43.10875" lon="6.29429">
        <ele>19.84</ele>
        <time>2017-05-17T08:59:43Z</time>
      </trkpt>
      <trkpt lat="43.10882" lon="6.29439">
        <ele>22.25</ele>
        <time>2017-05-17T08:59:58Z</time>
      </trkpt>
      <trkpt lat="43.10887" lon="6.29444">
        <ele>23.69</ele>
        <time>2017-05-17T09:00:08Z</time>
      </trkpt>
      <trkpt lat="43.10888" lon="6.29452">
        <ele>23.69</ele>
        <time>2017-05-17T09:00:25Z</time>
      </trkpt>
      <trkpt lat="43.10893" lon="6.29457">
        <ele>25.61</ele>
        <time>2017-05-17T09:00:37Z</time>
      </trkpt>
      <trkpt lat="43.10899" lon="6.2946">
        <ele>26.57</ele>
        <time>2017-05-17T09:00:45Z</time>
      </trkpt>
      <trkpt lat="43.10911" lon="6.29462">
        <ele>26.57</ele>
        <time>2017-05-17T09:01:00Z</time>
      </trkpt>
      <trkpt lat="43.10914" lon="6.29464">
        <ele>26.57</ele>
        <time>2017-05-17T09:01:06Z</time>
      </trkpt>
      <trkpt lat="43.10931" lon="6.29469">
        <ele>25.13</ele>
        <time>2017-05-17T09:01:23Z</time>
      </trkpt>
      <trkpt lat="43.10932" lon="6.2947">
        <ele>25.13</ele>
        <time>2017-05-17T09:01:25Z</time>
      </trkpt>
      <trkpt lat="43.10941" lon="6.29478">
        <ele>23.21</ele>
        <time>2017-05-17T09:01:38Z</time>
      </trkpt>
      <trkpt lat="43.10944" lon="6.29482">
        <ele>22.73</ele>
        <time>2017-05-17T09:01:43Z</time>
      </trkpt>
      <trkpt lat="43.10957" lon="6.29488">
        <ele>19.84</ele>
        <time>2017-05-17T09:01:57Z</time>
      </trkpt>
      <trkpt lat="43.10958" lon="6.29489">
        <ele>19.84</ele>
        <time>2017-05-17T09:01:59Z</time>
      </trkpt>
      <trkpt lat="43.1096" lon="6.2949">
        <ele>19.36</ele>
        <time>2017-05-17T09:02:01Z</time>
      </trkpt>
      <trkpt lat="43.1097" lon="6.29493">
        <ele>17.92</ele>
        <time>2017-05-17T09:02:14Z</time>
      </trkpt>
      <trkpt lat="43.10975" lon="6.29494">
        <ele>17.44</ele>
        <time>2017-05-17T09:02:20Z</time>
      </trkpt>
      <trkpt lat="43.10977" lon="6.29493">
        <ele>16</ele>
        <time>2017-05-17T09:02:22Z</time>
      </trkpt>
      <trkpt lat="43.10982" lon="6.29495">
        <ele>16.96</ele>
        <time>2017-05-17T09:02:26Z</time>
      </trkpt>
      <trkpt lat="43.10986" lon="6.295">
        <ele>16</ele>
        <time>2017-05-17T09:02:40Z</time>
      </trkpt>
      <trkpt lat="43.10993" lon="6.295">
        <ele>15.04</ele>
        <time>2017-05-17T09:02:51Z</time>
      </trkpt>
      <trkpt lat="43.10998" lon="6.29503">
        <ele>14.56</ele>
        <time>2017-05-17T09:02:56Z</time>
      </trkpt>
      <trkpt lat="43.11004" lon="6.29504">
        <ele>13.6</ele>
        <time>2017-05-17T09:03:02Z</time>
      </trkpt>
      <trkpt lat="43.11009" lon="6.29506">
        <ele>13.6</ele>
        <time>2017-05-17T09:03:07Z</time>
      </trkpt>
      <trkpt lat="43.11019" lon="6.29515">
        <ele>15.04</ele>
        <time>2017-05-17T09:03:17Z</time>
      </trkpt>
      <trkpt lat="43.11027" lon="6.29522">
        <ele>15.04</ele>
        <time>2017-05-17T09:03:26Z</time>
      </trkpt>
      <trkpt lat="43.11029" lon="6.29525">
        <ele>14.08</ele>
        <time>2017-05-17T09:03:30Z</time>
      </trkpt>
      <trkpt lat="43.11036" lon="6.29536">
        <ele>12.15</ele>
        <time>2017-05-17T09:03:41Z</time>
      </trkpt>
      <trkpt lat="43.11036" lon="6.29539">
        <ele>11.19</ele>
        <time>2017-05-17T09:03:44Z</time>
      </trkpt>
      <trkpt lat="43.11037" lon="6.29542">
        <ele>10.23</ele>
        <time>2017-05-17T09:03:46Z</time>
      </trkpt>
      <trkpt lat="43.11039" lon="6.29547">
        <ele>9.27</ele>
        <time>2017-05-17T09:03:52Z</time>
      </trkpt>
      <trkpt lat="43.11043" lon="6.29557">
        <ele>8.31</ele>
        <time>2017-05-17T09:04:00Z</time>
      </trkpt>
      <trkpt lat="43.11049" lon="6.29565">
        <ele>8.79</ele>
        <time>2017-05-17T09:04:07Z</time>
      </trkpt>
      <trkpt lat="43.11049" lon="6.29573">
        <ele>9.75</ele>
        <time>2017-05-17T09:04:12Z</time>
      </trkpt>
      <trkpt lat="43.1105" lon="6.29586">
        <ele>9.75</ele>
        <time>2017-05-17T09:04:20Z</time>
      </trkpt>
      <trkpt lat="43.11052" lon="6.29597">
        <ele>9.75</ele>
        <time>2017-05-17T09:04:26Z</time>
      </trkpt>
      <trkpt lat="43.11058" lon="6.29607">
        <ele>9.27</ele>
        <time>2017-05-17T09:04:34Z</time>
      </trkpt>
      <trkpt lat="43.11064" lon="6.29625">
        <ele>10.23</ele>
        <time>2017-05-17T09:04:46Z</time>
      </trkpt>
      <trkpt lat="43.11065" lon="6.2963">
        <ele>10.23</ele>
        <time>2017-05-17T09:04:51Z</time>
      </trkpt>
      <trkpt lat="43.11068" lon="6.29635">
        <ele>11.67</ele>
        <time>2017-05-17T09:04:54Z</time>
      </trkpt>
      <trkpt lat="43.11075" lon="6.29649">
        <ele>11.19</ele>
        <time>2017-05-17T09:05:05Z</time>
      </trkpt>
      <trkpt lat="43.11076" lon="6.29656">
        <ele>10.23</ele>
        <time>2017-05-17T09:05:10Z</time>
      </trkpt>
      <trkpt lat="43.11074" lon="6.29672">
        <ele>9.75</ele>
        <time>2017-05-17T09:05:22Z</time>
      </trkpt>
      <trkpt lat="43.1107" lon="6.29675">
        <ele>8.79</ele>
        <time>2017-05-17T09:05:34Z</time>
      </trkpt>
      <trkpt lat="43.11067" lon="6.29674">
        <ele>9.27</ele>
        <time>2017-05-17T09:05:55Z</time>
      </trkpt>
      <trkpt lat="43.11065" lon="6.29677">
        <ele>8.79</ele>
        <time>2017-05-17T09:06:06Z</time>
      </trkpt>
      <trkpt lat="43.11064" lon="6.29679">
        <ele>8.79</ele>
        <time>2017-05-17T09:06:08Z</time>
      </trkpt>
      <trkpt lat="43.11063" lon="6.29688">
        <ele>8.31</ele>
        <time>2017-05-17T09:06:14Z</time>
      </trkpt>
      <trkpt lat="43.11061" lon="6.29697">
        <ele>7.83</ele>
        <time>2017-05-17T09:06:22Z</time>
      </trkpt>
      <trkpt lat="43.1106" lon="6.29699">
        <ele>7.83</ele>
        <time>2017-05-17T09:06:24Z</time>
      </trkpt>
      <trkpt lat="43.11056" lon="6.2971">
        <ele>7.35</ele>
        <time>2017-05-17T09:06:34Z</time>
      </trkpt>
      <trkpt lat="43.11055" lon="6.29714">
        <ele>7.35</ele>
        <time>2017-05-17T09:06:36Z</time>
      </trkpt>
      <trkpt lat="43.11053" lon="6.29731">
        <ele>7.35</ele>
        <time>2017-05-17T09:06:48Z</time>
      </trkpt>
      <trkpt lat="43.11051" lon="6.29737">
        <ele>7.35</ele>
        <time>2017-05-17T09:07:02Z</time>
      </trkpt>
      <trkpt lat="43.11052" lon="6.29739">
        <ele>7.35</ele>
        <time>2017-05-17T09:07:22Z</time>
      </trkpt>
      <trkpt lat="43.11054" lon="6.29741">
        <ele>7.35</ele>
        <time>2017-05-17T09:07:50Z</time>
      </trkpt>
      <trkpt lat="43.11052" lon="6.29743">
        <ele>7.35</ele>
        <time>2017-05-17T09:08:15Z</time>
      </trkpt>
      <trkpt lat="43.1105" lon="6.2975">
        <ele>7.35</ele>
        <time>2017-05-17T09:08:27Z</time>
      </trkpt>
      <trkpt lat="43.11049" lon="6.29754">
        <ele>7.83</ele>
        <time>2017-05-17T09:08:30Z</time>
      </trkpt>
      <trkpt lat="43.11043" lon="6.29761">
        <ele>7.83</ele>
        <time>2017-05-17T09:08:40Z</time>
      </trkpt>
      <trkpt lat="43.11039" lon="6.29762">
        <ele>8.31</ele>
        <time>2017-05-17T09:08:44Z</time>
      </trkpt>
      <trkpt lat="43.11037" lon="6.29764">
        <ele>8.31</ele>
        <time>2017-05-17T09:08:47Z</time>
      </trkpt>
      <trkpt lat="43.11031" lon="6.29776">
        <ele>9.75</ele>
        <time>2017-05-17T09:08:58Z</time>
      </trkpt>
      <trkpt lat="43.11026" lon="6.29788">
        <ele>8.79</ele>
        <time>2017-05-17T09:09:08Z</time>
      </trkpt>
      <trkpt lat="43.11025" lon="6.29802">
        <ele>8.79</ele>
        <time>2017-05-17T09:09:18Z</time>
      </trkpt>
      <trkpt lat="43.11025" lon="6.29805">
        <ele>8.31</ele>
        <time>2017-05-17T09:09:22Z</time>
      </trkpt>
      <trkpt lat="43.11024" lon="6.2981">
        <ele>8.31</ele>
        <time>2017-05-17T09:09:27Z</time>
      </trkpt>
      <trkpt lat="43.11019" lon="6.29824">
        <ele>7.35</ele>
        <time>2017-05-17T09:09:38Z</time>
      </trkpt>
      <trkpt lat="43.1102" lon="6.29833">
        <ele>7.83</ele>
        <time>2017-05-17T09:09:53Z</time>
      </trkpt>
      <trkpt lat="43.11022" lon="6.29839">
        <ele>7.35</ele>
        <time>2017-05-17T09:10:03Z</time>
      </trkpt>
      <trkpt lat="43.11023" lon="6.29835">
        <ele>7.35</ele>
        <time>2017-05-17T09:10:23Z</time>
      </trkpt>
      <trkpt lat="43.11023" lon="6.29832">
        <ele>7.35</ele>
        <time>2017-05-17T09:10:47Z</time>
      </trkpt>
      <trkpt lat="43.11025" lon="6.2983">
        <ele>7.83</ele>
        <time>2017-05-17T09:11:09Z</time>
      </trkpt>
      <trkpt lat="43.11027" lon="6.29827">
        <ele>7.83</ele>
        <time>2017-05-17T09:11:38Z</time>
      </trkpt>
      <trkpt lat="43.11025" lon="6.29827">
        <ele>7.35</ele>
        <time>2017-05-17T09:12:08Z</time>
      </trkpt>
      <trkpt lat="43.11023" lon="6.29827">
        <ele>7.83</ele>
        <time>2017-05-17T09:12:12Z</time>
      </trkpt>
      <trkpt lat="43.11017" lon="6.2983">
        <ele>7.35</ele>
        <time>2017-05-17T09:12:23Z</time>
      </trkpt>
      <trkpt lat="43.11009" lon="6.2984">
        <ele>7.83</ele>
        <time>2017-05-17T09:12:36Z</time>
      </trkpt>
      <trkpt lat="43.11004" lon="6.2985">
        <ele>8.31</ele>
        <time>2017-05-17T09:12:47Z</time>
      </trkpt>
      <trkpt lat="43.11001" lon="6.29856">
        <ele>8.79</ele>
        <time>2017-05-17T09:12:56Z</time>
      </trkpt>
      <trkpt lat="43.10995" lon="6.29864">
        <ele>7.83</ele>
        <time>2017-05-17T09:13:09Z</time>
      </trkpt>
      <trkpt lat="43.10987" lon="6.29874">
        <ele>7.83</ele>
        <time>2017-05-17T09:13:20Z</time>
      </trkpt>
      <trkpt lat="43.1098" lon="6.29888">
        <ele>7.35</ele>
        <time>2017-05-17T09:13:32Z</time>
      </trkpt>
      <trkpt lat="43.1098" lon="6.29889">
        <ele>7.35</ele>
        <time>2017-05-17T09:13:33Z</time>
      </trkpt>
      <trkpt lat="43.10972" lon="6.29899">
        <ele>7.35</ele>
        <time>2017-05-17T09:13:44Z</time>
      </trkpt>
      <trkpt lat="43.10968" lon="6.29902">
        <ele>6.87</ele>
        <time>2017-05-17T09:13:48Z</time>
      </trkpt>
      <trkpt lat="43.10958" lon="6.29909">
        <ele>6.87</ele>
        <time>2017-05-17T09:14:01Z</time>
      </trkpt>
      <trkpt lat="43.10952" lon="6.29918">
        <ele>6.87</ele>
        <time>2017-05-17T09:14:12Z</time>
      </trkpt>
      <trkpt lat="43.10943" lon="6.29928">
        <ele>6.39</ele>
        <time>2017-05-17T09:14:23Z</time>
      </trkpt>
      <trkpt lat="43.10932" lon="6.29932">
        <ele>6.87</ele>
        <time>2017-05-17T09:14:37Z</time>
      </trkpt>
      <trkpt lat="43.1093" lon="6.29936">
        <ele>6.87</ele>
        <time>2017-05-17T09:14:50Z</time>
      </trkpt>
      <trkpt lat="43.10932" lon="6.29936">
        <ele>6.87</ele>
        <time>2017-05-17T09:15:11Z</time>
      </trkpt>
      <trkpt lat="43.10928" lon="6.29932">
        <ele>7.83</ele>
        <time>2017-05-17T09:15:43Z</time>
      </trkpt>
      <trkpt lat="43.10919" lon="6.29924">
        <ele>7.83</ele>
        <time>2017-05-17T09:15:55Z</time>
      </trkpt>
      <trkpt lat="43.10917" lon="6.29923">
        <ele>6.87</ele>
        <time>2017-05-17T09:15:59Z</time>
      </trkpt>
      <trkpt lat="43.10913" lon="6.29922">
        <ele>6.39</ele>
        <time>2017-05-17T09:16:03Z</time>
      </trkpt>
      <trkpt lat="43.10905" lon="6.29927">
        <ele>6.87</ele>
        <time>2017-05-17T09:16:11Z</time>
      </trkpt>
      <trkpt lat="43.10895" lon="6.29932">
        <ele>6.39</ele>
        <time>2017-05-17T09:16:22Z</time>
      </trkpt>
      <trkpt lat="43.10885" lon="6.29937">
        <ele>5.91</ele>
        <time>2017-05-17T09:16:33Z</time>
      </trkpt>
      <trkpt lat="43.10878" lon="6.2994">
        <ele>6.39</ele>
        <time>2017-05-17T09:16:41Z</time>
      </trkpt>
      <trkpt lat="43.1087" lon="6.29944">
        <ele>5.42</ele>
        <time>2017-05-17T09:16:51Z</time>
      </trkpt>
      <trkpt lat="43.10867" lon="6.29944">
        <ele>6.39</ele>
        <time>2017-05-17T09:16:55Z</time>
      </trkpt>
      <trkpt lat="43.10866" lon="6.29944">
        <ele>5.91</ele>
        <time>2017-05-17T09:16:57Z</time>
      </trkpt>
      <trkpt lat="43.1086" lon="6.2994">
        <ele>5.91</ele>
        <time>2017-05-17T09:17:04Z</time>
      </trkpt>
      <trkpt lat="43.10851" lon="6.29941">
        <ele>6.39</ele>
        <time>2017-05-17T09:17:14Z</time>
      </trkpt>
      <trkpt lat="43.10841" lon="6.29938">
        <ele>6.39</ele>
        <time>2017-05-17T09:17:25Z</time>
      </trkpt>
      <trkpt lat="43.10837" lon="6.29939">
        <ele>6.39</ele>
        <time>2017-05-17T09:17:35Z</time>
      </trkpt>
      <trkpt lat="43.10837" lon="6.29943">
        <ele>6.39</ele>
        <time>2017-05-17T09:18:09Z</time>
      </trkpt>
      <trkpt lat="43.10835" lon="6.29943">
        <ele>7.35</ele>
        <time>2017-05-17T09:18:14Z</time>
      </trkpt>
      <trkpt lat="43.10829" lon="6.29941">
        <ele>8.31</ele>
        <time>2017-05-17T09:18:24Z</time>
      </trkpt>
      <trkpt lat="43.10825" lon="6.2994">
        <ele>8.79</ele>
        <time>2017-05-17T09:18:29Z</time>
      </trkpt>
      <trkpt lat="43.10819" lon="6.29944">
        <ele>11.19</ele>
        <time>2017-05-17T09:18:39Z</time>
      </trkpt>
      <trkpt lat="43.10815" lon="6.29944">
        <ele>10.71</ele>
        <time>2017-05-17T09:18:44Z</time>
      </trkpt>
      <trkpt lat="43.10812" lon="6.29944">
        <ele>10.71</ele>
        <time>2017-05-17T09:18:48Z</time>
      </trkpt>
      <trkpt lat="43.10806" lon="6.29944">
        <ele>11.67</ele>
        <time>2017-05-17T09:18:55Z</time>
      </trkpt>
      <trkpt lat="43.10802" lon="6.29942">
        <ele>12.15</ele>
        <time>2017-05-17T09:18:59Z</time>
      </trkpt>
      <trkpt lat="43.10792" lon="6.2994">
        <ele>11.67</ele>
        <time>2017-05-17T09:19:10Z</time>
      </trkpt>
      <trkpt lat="43.10783" lon="6.29939">
        <ele>11.19</ele>
        <time>2017-05-17T09:19:18Z</time>
      </trkpt>
      <trkpt lat="43.10781" lon="6.2994">
        <ele>11.19</ele>
        <time>2017-05-17T09:19:20Z</time>
      </trkpt>
      <trkpt lat="43.10772" lon="6.29938">
        <ele>10.23</ele>
        <time>2017-05-17T09:19:29Z</time>
      </trkpt>
      <trkpt lat="43.10767" lon="6.29936">
        <ele>9.75</ele>
        <time>2017-05-17T09:19:34Z</time>
      </trkpt>
      <trkpt lat="43.10762" lon="6.29935">
        <ele>9.27</ele>
        <time>2017-05-17T09:19:41Z</time>
      </trkpt>
      <trkpt lat="43.10748" lon="6.29934">
        <ele>9.75</ele>
        <time>2017-05-17T09:19:54Z</time>
      </trkpt>
      <trkpt lat="43.10737" lon="6.29931">
        <ele>9.27</ele>
        <time>2017-05-17T09:20:05Z</time>
      </trkpt>
      <trkpt lat="43.10728" lon="6.2993">
        <ele>8.79</ele>
        <time>2017-05-17T09:20:16Z</time>
      </trkpt>
      <trkpt lat="43.10726" lon="6.29929">
        <ele>8.79</ele>
        <time>2017-05-17T09:20:19Z</time>
      </trkpt>
      <trkpt lat="43.10724" lon="6.29925">
        <ele>8.31</ele>
        <time>2017-05-17T09:20:23Z</time>
      </trkpt>
      <trkpt lat="43.10722" lon="6.29922">
        <ele>7.83</ele>
        <time>2017-05-17T09:20:26Z</time>
      </trkpt>
      <trkpt lat="43.1072" lon="6.29915">
        <ele>7.83</ele>
        <time>2017-05-17T09:20:31Z</time>
      </trkpt>
      <trkpt lat="43.10717" lon="6.29911">
        <ele>8.79</ele>
        <time>2017-05-17T09:20:37Z</time>
      </trkpt>
      <trkpt lat="43.10715" lon="6.29907">
        <ele>7.35</ele>
        <time>2017-05-17T09:20:41Z</time>
      </trkpt>
      <trkpt lat="43.10717" lon="6.29899">
        <ele>7.83</ele>
        <time>2017-05-17T09:20:48Z</time>
      </trkpt>
      <trkpt lat="43.10717" lon="6.29892">
        <ele>8.31</ele>
        <time>2017-05-17T09:20:53Z</time>
      </trkpt>
      <trkpt lat="43.10713" lon="6.29885">
        <ele>8.79</ele>
        <time>2017-05-17T09:21:00Z</time>
      </trkpt>
      <trkpt lat="43.10712" lon="6.29881">
        <ele>9.27</ele>
        <time>2017-05-17T09:21:05Z</time>
      </trkpt>
      <trkpt lat="43.10712" lon="6.29878">
        <ele>11.67</ele>
        <time>2017-05-17T09:21:08Z</time>
      </trkpt>
      <trkpt lat="43.10714" lon="6.29873">
        <ele>11.19</ele>
        <time>2017-05-17T09:21:13Z</time>
      </trkpt>
      <trkpt lat="43.10713" lon="6.29868">
        <ele>11.19</ele>
        <time>2017-05-17T09:21:18Z</time>
      </trkpt>
      <trkpt lat="43.10713" lon="6.29865">
        <ele>11.67</ele>
        <time>2017-05-17T09:21:20Z</time>
      </trkpt>
      <trkpt lat="43.10712" lon="6.29859">
        <ele>11.19</ele>
        <time>2017-05-17T09:21:26Z</time>
      </trkpt>
      <trkpt lat="43.10713" lon="6.29855">
        <ele>11.67</ele>
        <time>2017-05-17T09:21:29Z</time>
      </trkpt>
      <trkpt lat="43.10709" lon="6.29847">
        <ele>14.56</ele>
        <time>2017-05-17T09:21:40Z</time>
      </trkpt>
      <trkpt lat="43.10709" lon="6.29841">
        <ele>15.52</ele>
        <time>2017-05-17T09:21:53Z</time>
      </trkpt>
      <trkpt lat="43.10706" lon="6.29831">
        <ele>17.44</ele>
        <time>2017-05-17T09:22:03Z</time>
      </trkpt>
      <trkpt lat="43.10706" lon="6.29827">
        <ele>16.96</ele>
        <time>2017-05-17T09:22:07Z</time>
      </trkpt>
      <trkpt lat="43.10706" lon="6.29823">
        <ele>16.96</ele>
        <time>2017-05-17T09:22:10Z</time>
      </trkpt>
      <trkpt lat="43.10708" lon="6.2981">
        <ele>16</ele>
        <time>2017-05-17T09:22:20Z</time>
      </trkpt>
      <trkpt lat="43.10709" lon="6.29808">
        <ele>15.04</ele>
        <time>2017-05-17T09:22:34Z</time>
      </trkpt>
      <trkpt lat="43.1071" lon="6.29809">
        <ele>15.04</ele>
        <time>2017-05-17T09:23:05Z</time>
      </trkpt>
      <trkpt lat="43.1071" lon="6.2981">
        <ele>15.04</ele>
        <time>2017-05-17T09:23:31Z</time>
      </trkpt>
      <trkpt lat="43.10707" lon="6.29803">
        <ele>15.04</ele>
        <time>2017-05-17T09:23:49Z</time>
      </trkpt>
      <trkpt lat="43.10705" lon="6.29798">
        <ele>14.56</ele>
        <time>2017-05-17T09:24:09Z</time>
      </trkpt>
      <trkpt lat="43.10705" lon="6.29798">
        <ele>15.04</ele>
        <time>2017-05-17T09:24:32Z</time>
      </trkpt>
      <trkpt lat="43.10702" lon="6.29798">
        <ele>15.04</ele>
        <time>2017-05-17T09:24:42Z</time>
      </trkpt>
      <trkpt lat="43.10703" lon="6.29796">
        <ele>15.52</ele>
        <time>2017-05-17T09:25:15Z</time>
      </trkpt>
      <trkpt lat="43.107" lon="6.29796">
        <ele>15.52</ele>
        <time>2017-05-17T09:25:31Z</time>
      </trkpt>
      <trkpt lat="43.10699" lon="6.29799">
        <ele>16.96</ele>
        <time>2017-05-17T09:25:35Z</time>
      </trkpt>
      <trkpt lat="43.10695" lon="6.29802">
        <ele>19.36</ele>
        <time>2017-05-17T09:25:43Z</time>
      </trkpt>
      <trkpt lat="43.10692" lon="6.29806">
        <ele>19.84</ele>
        <time>2017-05-17T09:25:49Z</time>
      </trkpt>
      <trkpt lat="43.10689" lon="6.29811">
        <ele>24.17</ele>
        <time>2017-05-17T09:25:56Z</time>
      </trkpt>
      <trkpt lat="43.10689" lon="6.29811">
        <ele>20.81</ele>
        <time>2017-05-17T09:25:57Z</time>
      </trkpt>
      <trkpt lat="43.10685" lon="6.29812">
        <ele>21.77</ele>
        <time>2017-05-17T09:26:02Z</time>
      </trkpt>
      <trkpt lat="43.10677" lon="6.29807">
        <ele>20.32</ele>
        <time>2017-05-17T09:26:13Z</time>
      </trkpt>
      <trkpt lat="43.10676" lon="6.29808">
        <ele>20.81</ele>
        <time>2017-05-17T09:26:14Z</time>
      </trkpt>
      <trkpt lat="43.10674" lon="6.29809">
        <ele>20.81</ele>
        <time>2017-05-17T09:26:25Z</time>
      </trkpt>
      <trkpt lat="43.10674" lon="6.29807">
        <ele>19.84</ele>
        <time>2017-05-17T09:26:37Z</time>
      </trkpt>
      <trkpt lat="43.10673" lon="6.29809">
        <ele>20.32</ele>
        <time>2017-05-17T09:26:50Z</time>
      </trkpt>
      <trkpt lat="43.10672" lon="6.29812">
        <ele>22.73</ele>
        <time>2017-05-17T09:26:52Z</time>
      </trkpt>
      <trkpt lat="43.10671" lon="6.29813">
        <ele>20.32</ele>
        <time>2017-05-17T09:26:53Z</time>
      </trkpt>
      <trkpt lat="43.10668" lon="6.29816">
        <ele>22.73</ele>
        <time>2017-05-17T09:26:59Z</time>
      </trkpt>
      <trkpt lat="43.10667" lon="6.29816">
        <ele>22.73</ele>
        <time>2017-05-17T09:27:02Z</time>
      </trkpt>
      <trkpt lat="43.10666" lon="6.29818">
        <ele>22.25</ele>
        <time>2017-05-17T09:27:17Z</time>
      </trkpt>
      <trkpt lat="43.10667" lon="6.29819">
        <ele>22.25</ele>
        <time>2017-05-17T09:27:51Z</time>
      </trkpt>
      <trkpt lat="43.10667" lon="6.29819">
        <ele>22.73</ele>
        <time>2017-05-17T09:28:24Z</time>
      </trkpt>
      <trkpt lat="43.10669" lon="6.29818">
        <ele>22.73</ele>
        <time>2017-05-17T09:28:30Z</time>
      </trkpt>
      <trkpt lat="43.10673" lon="6.2982">
        <ele>23.69</ele>
        <time>2017-05-17T09:28:37Z</time>
      </trkpt>
      <trkpt lat="43.10675" lon="6.29825">
        <ele>25.61</ele>
        <time>2017-05-17T09:28:46Z</time>
      </trkpt>
      <trkpt lat="43.10674" lon="6.29833">
        <ele>25.13</ele>
        <time>2017-05-17T09:28:57Z</time>
      </trkpt>
      <trkpt lat="43.10676" lon="6.29839">
        <ele>24.17</ele>
        <time>2017-05-17T09:29:09Z</time>
      </trkpt>
      <trkpt lat="43.10676" lon="6.29846">
        <ele>23.21</ele>
        <time>2017-05-17T09:29:14Z</time>
      </trkpt>
      <trkpt lat="43.10676" lon="6.2985">
        <ele>21.29</ele>
        <time>2017-05-17T09:29:19Z</time>
      </trkpt>
      <trkpt lat="43.10675" lon="6.29855">
        <ele>21.29</ele>
        <time>2017-05-17T09:29:29Z</time>
      </trkpt>
      <trkpt lat="43.10675" lon="6.29862">
        <ele>20.81</ele>
        <time>2017-05-17T09:29:34Z</time>
      </trkpt>
      <trkpt lat="43.10673" lon="6.29868">
        <ele>19.84</ele>
        <time>2017-05-17T09:29:40Z</time>
      </trkpt>
      <trkpt lat="43.10672" lon="6.29873">
        <ele>18.88</ele>
        <time>2017-05-17T09:29:45Z</time>
      </trkpt>
      <trkpt lat="43.1067" lon="6.29878">
        <ele>18.88</ele>
        <time>2017-05-17T09:29:50Z</time>
      </trkpt>
      <trkpt lat="43.10662" lon="6.29888">
        <ele>18.4</ele>
        <time>2017-05-17T09:30:02Z</time>
      </trkpt>
      <trkpt lat="43.1066" lon="6.2989">
        <ele>18.4</ele>
        <time>2017-05-17T09:30:05Z</time>
      </trkpt>
      <trkpt lat="43.10653" lon="6.29895">
        <ele>17.92</ele>
        <time>2017-05-17T09:30:16Z</time>
      </trkpt>
      <trkpt lat="43.10651" lon="6.29897">
        <ele>17.92</ele>
        <time>2017-05-17T09:30:20Z</time>
      </trkpt>
      <trkpt lat="43.10649" lon="6.29899">
        <ele>17.44</ele>
        <time>2017-05-17T09:30:23Z</time>
      </trkpt>
      <trkpt lat="43.10645" lon="6.29904">
        <ele>16.48</ele>
        <time>2017-05-17T09:30:35Z</time>
      </trkpt>
      <trkpt lat="43.10642" lon="6.29908">
        <ele>15.04</ele>
        <time>2017-05-17T09:30:47Z</time>
      </trkpt>
      <trkpt lat="43.1064" lon="6.29906">
        <ele>14.08</ele>
        <time>2017-05-17T09:31:01Z</time>
      </trkpt>
      <trkpt lat="43.1064" lon="6.29908">
        <ele>14.56</ele>
        <time>2017-05-17T09:31:15Z</time>
      </trkpt>
      <trkpt lat="43.10638" lon="6.29913">
        <ele>13.6</ele>
        <time>2017-05-17T09:31:20Z</time>
      </trkpt>
      <trkpt lat="43.10636" lon="6.29918">
        <ele>13.12</ele>
        <time>2017-05-17T09:31:24Z</time>
      </trkpt>
      <trkpt lat="43.10633" lon="6.29924">
        <ele>11.67</ele>
        <time>2017-05-17T09:31:29Z</time>
      </trkpt>
      <trkpt lat="43.10633" lon="6.29925">
        <ele>11.67</ele>
        <time>2017-05-17T09:31:30Z</time>
      </trkpt>
      <trkpt lat="43.10636" lon="6.29943">
        <ele>11.19</ele>
        <time>2017-05-17T09:31:41Z</time>
      </trkpt>
      <trkpt lat="43.10643" lon="6.29957">
        <ele>9.27</ele>
        <time>2017-05-17T09:31:51Z</time>
      </trkpt>
      <trkpt lat="43.10644" lon="6.29963">
        <ele>8.79</ele>
        <time>2017-05-17T09:31:56Z</time>
      </trkpt>
      <trkpt lat="43.10646" lon="6.29972">
        <ele>8.79</ele>
        <time>2017-05-17T09:32:03Z</time>
      </trkpt>
      <trkpt lat="43.10645" lon="6.29978">
        <ele>8.79</ele>
        <time>2017-05-17T09:32:09Z</time>
      </trkpt>
      <trkpt lat="43.10645" lon="6.29982">
        <ele>7.83</ele>
        <time>2017-05-17T09:32:12Z</time>
      </trkpt>
      <trkpt lat="43.10644" lon="6.29985">
        <ele>8.31</ele>
        <time>2017-05-17T09:32:15Z</time>
      </trkpt>
      <trkpt lat="43.10642" lon="6.29993">
        <ele>8.31</ele>
        <time>2017-05-17T09:32:22Z</time>
      </trkpt>
      <trkpt lat="43.10641" lon="6.29998">
        <ele>7.83</ele>
        <time>2017-05-17T09:32:26Z</time>
      </trkpt>
      <trkpt lat="43.10639" lon="6.3001">
        <ele>7.83</ele>
        <time>2017-05-17T09:32:34Z</time>
      </trkpt>
      <trkpt lat="43.1064" lon="6.30016">
        <ele>7.35</ele>
        <time>2017-05-17T09:32:38Z</time>
      </trkpt>
      <trkpt lat="43.10642" lon="6.30019">
        <ele>7.83</ele>
        <time>2017-05-17T09:32:41Z</time>
      </trkpt>
      <trkpt lat="43.10642" lon="6.30026">
        <ele>8.79</ele>
        <time>2017-05-17T09:32:50Z</time>
      </trkpt>
      <trkpt lat="43.10646" lon="6.30032">
        <ele>8.79</ele>
        <time>2017-05-17T09:32:56Z</time>
      </trkpt>
      <trkpt lat="43.10647" lon="6.30035">
        <ele>9.27</ele>
        <time>2017-05-17T09:32:58Z</time>
      </trkpt>
      <trkpt lat="43.10649" lon="6.30039">
        <ele>7.35</ele>
        <time>2017-05-17T09:33:03Z</time>
      </trkpt>
      <trkpt lat="43.10655" lon="6.30043">
        <ele>6.87</ele>
        <time>2017-05-17T09:33:08Z</time>
      </trkpt>
      <trkpt lat="43.10664" lon="6.30052">
        <ele>7.35</ele>
        <time>2017-05-17T09:33:20Z</time>
      </trkpt>
      <trkpt lat="43.10667" lon="6.30056">
        <ele>6.87</ele>
        <time>2017-05-17T09:33:33Z</time>
      </trkpt>
      <trkpt lat="43.10672" lon="6.30058">
        <ele>6.87</ele>
        <time>2017-05-17T09:33:40Z</time>
      </trkpt>
      <trkpt lat="43.10676" lon="6.30059">
        <ele>7.35</ele>
        <time>2017-05-17T09:33:49Z</time>
      </trkpt>
      <trkpt lat="43.10679" lon="6.30063">
        <ele>8.31</ele>
        <time>2017-05-17T09:33:58Z</time>
      </trkpt>
      <trkpt lat="43.10682" lon="6.30067">
        <ele>9.27</ele>
        <time>2017-05-17T09:34:09Z</time>
      </trkpt>
      <trkpt lat="43.10682" lon="6.30068">
        <ele>8.79</ele>
        <time>2017-05-17T09:34:11Z</time>
      </trkpt>
      <trkpt lat="43.10686" lon="6.30071">
        <ele>8.31</ele>
        <time>2017-05-17T09:34:17Z</time>
      </trkpt>
      <trkpt lat="43.10688" lon="6.30072">
        <ele>8.31</ele>
        <time>2017-05-17T09:34:19Z</time>
      </trkpt>
      <trkpt lat="43.1069" lon="6.30081">
        <ele>9.27</ele>
        <time>2017-05-17T09:34:30Z</time>
      </trkpt>
      <trkpt lat="43.10691" lon="6.30088">
        <ele>8.79</ele>
        <time>2017-05-17T09:34:41Z</time>
      </trkpt>
      <trkpt lat="43.10692" lon="6.30092">
        <ele>9.27</ele>
        <time>2017-05-17T09:34:47Z</time>
      </trkpt>
      <trkpt lat="43.10691" lon="6.301">
        <ele>8.79</ele>
        <time>2017-05-17T09:34:59Z</time>
      </trkpt>
      <trkpt lat="43.10691" lon="6.30103">
        <ele>8.79</ele>
        <time>2017-05-17T09:35:04Z</time>
      </trkpt>
      <trkpt lat="43.10692" lon="6.30109">
        <ele>7.83</ele>
        <time>2017-05-17T09:35:15Z</time>
      </trkpt>
      <trkpt lat="43.10692" lon="6.30112">
        <ele>9.27</ele>
        <time>2017-05-17T09:35:34Z</time>
      </trkpt>
      <trkpt lat="43.10692" lon="6.30118">
        <ele>8.79</ele>
        <time>2017-05-17T09:35:48Z</time>
      </trkpt>
      <trkpt lat="43.10691" lon="6.3013">
        <ele>9.27</ele>
        <time>2017-05-17T09:36:01Z</time>
      </trkpt>
      <trkpt lat="43.10691" lon="6.30132">
        <ele>8.79</ele>
        <time>2017-05-17T09:36:03Z</time>
      </trkpt>
      <trkpt lat="43.10691" lon="6.30146">
        <ele>7.83</ele>
        <time>2017-05-17T09:36:15Z</time>
      </trkpt>
      <trkpt lat="43.10693" lon="6.30154">
        <ele>9.27</ele>
        <time>2017-05-17T09:36:27Z</time>
      </trkpt>
      <trkpt lat="43.10693" lon="6.30155">
        <ele>9.27</ele>
        <time>2017-05-17T09:36:28Z</time>
      </trkpt>
      <trkpt lat="43.10695" lon="6.30155">
        <ele>8.31</ele>
        <time>2017-05-17T09:36:30Z</time>
      </trkpt>
      <trkpt lat="43.10696" lon="6.30155">
        <ele>7.35</ele>
        <time>2017-05-17T09:36:31Z</time>
      </trkpt>
      <trkpt lat="43.10703" lon="6.30158">
        <ele>6.39</ele>
        <time>2017-05-17T09:36:41Z</time>
      </trkpt>
      <trkpt lat="43.10705" lon="6.30161">
        <ele>7.35</ele>
        <time>2017-05-17T09:36:50Z</time>
      </trkpt>
      <trkpt lat="43.10711" lon="6.30165">
        <ele>5.91</ele>
        <time>2017-05-17T09:36:59Z</time>
      </trkpt>
      <trkpt lat="43.10714" lon="6.3017">
        <ele>6.39</ele>
        <time>2017-05-17T09:37:10Z</time>
      </trkpt>
      <trkpt lat="43.10717" lon="6.30176">
        <ele>6.39</ele>
        <time>2017-05-17T09:37:17Z</time>
      </trkpt>
      <trkpt lat="43.10719" lon="6.30177">
        <ele>5.42</ele>
        <time>2017-05-17T09:37:19Z</time>
      </trkpt>
      <trkpt lat="43.10721" lon="6.30178">
        <ele>6.39</ele>
        <time>2017-05-17T09:37:21Z</time>
      </trkpt>
      <trkpt lat="43.10732" lon="6.30176">
        <ele>5.91</ele>
        <time>2017-05-17T09:37:29Z</time>
      </trkpt>
      <trkpt lat="43.10736" lon="6.30177">
        <ele>6.39</ele>
        <time>2017-05-17T09:37:33Z</time>
      </trkpt>
      <trkpt lat="43.10743" lon="6.30177">
        <ele>5.91</ele>
        <time>2017-05-17T09:37:41Z</time>
      </trkpt>
      <trkpt lat="43.1075" lon="6.30182">
        <ele>5.91</ele>
        <time>2017-05-17T09:37:51Z</time>
      </trkpt>
      <trkpt lat="43.10751" lon="6.30183">
        <ele>6.39</ele>
        <time>2017-05-17T09:37:52Z</time>
      </trkpt>
      <trkpt lat="43.10754" lon="6.30184">
        <ele>5.91</ele>
        <time>2017-05-17T09:37:55Z</time>
      </trkpt>
      <trkpt lat="43.10759" lon="6.30188">
        <ele>6.39</ele>
        <time>2017-05-17T09:38:01Z</time>
      </trkpt>
      <trkpt lat="43.10761" lon="6.30189">
        <ele>6.39</ele>
        <time>2017-05-17T09:38:04Z</time>
      </trkpt>
      <trkpt lat="43.10768" lon="6.30193">
        <ele>6.39</ele>
        <time>2017-05-17T09:38:11Z</time>
      </trkpt>
      <trkpt lat="43.10773" lon="6.30201">
        <ele>6.87</ele>
        <time>2017-05-17T09:38:19Z</time>
      </trkpt>
      <trkpt lat="43.1078" lon="6.30212">
        <ele>6.87</ele>
        <time>2017-05-17T09:38:29Z</time>
      </trkpt>
      <trkpt lat="43.10782" lon="6.30215">
        <ele>6.87</ele>
        <time>2017-05-17T09:38:32Z</time>
      </trkpt>
      <trkpt lat="43.10785" lon="6.3022">
        <ele>7.35</ele>
        <time>2017-05-17T09:38:38Z</time>
      </trkpt>
      <trkpt lat="43.10793" lon="6.30233">
        <ele>7.35</ele>
        <time>2017-05-17T09:38:49Z</time>
      </trkpt>
      <trkpt lat="43.10793" lon="6.30235">
        <ele>6.87</ele>
        <time>2017-05-17T09:38:51Z</time>
      </trkpt>
      <trkpt lat="43.10795" lon="6.30247">
        <ele>7.35</ele>
        <time>2017-05-17T09:39:01Z</time>
      </trkpt>
      <trkpt lat="43.10797" lon="6.30251">
        <ele>6.87</ele>
        <time>2017-05-17T09:39:09Z</time>
      </trkpt>
      <trkpt lat="43.10798" lon="6.30259">
        <ele>7.35</ele>
        <time>2017-05-17T09:39:18Z</time>
      </trkpt>
      <trkpt lat="43.108" lon="6.30272">
        <ele>7.35</ele>
        <time>2017-05-17T09:39:27Z</time>
      </trkpt>
      <trkpt lat="43.10801" lon="6.30289">
        <ele>7.83</ele>
        <time>2017-05-17T09:39:37Z</time>
      </trkpt>
      <trkpt lat="43.10803" lon="6.303">
        <ele>7.35</ele>
        <time>2017-05-17T09:39:46Z</time>
      </trkpt>
      <trkpt lat="43.10803" lon="6.30315">
        <ele>7.83</ele>
        <time>2017-05-17T09:39:56Z</time>
      </trkpt>
      <trkpt lat="43.10803" lon="6.30328">
        <ele>6.87</ele>
        <time>2017-05-17T09:40:05Z</time>
      </trkpt>
      <trkpt lat="43.10802" lon="6.30336">
        <ele>7.83</ele>
        <time>2017-05-17T09:40:12Z</time>
      </trkpt>
      <trkpt lat="43.10805" lon="6.3035">
        <ele>6.87</ele>
        <time>2017-05-17T09:40:22Z</time>
      </trkpt>
      <trkpt lat="43.10805" lon="6.30354">
        <ele>6.39</ele>
        <time>2017-05-17T09:40:25Z</time>
      </trkpt>
      <trkpt lat="43.10805" lon="6.30359">
        <ele>6.87</ele>
        <time>2017-05-17T09:40:29Z</time>
      </trkpt>
      <trkpt lat="43.10804" lon="6.30365">
        <ele>7.35</ele>
        <time>2017-05-17T09:40:33Z</time>
      </trkpt>
      <trkpt lat="43.10805" lon="6.30374">
        <ele>8.31</ele>
        <time>2017-05-17T09:40:40Z</time>
      </trkpt>
      <trkpt lat="43.10805" lon="6.30376">
        <ele>8.31</ele>
        <time>2017-05-17T09:40:43Z</time>
      </trkpt>
      <trkpt lat="43.10806" lon="6.3038">
        <ele>7.83</ele>
        <time>2017-05-17T09:40:46Z</time>
      </trkpt>
      <trkpt lat="43.10804" lon="6.30383">
        <ele>7.83</ele>
        <time>2017-05-17T09:40:49Z</time>
      </trkpt>
      <trkpt lat="43.10805" lon="6.30396">
        <ele>6.87</ele>
        <time>2017-05-17T09:41:01Z</time>
      </trkpt>
      <trkpt lat="43.10804" lon="6.304">
        <ele>7.35</ele>
        <time>2017-05-17T09:41:05Z</time>
      </trkpt>
      <trkpt lat="43.10804" lon="6.30405">
        <ele>6.39</ele>
        <time>2017-05-17T09:41:09Z</time>
      </trkpt>
      <trkpt lat="43.10803" lon="6.30411">
        <ele>6.87</ele>
        <time>2017-05-17T09:41:13Z</time>
      </trkpt>
      <trkpt lat="43.10805" lon="6.30419">
        <ele>6.39</ele>
        <time>2017-05-17T09:41:19Z</time>
      </trkpt>
      <trkpt lat="43.10807" lon="6.30424">
        <ele>6.39</ele>
        <time>2017-05-17T09:41:31Z</time>
      </trkpt>
      <trkpt lat="43.10808" lon="6.3043">
        <ele>5.91</ele>
        <time>2017-05-17T09:41:38Z</time>
      </trkpt>
      <trkpt lat="43.10807" lon="6.30442">
        <ele>6.39</ele>
        <time>2017-05-17T09:41:50Z</time>
      </trkpt>
      <trkpt lat="43.10806" lon="6.30454">
        <ele>6.39</ele>
        <time>2017-05-17T09:42:02Z</time>
      </trkpt>
      <trkpt lat="43.10807" lon="6.30455">
        <ele>5.91</ele>
        <time>2017-05-17T09:42:03Z</time>
      </trkpt>
      <trkpt lat="43.1081" lon="6.30461">
        <ele>6.87</ele>
        <time>2017-05-17T09:42:17Z</time>
      </trkpt>
      <trkpt lat="43.1081" lon="6.30462">
        <ele>6.87</ele>
        <time>2017-05-17T09:42:18Z</time>
      </trkpt>
      <trkpt lat="43.10809" lon="6.30469">
        <ele>7.35</ele>
        <time>2017-05-17T09:42:22Z</time>
      </trkpt>
      <trkpt lat="43.10806" lon="6.30485">
        <ele>7.35</ele>
        <time>2017-05-17T09:42:33Z</time>
      </trkpt>
      <trkpt lat="43.10803" lon="6.30497">
        <ele>8.31</ele>
        <time>2017-05-17T09:42:43Z</time>
      </trkpt>
      <trkpt lat="43.10803" lon="6.30504">
        <ele>6.87</ele>
        <time>2017-05-17T09:42:56Z</time>
      </trkpt>
      <trkpt lat="43.10803" lon="6.30509">
        <ele>6.39</ele>
        <time>2017-05-17T09:43:01Z</time>
      </trkpt>
      <trkpt lat="43.10803" lon="6.3051">
        <ele>6.87</ele>
        <time>2017-05-17T09:43:02Z</time>
      </trkpt>
      <trkpt lat="43.10806" lon="6.30523">
        <ele>7.35</ele>
        <time>2017-05-17T09:43:12Z</time>
      </trkpt>
      <trkpt lat="43.10806" lon="6.30525">
        <ele>7.83</ele>
        <time>2017-05-17T09:43:14Z</time>
      </trkpt>
      <trkpt lat="43.10807" lon="6.30529">
        <ele>7.35</ele>
        <time>2017-05-17T09:43:17Z</time>
      </trkpt>
      <trkpt lat="43.1081" lon="6.30543">
        <ele>6.87</ele>
        <time>2017-05-17T09:43:28Z</time>
      </trkpt>
      <trkpt lat="43.10812" lon="6.30551">
        <ele>5.91</ele>
        <time>2017-05-17T09:43:39Z</time>
      </trkpt>
      <trkpt lat="43.10815" lon="6.30563">
        <ele>6.39</ele>
        <time>2017-05-17T09:43:50Z</time>
      </trkpt>
      <trkpt lat="43.10816" lon="6.30567">
        <ele>6.39</ele>
        <time>2017-05-17T09:43:53Z</time>
      </trkpt>
      <trkpt lat="43.10819" lon="6.3058">
        <ele>6.87</ele>
        <time>2017-05-17T09:44:04Z</time>
      </trkpt>
      <trkpt lat="43.10823" lon="6.30589">
        <ele>6.87</ele>
        <time>2017-05-17T09:44:13Z</time>
      </trkpt>
      <trkpt lat="43.10823" lon="6.30592">
        <ele>6.87</ele>
        <time>2017-05-17T09:44:15Z</time>
      </trkpt>
      <trkpt lat="43.10823" lon="6.30603">
        <ele>6.87</ele>
        <time>2017-05-17T09:44:23Z</time>
      </trkpt>
      <trkpt lat="43.10824" lon="6.30609">
        <ele>6.39</ele>
        <time>2017-05-17T09:44:28Z</time>
      </trkpt>
      <trkpt lat="43.10826" lon="6.30624">
        <ele>5.91</ele>
        <time>2017-05-17T09:44:39Z</time>
      </trkpt>
      <trkpt lat="43.10829" lon="6.30633">
        <ele>5.91</ele>
        <time>2017-05-17T09:44:47Z</time>
      </trkpt>
      <trkpt lat="43.1083" lon="6.30638">
        <ele>6.39</ele>
        <time>2017-05-17T09:44:51Z</time>
      </trkpt>
      <trkpt lat="43.10831" lon="6.30642">
        <ele>6.87</ele>
        <time>2017-05-17T09:44:54Z</time>
      </trkpt>
      <trkpt lat="43.10833" lon="6.30646">
        <ele>6.39</ele>
        <time>2017-05-17T09:44:58Z</time>
      </trkpt>
      <trkpt lat="43.10838" lon="6.3066">
        <ele>5.91</ele>
        <time>2017-05-17T09:45:09Z</time>
      </trkpt>
      <trkpt lat="43.10838" lon="6.30671">
        <ele>6.39</ele>
        <time>2017-05-17T09:45:17Z</time>
      </trkpt>
      <trkpt lat="43.10838" lon="6.30677">
        <ele>5.91</ele>
        <time>2017-05-17T09:45:21Z</time>
      </trkpt>
      <trkpt lat="43.10838" lon="6.30693">
        <ele>5.91</ele>
        <time>2017-05-17T09:45:32Z</time>
      </trkpt>
      <trkpt lat="43.10841" lon="6.30705">
        <ele>4.94</ele>
        <time>2017-05-17T09:45:41Z</time>
      </trkpt>
      <trkpt lat="43.10846" lon="6.3073">
        <ele>5.42</ele>
        <time>2017-05-17T09:46:00Z</time>
      </trkpt>
      <trkpt lat="43.10847" lon="6.30749">
        <ele>4.46</ele>
        <time>2017-05-17T09:46:12Z</time>
      </trkpt>
      <trkpt lat="43.10847" lon="6.30755">
        <ele>3.98</ele>
        <time>2017-05-17T09:46:16Z</time>
      </trkpt>
      <trkpt lat="43.10847" lon="6.30762">
        <ele>4.46</ele>
        <time>2017-05-17T09:46:20Z</time>
      </trkpt>
      <trkpt lat="43.10847" lon="6.30769">
        <ele>5.42</ele>
        <time>2017-05-17T09:46:25Z</time>
      </trkpt>
      <trkpt lat="43.10847" lon="6.30791">
        <ele>5.42</ele>
        <time>2017-05-17T09:46:38Z</time>
      </trkpt>
      <trkpt lat="43.10847" lon="6.30807">
        <ele>5.91</ele>
        <time>2017-05-17T09:46:48Z</time>
      </trkpt>
      <trkpt lat="43.10847" lon="6.30827">
        <ele>6.87</ele>
        <time>2017-05-17T09:46:59Z</time>
      </trkpt>
      <trkpt lat="43.10847" lon="6.30828">
        <ele>6.39</ele>
        <time>2017-05-17T09:47:00Z</time>
      </trkpt>
      <trkpt lat="43.10847" lon="6.3085">
        <ele>6.39</ele>
        <time>2017-05-17T09:47:12Z</time>
      </trkpt>
      <trkpt lat="43.10847" lon="6.30867">
        <ele>7.83</ele>
        <time>2017-05-17T09:47:23Z</time>
      </trkpt>
      <trkpt lat="43.10845" lon="6.30884">
        <ele>5.42</ele>
        <time>2017-05-17T09:47:34Z</time>
      </trkpt>
      <trkpt lat="43.10842" lon="6.30903">
        <ele>6.39</ele>
        <time>2017-05-17T09:47:46Z</time>
      </trkpt>
      <trkpt lat="43.1084" lon="6.30921">
        <ele>6.39</ele>
        <time>2017-05-17T09:47:58Z</time>
      </trkpt>
      <trkpt lat="43.10839" lon="6.30938">
        <ele>6.39</ele>
        <time>2017-05-17T09:48:09Z</time>
      </trkpt>
      <trkpt lat="43.10837" lon="6.30956">
        <ele>6.39</ele>
        <time>2017-05-17T09:48:20Z</time>
      </trkpt>
      <trkpt lat="43.10835" lon="6.30977">
        <ele>4.94</ele>
        <time>2017-05-17T09:48:32Z</time>
      </trkpt>
      <trkpt lat="43.10835" lon="6.30978">
        <ele>4.94</ele>
        <time>2017-05-17T09:48:33Z</time>
      </trkpt>
      <trkpt lat="43.10834" lon="6.30998">
        <ele>5.91</ele>
        <time>2017-05-17T09:48:46Z</time>
      </trkpt>
      <trkpt lat="43.10831" lon="6.31014">
        <ele>5.91</ele>
        <time>2017-05-17T09:48:57Z</time>
      </trkpt>
      <trkpt lat="43.10829" lon="6.31031">
        <ele>6.87</ele>
        <time>2017-05-17T09:49:08Z</time>
      </trkpt>
      <trkpt lat="43.10827" lon="6.31048">
        <ele>6.39</ele>
        <time>2017-05-17T09:49:20Z</time>
      </trkpt>
      <trkpt lat="43.10825" lon="6.31063">
        <ele>6.39</ele>
        <time>2017-05-17T09:49:31Z</time>
      </trkpt>
      <trkpt lat="43.10822" lon="6.31079">
        <ele>5.42</ele>
        <time>2017-05-17T09:49:41Z</time>
      </trkpt>
      <trkpt lat="43.10822" lon="6.31081">
        <ele>5.42</ele>
        <time>2017-05-17T09:49:42Z</time>
      </trkpt>
      <trkpt lat="43.10822" lon="6.31083">
        <ele>5.91</ele>
        <time>2017-05-17T09:49:44Z</time>
      </trkpt>
      <trkpt lat="43.10819" lon="6.31098">
        <ele>5.42</ele>
        <time>2017-05-17T09:49:54Z</time>
      </trkpt>
      <trkpt lat="43.10817" lon="6.31116">
        <ele>5.42</ele>
        <time>2017-05-17T09:50:05Z</time>
      </trkpt>
      <trkpt lat="43.10813" lon="6.31133">
        <ele>5.91</ele>
        <time>2017-05-17T09:50:16Z</time>
      </trkpt>
      <trkpt lat="43.1081" lon="6.31151">
        <ele>4.94</ele>
        <time>2017-05-17T09:50:27Z</time>
      </trkpt>
      <trkpt lat="43.10807" lon="6.31169">
        <ele>5.91</ele>
        <time>2017-05-17T09:50:39Z</time>
      </trkpt>
      <trkpt lat="43.10803" lon="6.31186">
        <ele>6.39</ele>
        <time>2017-05-17T09:50:50Z</time>
      </trkpt>
      <trkpt lat="43.108" lon="6.31203">
        <ele>4.94</ele>
        <time>2017-05-17T09:51:01Z</time>
      </trkpt>
      <trkpt lat="43.10796" lon="6.3122">
        <ele>4.94</ele>
        <time>2017-05-17T09:51:12Z</time>
      </trkpt>
      <trkpt lat="43.10792" lon="6.31238">
        <ele>4.46</ele>
        <time>2017-05-17T09:51:23Z</time>
      </trkpt>
      <trkpt lat="43.10788" lon="6.31256">
        <ele>4.46</ele>
        <time>2017-05-17T09:51:34Z</time>
      </trkpt>
      <trkpt lat="43.10785" lon="6.31273">
        <ele>3.98</ele>
        <time>2017-05-17T09:51:45Z</time>
      </trkpt>
      <trkpt lat="43.10783" lon="6.31279">
        <ele>4.46</ele>
        <time>2017-05-17T09:51:49Z</time>
      </trkpt>
      <trkpt lat="43.10778" lon="6.31297">
        <ele>4.46</ele>
        <time>2017-05-17T09:52:01Z</time>
      </trkpt>
      <trkpt lat="43.10777" lon="6.31304">
        <ele>4.46</ele>
        <time>2017-05-17T09:52:06Z</time>
      </trkpt>
      <trkpt lat="43.10775" lon="6.3132">
        <ele>4.46</ele>
        <time>2017-05-17T09:52:16Z</time>
      </trkpt>
      <trkpt lat="43.10773" lon="6.31326">
        <ele>5.42</ele>
        <time>2017-05-17T09:52:21Z</time>
      </trkpt>
      <trkpt lat="43.10769" lon="6.31337">
        <ele>4.94</ele>
        <time>2017-05-17T09:52:30Z</time>
      </trkpt>
      <trkpt lat="43.10765" lon="6.31347">
        <ele>5.42</ele>
        <time>2017-05-17T09:52:41Z</time>
      </trkpt>
      <trkpt lat="43.10765" lon="6.31348">
        <ele>5.42</ele>
        <time>2017-05-17T09:52:42Z</time>
      </trkpt>
      <trkpt lat="43.10756" lon="6.31346">
        <ele>5.42</ele>
        <time>2017-05-17T09:52:52Z</time>
      </trkpt>
      <trkpt lat="43.10753" lon="6.31348">
        <ele>4.46</ele>
        <time>2017-05-17T09:52:56Z</time>
      </trkpt>
      <trkpt lat="43.10751" lon="6.31351">
        <ele>4.94</ele>
        <time>2017-05-17T09:52:59Z</time>
      </trkpt>
      <trkpt lat="43.10748" lon="6.31352">
        <ele>5.42</ele>
        <time>2017-05-17T09:53:02Z</time>
      </trkpt>
      <trkpt lat="43.10738" lon="6.31351">
        <ele>5.91</ele>
        <time>2017-05-17T09:53:12Z</time>
      </trkpt>
      <trkpt lat="43.10736" lon="6.31352">
        <ele>9.27</ele>
        <time>2017-05-17T09:53:16Z</time>
      </trkpt>
      <trkpt lat="43.10731" lon="6.31353">
        <ele>7.35</ele>
        <time>2017-05-17T09:53:26Z</time>
      </trkpt>
      <trkpt lat="43.10733" lon="6.31354">
        <ele>3.02</ele>
        <time>2017-05-17T09:53:34Z</time>
      </trkpt>
      <trkpt lat="43.10733" lon="6.31354">
        <ele>8.79</ele>
        <time>2017-05-17T09:53:35Z</time>
      </trkpt>
      <trkpt lat="43.10733" lon="6.31354">
        <ele>6.87</ele>
        <time>2017-05-17T09:53:38Z</time>
      </trkpt>
      <trkpt lat="43.10733" lon="6.31353">
        <ele>7.35</ele>
        <time>2017-05-17T09:54:11Z</time>
      </trkpt>
      <trkpt lat="43.10733" lon="6.31355">
        <ele>7.35</ele>
        <time>2017-05-17T09:54:45Z</time>
      </trkpt>
      <trkpt lat="43.10733" lon="6.31357">
        <ele>6.87</ele>
        <time>2017-05-17T09:55:29Z</time>
      </trkpt>
      <trkpt lat="43.10731" lon="6.31355">
        <ele>7.83</ele>
        <time>2017-05-17T09:55:56Z</time>
      </trkpt>
      <trkpt lat="43.10732" lon="6.31355">
        <ele>7.35</ele>
        <time>2017-05-17T09:56:26Z</time>
      </trkpt>
      <trkpt lat="43.1073" lon="6.31354">
        <ele>6.87</ele>
        <time>2017-05-17T09:56:57Z</time>
      </trkpt>
      <trkpt lat="43.10731" lon="6.31353">
        <ele>7.35</ele>
        <time>2017-05-17T09:57:23Z</time>
      </trkpt>
      <trkpt lat="43.10731" lon="6.31355">
        <ele>6.87</ele>
        <time>2017-05-17T09:57:47Z</time>
      </trkpt>
      <trkpt lat="43.1073" lon="6.31355">
        <ele>6.87</ele>
        <time>2017-05-17T09:58:07Z</time>
      </trkpt>
      <trkpt lat="43.10732" lon="6.31353">
        <ele>6.87</ele>
        <time>2017-05-17T09:58:34Z</time>
      </trkpt>
      <trkpt lat="43.10731" lon="6.31353">
        <ele>6.87</ele>
        <time>2017-05-17T09:59:03Z</time>
      </trkpt>
      <trkpt lat="43.10732" lon="6.31354">
        <ele>6.87</ele>
        <time>2017-05-17T09:59:26Z</time>
      </trkpt>
      <trkpt lat="43.10732" lon="6.31352">
        <ele>6.87</ele>
        <time>2017-05-17T09:59:57Z</time>
      </trkpt>
      <trkpt lat="43.10731" lon="6.31356">
        <ele>7.35</ele>
        <time>2017-05-17T10:00:29Z</time>
      </trkpt>
      <trkpt lat="43.1073" lon="6.31352">
        <ele>7.35</ele>
        <time>2017-05-17T10:01:09Z</time>
      </trkpt>
      <trkpt lat="43.1073" lon="6.31354">
        <ele>6.87</ele>
        <time>2017-05-17T10:01:56Z</time>
      </trkpt>
      <trkpt lat="43.10731" lon="6.31356">
        <ele>7.35</ele>
        <time>2017-05-17T10:02:35Z</time>
      </trkpt>
      <trkpt lat="43.10729" lon="6.31357">
        <ele>6.39</ele>
        <time>2017-05-17T10:02:54Z</time>
      </trkpt>
      <trkpt lat="43.10727" lon="6.31356">
        <ele>5.42</ele>
        <time>2017-05-17T10:03:07Z</time>
      </trkpt>
      <trkpt lat="43.10727" lon="6.3136">
        <ele>4.46</ele>
        <time>2017-05-17T10:03:20Z</time>
      </trkpt>
      <trkpt lat="43.10725" lon="6.31365">
        <ele>4.46</ele>
        <time>2017-05-17T10:03:32Z</time>
      </trkpt>
      <trkpt lat="43.10724" lon="6.31368">
        <ele>3.98</ele>
        <time>2017-05-17T10:03:36Z</time>
      </trkpt>
      <trkpt lat="43.1072" lon="6.31378">
        <ele>3.98</ele>
        <time>2017-05-17T10:03:47Z</time>
      </trkpt>
      <trkpt lat="43.1072" lon="6.31379">
        <ele>3.98</ele>
        <time>2017-05-17T10:03:48Z</time>
      </trkpt>
      <trkpt lat="43.10717" lon="6.3139">
        <ele>3.5</ele>
        <time>2017-05-17T10:04:00Z</time>
      </trkpt>
      <trkpt lat="43.1072" lon="6.31399">
        <ele>3.5</ele>
        <time>2017-05-17T10:04:15Z</time>
      </trkpt>
      <trkpt lat="43.10721" lon="6.31399">
        <ele>3.02</ele>
        <time>2017-05-17T10:04:16Z</time>
      </trkpt>
      <trkpt lat="43.10725" lon="6.31403">
        <ele>2.06</ele>
        <time>2017-05-17T10:04:22Z</time>
      </trkpt>
      <trkpt lat="43.10726" lon="6.31412">
        <ele>3.5</ele>
        <time>2017-05-17T10:04:34Z</time>
      </trkpt>
      <trkpt lat="43.10726" lon="6.31416">
        <ele>3.02</ele>
        <time>2017-05-17T10:04:46Z</time>
      </trkpt>
      <trkpt lat="43.10726" lon="6.31419">
        <ele>3.02</ele>
        <time>2017-05-17T10:04:49Z</time>
      </trkpt>
      <trkpt lat="43.10728" lon="6.3142">
        <ele>2.54</ele>
        <time>2017-05-17T10:04:51Z</time>
      </trkpt>
      <trkpt lat="43.1073" lon="6.31437">
        <ele>3.02</ele>
        <time>2017-05-17T10:05:02Z</time>
      </trkpt>
      <trkpt lat="43.10729" lon="6.31444">
        <ele>3.02</ele>
        <time>2017-05-17T10:05:08Z</time>
      </trkpt>
      <trkpt lat="43.10727" lon="6.31447">
        <ele>4.46</ele>
        <time>2017-05-17T10:05:12Z</time>
      </trkpt>
      <trkpt lat="43.10728" lon="6.31451">
        <ele>3.02</ele>
        <time>2017-05-17T10:05:14Z</time>
      </trkpt>
      <trkpt lat="43.10732" lon="6.3147">
        <ele>2.54</ele>
        <time>2017-05-17T10:05:25Z</time>
      </trkpt>
      <trkpt lat="43.10731" lon="6.31488">
        <ele>3.02</ele>
        <time>2017-05-17T10:05:38Z</time>
      </trkpt>
      <trkpt lat="43.1073" lon="6.31492">
        <ele>3.5</ele>
        <time>2017-05-17T10:05:51Z</time>
      </trkpt>
      <trkpt lat="43.1073" lon="6.31493">
        <ele>3.5</ele>
        <time>2017-05-17T10:06:11Z</time>
      </trkpt>
      <trkpt lat="43.10732" lon="6.31492">
        <ele>3.5</ele>
        <time>2017-05-17T10:06:44Z</time>
      </trkpt>
      <trkpt lat="43.1073" lon="6.31496">
        <ele>4.46</ele>
        <time>2017-05-17T10:06:57Z</time>
      </trkpt>
      <trkpt lat="43.10722" lon="6.31511">
        <ele>5.42</ele>
        <time>2017-05-17T10:07:09Z</time>
      </trkpt>
      <trkpt lat="43.10715" lon="6.31527">
        <ele>3.98</ele>
        <time>2017-05-17T10:07:20Z</time>
      </trkpt>
      <trkpt lat="43.10707" lon="6.31547">
        <ele>3.98</ele>
        <time>2017-05-17T10:07:33Z</time>
      </trkpt>
      <trkpt lat="43.10698" lon="6.31562">
        <ele>3.98</ele>
        <time>2017-05-17T10:07:44Z</time>
      </trkpt>
      <trkpt lat="43.1069" lon="6.3158">
        <ele>3.98</ele>
        <time>2017-05-17T10:07:56Z</time>
      </trkpt>
      <trkpt lat="43.10682" lon="6.31596">
        <ele>3.98</ele>
        <time>2017-05-17T10:08:08Z</time>
      </trkpt>
      <trkpt lat="43.10676" lon="6.31613">
        <ele>3.98</ele>
        <time>2017-05-17T10:08:19Z</time>
      </trkpt>
      <trkpt lat="43.10674" lon="6.31625">
        <ele>3.5</ele>
        <time>2017-05-17T10:08:27Z</time>
      </trkpt>
      <trkpt lat="43.1067" lon="6.31635">
        <ele>3.98</ele>
        <time>2017-05-17T10:08:35Z</time>
      </trkpt>
      <trkpt lat="43.10663" lon="6.31648">
        <ele>3.98</ele>
        <time>2017-05-17T10:08:46Z</time>
      </trkpt>
      <trkpt lat="43.10661" lon="6.31653">
        <ele>3.02</ele>
        <time>2017-05-17T10:08:50Z</time>
      </trkpt>
      <trkpt lat="43.10654" lon="6.31667">
        <ele>3.02</ele>
        <time>2017-05-17T10:09:01Z</time>
      </trkpt>
      <trkpt lat="43.1065" lon="6.31673">
        <ele>3.5</ele>
        <time>2017-05-17T10:09:06Z</time>
      </trkpt>
      <trkpt lat="43.1064" lon="6.31687">
        <ele>3.5</ele>
        <time>2017-05-17T10:09:18Z</time>
      </trkpt>
      <trkpt lat="43.10631" lon="6.31697">
        <ele>3.5</ele>
        <time>2017-05-17T10:09:30Z</time>
      </trkpt>
      <trkpt lat="43.10628" lon="6.31703">
        <ele>3.5</ele>
        <time>2017-05-17T10:09:39Z</time>
      </trkpt>
      <trkpt lat="43.10624" lon="6.31708">
        <ele>3.98</ele>
        <time>2017-05-17T10:09:51Z</time>
      </trkpt>
      <trkpt lat="43.10619" lon="6.31712">
        <ele>6.39</ele>
        <time>2017-05-17T10:10:03Z</time>
      </trkpt>
      <trkpt lat="43.10618" lon="6.31712">
        <ele>6.39</ele>
        <time>2017-05-17T10:10:06Z</time>
      </trkpt>
      <trkpt lat="43.10608" lon="6.31711">
        <ele>6.87</ele>
        <time>2017-05-17T10:10:19Z</time>
      </trkpt>
      <trkpt lat="43.106" lon="6.31711">
        <ele>6.39</ele>
        <time>2017-05-17T10:10:31Z</time>
      </trkpt>
      <trkpt lat="43.10587" lon="6.31717">
        <ele>4.94</ele>
        <time>2017-05-17T10:10:44Z</time>
      </trkpt>
      <trkpt lat="43.10583" lon="6.31718">
        <ele>3.5</ele>
        <time>2017-05-17T10:10:51Z</time>
      </trkpt>
      <trkpt lat="43.10578" lon="6.31718">
        <ele>5.42</ele>
        <time>2017-05-17T10:10:56Z</time>
      </trkpt>
      <trkpt lat="43.10576" lon="6.31717">
        <ele>5.91</ele>
        <time>2017-05-17T10:10:58Z</time>
      </trkpt>
      <trkpt lat="43.10572" lon="6.31717">
        <ele>5.91</ele>
        <time>2017-05-17T10:11:04Z</time>
      </trkpt>
      <trkpt lat="43.10567" lon="6.31717">
        <ele>4.94</ele>
        <time>2017-05-17T10:11:14Z</time>
      </trkpt>
      <trkpt lat="43.10566" lon="6.31717">
        <ele>4.94</ele>
        <time>2017-05-17T10:11:15Z</time>
      </trkpt>
      <trkpt lat="43.10562" lon="6.31714">
        <ele>3.98</ele>
        <time>2017-05-17T10:11:22Z</time>
      </trkpt>
      <trkpt lat="43.10555" lon="6.31711">
        <ele>3.98</ele>
        <time>2017-05-17T10:11:33Z</time>
      </trkpt>
      <trkpt lat="43.10552" lon="6.31711">
        <ele>3.98</ele>
        <time>2017-05-17T10:11:36Z</time>
      </trkpt>
      <trkpt lat="43.1055" lon="6.31711">
        <ele>3.98</ele>
        <time>2017-05-17T10:11:39Z</time>
      </trkpt>
      <trkpt lat="43.10545" lon="6.31712">
        <ele>3.5</ele>
        <time>2017-05-17T10:11:44Z</time>
      </trkpt>
      <trkpt lat="43.10543" lon="6.31712">
        <ele>4.94</ele>
        <time>2017-05-17T10:11:47Z</time>
      </trkpt>
      <trkpt lat="43.10538" lon="6.31711">
        <ele>8.31</ele>
        <time>2017-05-17T10:11:54Z</time>
      </trkpt>
      <trkpt lat="43.10532" lon="6.31711">
        <ele>5.91</ele>
        <time>2017-05-17T10:12:06Z</time>
      </trkpt>
      <trkpt lat="43.1053" lon="6.31713">
        <ele>4.46</ele>
        <time>2017-05-17T10:12:09Z</time>
      </trkpt>
      <trkpt lat="43.10524" lon="6.31721">
        <ele>5.42</ele>
        <time>2017-05-17T10:12:20Z</time>
      </trkpt>
      <trkpt lat="43.1052" lon="6.31724">
        <ele>5.91</ele>
        <time>2017-05-17T10:12:27Z</time>
      </trkpt>
      <trkpt lat="43.10517" lon="6.31725">
        <ele>8.31</ele>
        <time>2017-05-17T10:12:31Z</time>
      </trkpt>
      <trkpt lat="43.10514" lon="6.31731">
        <ele>7.83</ele>
        <time>2017-05-17T10:12:42Z</time>
      </trkpt>
      <trkpt lat="43.10513" lon="6.31733">
        <ele>8.31</ele>
        <time>2017-05-17T10:12:45Z</time>
      </trkpt>
      <trkpt lat="43.10512" lon="6.31735">
        <ele>8.31</ele>
        <time>2017-05-17T10:12:48Z</time>
      </trkpt>
      <trkpt lat="43.10511" lon="6.31738">
        <ele>9.27</ele>
        <time>2017-05-17T10:12:50Z</time>
      </trkpt>
      <trkpt lat="43.1051" lon="6.31739">
        <ele>12.63</ele>
        <time>2017-05-17T10:12:52Z</time>
      </trkpt>
      <trkpt lat="43.1051" lon="6.3174">
        <ele>8.31</ele>
        <time>2017-05-17T10:12:53Z</time>
      </trkpt>
      <trkpt lat="43.10505" lon="6.31747">
        <ele>10.23</ele>
        <time>2017-05-17T10:13:06Z</time>
      </trkpt>
      <trkpt lat="43.10503" lon="6.31754">
        <ele>13.12</ele>
        <time>2017-05-17T10:13:14Z</time>
      </trkpt>
      <trkpt lat="43.10502" lon="6.31757">
        <ele>11.67</ele>
        <time>2017-05-17T10:13:20Z</time>
      </trkpt>
      <trkpt lat="43.10497" lon="6.31767">
        <ele>13.6</ele>
        <time>2017-05-17T10:13:29Z</time>
      </trkpt>
      <trkpt lat="43.10492" lon="6.31774">
        <ele>13.12</ele>
        <time>2017-05-17T10:13:38Z</time>
      </trkpt>
      <trkpt lat="43.1049" lon="6.31777">
        <ele>13.12</ele>
        <time>2017-05-17T10:13:41Z</time>
      </trkpt>
      <trkpt lat="43.10485" lon="6.3179">
        <ele>12.15</ele>
        <time>2017-05-17T10:13:53Z</time>
      </trkpt>
      <trkpt lat="43.10485" lon="6.31791">
        <ele>12.15</ele>
        <time>2017-05-17T10:13:54Z</time>
      </trkpt>
      <trkpt lat="43.10482" lon="6.31806">
        <ele>12.63</ele>
        <time>2017-05-17T10:14:07Z</time>
      </trkpt>
      <trkpt lat="43.10479" lon="6.31818">
        <ele>11.19</ele>
        <time>2017-05-17T10:14:18Z</time>
      </trkpt>
      <trkpt lat="43.10481" lon="6.31839">
        <ele>11.19</ele>
        <time>2017-05-17T10:14:32Z</time>
      </trkpt>
      <trkpt lat="43.1048" lon="6.31847">
        <ele>10.23</ele>
        <time>2017-05-17T10:14:40Z</time>
      </trkpt>
      <trkpt lat="43.10477" lon="6.31866">
        <ele>10.71</ele>
        <time>2017-05-17T10:14:56Z</time>
      </trkpt>
      <trkpt lat="43.10476" lon="6.3187">
        <ele>14.56</ele>
        <time>2017-05-17T10:15:01Z</time>
      </trkpt>
      <trkpt lat="43.10476" lon="6.31871">
        <ele>11.67</ele>
        <time>2017-05-17T10:15:02Z</time>
      </trkpt>
      <trkpt lat="43.10474" lon="6.31889">
        <ele>10.23</ele>
        <time>2017-05-17T10:15:15Z</time>
      </trkpt>
      <trkpt lat="43.10473" lon="6.31889">
        <ele>10.71</ele>
        <time>2017-05-17T10:15:16Z</time>
      </trkpt>
      <trkpt lat="43.10471" lon="6.31893">
        <ele>11.19</ele>
        <time>2017-05-17T10:15:22Z</time>
      </trkpt>
      <trkpt lat="43.10466" lon="6.31901">
        <ele>10.71</ele>
        <time>2017-05-17T10:15:33Z</time>
      </trkpt>
      <trkpt lat="43.10464" lon="6.31905">
        <ele>10.71</ele>
        <time>2017-05-17T10:15:42Z</time>
      </trkpt>
      <trkpt lat="43.10463" lon="6.3191">
        <ele>6.39</ele>
        <time>2017-05-17T10:15:49Z</time>
      </trkpt>
      <trkpt lat="43.10462" lon="6.31911">
        <ele>11.19</ele>
        <time>2017-05-17T10:15:50Z</time>
      </trkpt>
      <trkpt lat="43.10463" lon="6.31913">
        <ele>10.71</ele>
        <time>2017-05-17T10:15:51Z</time>
      </trkpt>
      <trkpt lat="43.10456" lon="6.31923">
        <ele>8.31</ele>
        <time>2017-05-17T10:16:05Z</time>
      </trkpt>
      <trkpt lat="43.10452" lon="6.31932">
        <ele>8.31</ele>
        <time>2017-05-17T10:16:20Z</time>
      </trkpt>
      <trkpt lat="43.10449" lon="6.31937">
        <ele>7.35</ele>
        <time>2017-05-17T10:16:32Z</time>
      </trkpt>
      <trkpt lat="43.10447" lon="6.31941">
        <ele>6.87</ele>
        <time>2017-05-17T10:16:44Z</time>
      </trkpt>
      <trkpt lat="43.10446" lon="6.31941">
        <ele>6.39</ele>
        <time>2017-05-17T10:16:45Z</time>
      </trkpt>
      <trkpt lat="43.10444" lon="6.31945">
        <ele>6.39</ele>
        <time>2017-05-17T10:16:49Z</time>
      </trkpt>
      <trkpt lat="43.10437" lon="6.31953">
        <ele>4.94</ele>
        <time>2017-05-17T10:16:58Z</time>
      </trkpt>
      <trkpt lat="43.10434" lon="6.31958">
        <ele>4.94</ele>
        <time>2017-05-17T10:17:03Z</time>
      </trkpt>
      <trkpt lat="43.10423" lon="6.31968">
        <ele>4.94</ele>
        <time>2017-05-17T10:17:15Z</time>
      </trkpt>
      <trkpt lat="43.1041" lon="6.31976">
        <ele>4.94</ele>
        <time>2017-05-17T10:17:28Z</time>
      </trkpt>
      <trkpt lat="43.10397" lon="6.31983">
        <ele>3.5</ele>
        <time>2017-05-17T10:17:41Z</time>
      </trkpt>
      <trkpt lat="43.10397" lon="6.31983">
        <ele>3.98</ele>
        <time>2017-05-17T10:17:42Z</time>
      </trkpt>
      <trkpt lat="43.10394" lon="6.31983">
        <ele>3.98</ele>
        <time>2017-05-17T10:17:45Z</time>
      </trkpt>
      <trkpt lat="43.10381" lon="6.31988">
        <ele>3.02</ele>
        <time>2017-05-17T10:17:57Z</time>
      </trkpt>
      <trkpt lat="43.1038" lon="6.31989">
        <ele>3.5</ele>
        <time>2017-05-17T10:17:58Z</time>
      </trkpt>
      <trkpt lat="43.10371" lon="6.31992">
        <ele>2.54</ele>
        <time>2017-05-17T10:18:06Z</time>
      </trkpt>
      <trkpt lat="43.10367" lon="6.31998">
        <ele>3.98</ele>
        <time>2017-05-17T10:18:14Z</time>
      </trkpt>
      <trkpt lat="43.10363" lon="6.32005">
        <ele>4.46</ele>
        <time>2017-05-17T10:18:26Z</time>
      </trkpt>
      <trkpt lat="43.10363" lon="6.32007">
        <ele>3.98</ele>
        <time>2017-05-17T10:18:53Z</time>
      </trkpt>
      <trkpt lat="43.10363" lon="6.32005">
        <ele>3.98</ele>
        <time>2017-05-17T10:19:28Z</time>
      </trkpt>
      <trkpt lat="43.10363" lon="6.32004">
        <ele>3.98</ele>
        <time>2017-05-17T10:19:59Z</time>
      </trkpt>
      <trkpt lat="43.10366" lon="6.32002">
        <ele>3.98</ele>
        <time>2017-05-17T10:20:24Z</time>
      </trkpt>
      <trkpt lat="43.10364" lon="6.32004">
        <ele>3.98</ele>
        <time>2017-05-17T10:20:48Z</time>
      </trkpt>
      <trkpt lat="43.10363" lon="6.32001">
        <ele>3.5</ele>
        <time>2017-05-17T10:21:14Z</time>
      </trkpt>
      <trkpt lat="43.10361" lon="6.32002">
        <ele>3.5</ele>
        <time>2017-05-17T10:21:27Z</time>
      </trkpt>
      <trkpt lat="43.10357" lon="6.32003">
        <ele>3.5</ele>
        <time>2017-05-17T10:21:40Z</time>
      </trkpt>
      <trkpt lat="43.10357" lon="6.32002">
        <ele>3.5</ele>
        <time>2017-05-17T10:21:45Z</time>
      </trkpt>
      <trkpt lat="43.10354" lon="6.32">
        <ele>3.5</ele>
        <time>2017-05-17T10:21:49Z</time>
      </trkpt>
      <trkpt lat="43.10344" lon="6.31997">
        <ele>3.5</ele>
        <time>2017-05-17T10:21:59Z</time>
      </trkpt>
      <trkpt lat="43.10338" lon="6.31992">
        <ele>3.98</ele>
        <time>2017-05-17T10:22:05Z</time>
      </trkpt>
      <trkpt lat="43.10332" lon="6.31992">
        <ele>3.02</ele>
        <time>2017-05-17T10:22:14Z</time>
      </trkpt>
      <trkpt lat="43.10322" lon="6.31986">
        <ele>4.46</ele>
        <time>2017-05-17T10:22:24Z</time>
      </trkpt>
      <trkpt lat="43.10311" lon="6.31981">
        <ele>3.5</ele>
        <time>2017-05-17T10:22:34Z</time>
      </trkpt>
      <trkpt lat="43.10309" lon="6.31979">
        <ele>2.54</ele>
        <time>2017-05-17T10:22:36Z</time>
      </trkpt>
      <trkpt lat="43.10307" lon="6.31976">
        <ele>3.5</ele>
        <time>2017-05-17T10:22:39Z</time>
      </trkpt>
      <trkpt lat="43.10301" lon="6.31967">
        <ele>3.98</ele>
        <time>2017-05-17T10:22:47Z</time>
      </trkpt>
      <trkpt lat="43.10294" lon="6.31953">
        <ele>2.54</ele>
        <time>2017-05-17T10:22:58Z</time>
      </trkpt>
      <trkpt lat="43.10293" lon="6.31947">
        <ele>3.02</ele>
        <time>2017-05-17T10:23:02Z</time>
      </trkpt>
      <trkpt lat="43.10291" lon="6.31941">
        <ele>3.02</ele>
        <time>2017-05-17T10:23:07Z</time>
      </trkpt>
      <trkpt lat="43.1029" lon="6.31938">
        <ele>3.98</ele>
        <time>2017-05-17T10:23:10Z</time>
      </trkpt>
      <trkpt lat="43.10286" lon="6.31928">
        <ele>4.46</ele>
        <time>2017-05-17T10:23:19Z</time>
      </trkpt>
      <trkpt lat="43.10283" lon="6.31919">
        <ele>3.98</ele>
        <time>2017-05-17T10:23:31Z</time>
      </trkpt>
      <trkpt lat="43.10283" lon="6.31918">
        <ele>3.5</ele>
        <time>2017-05-17T10:23:33Z</time>
      </trkpt>
      <trkpt lat="43.10281" lon="6.31916">
        <ele>6.87</ele>
        <time>2017-05-17T10:23:37Z</time>
      </trkpt>
      <trkpt lat="43.1028" lon="6.31916">
        <ele>3.98</ele>
        <time>2017-05-17T10:23:41Z</time>
      </trkpt>
      <trkpt lat="43.10283" lon="6.3191">
        <ele>4.94</ele>
        <time>2017-05-17T10:23:46Z</time>
      </trkpt>
      <trkpt lat="43.10283" lon="6.31905">
        <ele>3.98</ele>
        <time>2017-05-17T10:23:50Z</time>
      </trkpt>
      <trkpt lat="43.10277" lon="6.31899">
        <ele>3.98</ele>
        <time>2017-05-17T10:24:00Z</time>
      </trkpt>
      <trkpt lat="43.10272" lon="6.31898">
        <ele>4.94</ele>
        <time>2017-05-17T10:24:13Z</time>
      </trkpt>
      <trkpt lat="43.1027" lon="6.31898">
        <ele>6.87</ele>
        <time>2017-05-17T10:24:24Z</time>
      </trkpt>
      <trkpt lat="43.10269" lon="6.31898">
        <ele>5.42</ele>
        <time>2017-05-17T10:24:25Z</time>
      </trkpt>
      <trkpt lat="43.10265" lon="6.31896">
        <ele>4.46</ele>
        <time>2017-05-17T10:24:36Z</time>
      </trkpt>
      <trkpt lat="43.10265" lon="6.31894">
        <ele>4.46</ele>
        <time>2017-05-17T10:24:38Z</time>
      </trkpt>
      <trkpt lat="43.1026" lon="6.31894">
        <ele>3.98</ele>
        <time>2017-05-17T10:24:44Z</time>
      </trkpt>
      <trkpt lat="43.10256" lon="6.31894">
        <ele>3.5</ele>
        <time>2017-05-17T10:24:48Z</time>
      </trkpt>
      <trkpt lat="43.10255" lon="6.31896">
        <ele>3.5</ele>
        <time>2017-05-17T10:24:51Z</time>
      </trkpt>
      <trkpt lat="43.10252" lon="6.31901">
        <ele>7.35</ele>
        <time>2017-05-17T10:24:58Z</time>
      </trkpt>
      <trkpt lat="43.10251" lon="6.31901">
        <ele>3.5</ele>
        <time>2017-05-17T10:24:59Z</time>
      </trkpt>
      <trkpt lat="43.1025" lon="6.31902">
        <ele>4.46</ele>
        <time>2017-05-17T10:25:01Z</time>
      </trkpt>
      <trkpt lat="43.10245" lon="6.3191">
        <ele>4.46</ele>
        <time>2017-05-17T10:25:13Z</time>
      </trkpt>
      <trkpt lat="43.10241" lon="6.31915">
        <ele>4.46</ele>
        <time>2017-05-17T10:25:27Z</time>
      </trkpt>
      <trkpt lat="43.10237" lon="6.3192">
        <ele>3.98</ele>
        <time>2017-05-17T10:25:33Z</time>
      </trkpt>
      <trkpt lat="43.10234" lon="6.31924">
        <ele>4.94</ele>
        <time>2017-05-17T10:25:40Z</time>
      </trkpt>
      <trkpt lat="43.10229" lon="6.31933">
        <ele>6.39</ele>
        <time>2017-05-17T10:25:50Z</time>
      </trkpt>
      <trkpt lat="43.10228" lon="6.31935">
        <ele>5.91</ele>
        <time>2017-05-17T10:25:52Z</time>
      </trkpt>
      <trkpt lat="43.1023" lon="6.31943">
        <ele>3.98</ele>
        <time>2017-05-17T10:26:03Z</time>
      </trkpt>
      <trkpt lat="43.1023" lon="6.31946">
        <ele>3.98</ele>
        <time>2017-05-17T10:26:07Z</time>
      </trkpt>
      <trkpt lat="43.10222" lon="6.31952">
        <ele>4.46</ele>
        <time>2017-05-17T10:26:19Z</time>
      </trkpt>
      <trkpt lat="43.10221" lon="6.31953">
        <ele>4.46</ele>
        <time>2017-05-17T10:26:23Z</time>
      </trkpt>
      <trkpt lat="43.10217" lon="6.31952">
        <ele>3.98</ele>
        <time>2017-05-17T10:26:31Z</time>
      </trkpt>
      <trkpt lat="43.10212" lon="6.31963">
        <ele>3.5</ele>
        <time>2017-05-17T10:26:41Z</time>
      </trkpt>
      <trkpt lat="43.10212" lon="6.31966">
        <ele>4.94</ele>
        <time>2017-05-17T10:26:46Z</time>
      </trkpt>
      <trkpt lat="43.10211" lon="6.31968">
        <ele>4.46</ele>
        <time>2017-05-17T10:26:54Z</time>
      </trkpt>
      <trkpt lat="43.10209" lon="6.31973">
        <ele>7.35</ele>
        <time>2017-05-17T10:27:02Z</time>
      </trkpt>
      <trkpt lat="43.10209" lon="6.31973">
        <ele>6.39</ele>
        <time>2017-05-17T10:27:03Z</time>
      </trkpt>
      <trkpt lat="43.10205" lon="6.31971">
        <ele>7.35</ele>
        <time>2017-05-17T10:27:09Z</time>
      </trkpt>
      <trkpt lat="43.10203" lon="6.31969">
        <ele>8.31</ele>
        <time>2017-05-17T10:27:28Z</time>
      </trkpt>
      <trkpt lat="43.10198" lon="6.31972">
        <ele>9.75</ele>
        <time>2017-05-17T10:27:37Z</time>
      </trkpt>
      <trkpt lat="43.10192" lon="6.31978">
        <ele>10.23</ele>
        <time>2017-05-17T10:27:48Z</time>
      </trkpt>
      <trkpt lat="43.10188" lon="6.31982">
        <ele>11.19</ele>
        <time>2017-05-17T10:27:55Z</time>
      </trkpt>
      <trkpt lat="43.10185" lon="6.31989">
        <ele>11.19</ele>
        <time>2017-05-17T10:28:11Z</time>
      </trkpt>
      <trkpt lat="43.10185" lon="6.31992">
        <ele>11.19</ele>
        <time>2017-05-17T10:28:25Z</time>
      </trkpt>
      <trkpt lat="43.10184" lon="6.31994">
        <ele>11.19</ele>
        <time>2017-05-17T10:28:28Z</time>
      </trkpt>
      <trkpt lat="43.10183" lon="6.31998">
        <ele>12.15</ele>
        <time>2017-05-17T10:28:32Z</time>
      </trkpt>
      <trkpt lat="43.1018" lon="6.32003">
        <ele>13.6</ele>
        <time>2017-05-17T10:28:42Z</time>
      </trkpt>
      <trkpt lat="43.1018" lon="6.32013">
        <ele>14.08</ele>
        <time>2017-05-17T10:28:53Z</time>
      </trkpt>
      <trkpt lat="43.10176" lon="6.32019">
        <ele>15.52</ele>
        <time>2017-05-17T10:29:03Z</time>
      </trkpt>
      <trkpt lat="43.1017" lon="6.32028">
        <ele>17.44</ele>
        <time>2017-05-17T10:29:12Z</time>
      </trkpt>
      <trkpt lat="43.10167" lon="6.32033">
        <ele>18.4</ele>
        <time>2017-05-17T10:29:18Z</time>
      </trkpt>
      <trkpt lat="43.10162" lon="6.32031">
        <ele>16.96</ele>
        <time>2017-05-17T10:29:23Z</time>
      </trkpt>
      <trkpt lat="43.10153" lon="6.3204">
        <ele>17.44</ele>
        <time>2017-05-17T10:29:33Z</time>
      </trkpt>
      <trkpt lat="43.10149" lon="6.32049">
        <ele>17.92</ele>
        <time>2017-05-17T10:29:44Z</time>
      </trkpt>
      <trkpt lat="43.10145" lon="6.32054">
        <ele>16.96</ele>
        <time>2017-05-17T10:29:50Z</time>
      </trkpt>
      <trkpt lat="43.1014" lon="6.32061">
        <ele>17.44</ele>
        <time>2017-05-17T10:29:57Z</time>
      </trkpt>
      <trkpt lat="43.10136" lon="6.32061">
        <ele>16.96</ele>
        <time>2017-05-17T10:30:02Z</time>
      </trkpt>
      <trkpt lat="43.1013" lon="6.32064">
        <ele>18.4</ele>
        <time>2017-05-17T10:30:14Z</time>
      </trkpt>
      <trkpt lat="43.10121" lon="6.32067">
        <ele>18.4</ele>
        <time>2017-05-17T10:30:26Z</time>
      </trkpt>
      <trkpt lat="43.10114" lon="6.32071">
        <ele>17.92</ele>
        <time>2017-05-17T10:30:40Z</time>
      </trkpt>
      <trkpt lat="43.10111" lon="6.32076">
        <ele>19.36</ele>
        <time>2017-05-17T10:30:48Z</time>
      </trkpt>
      <trkpt lat="43.10104" lon="6.32089">
        <ele>19.36</ele>
        <time>2017-05-17T10:31:01Z</time>
      </trkpt>
      <trkpt lat="43.10099" lon="6.32097">
        <ele>20.32</ele>
        <time>2017-05-17T10:31:14Z</time>
      </trkpt>
      <trkpt lat="43.10093" lon="6.32103">
        <ele>19.36</ele>
        <time>2017-05-17T10:31:23Z</time>
      </trkpt>
      <trkpt lat="43.10088" lon="6.32114">
        <ele>19.36</ele>
        <time>2017-05-17T10:31:36Z</time>
      </trkpt>
      <trkpt lat="43.10087" lon="6.3213">
        <ele>19.84</ele>
        <time>2017-05-17T10:31:50Z</time>
      </trkpt>
      <trkpt lat="43.10086" lon="6.32148">
        <ele>18.4</ele>
        <time>2017-05-17T10:32:04Z</time>
      </trkpt>
      <trkpt lat="43.10084" lon="6.32159">
        <ele>16.96</ele>
        <time>2017-05-17T10:32:18Z</time>
      </trkpt>
      <trkpt lat="43.10084" lon="6.32166">
        <ele>16.96</ele>
        <time>2017-05-17T10:32:44Z</time>
      </trkpt>
      <trkpt lat="43.10086" lon="6.32173">
        <ele>15.52</ele>
        <time>2017-05-17T10:32:59Z</time>
      </trkpt>
      <trkpt lat="43.10086" lon="6.32182">
        <ele>13.6</ele>
        <time>2017-05-17T10:33:12Z</time>
      </trkpt>
      <trkpt lat="43.10086" lon="6.32193">
        <ele>12.15</ele>
        <time>2017-05-17T10:33:24Z</time>
      </trkpt>
      <trkpt lat="43.10085" lon="6.32204">
        <ele>9.75</ele>
        <time>2017-05-17T10:33:36Z</time>
      </trkpt>
      <trkpt lat="43.10087" lon="6.32211">
        <ele>8.79</ele>
        <time>2017-05-17T10:33:44Z</time>
      </trkpt>
      <trkpt lat="43.10087" lon="6.32221">
        <ele>8.79</ele>
        <time>2017-05-17T10:33:56Z</time>
      </trkpt>
      <trkpt lat="43.10094" lon="6.32229">
        <ele>10.71</ele>
        <time>2017-05-17T10:34:08Z</time>
      </trkpt>
      <trkpt lat="43.10097" lon="6.32242">
        <ele>12.15</ele>
        <time>2017-05-17T10:34:19Z</time>
      </trkpt>
      <trkpt lat="43.10093" lon="6.32255">
        <ele>10.23</ele>
        <time>2017-05-17T10:34:33Z</time>
      </trkpt>
      <trkpt lat="43.10096" lon="6.32267">
        <ele>11.67</ele>
        <time>2017-05-17T10:34:46Z</time>
      </trkpt>
      <trkpt lat="43.10099" lon="6.32278">
        <ele>12.15</ele>
        <time>2017-05-17T10:34:56Z</time>
      </trkpt>
      <trkpt lat="43.10097" lon="6.32291">
        <ele>11.67</ele>
        <time>2017-05-17T10:35:09Z</time>
      </trkpt>
      <trkpt lat="43.101" lon="6.32307">
        <ele>11.19</ele>
        <time>2017-05-17T10:35:20Z</time>
      </trkpt>
      <trkpt lat="43.10098" lon="6.32316">
        <ele>9.75</ele>
        <time>2017-05-17T10:35:32Z</time>
      </trkpt>
      <trkpt lat="43.10096" lon="6.32323">
        <ele>9.27</ele>
        <time>2017-05-17T10:35:47Z</time>
      </trkpt>
      <trkpt lat="43.10095" lon="6.32325">
        <ele>9.27</ele>
        <time>2017-05-17T10:36:17Z</time>
      </trkpt>
      <trkpt lat="43.10094" lon="6.32329">
        <ele>9.27</ele>
        <time>2017-05-17T10:36:50Z</time>
      </trkpt>
      <trkpt lat="43.10095" lon="6.32335">
        <ele>7.83</ele>
        <time>2017-05-17T10:37:05Z</time>
      </trkpt>
      <trkpt lat="43.10095" lon="6.32343">
        <ele>6.39</ele>
        <time>2017-05-17T10:37:19Z</time>
      </trkpt>
      <trkpt lat="43.10095" lon="6.32344">
        <ele>6.39</ele>
        <time>2017-05-17T10:37:20Z</time>
      </trkpt>
      <trkpt lat="43.10094" lon="6.32346">
        <ele>5.91</ele>
        <time>2017-05-17T10:37:22Z</time>
      </trkpt>
      <trkpt lat="43.10093" lon="6.32349">
        <ele>5.42</ele>
        <time>2017-05-17T10:37:25Z</time>
      </trkpt>
      <trkpt lat="43.10089" lon="6.32353">
        <ele>5.42</ele>
        <time>2017-05-17T10:37:29Z</time>
      </trkpt>
      <trkpt lat="43.1009" lon="6.32351">
        <ele>3.98</ele>
        <time>2017-05-17T10:37:39Z</time>
      </trkpt>
      <trkpt lat="43.10086" lon="6.32352">
        <ele>3.5</ele>
        <time>2017-05-17T10:37:42Z</time>
      </trkpt>
      <trkpt lat="43.1008" lon="6.32359">
        <ele>3.98</ele>
        <time>2017-05-17T10:37:48Z</time>
      </trkpt>
      <trkpt lat="43.10068" lon="6.32368">
        <ele>3.5</ele>
        <time>2017-05-17T10:38:00Z</time>
      </trkpt>
      <trkpt lat="43.10065" lon="6.32371">
        <ele>3.98</ele>
        <time>2017-05-17T10:38:03Z</time>
      </trkpt>
      <trkpt lat="43.10054" lon="6.32384">
        <ele>3.98</ele>
        <time>2017-05-17T10:38:15Z</time>
      </trkpt>
      <trkpt lat="43.10045" lon="6.32394">
        <ele>3.5</ele>
        <time>2017-05-17T10:38:25Z</time>
      </trkpt>
      <trkpt lat="43.10034" lon="6.32403">
        <ele>3.5</ele>
        <time>2017-05-17T10:38:36Z</time>
      </trkpt>
      <trkpt lat="43.10029" lon="6.32407">
        <ele>3.5</ele>
        <time>2017-05-17T10:38:42Z</time>
      </trkpt>
      <trkpt lat="43.10021" lon="6.32416">
        <ele>3.98</ele>
        <time>2017-05-17T10:38:53Z</time>
      </trkpt>
      <trkpt lat="43.10012" lon="6.32423">
        <ele>3.02</ele>
        <time>2017-05-17T10:39:02Z</time>
      </trkpt>
      <trkpt lat="43.10006" lon="6.32426">
        <ele>3.5</ele>
        <time>2017-05-17T10:39:07Z</time>
      </trkpt>
      <trkpt lat="43.09997" lon="6.32433">
        <ele>3.98</ele>
        <time>2017-05-17T10:39:17Z</time>
      </trkpt>
      <trkpt lat="43.09986" lon="6.32443">
        <ele>3.02</ele>
        <time>2017-05-17T10:39:29Z</time>
      </trkpt>
      <trkpt lat="43.09973" lon="6.32453">
        <ele>3.98</ele>
        <time>2017-05-17T10:39:41Z</time>
      </trkpt>
      <trkpt lat="43.09962" lon="6.32461">
        <ele>3.98</ele>
        <time>2017-05-17T10:39:51Z</time>
      </trkpt>
      <trkpt lat="43.09954" lon="6.32466">
        <ele>3.98</ele>
        <time>2017-05-17T10:39:58Z</time>
      </trkpt>
      <trkpt lat="43.09938" lon="6.32477">
        <ele>3.5</ele>
        <time>2017-05-17T10:40:11Z</time>
      </trkpt>
      <trkpt lat="43.09924" lon="6.32485">
        <ele>3.5</ele>
        <time>2017-05-17T10:40:23Z</time>
      </trkpt>
      <trkpt lat="43.09911" lon="6.32491">
        <ele>3.5</ele>
        <time>2017-05-17T10:40:34Z</time>
      </trkpt>
      <trkpt lat="43.09895" lon="6.32496">
        <ele>4.46</ele>
        <time>2017-05-17T10:40:47Z</time>
      </trkpt>
      <trkpt lat="43.09891" lon="6.32498">
        <ele>3.98</ele>
        <time>2017-05-17T10:40:50Z</time>
      </trkpt>
      <trkpt lat="43.0987" lon="6.32503">
        <ele>3.98</ele>
        <time>2017-05-17T10:41:08Z</time>
      </trkpt>
      <trkpt lat="43.0987" lon="6.32502">
        <ele>3.98</ele>
        <time>2017-05-17T10:41:09Z</time>
      </trkpt>
      <trkpt lat="43.09852" lon="6.32506">
        <ele>3.98</ele>
        <time>2017-05-17T10:41:21Z</time>
      </trkpt>
      <trkpt lat="43.09839" lon="6.32505">
        <ele>3.98</ele>
        <time>2017-05-17T10:41:32Z</time>
      </trkpt>
      <trkpt lat="43.09827" lon="6.32503">
        <ele>4.94</ele>
        <time>2017-05-17T10:41:42Z</time>
      </trkpt>
      <trkpt lat="43.09815" lon="6.325">
        <ele>3.98</ele>
        <time>2017-05-17T10:41:51Z</time>
      </trkpt>
      <trkpt lat="43.09798" lon="6.32494">
        <ele>3.98</ele>
        <time>2017-05-17T10:42:04Z</time>
      </trkpt>
      <trkpt lat="43.09783" lon="6.32489">
        <ele>3.98</ele>
        <time>2017-05-17T10:42:16Z</time>
      </trkpt>
      <trkpt lat="43.09782" lon="6.32488">
        <ele>4.94</ele>
        <time>2017-05-17T10:42:32Z</time>
      </trkpt>
      <trkpt lat="43.09781" lon="6.32484">
        <ele>4.46</ele>
        <time>2017-05-17T10:42:49Z</time>
      </trkpt>
      <trkpt lat="43.09781" lon="6.32482">
        <ele>3.98</ele>
        <time>2017-05-17T10:43:04Z</time>
      </trkpt>
      <trkpt lat="43.09777" lon="6.32481">
        <ele>3.98</ele>
        <time>2017-05-17T10:43:23Z</time>
      </trkpt>
      <trkpt lat="43.09776" lon="6.32479">
        <ele>3.98</ele>
        <time>2017-05-17T10:43:43Z</time>
      </trkpt>
      <trkpt lat="43.09769" lon="6.32475">
        <ele>4.46</ele>
        <time>2017-05-17T10:43:52Z</time>
      </trkpt>
      <trkpt lat="43.09768" lon="6.32474">
        <ele>4.46</ele>
        <time>2017-05-17T10:43:55Z</time>
      </trkpt>
      <trkpt lat="43.09767" lon="6.32475">
        <ele>4.94</ele>
        <time>2017-05-17T10:44:08Z</time>
      </trkpt>
      <trkpt lat="43.09762" lon="6.32472">
        <ele>5.42</ele>
        <time>2017-05-17T10:44:23Z</time>
      </trkpt>
      <trkpt lat="43.09759" lon="6.3247">
        <ele>5.42</ele>
        <time>2017-05-17T10:44:35Z</time>
      </trkpt>
      <trkpt lat="43.09762" lon="6.32469">
        <ele>5.91</ele>
        <time>2017-05-17T10:45:03Z</time>
      </trkpt>
      <trkpt lat="43.09761" lon="6.32469">
        <ele>5.91</ele>
        <time>2017-05-17T10:45:23Z</time>
      </trkpt>
      <trkpt lat="43.09763" lon="6.3247">
        <ele>5.42</ele>
        <time>2017-05-17T10:45:46Z</time>
      </trkpt>
      <trkpt lat="43.09763" lon="6.32474">
        <ele>4.94</ele>
        <time>2017-05-17T10:45:57Z</time>
      </trkpt>
      <trkpt lat="43.09765" lon="6.32475">
        <ele>4.94</ele>
        <time>2017-05-17T10:46:14Z</time>
      </trkpt>
      <trkpt lat="43.09765" lon="6.32476">
        <ele>4.94</ele>
        <time>2017-05-17T10:46:36Z</time>
      </trkpt>
      <trkpt lat="43.09765" lon="6.32474">
        <ele>4.94</ele>
        <time>2017-05-17T10:47:10Z</time>
      </trkpt>
      <trkpt lat="43.09765" lon="6.32473">
        <ele>4.94</ele>
        <time>2017-05-17T10:47:41Z</time>
      </trkpt>
      <trkpt lat="43.09764" lon="6.32475">
        <ele>5.91</ele>
        <time>2017-05-17T10:48:08Z</time>
      </trkpt>
      <trkpt lat="43.09763" lon="6.32475">
        <ele>5.42</ele>
        <time>2017-05-17T10:48:41Z</time>
      </trkpt>
      <trkpt lat="43.09764" lon="6.32475">
        <ele>5.42</ele>
        <time>2017-05-17T10:49:19Z</time>
      </trkpt>
      <trkpt lat="43.09764" lon="6.32475">
        <ele>4.94</ele>
        <time>2017-05-17T10:50:01Z</time>
      </trkpt>
      <trkpt lat="43.09763" lon="6.32475">
        <ele>5.42</ele>
        <time>2017-05-17T10:50:08Z</time>
      </trkpt>
      <trkpt lat="43.09759" lon="6.32475">
        <ele>4.94</ele>
        <time>2017-05-17T10:50:23Z</time>
      </trkpt>
      <trkpt lat="43.09762" lon="6.32475">
        <ele>4.94</ele>
        <time>2017-05-17T10:50:30Z</time>
      </trkpt>
      <trkpt lat="43.09765" lon="6.32475">
        <ele>5.42</ele>
        <time>2017-05-17T10:50:45Z</time>
      </trkpt>
      <trkpt lat="43.09766" lon="6.32476">
        <ele>5.42</ele>
        <time>2017-05-17T10:51:14Z</time>
      </trkpt>
      <trkpt lat="43.09768" lon="6.32476">
        <ele>5.42</ele>
        <time>2017-05-17T10:51:16Z</time>
      </trkpt>
      <trkpt lat="43.09776" lon="6.32478">
        <ele>3.98</ele>
        <time>2017-05-17T10:51:24Z</time>
      </trkpt>
      <trkpt lat="43.09779" lon="6.32482">
        <ele>-6.11</ele>
        <time>2017-05-17T10:51:33Z</time>
      </trkpt>
      <trkpt lat="43.09779" lon="6.32482">
        <ele>4.46</ele>
        <time>2017-05-17T10:51:34Z</time>
      </trkpt>
      <trkpt lat="43.09778" lon="6.32482">
        <ele>3.5</ele>
        <time>2017-05-17T10:52:01Z</time>
      </trkpt>
      <trkpt lat="43.09777" lon="6.32482">
        <ele>8.79</ele>
        <time>2017-05-17T10:52:10Z</time>
      </trkpt>
      <trkpt lat="43.09777" lon="6.32482">
        <ele>6.39</ele>
        <time>2017-05-17T10:52:11Z</time>
      </trkpt>
      <trkpt lat="43.09775" lon="6.32483">
        <ele>4.46</ele>
        <time>2017-05-17T10:52:13Z</time>
      </trkpt>
      <trkpt lat="43.09776" lon="6.32483">
        <ele>3.98</ele>
        <time>2017-05-17T10:52:31Z</time>
      </trkpt>
      <trkpt lat="43.09775" lon="6.32486">
        <ele>3.98</ele>
        <time>2017-05-17T10:52:56Z</time>
      </trkpt>
      <trkpt lat="43.09778" lon="6.32491">
        <ele>3.98</ele>
        <time>2017-05-17T10:53:18Z</time>
      </trkpt>
      <trkpt lat="43.09776" lon="6.32488">
        <ele>3.98</ele>
        <time>2017-05-17T10:53:44Z</time>
      </trkpt>
      <trkpt lat="43.09772" lon="6.32499">
        <ele>3.98</ele>
        <time>2017-05-17T10:54:12Z</time>
      </trkpt>
      <trkpt lat="43.0978" lon="6.32485">
        <ele>3.98</ele>
        <time>2017-05-17T10:54:39Z</time>
      </trkpt>
      <trkpt lat="43.09778" lon="6.32488">
        <ele>4.46</ele>
        <time>2017-05-17T10:55:04Z</time>
      </trkpt>
      <trkpt lat="43.09781" lon="6.32488">
        <ele>3.5</ele>
        <time>2017-05-17T10:55:35Z</time>
      </trkpt>
      <trkpt lat="43.09784" lon="6.32486">
        <ele>3.5</ele>
        <time>2017-05-17T10:56:06Z</time>
      </trkpt>
      <trkpt lat="43.09797" lon="6.32475">
        <ele>3.5</ele>
        <time>2017-05-17T10:56:36Z</time>
      </trkpt>
      <trkpt lat="43.09784" lon="6.3248">
        <ele>3.02</ele>
        <time>2017-05-17T10:57:01Z</time>
      </trkpt>
      <trkpt lat="43.09782" lon="6.32491">
        <ele>3.5</ele>
        <time>2017-05-17T10:57:25Z</time>
      </trkpt>
      <trkpt lat="43.09781" lon="6.32492">
        <ele>3.5</ele>
        <time>2017-05-17T10:57:53Z</time>
      </trkpt>
      <trkpt lat="43.09781" lon="6.32493">
        <ele>3.5</ele>
        <time>2017-05-17T10:58:20Z</time>
      </trkpt>
      <trkpt lat="43.0978" lon="6.32486">
        <ele>3.5</ele>
        <time>2017-05-17T10:58:50Z</time>
      </trkpt>
      <trkpt lat="43.09784" lon="6.32482">
        <ele>3.5</ele>
        <time>2017-05-17T10:59:19Z</time>
      </trkpt>
      <trkpt lat="43.09782" lon="6.32481">
        <ele>3.5</ele>
        <time>2017-05-17T10:59:45Z</time>
      </trkpt>
      <trkpt lat="43.09781" lon="6.32482">
        <ele>3.5</ele>
        <time>2017-05-17T11:00:11Z</time>
      </trkpt>
      <trkpt lat="43.09786" lon="6.32469">
        <ele>3.5</ele>
        <time>2017-05-17T11:00:35Z</time>
      </trkpt>
      <trkpt lat="43.09788" lon="6.32473">
        <ele>3.98</ele>
        <time>2017-05-17T11:01:00Z</time>
      </trkpt>
      <trkpt lat="43.0978" lon="6.32484">
        <ele>4.46</ele>
        <time>2017-05-17T11:01:32Z</time>
      </trkpt>
      <trkpt lat="43.09778" lon="6.32485">
        <ele>3.98</ele>
        <time>2017-05-17T11:02:08Z</time>
      </trkpt>
      <trkpt lat="43.09778" lon="6.32484">
        <ele>3.98</ele>
        <time>2017-05-17T11:02:41Z</time>
      </trkpt>
      <trkpt lat="43.09781" lon="6.32484">
        <ele>4.46</ele>
        <time>2017-05-17T11:03:18Z</time>
      </trkpt>
      <trkpt lat="43.09778" lon="6.32481">
        <ele>4.46</ele>
        <time>2017-05-17T11:03:54Z</time>
      </trkpt>
      <trkpt lat="43.09781" lon="6.32484">
        <ele>3.98</ele>
        <time>2017-05-17T11:04:27Z</time>
      </trkpt>
      <trkpt lat="43.09784" lon="6.32481">
        <ele>3.5</ele>
        <time>2017-05-17T11:04:57Z</time>
      </trkpt>
      <trkpt lat="43.09781" lon="6.32483">
        <ele>4.46</ele>
        <time>2017-05-17T11:05:27Z</time>
      </trkpt>
      <trkpt lat="43.09778" lon="6.32486">
        <ele>3.98</ele>
        <time>2017-05-17T11:05:58Z</time>
      </trkpt>
      <trkpt lat="43.09782" lon="6.32479">
        <ele>3.98</ele>
        <time>2017-05-17T11:06:26Z</time>
      </trkpt>
      <trkpt lat="43.09779" lon="6.32479">
        <ele>4.46</ele>
        <time>2017-05-17T11:06:56Z</time>
      </trkpt>
      <trkpt lat="43.09784" lon="6.32476">
        <ele>4.46</ele>
        <time>2017-05-17T11:07:24Z</time>
      </trkpt>
      <trkpt lat="43.09781" lon="6.32479">
        <ele>3.5</ele>
        <time>2017-05-17T11:07:48Z</time>
      </trkpt>
      <trkpt lat="43.09784" lon="6.32475">
        <ele>4.46</ele>
        <time>2017-05-17T11:08:16Z</time>
      </trkpt>
      <trkpt lat="43.09788" lon="6.32478">
        <ele>4.94</ele>
        <time>2017-05-17T11:08:44Z</time>
      </trkpt>
      <trkpt lat="43.09781" lon="6.32479">
        <ele>4.46</ele>
        <time>2017-05-17T11:09:15Z</time>
      </trkpt>
      <trkpt lat="43.09782" lon="6.32482">
        <ele>4.94</ele>
        <time>2017-05-17T11:09:41Z</time>
      </trkpt>
      <trkpt lat="43.09786" lon="6.32481">
        <ele>4.94</ele>
        <time>2017-05-17T11:10:13Z</time>
      </trkpt>
      <trkpt lat="43.09782" lon="6.32479">
        <ele>4.94</ele>
        <time>2017-05-17T11:10:45Z</time>
      </trkpt>
      <trkpt lat="43.09787" lon="6.32478">
        <ele>4.94</ele>
        <time>2017-05-17T11:11:13Z</time>
      </trkpt>
      <trkpt lat="43.09786" lon="6.32481">
        <ele>5.42</ele>
        <time>2017-05-17T11:11:45Z</time>
      </trkpt>
      <trkpt lat="43.09787" lon="6.3248">
        <ele>5.42</ele>
        <time>2017-05-17T11:12:16Z</time>
      </trkpt>
      <trkpt lat="43.09788" lon="6.32479">
        <ele>5.91</ele>
        <time>2017-05-17T11:12:45Z</time>
      </trkpt>
      <trkpt lat="43.09786" lon="6.32479">
        <ele>5.42</ele>
        <time>2017-05-17T11:13:16Z</time>
      </trkpt>
      <trkpt lat="43.09795" lon="6.32472">
        <ele>5.91</ele>
        <time>2017-05-17T11:13:50Z</time>
      </trkpt>
      <trkpt lat="43.09798" lon="6.32476">
        <ele>5.91</ele>
        <time>2017-05-17T11:14:17Z</time>
      </trkpt>
      <trkpt lat="43.09791" lon="6.3248">
        <ele>5.91</ele>
        <time>2017-05-17T11:14:42Z</time>
      </trkpt>
      <trkpt lat="43.09786" lon="6.32489">
        <ele>5.91</ele>
        <time>2017-05-17T11:15:04Z</time>
      </trkpt>
      <trkpt lat="43.09782" lon="6.32488">
        <ele>5.91</ele>
        <time>2017-05-17T11:15:27Z</time>
      </trkpt>
      <trkpt lat="43.09788" lon="6.32482">
        <ele>6.39</ele>
        <time>2017-05-17T11:15:50Z</time>
      </trkpt>
      <trkpt lat="43.09777" lon="6.32481">
        <ele>5.91</ele>
        <time>2017-05-17T11:16:19Z</time>
      </trkpt>
      <trkpt lat="43.09779" lon="6.32478">
        <ele>5.91</ele>
        <time>2017-05-17T11:16:26Z</time>
      </trkpt>
      <trkpt lat="43.09781" lon="6.32475">
        <ele>10.23</ele>
        <time>2017-05-17T11:16:28Z</time>
      </trkpt>
      <trkpt lat="43.09782" lon="6.32475">
        <ele>6.39</ele>
        <time>2017-05-17T11:16:29Z</time>
      </trkpt>
      <trkpt lat="43.09781" lon="6.3248">
        <ele>6.39</ele>
        <time>2017-05-17T11:16:46Z</time>
      </trkpt>
      <trkpt lat="43.0978" lon="6.32481">
        <ele>6.39</ele>
        <time>2017-05-17T11:17:05Z</time>
      </trkpt>
      <trkpt lat="43.0978" lon="6.32481">
        <ele>6.39</ele>
        <time>2017-05-17T11:17:13Z</time>
      </trkpt>
      <trkpt lat="43.0978" lon="6.32478">
        <ele>6.87</ele>
        <time>2017-05-17T11:17:16Z</time>
      </trkpt>
      <trkpt lat="43.09777" lon="6.32473">
        <ele>6.39</ele>
        <time>2017-05-17T11:17:30Z</time>
      </trkpt>
      <trkpt lat="43.09777" lon="6.32475">
        <ele>6.39</ele>
        <time>2017-05-17T11:17:51Z</time>
      </trkpt>
      <trkpt lat="43.09777" lon="6.32476">
        <ele>5.91</ele>
        <time>2017-05-17T11:18:09Z</time>
      </trkpt>
      <trkpt lat="43.09778" lon="6.3248">
        <ele>6.39</ele>
        <time>2017-05-17T11:18:26Z</time>
      </trkpt>
      <trkpt lat="43.09778" lon="6.32482">
        <ele>6.39</ele>
        <time>2017-05-17T11:18:40Z</time>
      </trkpt>
      <trkpt lat="43.09779" lon="6.32481">
        <ele>6.87</ele>
        <time>2017-05-17T11:19:08Z</time>
      </trkpt>
      <trkpt lat="43.09777" lon="6.32477">
        <ele>5.91</ele>
        <time>2017-05-17T11:19:19Z</time>
      </trkpt>
      <trkpt lat="43.09776" lon="6.32474">
        <ele>5.91</ele>
        <time>2017-05-17T11:19:30Z</time>
      </trkpt>
      <trkpt lat="43.09776" lon="6.32476">
        <ele>5.91</ele>
        <time>2017-05-17T11:19:45Z</time>
      </trkpt>
      <trkpt lat="43.09777" lon="6.32478">
        <ele>5.91</ele>
        <time>2017-05-17T11:20:24Z</time>
      </trkpt>
      <trkpt lat="43.09776" lon="6.32478">
        <ele>5.42</ele>
        <time>2017-05-17T11:20:41Z</time>
      </trkpt>
      <trkpt lat="43.09776" lon="6.32477">
        <ele>5.42</ele>
        <time>2017-05-17T11:21:15Z</time>
      </trkpt>
      <trkpt lat="43.09776" lon="6.32479">
        <ele>5.91</ele>
        <time>2017-05-17T11:21:41Z</time>
      </trkpt>
      <trkpt lat="43.09775" lon="6.3248">
        <ele>5.91</ele>
        <time>2017-05-17T11:22:10Z</time>
      </trkpt>
      <trkpt lat="43.09777" lon="6.32476">
        <ele>5.42</ele>
        <time>2017-05-17T11:22:35Z</time>
      </trkpt>
      <trkpt lat="43.09778" lon="6.32481">
        <ele>5.91</ele>
        <time>2017-05-17T11:22:45Z</time>
      </trkpt>
      <trkpt lat="43.09778" lon="6.32483">
        <ele>0.14</ele>
        <time>2017-05-17T11:22:50Z</time>
      </trkpt>
      <trkpt lat="43.09778" lon="6.32482">
        <ele>5.42</ele>
        <time>2017-05-17T11:22:52Z</time>
      </trkpt>
      <trkpt lat="43.09778" lon="6.32482">
        <ele>4.94</ele>
        <time>2017-05-17T11:22:53Z</time>
      </trkpt>
      <trkpt lat="43.09777" lon="6.32484">
        <ele>4.94</ele>
        <time>2017-05-17T11:23:26Z</time>
      </trkpt>
      <trkpt lat="43.09777" lon="6.32481">
        <ele>4.94</ele>
        <time>2017-05-17T11:24:08Z</time>
      </trkpt>
      <trkpt lat="43.0978" lon="6.32482">
        <ele>5.91</ele>
        <time>2017-05-17T11:24:44Z</time>
      </trkpt>
      <trkpt lat="43.09783" lon="6.32482">
        <ele>5.91</ele>
        <time>2017-05-17T11:25:07Z</time>
      </trkpt>
      <trkpt lat="43.09783" lon="6.32484">
        <ele>4.94</ele>
        <time>2017-05-17T11:25:41Z</time>
      </trkpt>
      <trkpt lat="43.09782" lon="6.32483">
        <ele>5.42</ele>
        <time>2017-05-17T11:26:12Z</time>
      </trkpt>
      <trkpt lat="43.09782" lon="6.32483">
        <ele>-7.55</ele>
        <time>2017-05-17T11:26:13Z</time>
      </trkpt>
      <trkpt lat="43.09782" lon="6.32482">
        <ele>4.46</ele>
        <time>2017-05-17T11:26:14Z</time>
      </trkpt>
      <trkpt lat="43.09782" lon="6.32483">
        <ele>16.96</ele>
        <time>2017-05-17T11:26:38Z</time>
      </trkpt>
      <trkpt lat="43.09782" lon="6.32483">
        <ele>5.42</ele>
        <time>2017-05-17T11:26:39Z</time>
      </trkpt>
      <trkpt lat="43.09783" lon="6.32486">
        <ele>5.91</ele>
        <time>2017-05-17T11:26:55Z</time>
      </trkpt>
      <trkpt lat="43.09782" lon="6.32487">
        <ele>5.42</ele>
        <time>2017-05-17T11:27:26Z</time>
      </trkpt>
      <trkpt lat="43.09783" lon="6.3249">
        <ele>5.91</ele>
        <time>2017-05-17T11:27:46Z</time>
      </trkpt>
      <trkpt lat="43.09783" lon="6.32489">
        <ele>5.91</ele>
        <time>2017-05-17T11:27:58Z</time>
      </trkpt>
      <trkpt lat="43.09783" lon="6.32492">
        <ele>5.42</ele>
        <time>2017-05-17T11:28:25Z</time>
      </trkpt>
      <trkpt lat="43.09778" lon="6.32489">
        <ele>5.42</ele>
        <time>2017-05-17T11:28:47Z</time>
      </trkpt>
      <trkpt lat="43.09777" lon="6.3249">
        <ele>5.91</ele>
        <time>2017-05-17T11:29:20Z</time>
      </trkpt>
      <trkpt lat="43.0978" lon="6.3249">
        <ele>6.39</ele>
        <time>2017-05-17T11:29:40Z</time>
      </trkpt>
      <trkpt lat="43.09781" lon="6.32489">
        <ele>6.39</ele>
        <time>2017-05-17T11:30:05Z</time>
      </trkpt>
      <trkpt lat="43.09781" lon="6.32489">
        <ele>5.91</ele>
        <time>2017-05-17T11:30:25Z</time>
      </trkpt>
      <trkpt lat="43.09782" lon="6.3249">
        <ele>6.39</ele>
        <time>2017-05-17T11:30:54Z</time>
      </trkpt>
      <trkpt lat="43.09783" lon="6.32491">
        <ele>5.42</ele>
        <time>2017-05-17T11:31:15Z</time>
      </trkpt>
      <trkpt lat="43.09784" lon="6.32493">
        <ele>0.14</ele>
        <time>2017-05-17T11:31:30Z</time>
      </trkpt>
      <trkpt lat="43.09784" lon="6.32494">
        <ele>7.83</ele>
        <time>2017-05-17T11:31:31Z</time>
      </trkpt>
      <trkpt lat="43.09784" lon="6.32494">
        <ele>5.91</ele>
        <time>2017-05-17T11:31:32Z</time>
      </trkpt>
      <trkpt lat="43.09784" lon="6.32494">
        <ele>4.46</ele>
        <time>2017-05-17T11:31:34Z</time>
      </trkpt>
      <trkpt lat="43.09786" lon="6.32496">
        <ele>4.94</ele>
        <time>2017-05-17T11:32:03Z</time>
      </trkpt>
      <trkpt lat="43.09786" lon="6.32496">
        <ele>4.94</ele>
        <time>2017-05-17T11:32:38Z</time>
      </trkpt>
      <trkpt lat="43.09786" lon="6.32495">
        <ele>5.42</ele>
        <time>2017-05-17T11:33:06Z</time>
      </trkpt>
      <trkpt lat="43.09786" lon="6.32495">
        <ele>2.06</ele>
        <time>2017-05-17T11:33:11Z</time>
      </trkpt>
      <trkpt lat="43.09786" lon="6.32492">
        <ele>7.83</ele>
        <time>2017-05-17T11:33:13Z</time>
      </trkpt>
      <trkpt lat="43.09785" lon="6.32491">
        <ele>6.39</ele>
        <time>2017-05-17T11:33:14Z</time>
      </trkpt>
      <trkpt lat="43.09785" lon="6.32487">
        <ele>5.42</ele>
        <time>2017-05-17T11:33:34Z</time>
      </trkpt>
      <trkpt lat="43.09781" lon="6.32487">
        <ele>6.39</ele>
        <time>2017-05-17T11:33:54Z</time>
      </trkpt>
      <trkpt lat="43.09782" lon="6.32489">
        <ele>6.39</ele>
        <time>2017-05-17T11:34:18Z</time>
      </trkpt>
      <trkpt lat="43.09783" lon="6.32489">
        <ele>6.39</ele>
        <time>2017-05-17T11:34:48Z</time>
      </trkpt>
      <trkpt lat="43.09783" lon="6.32489">
        <ele>6.87</ele>
        <time>2017-05-17T11:35:18Z</time>
      </trkpt>
      <trkpt lat="43.09782" lon="6.3249">
        <ele>6.87</ele>
        <time>2017-05-17T11:35:36Z</time>
      </trkpt>
      <trkpt lat="43.09784" lon="6.3249">
        <ele>6.87</ele>
        <time>2017-05-17T11:36:01Z</time>
      </trkpt>
      <trkpt lat="43.09782" lon="6.32489">
        <ele>5.91</ele>
        <time>2017-05-17T11:36:18Z</time>
      </trkpt>
      <trkpt lat="43.09778" lon="6.32484">
        <ele>6.39</ele>
        <time>2017-05-17T11:36:50Z</time>
      </trkpt>
      <trkpt lat="43.09776" lon="6.32483">
        <ele>5.91</ele>
        <time>2017-05-17T11:37:22Z</time>
      </trkpt>
      <trkpt lat="43.09779" lon="6.32484">
        <ele>5.91</ele>
        <time>2017-05-17T11:38:03Z</time>
      </trkpt>
      <trkpt lat="43.09777" lon="6.32485">
        <ele>6.39</ele>
        <time>2017-05-17T11:38:32Z</time>
      </trkpt>
      <trkpt lat="43.09777" lon="6.32484">
        <ele>6.39</ele>
        <time>2017-05-17T11:39:08Z</time>
      </trkpt>
      <trkpt lat="43.09777" lon="6.32485">
        <ele>5.91</ele>
        <time>2017-05-17T11:39:34Z</time>
      </trkpt>
      <trkpt lat="43.09777" lon="6.32488">
        <ele>5.91</ele>
        <time>2017-05-17T11:40:09Z</time>
      </trkpt>
      <trkpt lat="43.09779" lon="6.32488">
        <ele>6.39</ele>
        <time>2017-05-17T11:40:21Z</time>
      </trkpt>
      <trkpt lat="43.09777" lon="6.32487">
        <ele>5.91</ele>
        <time>2017-05-17T11:40:36Z</time>
      </trkpt>
      <trkpt lat="43.09776" lon="6.32488">
        <ele>5.42</ele>
        <time>2017-05-17T11:41:04Z</time>
      </trkpt>
      <trkpt lat="43.09774" lon="6.32486">
        <ele>5.42</ele>
        <time>2017-05-17T11:41:38Z</time>
      </trkpt>
      <trkpt lat="43.09775" lon="6.32488">
        <ele>5.91</ele>
        <time>2017-05-17T11:42:07Z</time>
      </trkpt>
      <trkpt lat="43.09776" lon="6.32487">
        <ele>5.91</ele>
        <time>2017-05-17T11:42:34Z</time>
      </trkpt>
      <trkpt lat="43.09778" lon="6.32489">
        <ele>5.42</ele>
        <time>2017-05-17T11:42:58Z</time>
      </trkpt>
      <trkpt lat="43.09779" lon="6.32489">
        <ele>5.91</ele>
        <time>2017-05-17T11:43:25Z</time>
      </trkpt>
      <trkpt lat="43.09779" lon="6.32489">
        <ele>5.42</ele>
        <time>2017-05-17T11:43:45Z</time>
      </trkpt>
      <trkpt lat="43.09779" lon="6.32488">
        <ele>5.42</ele>
        <time>2017-05-17T11:44:02Z</time>
      </trkpt>
      <trkpt lat="43.09779" lon="6.32487">
        <ele>5.42</ele>
        <time>2017-05-17T11:44:21Z</time>
      </trkpt>
      <trkpt lat="43.0978" lon="6.32487">
        <ele>4.94</ele>
        <time>2017-05-17T11:44:44Z</time>
      </trkpt>
      <trkpt lat="43.09782" lon="6.32488">
        <ele>5.91</ele>
        <time>2017-05-17T11:44:58Z</time>
      </trkpt>
      <trkpt lat="43.0978" lon="6.32487">
        <ele>5.91</ele>
        <time>2017-05-17T11:45:11Z</time>
      </trkpt>
      <trkpt lat="43.09778" lon="6.32483">
        <ele>5.42</ele>
        <time>2017-05-17T11:45:24Z</time>
      </trkpt>
      <trkpt lat="43.0978" lon="6.32482">
        <ele>5.42</ele>
        <time>2017-05-17T11:45:41Z</time>
      </trkpt>
      <trkpt lat="43.0978" lon="6.32481">
        <ele>5.42</ele>
        <time>2017-05-17T11:45:57Z</time>
      </trkpt>
      <trkpt lat="43.09776" lon="6.32475">
        <ele>5.42</ele>
        <time>2017-05-17T11:46:08Z</time>
      </trkpt>
      <trkpt lat="43.09772" lon="6.32474">
        <ele>5.91</ele>
        <time>2017-05-17T11:46:12Z</time>
      </trkpt>
      <trkpt lat="43.0977" lon="6.32468">
        <ele>7.35</ele>
        <time>2017-05-17T11:46:23Z</time>
      </trkpt>
      <trkpt lat="43.09769" lon="6.32469">
        <ele>7.35</ele>
        <time>2017-05-17T11:46:26Z</time>
      </trkpt>
      <trkpt lat="43.09767" lon="6.32467">
        <ele>7.35</ele>
        <time>2017-05-17T11:46:39Z</time>
      </trkpt>
      <trkpt lat="43.09769" lon="6.32469">
        <ele>7.35</ele>
        <time>2017-05-17T11:46:50Z</time>
      </trkpt>
      <trkpt lat="43.0977" lon="6.32475">
        <ele>6.39</ele>
        <time>2017-05-17T11:46:56Z</time>
      </trkpt>
      <trkpt lat="43.09777" lon="6.32479">
        <ele>5.42</ele>
        <time>2017-05-17T11:47:03Z</time>
      </trkpt>
      <trkpt lat="43.0978" lon="6.32484">
        <ele>5.91</ele>
        <time>2017-05-17T11:47:19Z</time>
      </trkpt>
      <trkpt lat="43.09778" lon="6.32486">
        <ele>5.42</ele>
        <time>2017-05-17T11:47:51Z</time>
      </trkpt>
      <trkpt lat="43.0978" lon="6.32487">
        <ele>5.42</ele>
        <time>2017-05-17T11:48:10Z</time>
      </trkpt>
      <trkpt lat="43.09778" lon="6.32486">
        <ele>5.42</ele>
        <time>2017-05-17T11:48:29Z</time>
      </trkpt>
      <trkpt lat="43.09781" lon="6.32484">
        <ele>5.91</ele>
        <time>2017-05-17T11:49:04Z</time>
      </trkpt>
      <trkpt lat="43.09781" lon="6.32484">
        <ele>5.91</ele>
        <time>2017-05-17T11:49:28Z</time>
      </trkpt>
      <trkpt lat="43.09781" lon="6.32485">
        <ele>5.91</ele>
        <time>2017-05-17T11:49:46Z</time>
      </trkpt>
      <trkpt lat="43.09781" lon="6.32486">
        <ele>5.42</ele>
        <time>2017-05-17T11:50:11Z</time>
      </trkpt>
      <trkpt lat="43.09781" lon="6.32485">
        <ele>5.42</ele>
        <time>2017-05-17T11:50:31Z</time>
      </trkpt>
      <trkpt lat="43.09779" lon="6.32485">
        <ele>5.42</ele>
        <time>2017-05-17T11:50:54Z</time>
      </trkpt>
      <trkpt lat="43.0978" lon="6.32485">
        <ele>5.42</ele>
        <time>2017-05-17T11:51:13Z</time>
      </trkpt>
      <trkpt lat="43.09779" lon="6.32485">
        <ele>5.42</ele>
        <time>2017-05-17T11:51:37Z</time>
      </trkpt>
      <trkpt lat="43.09781" lon="6.32485">
        <ele>5.42</ele>
        <time>2017-05-17T11:52:04Z</time>
      </trkpt>
      <trkpt lat="43.09782" lon="6.32485">
        <ele>5.42</ele>
        <time>2017-05-17T11:52:26Z</time>
      </trkpt>
      <trkpt lat="43.09781" lon="6.32485">
        <ele>5.42</ele>
        <time>2017-05-17T11:52:46Z</time>
      </trkpt>
      <trkpt lat="43.0978" lon="6.32483">
        <ele>5.91</ele>
        <time>2017-05-17T11:53:01Z</time>
      </trkpt>
      <trkpt lat="43.09782" lon="6.32483">
        <ele>5.42</ele>
        <time>2017-05-17T11:53:28Z</time>
      </trkpt>
      <trkpt lat="43.09782" lon="6.32484">
        <ele>-3.71</ele>
        <time>2017-05-17T11:53:42Z</time>
      </trkpt>
      <trkpt lat="43.09782" lon="6.32484">
        <ele>5.91</ele>
        <time>2017-05-17T11:53:43Z</time>
      </trkpt>
      <trkpt lat="43.09781" lon="6.32484">
        <ele>4.94</ele>
        <time>2017-05-17T11:53:47Z</time>
      </trkpt>
      <trkpt lat="43.0978" lon="6.32482">
        <ele>4.94</ele>
        <time>2017-05-17T11:54:04Z</time>
      </trkpt>
      <trkpt lat="43.0978" lon="6.32481">
        <ele>12.63</ele>
        <time>2017-05-17T11:54:05Z</time>
      </trkpt>
      <trkpt lat="43.0978" lon="6.32482">
        <ele>5.91</ele>
        <time>2017-05-17T11:54:06Z</time>
      </trkpt>
      <trkpt lat="43.09779" lon="6.32484">
        <ele>4.94</ele>
        <time>2017-05-17T11:54:29Z</time>
      </trkpt>
      <trkpt lat="43.09779" lon="6.3248">
        <ele>5.42</ele>
        <time>2017-05-17T11:54:59Z</time>
      </trkpt>
      <trkpt lat="43.09779" lon="6.32481">
        <ele>5.42</ele>
        <time>2017-05-17T11:55:29Z</time>
      </trkpt>
      <trkpt lat="43.0978" lon="6.32479">
        <ele>5.42</ele>
        <time>2017-05-17T11:55:43Z</time>
      </trkpt>
      <trkpt lat="43.09782" lon="6.32484">
        <ele>4.94</ele>
        <time>2017-05-17T11:55:55Z</time>
      </trkpt>
      <trkpt lat="43.09781" lon="6.32485">
        <ele>5.42</ele>
        <time>2017-05-17T11:56:17Z</time>
      </trkpt>
      <trkpt lat="43.09783" lon="6.32486">
        <ele>5.42</ele>
        <time>2017-05-17T11:56:41Z</time>
      </trkpt>
      <trkpt lat="43.09782" lon="6.32486">
        <ele>5.42</ele>
        <time>2017-05-17T11:57:02Z</time>
      </trkpt>
      <trkpt lat="43.09783" lon="6.32486">
        <ele>5.42</ele>
        <time>2017-05-17T11:57:32Z</time>
      </trkpt>
      <trkpt lat="43.09784" lon="6.32489">
        <ele>5.42</ele>
        <time>2017-05-17T11:57:48Z</time>
      </trkpt>
      <trkpt lat="43.09784" lon="6.32488">
        <ele>4.94</ele>
        <time>2017-05-17T11:58:12Z</time>
      </trkpt>
      <trkpt lat="43.09785" lon="6.32486">
        <ele>5.42</ele>
        <time>2017-05-17T11:58:40Z</time>
      </trkpt>
      <trkpt lat="43.09786" lon="6.32492">
        <ele>5.42</ele>
        <time>2017-05-17T11:58:57Z</time>
      </trkpt>
      <trkpt lat="43.09787" lon="6.32495">
        <ele>5.42</ele>
        <time>2017-05-17T11:59:10Z</time>
      </trkpt>
      <trkpt lat="43.09788" lon="6.32496">
        <ele>4.94</ele>
        <time>2017-05-17T11:59:38Z</time>
      </trkpt>
      <trkpt lat="43.09792" lon="6.32499">
        <ele>5.42</ele>
        <time>2017-05-17T11:59:49Z</time>
      </trkpt>
      <trkpt lat="43.09793" lon="6.325">
        <ele>5.42</ele>
        <time>2017-05-17T11:59:53Z</time>
      </trkpt>
      <trkpt lat="43.09799" lon="6.32502">
        <ele>5.42</ele>
        <time>2017-05-17T12:00:03Z</time>
      </trkpt>
      <trkpt lat="43.09805" lon="6.32505">
        <ele>5.42</ele>
        <time>2017-05-17T12:00:09Z</time>
      </trkpt>
      <trkpt lat="43.09812" lon="6.32505">
        <ele>5.42</ele>
        <time>2017-05-17T12:00:21Z</time>
      </trkpt>
      <trkpt lat="43.09816" lon="6.32505">
        <ele>5.42</ele>
        <time>2017-05-17T12:00:36Z</time>
      </trkpt>
      <trkpt lat="43.09819" lon="6.32507">
        <ele>5.42</ele>
        <time>2017-05-17T12:00:52Z</time>
      </trkpt>
      <trkpt lat="43.09828" lon="6.32513">
        <ele>5.42</ele>
        <time>2017-05-17T12:01:02Z</time>
      </trkpt>
      <trkpt lat="43.09836" lon="6.32514">
        <ele>5.42</ele>
        <time>2017-05-17T12:01:12Z</time>
      </trkpt>
      <trkpt lat="43.09848" lon="6.32515">
        <ele>5.42</ele>
        <time>2017-05-17T12:01:23Z</time>
      </trkpt>
      <trkpt lat="43.0986" lon="6.32514">
        <ele>4.94</ele>
        <time>2017-05-17T12:01:33Z</time>
      </trkpt>
      <trkpt lat="43.09874" lon="6.3251">
        <ele>5.42</ele>
        <time>2017-05-17T12:01:44Z</time>
      </trkpt>
      <trkpt lat="43.09875" lon="6.3251">
        <ele>5.42</ele>
        <time>2017-05-17T12:01:45Z</time>
      </trkpt>
      <trkpt lat="43.09883" lon="6.32509">
        <ele>5.91</ele>
        <time>2017-05-17T12:01:51Z</time>
      </trkpt>
      <trkpt lat="43.09898" lon="6.325">
        <ele>5.42</ele>
        <time>2017-05-17T12:02:04Z</time>
      </trkpt>
      <trkpt lat="43.09915" lon="6.3249">
        <ele>5.91</ele>
        <time>2017-05-17T12:02:21Z</time>
      </trkpt>
      <trkpt lat="43.09927" lon="6.32485">
        <ele>5.42</ele>
        <time>2017-05-17T12:02:34Z</time>
      </trkpt>
      <trkpt lat="43.0994" lon="6.32478">
        <ele>4.94</ele>
        <time>2017-05-17T12:02:46Z</time>
      </trkpt>
      <trkpt lat="43.09954" lon="6.32469">
        <ele>5.42</ele>
        <time>2017-05-17T12:02:58Z</time>
      </trkpt>
      <trkpt lat="43.09967" lon="6.3246">
        <ele>4.46</ele>
        <time>2017-05-17T12:03:11Z</time>
      </trkpt>
      <trkpt lat="43.09981" lon="6.32449">
        <ele>4.94</ele>
        <time>2017-05-17T12:03:24Z</time>
      </trkpt>
      <trkpt lat="43.0999" lon="6.32442">
        <ele>3.98</ele>
        <time>2017-05-17T12:03:33Z</time>
      </trkpt>
      <trkpt lat="43.09997" lon="6.32436">
        <ele>4.46</ele>
        <time>2017-05-17T12:03:40Z</time>
      </trkpt>
      <trkpt lat="43.10009" lon="6.32427">
        <ele>5.42</ele>
        <time>2017-05-17T12:03:52Z</time>
      </trkpt>
      <trkpt lat="43.1002" lon="6.32419">
        <ele>5.42</ele>
        <time>2017-05-17T12:04:03Z</time>
      </trkpt>
      <trkpt lat="43.10028" lon="6.32413">
        <ele>4.94</ele>
        <time>2017-05-17T12:04:11Z</time>
      </trkpt>
      <trkpt lat="43.10034" lon="6.3241">
        <ele>5.42</ele>
        <time>2017-05-17T12:04:17Z</time>
      </trkpt>
      <trkpt lat="43.10043" lon="6.324">
        <ele>4.94</ele>
        <time>2017-05-17T12:04:28Z</time>
      </trkpt>
      <trkpt lat="43.10054" lon="6.32389">
        <ele>5.42</ele>
        <time>2017-05-17T12:04:39Z</time>
      </trkpt>
      <trkpt lat="43.10063" lon="6.32376">
        <ele>4.46</ele>
        <time>2017-05-17T12:04:50Z</time>
      </trkpt>
      <trkpt lat="43.10064" lon="6.32375">
        <ele>4.94</ele>
        <time>2017-05-17T12:04:51Z</time>
      </trkpt>
      <trkpt lat="43.10071" lon="6.32368">
        <ele>5.42</ele>
        <time>2017-05-17T12:05:01Z</time>
      </trkpt>
      <trkpt lat="43.10074" lon="6.32365">
        <ele>4.46</ele>
        <time>2017-05-17T12:05:11Z</time>
      </trkpt>
      <trkpt lat="43.10074" lon="6.32365">
        <ele>4.94</ele>
        <time>2017-05-17T12:05:34Z</time>
      </trkpt>
      <trkpt lat="43.10075" lon="6.32365">
        <ele>4.46</ele>
        <time>2017-05-17T12:05:36Z</time>
      </trkpt>
      <trkpt lat="43.10082" lon="6.32357">
        <ele>5.42</ele>
        <time>2017-05-17T12:05:46Z</time>
      </trkpt>
      <trkpt lat="43.10082" lon="6.32357">
        <ele>5.42</ele>
        <time>2017-05-17T12:05:47Z</time>
      </trkpt>
      <trkpt lat="43.10085" lon="6.32354">
        <ele>5.42</ele>
        <time>2017-05-17T12:05:52Z</time>
      </trkpt>
      <trkpt lat="43.10088" lon="6.32349">
        <ele>4.94</ele>
        <time>2017-05-17T12:05:59Z</time>
      </trkpt>
      <trkpt lat="43.1009" lon="6.32346">
        <ele>9.27</ele>
        <time>2017-05-17T12:06:04Z</time>
      </trkpt>
      <trkpt lat="43.10091" lon="6.32345">
        <ele>3.98</ele>
        <time>2017-05-17T12:06:05Z</time>
      </trkpt>
      <trkpt lat="43.10091" lon="6.32344">
        <ele>7.83</ele>
        <time>2017-05-17T12:06:06Z</time>
      </trkpt>
      <trkpt lat="43.10091" lon="6.32344">
        <ele>4.46</ele>
        <time>2017-05-17T12:06:07Z</time>
      </trkpt>
      <trkpt lat="43.10093" lon="6.32339">
        <ele>8.31</ele>
        <time>2017-05-17T12:06:15Z</time>
      </trkpt>
      <trkpt lat="43.1009" lon="6.32339">
        <ele>7.35</ele>
        <time>2017-05-17T12:06:32Z</time>
      </trkpt>
      <trkpt lat="43.10092" lon="6.32336">
        <ele>7.83</ele>
        <time>2017-05-17T12:07:01Z</time>
      </trkpt>
      <trkpt lat="43.10091" lon="6.32336">
        <ele>7.83</ele>
        <time>2017-05-17T12:07:31Z</time>
      </trkpt>
      <trkpt lat="43.10092" lon="6.32335">
        <ele>7.35</ele>
        <time>2017-05-17T12:07:54Z</time>
      </trkpt>
      <trkpt lat="43.10096" lon="6.32331">
        <ele>8.79</ele>
        <time>2017-05-17T12:08:02Z</time>
      </trkpt>
      <trkpt lat="43.10097" lon="6.32331">
        <ele>9.75</ele>
        <time>2017-05-17T12:08:10Z</time>
      </trkpt>
      <trkpt lat="43.10095" lon="6.32333">
        <ele>8.31</ele>
        <time>2017-05-17T12:08:25Z</time>
      </trkpt>
      <trkpt lat="43.10096" lon="6.32335">
        <ele>9.27</ele>
        <time>2017-05-17T12:08:45Z</time>
      </trkpt>
      <trkpt lat="43.10097" lon="6.32335">
        <ele>10.23</ele>
        <time>2017-05-17T12:09:02Z</time>
      </trkpt>
      <trkpt lat="43.10098" lon="6.32329">
        <ele>10.71</ele>
        <time>2017-05-17T12:09:22Z</time>
      </trkpt>
      <trkpt lat="43.10101" lon="6.32321">
        <ele>13.6</ele>
        <time>2017-05-17T12:09:31Z</time>
      </trkpt>
      <trkpt lat="43.10103" lon="6.3231">
        <ele>12.63</ele>
        <time>2017-05-17T12:09:41Z</time>
      </trkpt>
      <trkpt lat="43.10102" lon="6.32305">
        <ele>13.6</ele>
        <time>2017-05-17T12:09:45Z</time>
      </trkpt>
      <trkpt lat="43.10104" lon="6.32296">
        <ele>13.6</ele>
        <time>2017-05-17T12:09:50Z</time>
      </trkpt>
      <trkpt lat="43.10103" lon="6.32278">
        <ele>14.56</ele>
        <time>2017-05-17T12:10:01Z</time>
      </trkpt>
      <trkpt lat="43.10096" lon="6.32267">
        <ele>12.63</ele>
        <time>2017-05-17T12:10:12Z</time>
      </trkpt>
      <trkpt lat="43.10098" lon="6.32258">
        <ele>12.15</ele>
        <time>2017-05-17T12:10:22Z</time>
      </trkpt>
      <trkpt lat="43.101" lon="6.32248">
        <ele>13.12</ele>
        <time>2017-05-17T12:10:31Z</time>
      </trkpt>
      <trkpt lat="43.10095" lon="6.32238">
        <ele>12.15</ele>
        <time>2017-05-17T12:10:43Z</time>
      </trkpt>
      <trkpt lat="43.10095" lon="6.32237">
        <ele>11.19</ele>
        <time>2017-05-17T12:10:44Z</time>
      </trkpt>
      <trkpt lat="43.10091" lon="6.32233">
        <ele>10.71</ele>
        <time>2017-05-17T12:10:50Z</time>
      </trkpt>
      <trkpt lat="43.10087" lon="6.32221">
        <ele>12.63</ele>
        <time>2017-05-17T12:11:02Z</time>
      </trkpt>
      <trkpt lat="43.10087" lon="6.3222">
        <ele>12.15</ele>
        <time>2017-05-17T12:11:03Z</time>
      </trkpt>
      <trkpt lat="43.10084" lon="6.32217">
        <ele>8.79</ele>
        <time>2017-05-17T12:11:08Z</time>
      </trkpt>
      <trkpt lat="43.10085" lon="6.32216">
        <ele>14.56</ele>
        <time>2017-05-17T12:11:09Z</time>
      </trkpt>
      <trkpt lat="43.10085" lon="6.32216">
        <ele>11.19</ele>
        <time>2017-05-17T12:11:10Z</time>
      </trkpt>
      <trkpt lat="43.10084" lon="6.3221">
        <ele>14.56</ele>
        <time>2017-05-17T12:11:18Z</time>
      </trkpt>
      <trkpt lat="43.10087" lon="6.32196">
        <ele>14.56</ele>
        <time>2017-05-17T12:11:29Z</time>
      </trkpt>
      <trkpt lat="43.10087" lon="6.32187">
        <ele>17.92</ele>
        <time>2017-05-17T12:11:38Z</time>
      </trkpt>
      <trkpt lat="43.10087" lon="6.32179">
        <ele>17.92</ele>
        <time>2017-05-17T12:11:47Z</time>
      </trkpt>
      <trkpt lat="43.10087" lon="6.32177">
        <ele>18.4</ele>
        <time>2017-05-17T12:11:49Z</time>
      </trkpt>
      <trkpt lat="43.1009" lon="6.32166">
        <ele>20.81</ele>
        <time>2017-05-17T12:12:01Z</time>
      </trkpt>
      <trkpt lat="43.1009" lon="6.32164">
        <ele>19.84</ele>
        <time>2017-05-17T12:12:03Z</time>
      </trkpt>
      <trkpt lat="43.10088" lon="6.32147">
        <ele>21.77</ele>
        <time>2017-05-17T12:12:15Z</time>
      </trkpt>
      <trkpt lat="43.10088" lon="6.32132">
        <ele>21.77</ele>
        <time>2017-05-17T12:12:25Z</time>
      </trkpt>
      <trkpt lat="43.10089" lon="6.32122">
        <ele>21.77</ele>
        <time>2017-05-17T12:12:33Z</time>
      </trkpt>
      <trkpt lat="43.10092" lon="6.32115">
        <ele>21.77</ele>
        <time>2017-05-17T12:12:38Z</time>
      </trkpt>
      <trkpt lat="43.10097" lon="6.32107">
        <ele>22.25</ele>
        <time>2017-05-17T12:12:47Z</time>
      </trkpt>
      <trkpt lat="43.101" lon="6.32099">
        <ele>21.77</ele>
        <time>2017-05-17T12:12:53Z</time>
      </trkpt>
      <trkpt lat="43.10106" lon="6.3209">
        <ele>21.29</ele>
        <time>2017-05-17T12:13:05Z</time>
      </trkpt>
      <trkpt lat="43.10109" lon="6.32082">
        <ele>20.81</ele>
        <time>2017-05-17T12:13:18Z</time>
      </trkpt>
      <trkpt lat="43.10113" lon="6.32077">
        <ele>19.84</ele>
        <time>2017-05-17T12:13:25Z</time>
      </trkpt>
      <trkpt lat="43.10117" lon="6.32073">
        <ele>20.81</ele>
        <time>2017-05-17T12:13:29Z</time>
      </trkpt>
      <trkpt lat="43.10123" lon="6.3207">
        <ele>20.81</ele>
        <time>2017-05-17T12:13:36Z</time>
      </trkpt>
      <trkpt lat="43.10127" lon="6.32066">
        <ele>19.84</ele>
        <time>2017-05-17T12:13:40Z</time>
      </trkpt>
      <trkpt lat="43.10137" lon="6.32064">
        <ele>19.36</ele>
        <time>2017-05-17T12:13:50Z</time>
      </trkpt>
      <trkpt lat="43.10141" lon="6.32056">
        <ele>20.32</ele>
        <time>2017-05-17T12:14:01Z</time>
      </trkpt>
      <trkpt lat="43.10149" lon="6.3205">
        <ele>21.29</ele>
        <time>2017-05-17T12:14:12Z</time>
      </trkpt>
      <trkpt lat="43.10151" lon="6.32047">
        <ele>21.29</ele>
        <time>2017-05-17T12:14:14Z</time>
      </trkpt>
      <trkpt lat="43.10155" lon="6.32044">
        <ele>21.29</ele>
        <time>2017-05-17T12:14:18Z</time>
      </trkpt>
      <trkpt lat="43.10159" lon="6.32038">
        <ele>19.84</ele>
        <time>2017-05-17T12:14:24Z</time>
      </trkpt>
      <trkpt lat="43.10166" lon="6.32038">
        <ele>22.25</ele>
        <time>2017-05-17T12:14:30Z</time>
      </trkpt>
      <trkpt lat="43.10172" lon="6.32029">
        <ele>19.36</ele>
        <time>2017-05-17T12:14:43Z</time>
      </trkpt>
      <trkpt lat="43.10173" lon="6.32028">
        <ele>18.88</ele>
        <time>2017-05-17T12:14:44Z</time>
      </trkpt>
      <trkpt lat="43.10177" lon="6.3202">
        <ele>18.4</ele>
        <time>2017-05-17T12:14:52Z</time>
      </trkpt>
      <trkpt lat="43.10179" lon="6.32008">
        <ele>17.44</ele>
        <time>2017-05-17T12:15:04Z</time>
      </trkpt>
      <trkpt lat="43.1018" lon="6.32005">
        <ele>17.44</ele>
        <time>2017-05-17T12:15:19Z</time>
      </trkpt>
      <trkpt lat="43.10182" lon="6.31999">
        <ele>16.48</ele>
        <time>2017-05-17T12:15:30Z</time>
      </trkpt>
      <trkpt lat="43.10183" lon="6.31995">
        <ele>15.52</ele>
        <time>2017-05-17T12:15:34Z</time>
      </trkpt>
      <trkpt lat="43.10185" lon="6.31994">
        <ele>15.04</ele>
        <time>2017-05-17T12:15:36Z</time>
      </trkpt>
      <trkpt lat="43.10191" lon="6.31987">
        <ele>14.56</ele>
        <time>2017-05-17T12:15:48Z</time>
      </trkpt>
      <trkpt lat="43.10194" lon="6.31983">
        <ele>14.08</ele>
        <time>2017-05-17T12:15:59Z</time>
      </trkpt>
      <trkpt lat="43.102" lon="6.31978">
        <ele>13.12</ele>
        <time>2017-05-17T12:16:07Z</time>
      </trkpt>
      <trkpt lat="43.10203" lon="6.31975">
        <ele>9.75</ele>
        <time>2017-05-17T12:16:13Z</time>
      </trkpt>
      <trkpt lat="43.1021" lon="6.31977">
        <ele>10.71</ele>
        <time>2017-05-17T12:16:23Z</time>
      </trkpt>
      <trkpt lat="43.10212" lon="6.31975">
        <ele>10.71</ele>
        <time>2017-05-17T12:16:37Z</time>
      </trkpt>
      <trkpt lat="43.10215" lon="6.3197">
        <ele>8.79</ele>
        <time>2017-05-17T12:16:51Z</time>
      </trkpt>
      <trkpt lat="43.10215" lon="6.31969">
        <ele>7.83</ele>
        <time>2017-05-17T12:16:54Z</time>
      </trkpt>
      <trkpt lat="43.10221" lon="6.31963">
        <ele>7.35</ele>
        <time>2017-05-17T12:17:00Z</time>
      </trkpt>
      <trkpt lat="43.10222" lon="6.31961">
        <ele>6.87</ele>
        <time>2017-05-17T12:17:02Z</time>
      </trkpt>
      <trkpt lat="43.10223" lon="6.31959">
        <ele>6.87</ele>
        <time>2017-05-17T12:17:04Z</time>
      </trkpt>
      <trkpt lat="43.10231" lon="6.31954">
        <ele>7.35</ele>
        <time>2017-05-17T12:17:16Z</time>
      </trkpt>
      <trkpt lat="43.10232" lon="6.31952">
        <ele>7.83</ele>
        <time>2017-05-17T12:17:26Z</time>
      </trkpt>
      <trkpt lat="43.1023" lon="6.31949">
        <ele>9.75</ele>
        <time>2017-05-17T12:17:31Z</time>
      </trkpt>
      <trkpt lat="43.10231" lon="6.31944">
        <ele>9.27</ele>
        <time>2017-05-17T12:17:35Z</time>
      </trkpt>
      <trkpt lat="43.10232" lon="6.31937">
        <ele>10.23</ele>
        <time>2017-05-17T12:17:42Z</time>
      </trkpt>
      <trkpt lat="43.10236" lon="6.31928">
        <ele>8.79</ele>
        <time>2017-05-17T12:17:51Z</time>
      </trkpt>
      <trkpt lat="43.10237" lon="6.31926">
        <ele>8.79</ele>
        <time>2017-05-17T12:17:54Z</time>
      </trkpt>
      <trkpt lat="43.1024" lon="6.31922">
        <ele>7.35</ele>
        <time>2017-05-17T12:17:57Z</time>
      </trkpt>
      <trkpt lat="43.10242" lon="6.31918">
        <ele>7.35</ele>
        <time>2017-05-17T12:18:04Z</time>
      </trkpt>
      <trkpt lat="43.10246" lon="6.31913">
        <ele>8.31</ele>
        <time>2017-05-17T12:18:12Z</time>
      </trkpt>
      <trkpt lat="43.10248" lon="6.31911">
        <ele>8.79</ele>
        <time>2017-05-17T12:18:14Z</time>
      </trkpt>
      <trkpt lat="43.10252" lon="6.31906">
        <ele>7.35</ele>
        <time>2017-05-17T12:18:26Z</time>
      </trkpt>
      <trkpt lat="43.10255" lon="6.31901">
        <ele>6.87</ele>
        <time>2017-05-17T12:18:34Z</time>
      </trkpt>
      <trkpt lat="43.10256" lon="6.31901">
        <ele>7.83</ele>
        <time>2017-05-17T12:18:36Z</time>
      </trkpt>
      <trkpt lat="43.10256" lon="6.31901">
        <ele>7.35</ele>
        <time>2017-05-17T12:18:51Z</time>
      </trkpt>
      <trkpt lat="43.1026" lon="6.31898">
        <ele>7.35</ele>
        <time>2017-05-17T12:19:02Z</time>
      </trkpt>
      <trkpt lat="43.10265" lon="6.319">
        <ele>6.87</ele>
        <time>2017-05-17T12:19:11Z</time>
      </trkpt>
      <trkpt lat="43.10268" lon="6.31901">
        <ele>4.94</ele>
        <time>2017-05-17T12:19:16Z</time>
      </trkpt>
      <trkpt lat="43.10268" lon="6.31902">
        <ele>7.83</ele>
        <time>2017-05-17T12:19:17Z</time>
      </trkpt>
      <trkpt lat="43.10269" lon="6.31902">
        <ele>8.79</ele>
        <time>2017-05-17T12:19:19Z</time>
      </trkpt>
      <trkpt lat="43.10273" lon="6.31904">
        <ele>9.27</ele>
        <time>2017-05-17T12:19:31Z</time>
      </trkpt>
      <trkpt lat="43.10274" lon="6.31902">
        <ele>12.63</ele>
        <time>2017-05-17T12:19:40Z</time>
      </trkpt>
      <trkpt lat="43.10274" lon="6.31903">
        <ele>8.79</ele>
        <time>2017-05-17T12:19:41Z</time>
      </trkpt>
      <trkpt lat="43.10282" lon="6.31905">
        <ele>8.31</ele>
        <time>2017-05-17T12:19:55Z</time>
      </trkpt>
      <trkpt lat="43.10283" lon="6.31907">
        <ele>8.31</ele>
        <time>2017-05-17T12:19:57Z</time>
      </trkpt>
      <trkpt lat="43.10282" lon="6.31913">
        <ele>7.83</ele>
        <time>2017-05-17T12:20:02Z</time>
      </trkpt>
      <trkpt lat="43.10279" lon="6.3192">
        <ele>5.42</ele>
        <time>2017-05-17T12:20:11Z</time>
      </trkpt>
      <trkpt lat="43.10285" lon="6.31927">
        <ele>7.83</ele>
        <time>2017-05-17T12:20:19Z</time>
      </trkpt>
      <trkpt lat="43.10289" lon="6.31934">
        <ele>7.83</ele>
        <time>2017-05-17T12:20:33Z</time>
      </trkpt>
      <trkpt lat="43.10291" lon="6.31942">
        <ele>7.83</ele>
        <time>2017-05-17T12:20:46Z</time>
      </trkpt>
      <trkpt lat="43.10295" lon="6.31958">
        <ele>7.83</ele>
        <time>2017-05-17T12:20:57Z</time>
      </trkpt>
      <trkpt lat="43.10305" lon="6.31975">
        <ele>8.31</ele>
        <time>2017-05-17T12:21:08Z</time>
      </trkpt>
      <trkpt lat="43.10314" lon="6.31985">
        <ele>8.79</ele>
        <time>2017-05-17T12:21:18Z</time>
      </trkpt>
      <trkpt lat="43.10331" lon="6.31995">
        <ele>7.83</ele>
        <time>2017-05-17T12:21:30Z</time>
      </trkpt>
      <trkpt lat="43.10344" lon="6.31999">
        <ele>9.27</ele>
        <time>2017-05-17T12:21:41Z</time>
      </trkpt>
      <trkpt lat="43.10359" lon="6.32">
        <ele>7.83</ele>
        <time>2017-05-17T12:21:53Z</time>
      </trkpt>
      <trkpt lat="43.10374" lon="6.32">
        <ele>7.35</ele>
        <time>2017-05-17T12:22:04Z</time>
      </trkpt>
      <trkpt lat="43.10389" lon="6.31995">
        <ele>7.83</ele>
        <time>2017-05-17T12:22:15Z</time>
      </trkpt>
      <trkpt lat="43.10405" lon="6.31986">
        <ele>7.83</ele>
        <time>2017-05-17T12:22:27Z</time>
      </trkpt>
      <trkpt lat="43.1042" lon="6.31976">
        <ele>7.83</ele>
        <time>2017-05-17T12:22:40Z</time>
      </trkpt>
      <trkpt lat="43.10434" lon="6.31966">
        <ele>8.31</ele>
        <time>2017-05-17T12:22:51Z</time>
      </trkpt>
      <trkpt lat="43.10444" lon="6.31951">
        <ele>10.23</ele>
        <time>2017-05-17T12:23:02Z</time>
      </trkpt>
      <trkpt lat="43.10447" lon="6.31948">
        <ele>6.87</ele>
        <time>2017-05-17T12:23:07Z</time>
      </trkpt>
      <trkpt lat="43.10448" lon="6.31949">
        <ele>11.19</ele>
        <time>2017-05-17T12:23:08Z</time>
      </trkpt>
      <trkpt lat="43.10451" lon="6.31942">
        <ele>11.19</ele>
        <time>2017-05-17T12:23:16Z</time>
      </trkpt>
      <trkpt lat="43.10453" lon="6.31938">
        <ele>11.19</ele>
        <time>2017-05-17T12:23:19Z</time>
      </trkpt>
      <trkpt lat="43.10456" lon="6.31927">
        <ele>12.63</ele>
        <time>2017-05-17T12:23:28Z</time>
      </trkpt>
      <trkpt lat="43.10458" lon="6.31923">
        <ele>12.15</ele>
        <time>2017-05-17T12:23:32Z</time>
      </trkpt>
      <trkpt lat="43.10464" lon="6.31915">
        <ele>14.56</ele>
        <time>2017-05-17T12:23:43Z</time>
      </trkpt>
      <trkpt lat="43.10464" lon="6.31915">
        <ele>11.67</ele>
        <time>2017-05-17T12:23:45Z</time>
      </trkpt>
      <trkpt lat="43.10464" lon="6.31914">
        <ele>14.56</ele>
        <time>2017-05-17T12:23:46Z</time>
      </trkpt>
      <trkpt lat="43.10465" lon="6.31911">
        <ele>16</ele>
        <time>2017-05-17T12:23:49Z</time>
      </trkpt>
      <trkpt lat="43.10467" lon="6.31907">
        <ele>16.96</ele>
        <time>2017-05-17T12:23:52Z</time>
      </trkpt>
      <trkpt lat="43.10474" lon="6.31899">
        <ele>14.56</ele>
        <time>2017-05-17T12:24:04Z</time>
      </trkpt>
      <trkpt lat="43.10474" lon="6.31898">
        <ele>15.04</ele>
        <time>2017-05-17T12:24:05Z</time>
      </trkpt>
      <trkpt lat="43.1048" lon="6.3189">
        <ele>16.96</ele>
        <time>2017-05-17T12:24:15Z</time>
      </trkpt>
      <trkpt lat="43.1048" lon="6.31876">
        <ele>14.56</ele>
        <time>2017-05-17T12:24:26Z</time>
      </trkpt>
      <trkpt lat="43.10478" lon="6.3187">
        <ele>14.08</ele>
        <time>2017-05-17T12:24:36Z</time>
      </trkpt>
      <trkpt lat="43.10475" lon="6.31865">
        <ele>14.08</ele>
        <time>2017-05-17T12:25:10Z</time>
      </trkpt>
      <trkpt lat="43.10476" lon="6.31864">
        <ele>14.56</ele>
        <time>2017-05-17T12:25:27Z</time>
      </trkpt>
      <trkpt lat="43.10482" lon="6.31853">
        <ele>15.04</ele>
        <time>2017-05-17T12:25:37Z</time>
      </trkpt>
      <trkpt lat="43.10484" lon="6.31845">
        <ele>15.04</ele>
        <time>2017-05-17T12:25:43Z</time>
      </trkpt>
      <trkpt lat="43.10482" lon="6.31831">
        <ele>15.52</ele>
        <time>2017-05-17T12:25:52Z</time>
      </trkpt>
      <trkpt lat="43.10484" lon="6.31825">
        <ele>16.96</ele>
        <time>2017-05-17T12:25:56Z</time>
      </trkpt>
      <trkpt lat="43.10484" lon="6.31822">
        <ele>16.48</ele>
        <time>2017-05-17T12:25:58Z</time>
      </trkpt>
      <trkpt lat="43.10486" lon="6.31813">
        <ele>16.96</ele>
        <time>2017-05-17T12:26:03Z</time>
      </trkpt>
      <trkpt lat="43.10487" lon="6.318">
        <ele>16</ele>
        <time>2017-05-17T12:26:11Z</time>
      </trkpt>
      <trkpt lat="43.10489" lon="6.31794">
        <ele>17.92</ele>
        <time>2017-05-17T12:26:17Z</time>
      </trkpt>
      <trkpt lat="43.10492" lon="6.31787">
        <ele>17.44</ele>
        <time>2017-05-17T12:26:23Z</time>
      </trkpt>
      <trkpt lat="43.10495" lon="6.31781">
        <ele>17.44</ele>
        <time>2017-05-17T12:26:28Z</time>
      </trkpt>
      <trkpt lat="43.10502" lon="6.31761">
        <ele>15.52</ele>
        <time>2017-05-17T12:26:40Z</time>
      </trkpt>
      <trkpt lat="43.10512" lon="6.31745">
        <ele>13.6</ele>
        <time>2017-05-17T12:26:50Z</time>
      </trkpt>
      <trkpt lat="43.10519" lon="6.31735">
        <ele>12.63</ele>
        <time>2017-05-17T12:26:56Z</time>
      </trkpt>
      <trkpt lat="43.10524" lon="6.31728">
        <ele>10.71</ele>
        <time>2017-05-17T12:27:04Z</time>
      </trkpt>
      <trkpt lat="43.10526" lon="6.31726">
        <ele>9.27</ele>
        <time>2017-05-17T12:27:06Z</time>
      </trkpt>
      <trkpt lat="43.10531" lon="6.3172">
        <ele>9.75</ele>
        <time>2017-05-17T12:27:11Z</time>
      </trkpt>
      <trkpt lat="43.10542" lon="6.31721">
        <ele>8.79</ele>
        <time>2017-05-17T12:27:21Z</time>
      </trkpt>
      <trkpt lat="43.10558" lon="6.31722">
        <ele>8.31</ele>
        <time>2017-05-17T12:27:31Z</time>
      </trkpt>
      <trkpt lat="43.1057" lon="6.31725">
        <ele>10.23</ele>
        <time>2017-05-17T12:27:41Z</time>
      </trkpt>
      <trkpt lat="43.10581" lon="6.31726">
        <ele>9.75</ele>
        <time>2017-05-17T12:27:52Z</time>
      </trkpt>
      <trkpt lat="43.10584" lon="6.31725">
        <ele>9.27</ele>
        <time>2017-05-17T12:27:55Z</time>
      </trkpt>
      <trkpt lat="43.10587" lon="6.31725">
        <ele>9.27</ele>
        <time>2017-05-17T12:27:57Z</time>
      </trkpt>
      <trkpt lat="43.10589" lon="6.31725">
        <ele>10.71</ele>
        <time>2017-05-17T12:28:00Z</time>
      </trkpt>
      <trkpt lat="43.10591" lon="6.31723">
        <ele>13.12</ele>
        <time>2017-05-17T12:28:03Z</time>
      </trkpt>
      <trkpt lat="43.10596" lon="6.31719">
        <ele>11.19</ele>
        <time>2017-05-17T12:28:09Z</time>
      </trkpt>
      <trkpt lat="43.10601" lon="6.31719">
        <ele>14.08</ele>
        <time>2017-05-17T12:28:14Z</time>
      </trkpt>
      <trkpt lat="43.10605" lon="6.3172">
        <ele>10.71</ele>
        <time>2017-05-17T12:28:24Z</time>
      </trkpt>
      <trkpt lat="43.10617" lon="6.31718">
        <ele>10.23</ele>
        <time>2017-05-17T12:28:37Z</time>
      </trkpt>
      <trkpt lat="43.10618" lon="6.31717">
        <ele>9.75</ele>
        <time>2017-05-17T12:28:38Z</time>
      </trkpt>
      <trkpt lat="43.10631" lon="6.31703">
        <ele>8.31</ele>
        <time>2017-05-17T12:28:48Z</time>
      </trkpt>
      <trkpt lat="43.10643" lon="6.3169">
        <ele>8.31</ele>
        <time>2017-05-17T12:28:59Z</time>
      </trkpt>
      <trkpt lat="43.10651" lon="6.31676">
        <ele>8.31</ele>
        <time>2017-05-17T12:29:10Z</time>
      </trkpt>
      <trkpt lat="43.10663" lon="6.31661">
        <ele>9.75</ele>
        <time>2017-05-17T12:29:22Z</time>
      </trkpt>
      <trkpt lat="43.10665" lon="6.31655">
        <ele>8.79</ele>
        <time>2017-05-17T12:29:26Z</time>
      </trkpt>
      <trkpt lat="43.10675" lon="6.31636">
        <ele>8.31</ele>
        <time>2017-05-17T12:29:38Z</time>
      </trkpt>
      <trkpt lat="43.10682" lon="6.3162">
        <ele>8.31</ele>
        <time>2017-05-17T12:29:49Z</time>
      </trkpt>
      <trkpt lat="43.10691" lon="6.31603">
        <ele>8.79</ele>
        <time>2017-05-17T12:30:01Z</time>
      </trkpt>
      <trkpt lat="43.10697" lon="6.31586">
        <ele>8.31</ele>
        <time>2017-05-17T12:30:12Z</time>
      </trkpt>
      <trkpt lat="43.10704" lon="6.31569">
        <ele>8.31</ele>
        <time>2017-05-17T12:30:23Z</time>
      </trkpt>
      <trkpt lat="43.10708" lon="6.31552">
        <ele>8.31</ele>
        <time>2017-05-17T12:30:34Z</time>
      </trkpt>
      <trkpt lat="43.10715" lon="6.31533">
        <ele>8.31</ele>
        <time>2017-05-17T12:30:46Z</time>
      </trkpt>
      <trkpt lat="43.10716" lon="6.31517">
        <ele>8.31</ele>
        <time>2017-05-17T12:30:54Z</time>
      </trkpt>
      <trkpt lat="43.10721" lon="6.31505">
        <ele>7.83</ele>
        <time>2017-05-17T12:31:02Z</time>
      </trkpt>
      <trkpt lat="43.10727" lon="6.31487">
        <ele>7.83</ele>
        <time>2017-05-17T12:31:14Z</time>
      </trkpt>
      <trkpt lat="43.10728" lon="6.3148">
        <ele>7.35</ele>
        <time>2017-05-17T12:31:19Z</time>
      </trkpt>
      <trkpt lat="43.10729" lon="6.31473">
        <ele>7.83</ele>
        <time>2017-05-17T12:31:23Z</time>
      </trkpt>
      <trkpt lat="43.10729" lon="6.31458">
        <ele>7.83</ele>
        <time>2017-05-17T12:31:35Z</time>
      </trkpt>
      <trkpt lat="43.10729" lon="6.31454">
        <ele>8.79</ele>
        <time>2017-05-17T12:31:49Z</time>
      </trkpt>
      <trkpt lat="43.10729" lon="6.31452">
        <ele>9.27</ele>
        <time>2017-05-17T12:31:51Z</time>
      </trkpt>
      <trkpt lat="43.10732" lon="6.31448">
        <ele>8.79</ele>
        <time>2017-05-17T12:32:02Z</time>
      </trkpt>
      <trkpt lat="43.10733" lon="6.31445">
        <ele>7.83</ele>
        <time>2017-05-17T12:32:06Z</time>
      </trkpt>
      <trkpt lat="43.10734" lon="6.31431">
        <ele>7.35</ele>
        <time>2017-05-17T12:32:13Z</time>
      </trkpt>
      <trkpt lat="43.10734" lon="6.3142">
        <ele>9.27</ele>
        <time>2017-05-17T12:32:25Z</time>
      </trkpt>
      <trkpt lat="43.10733" lon="6.31415">
        <ele>8.79</ele>
        <time>2017-05-17T12:32:32Z</time>
      </trkpt>
      <trkpt lat="43.10729" lon="6.31407">
        <ele>7.83</ele>
        <time>2017-05-17T12:32:42Z</time>
      </trkpt>
      <trkpt lat="43.10729" lon="6.31407">
        <ele>7.83</ele>
        <time>2017-05-17T12:32:44Z</time>
      </trkpt>
      <trkpt lat="43.10726" lon="6.31404">
        <ele>7.83</ele>
        <time>2017-05-17T12:32:55Z</time>
      </trkpt>
      <trkpt lat="43.10724" lon="6.31405">
        <ele>2.06</ele>
        <time>2017-05-17T12:33:12Z</time>
      </trkpt>
      <trkpt lat="43.10723" lon="6.31405">
        <ele>11.67</ele>
        <time>2017-05-17T12:33:13Z</time>
      </trkpt>
      <trkpt lat="43.10723" lon="6.31405">
        <ele>3.02</ele>
        <time>2017-05-17T12:33:14Z</time>
      </trkpt>
      <trkpt lat="43.10723" lon="6.31405">
        <ele>9.75</ele>
        <time>2017-05-17T12:33:15Z</time>
      </trkpt>
      <trkpt lat="43.10724" lon="6.31406">
        <ele>7.35</ele>
        <time>2017-05-17T12:33:42Z</time>
      </trkpt>
      <trkpt lat="43.10724" lon="6.31405">
        <ele>7.35</ele>
        <time>2017-05-17T12:34:13Z</time>
      </trkpt>
      <trkpt lat="43.10723" lon="6.31406">
        <ele>10.71</ele>
        <time>2017-05-17T12:34:38Z</time>
      </trkpt>
      <trkpt lat="43.10723" lon="6.31406">
        <ele>7.83</ele>
        <time>2017-05-17T12:34:39Z</time>
      </trkpt>
      <trkpt lat="43.10722" lon="6.31404">
        <ele>7.83</ele>
        <time>2017-05-17T12:34:50Z</time>
      </trkpt>
      <trkpt lat="43.10719" lon="6.31396">
        <ele>8.31</ele>
        <time>2017-05-17T12:35:02Z</time>
      </trkpt>
      <trkpt lat="43.10717" lon="6.3139">
        <ele>8.31</ele>
        <time>2017-05-17T12:35:08Z</time>
      </trkpt>
      <trkpt lat="43.10719" lon="6.31382">
        <ele>8.79</ele>
        <time>2017-05-17T12:35:15Z</time>
      </trkpt>
      <trkpt lat="43.10722" lon="6.31381">
        <ele>8.79</ele>
        <time>2017-05-17T12:35:19Z</time>
      </trkpt>
      <trkpt lat="43.10724" lon="6.31374">
        <ele>8.79</ele>
        <time>2017-05-17T12:35:27Z</time>
      </trkpt>
      <trkpt lat="43.10725" lon="6.31371">
        <ele>8.79</ele>
        <time>2017-05-17T12:35:30Z</time>
      </trkpt>
      <trkpt lat="43.10727" lon="6.31363">
        <ele>8.79</ele>
        <time>2017-05-17T12:35:42Z</time>
      </trkpt>
      <trkpt lat="43.10727" lon="6.31359">
        <ele>4.94</ele>
        <time>2017-05-17T12:35:50Z</time>
      </trkpt>
      <trkpt lat="43.10726" lon="6.31358">
        <ele>9.27</ele>
        <time>2017-05-17T12:35:51Z</time>
      </trkpt>
      <trkpt lat="43.10727" lon="6.31356">
        <ele>9.75</ele>
        <time>2017-05-17T12:35:53Z</time>
      </trkpt>
      <trkpt lat="43.10728" lon="6.31356">
        <ele>9.75</ele>
        <time>2017-05-17T12:35:55Z</time>
      </trkpt>
      <trkpt lat="43.1073" lon="6.31354">
        <ele>12.15</ele>
        <time>2017-05-17T12:35:58Z</time>
      </trkpt>
      <trkpt lat="43.10736" lon="6.31354">
        <ele>9.27</ele>
        <time>2017-05-17T12:36:09Z</time>
      </trkpt>
      <trkpt lat="43.10739" lon="6.31353">
        <ele>8.31</ele>
        <time>2017-05-17T12:36:13Z</time>
      </trkpt>
      <trkpt lat="43.10741" lon="6.31353">
        <ele>7.83</ele>
        <time>2017-05-17T12:36:16Z</time>
      </trkpt>
      <trkpt lat="43.10743" lon="6.31353">
        <ele>8.31</ele>
        <time>2017-05-17T12:36:18Z</time>
      </trkpt>
      <trkpt lat="43.10752" lon="6.31352">
        <ele>8.31</ele>
        <time>2017-05-17T12:36:28Z</time>
      </trkpt>
      <trkpt lat="43.10761" lon="6.31352">
        <ele>7.83</ele>
        <time>2017-05-17T12:36:39Z</time>
      </trkpt>
      <trkpt lat="43.10764" lon="6.3135">
        <ele>7.83</ele>
        <time>2017-05-17T12:36:42Z</time>
      </trkpt>
      <trkpt lat="43.10769" lon="6.31343">
        <ele>7.83</ele>
        <time>2017-05-17T12:36:47Z</time>
      </trkpt>
      <trkpt lat="43.10773" lon="6.31336">
        <ele>8.31</ele>
        <time>2017-05-17T12:36:51Z</time>
      </trkpt>
      <trkpt lat="43.10778" lon="6.31319">
        <ele>7.83</ele>
        <time>2017-05-17T12:37:02Z</time>
      </trkpt>
      <trkpt lat="43.10781" lon="6.31308">
        <ele>7.83</ele>
        <time>2017-05-17T12:37:08Z</time>
      </trkpt>
      <trkpt lat="43.10783" lon="6.31289">
        <ele>7.83</ele>
        <time>2017-05-17T12:37:19Z</time>
      </trkpt>
      <trkpt lat="43.10788" lon="6.31267">
        <ele>6.87</ele>
        <time>2017-05-17T12:37:31Z</time>
      </trkpt>
      <trkpt lat="43.10792" lon="6.31249">
        <ele>6.87</ele>
        <time>2017-05-17T12:37:42Z</time>
      </trkpt>
      <trkpt lat="43.10795" lon="6.31231">
        <ele>7.35</ele>
        <time>2017-05-17T12:37:52Z</time>
      </trkpt>
      <trkpt lat="43.10797" lon="6.31224">
        <ele>6.87</ele>
        <time>2017-05-17T12:37:56Z</time>
      </trkpt>
      <trkpt lat="43.10801" lon="6.31207">
        <ele>7.35</ele>
        <time>2017-05-17T12:38:07Z</time>
      </trkpt>
      <trkpt lat="43.10804" lon="6.31187">
        <ele>7.35</ele>
        <time>2017-05-17T12:38:19Z</time>
      </trkpt>
      <trkpt lat="43.10807" lon="6.31171">
        <ele>6.87</ele>
        <time>2017-05-17T12:38:29Z</time>
      </trkpt>
      <trkpt lat="43.10811" lon="6.3115">
        <ele>6.87</ele>
        <time>2017-05-17T12:38:41Z</time>
      </trkpt>
      <trkpt lat="43.10814" lon="6.31132">
        <ele>6.87</ele>
        <time>2017-05-17T12:38:51Z</time>
      </trkpt>
      <trkpt lat="43.10817" lon="6.31115">
        <ele>6.87</ele>
        <time>2017-05-17T12:39:02Z</time>
      </trkpt>
      <trkpt lat="43.10821" lon="6.31096">
        <ele>6.87</ele>
        <time>2017-05-17T12:39:13Z</time>
      </trkpt>
      <trkpt lat="43.10824" lon="6.3108">
        <ele>7.35</ele>
        <time>2017-05-17T12:39:24Z</time>
      </trkpt>
      <trkpt lat="43.10826" lon="6.31069">
        <ele>6.87</ele>
        <time>2017-05-17T12:39:36Z</time>
      </trkpt>
      <trkpt lat="43.10827" lon="6.31067">
        <ele>7.35</ele>
        <time>2017-05-17T12:39:38Z</time>
      </trkpt>
      <trkpt lat="43.10828" lon="6.31054">
        <ele>6.87</ele>
        <time>2017-05-17T12:39:46Z</time>
      </trkpt>
      <trkpt lat="43.1083" lon="6.31032">
        <ele>7.35</ele>
        <time>2017-05-17T12:39:59Z</time>
      </trkpt>
      <trkpt lat="43.10833" lon="6.3101">
        <ele>6.39</ele>
        <time>2017-05-17T12:40:11Z</time>
      </trkpt>
      <trkpt lat="43.10835" lon="6.30992">
        <ele>7.35</ele>
        <time>2017-05-17T12:40:22Z</time>
      </trkpt>
      <trkpt lat="43.10836" lon="6.30976">
        <ele>6.87</ele>
        <time>2017-05-17T12:40:31Z</time>
      </trkpt>
      <trkpt lat="43.10838" lon="6.30959">
        <ele>6.87</ele>
        <time>2017-05-17T12:40:41Z</time>
      </trkpt>
      <trkpt lat="43.1084" lon="6.30937">
        <ele>7.35</ele>
        <time>2017-05-17T12:40:53Z</time>
      </trkpt>
      <trkpt lat="43.10841" lon="6.30916">
        <ele>6.87</ele>
        <time>2017-05-17T12:41:04Z</time>
      </trkpt>
      <trkpt lat="43.10843" lon="6.30906">
        <ele>6.87</ele>
        <time>2017-05-17T12:41:10Z</time>
      </trkpt>
      <trkpt lat="43.10843" lon="6.30903">
        <ele>6.87</ele>
        <time>2017-05-17T12:41:13Z</time>
      </trkpt>
      <trkpt lat="43.10845" lon="6.30883">
        <ele>7.35</ele>
        <time>2017-05-17T12:41:25Z</time>
      </trkpt>
      <trkpt lat="43.10847" lon="6.3086">
        <ele>6.87</ele>
        <time>2017-05-17T12:41:37Z</time>
      </trkpt>
      <trkpt lat="43.10849" lon="6.30838">
        <ele>7.35</ele>
        <time>2017-05-17T12:41:49Z</time>
      </trkpt>
      <trkpt lat="43.10849" lon="6.30813">
        <ele>7.35</ele>
        <time>2017-05-17T12:42:02Z</time>
      </trkpt>
      <trkpt lat="43.1085" lon="6.30792">
        <ele>6.39</ele>
        <time>2017-05-17T12:42:14Z</time>
      </trkpt>
      <trkpt lat="43.10849" lon="6.30772">
        <ele>6.39</ele>
        <time>2017-05-17T12:42:26Z</time>
      </trkpt>
      <trkpt lat="43.10848" lon="6.30755">
        <ele>6.87</ele>
        <time>2017-05-17T12:42:36Z</time>
      </trkpt>
      <trkpt lat="43.10847" lon="6.30737">
        <ele>6.87</ele>
        <time>2017-05-17T12:42:46Z</time>
      </trkpt>
      <trkpt lat="43.10843" lon="6.30716">
        <ele>6.87</ele>
        <time>2017-05-17T12:42:59Z</time>
      </trkpt>
      <trkpt lat="43.10839" lon="6.30696">
        <ele>6.87</ele>
        <time>2017-05-17T12:43:10Z</time>
      </trkpt>
      <trkpt lat="43.10838" lon="6.30679">
        <ele>6.87</ele>
        <time>2017-05-17T12:43:21Z</time>
      </trkpt>
      <trkpt lat="43.10837" lon="6.3066">
        <ele>6.39</ele>
        <time>2017-05-17T12:43:32Z</time>
      </trkpt>
      <trkpt lat="43.10829" lon="6.3064">
        <ele>6.39</ele>
        <time>2017-05-17T12:43:44Z</time>
      </trkpt>
      <trkpt lat="43.10829" lon="6.30638">
        <ele>6.87</ele>
        <time>2017-05-17T12:43:46Z</time>
      </trkpt>
      <trkpt lat="43.10828" lon="6.30629">
        <ele>6.39</ele>
        <time>2017-05-17T12:43:51Z</time>
      </trkpt>
      <trkpt lat="43.10828" lon="6.30624">
        <ele>6.39</ele>
        <time>2017-05-17T12:43:54Z</time>
      </trkpt>
      <trkpt lat="43.10826" lon="6.30603">
        <ele>7.35</ele>
        <time>2017-05-17T12:44:07Z</time>
      </trkpt>
      <trkpt lat="43.10821" lon="6.30587">
        <ele>6.39</ele>
        <time>2017-05-17T12:44:17Z</time>
      </trkpt>
      <trkpt lat="43.10816" lon="6.30564">
        <ele>6.39</ele>
        <time>2017-05-17T12:44:30Z</time>
      </trkpt>
      <trkpt lat="43.10815" lon="6.30554">
        <ele>6.39</ele>
        <time>2017-05-17T12:44:36Z</time>
      </trkpt>
      <trkpt lat="43.10809" lon="6.30531">
        <ele>6.87</ele>
        <time>2017-05-17T12:44:49Z</time>
      </trkpt>
      <trkpt lat="43.10808" lon="6.3051">
        <ele>6.87</ele>
        <time>2017-05-17T12:45:01Z</time>
      </trkpt>
      <trkpt lat="43.10807" lon="6.30495">
        <ele>6.39</ele>
        <time>2017-05-17T12:45:10Z</time>
      </trkpt>
      <trkpt lat="43.1081" lon="6.30473">
        <ele>6.87</ele>
        <time>2017-05-17T12:45:23Z</time>
      </trkpt>
      <trkpt lat="43.10811" lon="6.30453">
        <ele>6.39</ele>
        <time>2017-05-17T12:45:34Z</time>
      </trkpt>
      <trkpt lat="43.10811" lon="6.30452">
        <ele>6.39</ele>
        <time>2017-05-17T12:45:35Z</time>
      </trkpt>
      <trkpt lat="43.1081" lon="6.30446">
        <ele>6.87</ele>
        <time>2017-05-17T12:45:39Z</time>
      </trkpt>
      <trkpt lat="43.10808" lon="6.30437">
        <ele>5.91</ele>
        <time>2017-05-17T12:45:45Z</time>
      </trkpt>
      <trkpt lat="43.10809" lon="6.30424">
        <ele>5.91</ele>
        <time>2017-05-17T12:45:52Z</time>
      </trkpt>
      <trkpt lat="43.10807" lon="6.30407">
        <ele>5.91</ele>
        <time>2017-05-17T12:46:03Z</time>
      </trkpt>
      <trkpt lat="43.10807" lon="6.30402">
        <ele>2.54</ele>
        <time>2017-05-17T12:46:10Z</time>
      </trkpt>
      <trkpt lat="43.10807" lon="6.30401">
        <ele>9.27</ele>
        <time>2017-05-17T12:46:11Z</time>
      </trkpt>
      <trkpt lat="43.10807" lon="6.304">
        <ele>5.91</ele>
        <time>2017-05-17T12:46:12Z</time>
      </trkpt>
      <trkpt lat="43.10807" lon="6.30397">
        <ele>9.27</ele>
        <time>2017-05-17T12:46:14Z</time>
      </trkpt>
      <trkpt lat="43.10806" lon="6.30392">
        <ele>5.91</ele>
        <time>2017-05-17T12:46:18Z</time>
      </trkpt>
      <trkpt lat="43.10806" lon="6.30391">
        <ele>5.91</ele>
        <time>2017-05-17T12:46:19Z</time>
      </trkpt>
      <trkpt lat="43.10805" lon="6.30387">
        <ele>6.39</ele>
        <time>2017-05-17T12:46:24Z</time>
      </trkpt>
      <trkpt lat="43.10808" lon="6.30381">
        <ele>6.87</ele>
        <time>2017-05-17T12:46:31Z</time>
      </trkpt>
      <trkpt lat="43.10808" lon="6.30375">
        <ele>6.87</ele>
        <time>2017-05-17T12:46:38Z</time>
      </trkpt>
      <trkpt lat="43.10808" lon="6.30363">
        <ele>5.42</ele>
        <time>2017-05-17T12:46:45Z</time>
      </trkpt>
      <trkpt lat="43.10808" lon="6.3035">
        <ele>5.91</ele>
        <time>2017-05-17T12:46:52Z</time>
      </trkpt>
      <trkpt lat="43.10806" lon="6.30339">
        <ele>5.91</ele>
        <time>2017-05-17T12:47:01Z</time>
      </trkpt>
      <trkpt lat="43.10804" lon="6.30335">
        <ele>5.91</ele>
        <time>2017-05-17T12:47:04Z</time>
      </trkpt>
      <trkpt lat="43.10806" lon="6.30326">
        <ele>5.91</ele>
        <time>2017-05-17T12:47:10Z</time>
      </trkpt>
      <trkpt lat="43.10807" lon="6.3032">
        <ele>6.87</ele>
        <time>2017-05-17T12:47:13Z</time>
      </trkpt>
      <trkpt lat="43.10807" lon="6.3032">
        <ele>6.39</ele>
        <time>2017-05-17T12:47:14Z</time>
      </trkpt>
      <trkpt lat="43.10804" lon="6.30301">
        <ele>5.91</ele>
        <time>2017-05-17T12:47:25Z</time>
      </trkpt>
      <trkpt lat="43.10804" lon="6.30291">
        <ele>6.87</ele>
        <time>2017-05-17T12:47:32Z</time>
      </trkpt>
      <trkpt lat="43.10802" lon="6.30275">
        <ele>6.39</ele>
        <time>2017-05-17T12:47:44Z</time>
      </trkpt>
      <trkpt lat="43.10802" lon="6.30276">
        <ele>-2.75</ele>
        <time>2017-05-17T12:47:52Z</time>
      </trkpt>
      <trkpt lat="43.10802" lon="6.30276">
        <ele>-1.3</ele>
        <time>2017-05-17T12:47:53Z</time>
      </trkpt>
      <trkpt lat="43.10802" lon="6.30276">
        <ele>4.46</ele>
        <time>2017-05-17T12:47:54Z</time>
      </trkpt>
      <trkpt lat="43.10802" lon="6.30276">
        <ele>11.67</ele>
        <time>2017-05-17T12:47:55Z</time>
      </trkpt>
      <trkpt lat="43.10802" lon="6.30276">
        <ele>3.98</ele>
        <time>2017-05-17T12:47:56Z</time>
      </trkpt>
      <trkpt lat="43.10802" lon="6.30276">
        <ele>4.46</ele>
        <time>2017-05-17T12:48:00Z</time>
      </trkpt>
      <trkpt lat="43.10802" lon="6.30276">
        <ele>8.31</ele>
        <time>2017-05-17T12:48:06Z</time>
      </trkpt>
      <trkpt lat="43.10802" lon="6.30277">
        <ele>4.46</ele>
        <time>2017-05-17T12:48:08Z</time>
      </trkpt>
      <trkpt lat="43.10802" lon="6.30277">
        <ele>19.84</ele>
        <time>2017-05-17T12:48:24Z</time>
      </trkpt>
      <trkpt lat="43.10802" lon="6.30276">
        <ele>6.39</ele>
        <time>2017-05-17T12:48:25Z</time>
      </trkpt>
      <trkpt lat="43.10802" lon="6.30275">
        <ele>6.39</ele>
        <time>2017-05-17T12:48:42Z</time>
      </trkpt>
      <trkpt lat="43.10802" lon="6.30276">
        <ele>5.91</ele>
        <time>2017-05-17T12:48:58Z</time>
      </trkpt>
      <trkpt lat="43.10801" lon="6.30276">
        <ele>5.42</ele>
        <time>2017-05-17T12:49:29Z</time>
      </trkpt>
      <trkpt lat="43.108" lon="6.30277">
        <ele>5.91</ele>
        <time>2017-05-17T12:50:02Z</time>
      </trkpt>
      <trkpt lat="43.10799" lon="6.30277">
        <ele>5.42</ele>
        <time>2017-05-17T12:50:31Z</time>
      </trkpt>
      <trkpt lat="43.10799" lon="6.30277">
        <ele>5.91</ele>
        <time>2017-05-17T12:50:59Z</time>
      </trkpt>
      <trkpt lat="43.108" lon="6.30276">
        <ele>5.91</ele>
        <time>2017-05-17T12:51:15Z</time>
      </trkpt>
      <trkpt lat="43.10799" lon="6.30273">
        <ele>5.42</ele>
        <time>2017-05-17T12:51:35Z</time>
      </trkpt>
      <trkpt lat="43.108" lon="6.30274">
        <ele>5.42</ele>
        <time>2017-05-17T12:51:49Z</time>
      </trkpt>
      <trkpt lat="43.10799" lon="6.30275">
        <ele>5.42</ele>
        <time>2017-05-17T12:52:19Z</time>
      </trkpt>
      <trkpt lat="43.10799" lon="6.30274">
        <ele>5.42</ele>
        <time>2017-05-17T12:52:39Z</time>
      </trkpt>
      <trkpt lat="43.10798" lon="6.30269">
        <ele>5.91</ele>
        <time>2017-05-17T12:52:51Z</time>
      </trkpt>
      <trkpt lat="43.10798" lon="6.30265">
        <ele>5.42</ele>
        <time>2017-05-17T12:52:59Z</time>
      </trkpt>
      <trkpt lat="43.10798" lon="6.30258">
        <ele>5.42</ele>
        <time>2017-05-17T12:53:04Z</time>
      </trkpt>
      <trkpt lat="43.10795" lon="6.30246">
        <ele>5.42</ele>
        <time>2017-05-17T12:53:14Z</time>
      </trkpt>
      <trkpt lat="43.10794" lon="6.30239">
        <ele>4.94</ele>
        <time>2017-05-17T12:53:19Z</time>
      </trkpt>
      <trkpt lat="43.10789" lon="6.30229">
        <ele>5.42</ele>
        <time>2017-05-17T12:53:28Z</time>
      </trkpt>
      <trkpt lat="43.10784" lon="6.30215">
        <ele>5.42</ele>
        <time>2017-05-17T12:53:39Z</time>
      </trkpt>
      <trkpt lat="43.10779" lon="6.30208">
        <ele>4.94</ele>
        <time>2017-05-17T12:53:45Z</time>
      </trkpt>
      <trkpt lat="43.10773" lon="6.30201">
        <ele>4.94</ele>
        <time>2017-05-17T12:53:53Z</time>
      </trkpt>
      <trkpt lat="43.10768" lon="6.30191">
        <ele>4.46</ele>
        <time>2017-05-17T12:54:01Z</time>
      </trkpt>
      <trkpt lat="43.10767" lon="6.30188">
        <ele>4.46</ele>
        <time>2017-05-17T12:54:03Z</time>
      </trkpt>
      <trkpt lat="43.10764" lon="6.30188">
        <ele>5.42</ele>
        <time>2017-05-17T12:54:07Z</time>
      </trkpt>
      <trkpt lat="43.10758" lon="6.30185">
        <ele>4.46</ele>
        <time>2017-05-17T12:54:12Z</time>
      </trkpt>
      <trkpt lat="43.10749" lon="6.3018">
        <ele>4.46</ele>
        <time>2017-05-17T12:54:22Z</time>
      </trkpt>
      <trkpt lat="43.1074" lon="6.30174">
        <ele>4.94</ele>
        <time>2017-05-17T12:54:33Z</time>
      </trkpt>
      <trkpt lat="43.1073" lon="6.30172">
        <ele>4.94</ele>
        <time>2017-05-17T12:54:44Z</time>
      </trkpt>
      <trkpt lat="43.10724" lon="6.30172">
        <ele>4.46</ele>
        <time>2017-05-17T12:54:51Z</time>
      </trkpt>
      <trkpt lat="43.10718" lon="6.30172">
        <ele>4.46</ele>
        <time>2017-05-17T12:55:00Z</time>
      </trkpt>
      <trkpt lat="43.10714" lon="6.3017">
        <ele>3.98</ele>
        <time>2017-05-17T12:55:04Z</time>
      </trkpt>
      <trkpt lat="43.10712" lon="6.30167">
        <ele>3.98</ele>
        <time>2017-05-17T12:55:07Z</time>
      </trkpt>
      <trkpt lat="43.10708" lon="6.30164">
        <ele>4.94</ele>
        <time>2017-05-17T12:55:18Z</time>
      </trkpt>
      <trkpt lat="43.10704" lon="6.3016">
        <ele>5.42</ele>
        <time>2017-05-17T12:55:27Z</time>
      </trkpt>
      <trkpt lat="43.107" lon="6.30158">
        <ele>4.94</ele>
        <time>2017-05-17T12:55:30Z</time>
      </trkpt>
      <trkpt lat="43.10699" lon="6.30157">
        <ele>4.94</ele>
        <time>2017-05-17T12:55:32Z</time>
      </trkpt>
      <trkpt lat="43.10696" lon="6.30157">
        <ele>3.02</ele>
        <time>2017-05-17T12:55:34Z</time>
      </trkpt>
      <trkpt lat="43.10691" lon="6.3015">
        <ele>4.94</ele>
        <time>2017-05-17T12:55:43Z</time>
      </trkpt>
      <trkpt lat="43.10693" lon="6.30144">
        <ele>5.91</ele>
        <time>2017-05-17T12:55:47Z</time>
      </trkpt>
      <trkpt lat="43.10693" lon="6.30136">
        <ele>5.42</ele>
        <time>2017-05-17T12:55:52Z</time>
      </trkpt>
      <trkpt lat="43.10693" lon="6.30133">
        <ele>5.91</ele>
        <time>2017-05-17T12:55:55Z</time>
      </trkpt>
      <trkpt lat="43.10694" lon="6.30123">
        <ele>6.39</ele>
        <time>2017-05-17T12:56:06Z</time>
      </trkpt>
      <trkpt lat="43.10694" lon="6.3012">
        <ele>5.91</ele>
        <time>2017-05-17T12:56:09Z</time>
      </trkpt>
      <trkpt lat="43.10694" lon="6.30111">
        <ele>6.87</ele>
        <time>2017-05-17T12:56:19Z</time>
      </trkpt>
      <trkpt lat="43.10693" lon="6.30108">
        <ele>6.39</ele>
        <time>2017-05-17T12:56:22Z</time>
      </trkpt>
      <trkpt lat="43.10693" lon="6.30104">
        <ele>6.39</ele>
        <time>2017-05-17T12:56:25Z</time>
      </trkpt>
      <trkpt lat="43.10692" lon="6.30091">
        <ele>8.31</ele>
        <time>2017-05-17T12:56:33Z</time>
      </trkpt>
      <trkpt lat="43.10691" lon="6.30084">
        <ele>8.31</ele>
        <time>2017-05-17T12:56:40Z</time>
      </trkpt>
      <trkpt lat="43.1069" lon="6.30082">
        <ele>7.35</ele>
        <time>2017-05-17T12:56:48Z</time>
      </trkpt>
      <trkpt lat="43.1069" lon="6.3008">
        <ele>7.35</ele>
        <time>2017-05-17T12:56:50Z</time>
      </trkpt>
      <trkpt lat="43.10689" lon="6.30077">
        <ele>6.87</ele>
        <time>2017-05-17T12:56:52Z</time>
      </trkpt>
      <trkpt lat="43.10688" lon="6.30074">
        <ele>6.87</ele>
        <time>2017-05-17T12:56:54Z</time>
      </trkpt>
      <trkpt lat="43.10682" lon="6.30066">
        <ele>8.31</ele>
        <time>2017-05-17T12:57:04Z</time>
      </trkpt>
      <trkpt lat="43.10681" lon="6.30066">
        <ele>6.87</ele>
        <time>2017-05-17T12:57:06Z</time>
      </trkpt>
      <trkpt lat="43.10679" lon="6.30064">
        <ele>6.87</ele>
        <time>2017-05-17T12:57:11Z</time>
      </trkpt>
      <trkpt lat="43.10677" lon="6.30061">
        <ele>6.39</ele>
        <time>2017-05-17T12:57:15Z</time>
      </trkpt>
      <trkpt lat="43.10669" lon="6.30052">
        <ele>5.91</ele>
        <time>2017-05-17T12:57:24Z</time>
      </trkpt>
      <trkpt lat="43.10667" lon="6.3005">
        <ele>5.42</ele>
        <time>2017-05-17T12:57:27Z</time>
      </trkpt>
      <trkpt lat="43.10662" lon="6.30047">
        <ele>4.94</ele>
        <time>2017-05-17T12:57:31Z</time>
      </trkpt>
      <trkpt lat="43.1066" lon="6.30045">
        <ele>5.42</ele>
        <time>2017-05-17T12:57:33Z</time>
      </trkpt>
      <trkpt lat="43.10655" lon="6.30041">
        <ele>5.42</ele>
        <time>2017-05-17T12:57:38Z</time>
      </trkpt>
      <trkpt lat="43.10649" lon="6.30036">
        <ele>4.46</ele>
        <time>2017-05-17T12:57:44Z</time>
      </trkpt>
      <trkpt lat="43.10648" lon="6.30031">
        <ele>5.91</ele>
        <time>2017-05-17T12:57:47Z</time>
      </trkpt>
      <trkpt lat="43.10647" lon="6.30029">
        <ele>5.91</ele>
        <time>2017-05-17T12:57:49Z</time>
      </trkpt>
      <trkpt lat="43.10642" lon="6.30022">
        <ele>5.42</ele>
        <time>2017-05-17T12:57:55Z</time>
      </trkpt>
      <trkpt lat="43.10642" lon="6.30004">
        <ele>4.46</ele>
        <time>2017-05-17T12:58:06Z</time>
      </trkpt>
      <trkpt lat="43.10643" lon="6.3">
        <ele>4.94</ele>
        <time>2017-05-17T12:58:09Z</time>
      </trkpt>
      <trkpt lat="43.10643" lon="6.29996">
        <ele>5.42</ele>
        <time>2017-05-17T12:58:12Z</time>
      </trkpt>
      <trkpt lat="43.10644" lon="6.29992">
        <ele>5.42</ele>
        <time>2017-05-17T12:58:16Z</time>
      </trkpt>
      <trkpt lat="43.10646" lon="6.29978">
        <ele>6.39</ele>
        <time>2017-05-17T12:58:26Z</time>
      </trkpt>
      <trkpt lat="43.10646" lon="6.29978">
        <ele>5.91</ele>
        <time>2017-05-17T12:58:27Z</time>
      </trkpt>
      <trkpt lat="43.10647" lon="6.29973">
        <ele>6.39</ele>
        <time>2017-05-17T12:58:31Z</time>
      </trkpt>
      <trkpt lat="43.10646" lon="6.29967">
        <ele>6.87</ele>
        <time>2017-05-17T12:58:35Z</time>
      </trkpt>
      <trkpt lat="43.10639" lon="6.29948">
        <ele>6.87</ele>
        <time>2017-05-17T12:58:48Z</time>
      </trkpt>
      <trkpt lat="43.10634" lon="6.29938">
        <ele>8.31</ele>
        <time>2017-05-17T12:58:57Z</time>
      </trkpt>
      <trkpt lat="43.10633" lon="6.2993">
        <ele>8.79</ele>
        <time>2017-05-17T12:59:02Z</time>
      </trkpt>
      <trkpt lat="43.10632" lon="6.29926">
        <ele>9.75</ele>
        <time>2017-05-17T12:59:05Z</time>
      </trkpt>
      <trkpt lat="43.10634" lon="6.29922">
        <ele>9.75</ele>
        <time>2017-05-17T12:59:11Z</time>
      </trkpt>
      <trkpt lat="43.10637" lon="6.29915">
        <ele>11.19</ele>
        <time>2017-05-17T12:59:18Z</time>
      </trkpt>
      <trkpt lat="43.10642" lon="6.2991">
        <ele>12.63</ele>
        <time>2017-05-17T12:59:29Z</time>
      </trkpt>
      <trkpt lat="43.10645" lon="6.29908">
        <ele>12.15</ele>
        <time>2017-05-17T12:59:34Z</time>
      </trkpt>
      <trkpt lat="43.10647" lon="6.29907">
        <ele>14.08</ele>
        <time>2017-05-17T12:59:37Z</time>
      </trkpt>
      <trkpt lat="43.1065" lon="6.29902">
        <ele>15.04</ele>
        <time>2017-05-17T12:59:43Z</time>
      </trkpt>
      <trkpt lat="43.10652" lon="6.299">
        <ele>15.52</ele>
        <time>2017-05-17T12:59:46Z</time>
      </trkpt>
      <trkpt lat="43.10656" lon="6.29898">
        <ele>16.48</ele>
        <time>2017-05-17T12:59:50Z</time>
      </trkpt>
      <trkpt lat="43.10659" lon="6.29896">
        <ele>16</ele>
        <time>2017-05-17T12:59:54Z</time>
      </trkpt>
      <trkpt lat="43.10667" lon="6.2989">
        <ele>16.48</ele>
        <time>2017-05-17T13:00:01Z</time>
      </trkpt>
      <trkpt lat="43.1067" lon="6.29884">
        <ele>16.48</ele>
        <time>2017-05-17T13:00:05Z</time>
      </trkpt>
      <trkpt lat="43.10671" lon="6.2988">
        <ele>16.96</ele>
        <time>2017-05-17T13:00:09Z</time>
      </trkpt>
      <trkpt lat="43.10674" lon="6.29874">
        <ele>18.88</ele>
        <time>2017-05-17T13:00:17Z</time>
      </trkpt>
      <trkpt lat="43.10676" lon="6.29869">
        <ele>13.12</ele>
        <time>2017-05-17T13:00:20Z</time>
      </trkpt>
      <trkpt lat="43.10676" lon="6.29869">
        <ele>21.77</ele>
        <time>2017-05-17T13:00:21Z</time>
      </trkpt>
      <trkpt lat="43.10676" lon="6.29868">
        <ele>18.4</ele>
        <time>2017-05-17T13:00:22Z</time>
      </trkpt>
      <trkpt lat="43.10677" lon="6.29864">
        <ele>18.4</ele>
        <time>2017-05-17T13:00:25Z</time>
      </trkpt>
      <trkpt lat="43.10677" lon="6.29852">
        <ele>20.81</ele>
        <time>2017-05-17T13:00:36Z</time>
      </trkpt>
      <trkpt lat="43.10677" lon="6.29852">
        <ele>20.81</ele>
        <time>2017-05-17T13:00:38Z</time>
      </trkpt>
      <trkpt lat="43.10677" lon="6.29849">
        <ele>23.21</ele>
        <time>2017-05-17T13:00:41Z</time>
      </trkpt>
      <trkpt lat="43.10677" lon="6.29847">
        <ele>21.29</ele>
        <time>2017-05-17T13:00:43Z</time>
      </trkpt>
      <trkpt lat="43.10675" lon="6.29838">
        <ele>23.21</ele>
        <time>2017-05-17T13:00:53Z</time>
      </trkpt>
      <trkpt lat="43.10675" lon="6.29834">
        <ele>18.4</ele>
        <time>2017-05-17T13:00:57Z</time>
      </trkpt>
      <trkpt lat="43.10675" lon="6.29833">
        <ele>27.05</ele>
        <time>2017-05-17T13:00:58Z</time>
      </trkpt>
      <trkpt lat="43.10675" lon="6.29833">
        <ele>23.69</ele>
        <time>2017-05-17T13:00:59Z</time>
      </trkpt>
      <trkpt lat="43.10674" lon="6.29826">
        <ele>23.69</ele>
        <time>2017-05-17T13:01:10Z</time>
      </trkpt>
      <trkpt lat="43.10675" lon="6.29824">
        <ele>22.73</ele>
        <time>2017-05-17T13:01:17Z</time>
      </trkpt>
      <trkpt lat="43.10669" lon="6.29819">
        <ele>21.29</ele>
        <time>2017-05-17T13:01:28Z</time>
      </trkpt>
      <trkpt lat="43.10671" lon="6.29812">
        <ele>19.36</ele>
        <time>2017-05-17T13:01:40Z</time>
      </trkpt>
      <trkpt lat="43.10672" lon="6.29812">
        <ele>19.36</ele>
        <time>2017-05-17T13:01:41Z</time>
      </trkpt>
      <trkpt lat="43.10675" lon="6.29811">
        <ele>18.88</ele>
        <time>2017-05-17T13:01:44Z</time>
      </trkpt>
      <trkpt lat="43.10684" lon="6.29818">
        <ele>20.32</ele>
        <time>2017-05-17T13:01:56Z</time>
      </trkpt>
      <trkpt lat="43.1069" lon="6.29816">
        <ele>19.36</ele>
        <time>2017-05-17T13:02:07Z</time>
      </trkpt>
      <trkpt lat="43.10691" lon="6.29811">
        <ele>18.88</ele>
        <time>2017-05-17T13:02:22Z</time>
      </trkpt>
      <trkpt lat="43.10692" lon="6.29811">
        <ele>17.92</ele>
        <time>2017-05-17T13:02:38Z</time>
      </trkpt>
      <trkpt lat="43.10694" lon="6.29811">
        <ele>17.44</ele>
        <time>2017-05-17T13:03:00Z</time>
      </trkpt>
      <trkpt lat="43.10697" lon="6.29803">
        <ele>15.52</ele>
        <time>2017-05-17T13:03:12Z</time>
      </trkpt>
      <trkpt lat="43.107" lon="6.29801">
        <ele>13.6</ele>
        <time>2017-05-17T13:03:20Z</time>
      </trkpt>
      <trkpt lat="43.10702" lon="6.29801">
        <ele>13.6</ele>
        <time>2017-05-17T13:03:23Z</time>
      </trkpt>
      <trkpt lat="43.10705" lon="6.29807">
        <ele>13.12</ele>
        <time>2017-05-17T13:03:28Z</time>
      </trkpt>
      <trkpt lat="43.10705" lon="6.29811">
        <ele>13.6</ele>
        <time>2017-05-17T13:03:31Z</time>
      </trkpt>
      <trkpt lat="43.10702" lon="6.29817">
        <ele>15.04</ele>
        <time>2017-05-17T13:03:38Z</time>
      </trkpt>
      <trkpt lat="43.10702" lon="6.29834">
        <ele>16</ele>
        <time>2017-05-17T13:03:50Z</time>
      </trkpt>
      <trkpt lat="43.10704" lon="6.29843">
        <ele>14.56</ele>
        <time>2017-05-17T13:04:01Z</time>
      </trkpt>
      <trkpt lat="43.10707" lon="6.2985">
        <ele>12.63</ele>
        <time>2017-05-17T13:04:15Z</time>
      </trkpt>
      <trkpt lat="43.1071" lon="6.2986">
        <ele>10.71</ele>
        <time>2017-05-17T13:04:26Z</time>
      </trkpt>
      <trkpt lat="43.1071" lon="6.29872">
        <ele>9.75</ele>
        <time>2017-05-17T13:04:35Z</time>
      </trkpt>
      <trkpt lat="43.10708" lon="6.29882">
        <ele>9.27</ele>
        <time>2017-05-17T13:04:45Z</time>
      </trkpt>
      <trkpt lat="43.10709" lon="6.29885">
        <ele>8.31</ele>
        <time>2017-05-17T13:04:50Z</time>
      </trkpt>
      <trkpt lat="43.10712" lon="6.29898">
        <ele>6.87</ele>
        <time>2017-05-17T13:05:00Z</time>
      </trkpt>
      <trkpt lat="43.10711" lon="6.29901">
        <ele>5.91</ele>
        <time>2017-05-17T13:05:03Z</time>
      </trkpt>
      <trkpt lat="43.10715" lon="6.29908">
        <ele>4.94</ele>
        <time>2017-05-17T13:05:13Z</time>
      </trkpt>
      <trkpt lat="43.10721" lon="6.29913">
        <ele>4.94</ele>
        <time>2017-05-17T13:05:19Z</time>
      </trkpt>
      <trkpt lat="43.10728" lon="6.29918">
        <ele>4.94</ele>
        <time>2017-05-17T13:05:25Z</time>
      </trkpt>
      <trkpt lat="43.1073" lon="6.29925">
        <ele>4.94</ele>
        <time>2017-05-17T13:05:30Z</time>
      </trkpt>
      <trkpt lat="43.1073" lon="6.29928">
        <ele>6.39</ele>
        <time>2017-05-17T13:05:32Z</time>
      </trkpt>
      <trkpt lat="43.10734" lon="6.29932">
        <ele>6.87</ele>
        <time>2017-05-17T13:05:38Z</time>
      </trkpt>
      <trkpt lat="43.10738" lon="6.29938">
        <ele>7.83</ele>
        <time>2017-05-17T13:05:50Z</time>
      </trkpt>
      <trkpt lat="43.10744" lon="6.2994">
        <ele>8.31</ele>
        <time>2017-05-17T13:06:03Z</time>
      </trkpt>
      <trkpt lat="43.10751" lon="6.29942">
        <ele>7.83</ele>
        <time>2017-05-17T13:06:09Z</time>
      </trkpt>
      <trkpt lat="43.10763" lon="6.29945">
        <ele>8.31</ele>
        <time>2017-05-17T13:06:21Z</time>
      </trkpt>
      <trkpt lat="43.10768" lon="6.29946">
        <ele>8.31</ele>
        <time>2017-05-17T13:06:25Z</time>
      </trkpt>
      <trkpt lat="43.10772" lon="6.29946">
        <ele>9.27</ele>
        <time>2017-05-17T13:06:29Z</time>
      </trkpt>
      <trkpt lat="43.10781" lon="6.29948">
        <ele>9.75</ele>
        <time>2017-05-17T13:06:38Z</time>
      </trkpt>
      <trkpt lat="43.10792" lon="6.2995">
        <ele>10.23</ele>
        <time>2017-05-17T13:06:48Z</time>
      </trkpt>
      <trkpt lat="43.10798" lon="6.29951">
        <ele>10.23</ele>
        <time>2017-05-17T13:06:53Z</time>
      </trkpt>
      <trkpt lat="43.10811" lon="6.29953">
        <ele>9.27</ele>
        <time>2017-05-17T13:07:05Z</time>
      </trkpt>
      <trkpt lat="43.1082" lon="6.29947">
        <ele>7.83</ele>
        <time>2017-05-17T13:07:17Z</time>
      </trkpt>
      <trkpt lat="43.10823" lon="6.29947">
        <ele>7.35</ele>
        <time>2017-05-17T13:07:37Z</time>
      </trkpt>
      <trkpt lat="43.10825" lon="6.29949">
        <ele>7.83</ele>
        <time>2017-05-17T13:07:49Z</time>
      </trkpt>
      <trkpt lat="43.1083" lon="6.29956">
        <ele>8.79</ele>
        <time>2017-05-17T13:07:59Z</time>
      </trkpt>
      <trkpt lat="43.10834" lon="6.29962">
        <ele>9.27</ele>
        <time>2017-05-17T13:08:12Z</time>
      </trkpt>
      <trkpt lat="43.10841" lon="6.29965">
        <ele>8.79</ele>
        <time>2017-05-17T13:08:31Z</time>
      </trkpt>
      <trkpt lat="43.10843" lon="6.29964">
        <ele>8.31</ele>
        <time>2017-05-17T13:08:51Z</time>
      </trkpt>
      <trkpt lat="43.10844" lon="6.29966">
        <ele>7.83</ele>
        <time>2017-05-17T13:09:28Z</time>
      </trkpt>
      <trkpt lat="43.10844" lon="6.29964">
        <ele>7.83</ele>
        <time>2017-05-17T13:10:05Z</time>
      </trkpt>
      <trkpt lat="43.10844" lon="6.29963">
        <ele>7.83</ele>
        <time>2017-05-17T13:10:33Z</time>
      </trkpt>
      <trkpt lat="43.10844" lon="6.29965">
        <ele>7.83</ele>
        <time>2017-05-17T13:11:18Z</time>
      </trkpt>
      <trkpt lat="43.10846" lon="6.29965">
        <ele>7.83</ele>
        <time>2017-05-17T13:11:34Z</time>
      </trkpt>
      <trkpt lat="43.10851" lon="6.29966">
        <ele>7.35</ele>
        <time>2017-05-17T13:11:40Z</time>
      </trkpt>
      <trkpt lat="43.10855" lon="6.29956">
        <ele>5.91</ele>
        <time>2017-05-17T13:11:50Z</time>
      </trkpt>
      <trkpt lat="43.10862" lon="6.29957">
        <ele>5.42</ele>
        <time>2017-05-17T13:11:59Z</time>
      </trkpt>
      <trkpt lat="43.10868" lon="6.29956">
        <ele>4.94</ele>
        <time>2017-05-17T13:12:08Z</time>
      </trkpt>
      <trkpt lat="43.10874" lon="6.29954">
        <ele>5.42</ele>
        <time>2017-05-17T13:12:13Z</time>
      </trkpt>
      <trkpt lat="43.10879" lon="6.29951">
        <ele>5.42</ele>
        <time>2017-05-17T13:12:18Z</time>
      </trkpt>
      <trkpt lat="43.10883" lon="6.29948">
        <ele>5.42</ele>
        <time>2017-05-17T13:12:22Z</time>
      </trkpt>
      <trkpt lat="43.10893" lon="6.29942">
        <ele>4.46</ele>
        <time>2017-05-17T13:12:33Z</time>
      </trkpt>
      <trkpt lat="43.109" lon="6.29937">
        <ele>4.94</ele>
        <time>2017-05-17T13:12:39Z</time>
      </trkpt>
      <trkpt lat="43.10902" lon="6.29934">
        <ele>4.94</ele>
        <time>2017-05-17T13:12:42Z</time>
      </trkpt>
      <trkpt lat="43.10909" lon="6.2993">
        <ele>4.94</ele>
        <time>2017-05-17T13:12:48Z</time>
      </trkpt>
      <trkpt lat="43.10912" lon="6.2993">
        <ele>5.42</ele>
        <time>2017-05-17T13:12:53Z</time>
      </trkpt>
      <trkpt lat="43.1092" lon="6.2994">
        <ele>5.91</ele>
        <time>2017-05-17T13:13:05Z</time>
      </trkpt>
      <trkpt lat="43.10926" lon="6.29943">
        <ele>5.42</ele>
        <time>2017-05-17T13:13:10Z</time>
      </trkpt>
      <trkpt lat="43.10933" lon="6.29942">
        <ele>4.94</ele>
        <time>2017-05-17T13:13:14Z</time>
      </trkpt>
      <trkpt lat="43.10945" lon="6.29936">
        <ele>5.42</ele>
        <time>2017-05-17T13:13:25Z</time>
      </trkpt>
      <trkpt lat="43.10955" lon="6.29927">
        <ele>5.42</ele>
        <time>2017-05-17T13:13:38Z</time>
      </trkpt>
      <trkpt lat="43.10959" lon="6.29925">
        <ele>5.91</ele>
        <time>2017-05-17T13:13:42Z</time>
      </trkpt>
      <trkpt lat="43.10969" lon="6.29913">
        <ele>4.94</ele>
        <time>2017-05-17T13:13:53Z</time>
      </trkpt>
      <trkpt lat="43.10977" lon="6.29904">
        <ele>4.94</ele>
        <time>2017-05-17T13:14:03Z</time>
      </trkpt>
      <trkpt lat="43.10979" lon="6.299">
        <ele>5.42</ele>
        <time>2017-05-17T13:14:07Z</time>
      </trkpt>
      <trkpt lat="43.10987" lon="6.29887">
        <ele>6.39</ele>
        <time>2017-05-17T13:14:18Z</time>
      </trkpt>
      <trkpt lat="43.10995" lon="6.29879">
        <ele>6.39</ele>
        <time>2017-05-17T13:14:29Z</time>
      </trkpt>
      <trkpt lat="43.10997" lon="6.29873">
        <ele>6.39</ele>
        <time>2017-05-17T13:14:41Z</time>
      </trkpt>
      <trkpt lat="43.10997" lon="6.29872">
        <ele>6.39</ele>
        <time>2017-05-17T13:14:42Z</time>
      </trkpt>
      <trkpt lat="43.11001" lon="6.29866">
        <ele>6.87</ele>
        <time>2017-05-17T13:14:51Z</time>
      </trkpt>
      <trkpt lat="43.11011" lon="6.29855">
        <ele>5.91</ele>
        <time>2017-05-17T13:15:03Z</time>
      </trkpt>
      <trkpt lat="43.11019" lon="6.29841">
        <ele>5.91</ele>
        <time>2017-05-17T13:15:15Z</time>
      </trkpt>
      <trkpt lat="43.1102" lon="6.29838">
        <ele>6.87</ele>
        <time>2017-05-17T13:15:17Z</time>
      </trkpt>
      <trkpt lat="43.11027" lon="6.2983">
        <ele>6.39</ele>
        <time>2017-05-17T13:15:30Z</time>
      </trkpt>
      <trkpt lat="43.11027" lon="6.29826">
        <ele>6.39</ele>
        <time>2017-05-17T13:15:48Z</time>
      </trkpt>
      <trkpt lat="43.11029" lon="6.29824">
        <ele>5.91</ele>
        <time>2017-05-17T13:16:08Z</time>
      </trkpt>
      <trkpt lat="43.11028" lon="6.29822">
        <ele>2.54</ele>
        <time>2017-05-17T13:16:20Z</time>
      </trkpt>
      <trkpt lat="43.11028" lon="6.29822">
        <ele>7.35</ele>
        <time>2017-05-17T13:16:22Z</time>
      </trkpt>
      <trkpt lat="43.11028" lon="6.29822">
        <ele>3.5</ele>
        <time>2017-05-17T13:16:30Z</time>
      </trkpt>
      <trkpt lat="43.11033" lon="6.29814">
        <ele>5.42</ele>
        <time>2017-05-17T13:17:09Z</time>
      </trkpt>
      <trkpt lat="43.11029" lon="6.29818">
        <ele>5.42</ele>
        <time>2017-05-17T13:17:47Z</time>
      </trkpt>
      <trkpt lat="43.1103" lon="6.29821">
        <ele>6.39</ele>
        <time>2017-05-17T13:18:01Z</time>
      </trkpt>
      <trkpt lat="43.11031" lon="6.29814">
        <ele>5.42</ele>
        <time>2017-05-17T13:18:38Z</time>
      </trkpt>
      <trkpt lat="43.11027" lon="6.29819">
        <ele>5.42</ele>
        <time>2017-05-17T13:19:13Z</time>
      </trkpt>
      <trkpt lat="43.11028" lon="6.29825">
        <ele>5.91</ele>
        <time>2017-05-17T13:19:35Z</time>
      </trkpt>
      <trkpt lat="43.11029" lon="6.29827">
        <ele>5.42</ele>
        <time>2017-05-17T13:20:08Z</time>
      </trkpt>
      <trkpt lat="43.11028" lon="6.29822">
        <ele>5.42</ele>
        <time>2017-05-17T13:20:37Z</time>
      </trkpt>
      <trkpt lat="43.11027" lon="6.29824">
        <ele>4.94</ele>
        <time>2017-05-17T13:21:06Z</time>
      </trkpt>
      <trkpt lat="43.11028" lon="6.29824">
        <ele>4.94</ele>
        <time>2017-05-17T13:21:36Z</time>
      </trkpt>
      <trkpt lat="43.11028" lon="6.29825">
        <ele>4.94</ele>
        <time>2017-05-17T13:22:08Z</time>
      </trkpt>
      <trkpt lat="43.11028" lon="6.29824">
        <ele>4.94</ele>
        <time>2017-05-17T13:22:32Z</time>
      </trkpt>
      <trkpt lat="43.11029" lon="6.29824">
        <ele>4.46</ele>
        <time>2017-05-17T13:22:45Z</time>
      </trkpt>
      <trkpt lat="43.11027" lon="6.29827">
        <ele>4.46</ele>
        <time>2017-05-17T13:23:20Z</time>
      </trkpt>
      <trkpt lat="43.11027" lon="6.29826">
        <ele>4.46</ele>
        <time>2017-05-17T13:23:48Z</time>
      </trkpt>
      <trkpt lat="43.11029" lon="6.29819">
        <ele>4.46</ele>
        <time>2017-05-17T13:24:20Z</time>
      </trkpt>
      <trkpt lat="43.11024" lon="6.29814">
        <ele>4.46</ele>
        <time>2017-05-17T13:24:53Z</time>
      </trkpt>
      <trkpt lat="43.11027" lon="6.29815">
        <ele>4.46</ele>
        <time>2017-05-17T13:25:33Z</time>
      </trkpt>
      <trkpt lat="43.11026" lon="6.29815">
        <ele>4.46</ele>
        <time>2017-05-17T13:26:13Z</time>
      </trkpt>
      <trkpt lat="43.11024" lon="6.29817">
        <ele>4.46</ele>
        <time>2017-05-17T13:26:50Z</time>
      </trkpt>
      <trkpt lat="43.11027" lon="6.29818">
        <ele>4.94</ele>
        <time>2017-05-17T13:27:22Z</time>
      </trkpt>
      <trkpt lat="43.11027" lon="6.29819">
        <ele>4.46</ele>
        <time>2017-05-17T13:28:06Z</time>
      </trkpt>
      <trkpt lat="43.11026" lon="6.29817">
        <ele>4.94</ele>
        <time>2017-05-17T13:28:39Z</time>
      </trkpt>
      <trkpt lat="43.11029" lon="6.29815">
        <ele>4.94</ele>
        <time>2017-05-17T13:29:12Z</time>
      </trkpt>
      <trkpt lat="43.11024" lon="6.2982">
        <ele>4.94</ele>
        <time>2017-05-17T13:29:47Z</time>
      </trkpt>
      <trkpt lat="43.11027" lon="6.29817">
        <ele>4.94</ele>
        <time>2017-05-17T13:30:21Z</time>
      </trkpt>
      <trkpt lat="43.11029" lon="6.29818">
        <ele>4.94</ele>
        <time>2017-05-17T13:30:51Z</time>
      </trkpt>
      <trkpt lat="43.11028" lon="6.29816">
        <ele>5.42</ele>
        <time>2017-05-17T13:31:31Z</time>
      </trkpt>
      <trkpt lat="43.11027" lon="6.29815">
        <ele>4.94</ele>
        <time>2017-05-17T13:32:09Z</time>
      </trkpt>
      <trkpt lat="43.1103" lon="6.29815">
        <ele>4.94</ele>
        <time>2017-05-17T13:32:44Z</time>
      </trkpt>
      <trkpt lat="43.11027" lon="6.29815">
        <ele>5.42</ele>
        <time>2017-05-17T13:33:25Z</time>
      </trkpt>
      <trkpt lat="43.11029" lon="6.29814">
        <ele>4.94</ele>
        <time>2017-05-17T13:34:10Z</time>
      </trkpt>
      <trkpt lat="43.11032" lon="6.2982">
        <ele>5.42</ele>
        <time>2017-05-17T13:34:46Z</time>
      </trkpt>
      <trkpt lat="43.11029" lon="6.29815">
        <ele>4.94</ele>
        <time>2017-05-17T13:35:18Z</time>
      </trkpt>
      <trkpt lat="43.11029" lon="6.29818">
        <ele>4.94</ele>
        <time>2017-05-17T13:35:45Z</time>
      </trkpt>
      <trkpt lat="43.11029" lon="6.29817">
        <ele>4.94</ele>
        <time>2017-05-17T13:36:15Z</time>
      </trkpt>
      <trkpt lat="43.11029" lon="6.29813">
        <ele>4.46</ele>
        <time>2017-05-17T13:36:40Z</time>
      </trkpt>
      <trkpt lat="43.11029" lon="6.29814">
        <ele>4.94</ele>
        <time>2017-05-17T13:37:14Z</time>
      </trkpt>
      <trkpt lat="43.11029" lon="6.29818">
        <ele>4.46</ele>
        <time>2017-05-17T13:37:45Z</time>
      </trkpt>
      <trkpt lat="43.11028" lon="6.29817">
        <ele>4.94</ele>
        <time>2017-05-17T13:38:20Z</time>
      </trkpt>
      <trkpt lat="43.11029" lon="6.29814">
        <ele>4.46</ele>
        <time>2017-05-17T13:38:54Z</time>
      </trkpt>
      <trkpt lat="43.11031" lon="6.29819">
        <ele>4.46</ele>
        <time>2017-05-17T13:39:26Z</time>
      </trkpt>
      <trkpt lat="43.1103" lon="6.29819">
        <ele>4.46</ele>
        <time>2017-05-17T13:39:57Z</time>
      </trkpt>
      <trkpt lat="43.11026" lon="6.29822">
        <ele>4.46</ele>
        <time>2017-05-17T13:40:26Z</time>
      </trkpt>
      <trkpt lat="43.11024" lon="6.29819">
        <ele>4.46</ele>
        <time>2017-05-17T13:41:04Z</time>
      </trkpt>
      <trkpt lat="43.11031" lon="6.29824">
        <ele>4.46</ele>
        <time>2017-05-17T13:41:43Z</time>
      </trkpt>
      <trkpt lat="43.11028" lon="6.29818">
        <ele>3.98</ele>
        <time>2017-05-17T13:42:16Z</time>
      </trkpt>
      <trkpt lat="43.11027" lon="6.29818">
        <ele>4.46</ele>
        <time>2017-05-17T13:42:46Z</time>
      </trkpt>
      <trkpt lat="43.1103" lon="6.29819">
        <ele>4.46</ele>
        <time>2017-05-17T13:43:02Z</time>
      </trkpt>
      <trkpt lat="43.11026" lon="6.29817">
        <ele>4.94</ele>
        <time>2017-05-17T13:43:19Z</time>
      </trkpt>
      <trkpt lat="43.11023" lon="6.29817">
        <ele>4.46</ele>
        <time>2017-05-17T13:43:35Z</time>
      </trkpt>
      <trkpt lat="43.11024" lon="6.29813">
        <ele>4.94</ele>
        <time>2017-05-17T13:43:53Z</time>
      </trkpt>
      <trkpt lat="43.11024" lon="6.29812">
        <ele>4.94</ele>
        <time>2017-05-17T13:43:55Z</time>
      </trkpt>
      <trkpt lat="43.11023" lon="6.29807">
        <ele>5.91</ele>
        <time>2017-05-17T13:44:00Z</time>
      </trkpt>
      <trkpt lat="43.11027" lon="6.29792">
        <ele>5.42</ele>
        <time>2017-05-17T13:44:12Z</time>
      </trkpt>
      <trkpt lat="43.11033" lon="6.2978">
        <ele>5.91</ele>
        <time>2017-05-17T13:44:24Z</time>
      </trkpt>
      <trkpt lat="43.11037" lon="6.29771">
        <ele>5.42</ele>
        <time>2017-05-17T13:44:34Z</time>
      </trkpt>
      <trkpt lat="43.11042" lon="6.29769">
        <ele>-4.19</ele>
        <time>2017-05-17T13:44:49Z</time>
      </trkpt>
      <trkpt lat="43.11042" lon="6.29769">
        <ele>2.06</ele>
        <time>2017-05-17T13:44:50Z</time>
      </trkpt>
      <trkpt lat="43.11043" lon="6.29769">
        <ele>4.94</ele>
        <time>2017-05-17T13:44:52Z</time>
      </trkpt>
      <trkpt lat="43.11042" lon="6.2977">
        <ele>17.44</ele>
        <time>2017-05-17T13:44:54Z</time>
      </trkpt>
      <trkpt lat="43.11043" lon="6.29769">
        <ele>6.39</ele>
        <time>2017-05-17T13:44:55Z</time>
      </trkpt>
      <trkpt lat="43.11045" lon="6.29767">
        <ele>4.46</ele>
        <time>2017-05-17T13:44:57Z</time>
      </trkpt>
      <trkpt lat="43.11051" lon="6.29743">
        <ele>4.94</ele>
        <time>2017-05-17T13:45:11Z</time>
      </trkpt>
      <trkpt lat="43.11059" lon="6.29717">
        <ele>4.94</ele>
        <time>2017-05-17T13:45:25Z</time>
      </trkpt>
      <trkpt lat="43.11066" lon="6.29698">
        <ele>5.91</ele>
        <time>2017-05-17T13:45:38Z</time>
      </trkpt>
      <trkpt lat="43.1107" lon="6.29686">
        <ele>6.87</ele>
        <time>2017-05-17T13:45:51Z</time>
      </trkpt>
      <trkpt lat="43.11071" lon="6.29684">
        <ele>7.35</ele>
        <time>2017-05-17T13:45:55Z</time>
      </trkpt>
      <trkpt lat="43.11077" lon="6.29675">
        <ele>7.35</ele>
        <time>2017-05-17T13:46:09Z</time>
      </trkpt>
      <trkpt lat="43.11077" lon="6.29674">
        <ele>7.83</ele>
        <time>2017-05-17T13:46:10Z</time>
      </trkpt>
      <trkpt lat="43.11079" lon="6.29655">
        <ele>8.79</ele>
        <time>2017-05-17T13:46:23Z</time>
      </trkpt>
      <trkpt lat="43.11078" lon="6.29652">
        <ele>8.79</ele>
        <time>2017-05-17T13:46:25Z</time>
      </trkpt>
      <trkpt lat="43.11074" lon="6.29645">
        <ele>9.27</ele>
        <time>2017-05-17T13:46:31Z</time>
      </trkpt>
      <trkpt lat="43.1107" lon="6.29632">
        <ele>8.31</ele>
        <time>2017-05-17T13:46:43Z</time>
      </trkpt>
      <trkpt lat="43.1107" lon="6.29628">
        <ele>8.31</ele>
        <time>2017-05-17T13:46:46Z</time>
      </trkpt>
      <trkpt lat="43.11069" lon="6.29625">
        <ele>7.83</ele>
        <time>2017-05-17T13:46:48Z</time>
      </trkpt>
      <trkpt lat="43.11065" lon="6.29617">
        <ele>7.83</ele>
        <time>2017-05-17T13:46:54Z</time>
      </trkpt>
      <trkpt lat="43.11063" lon="6.29609">
        <ele>7.83</ele>
        <time>2017-05-17T13:46:59Z</time>
      </trkpt>
      <trkpt lat="43.11058" lon="6.29602">
        <ele>7.83</ele>
        <time>2017-05-17T13:47:05Z</time>
      </trkpt>
      <trkpt lat="43.11053" lon="6.29579">
        <ele>7.83</ele>
        <time>2017-05-17T13:47:18Z</time>
      </trkpt>
      <trkpt lat="43.11053" lon="6.29571">
        <ele>6.87</ele>
        <time>2017-05-17T13:47:25Z</time>
      </trkpt>
      <trkpt lat="43.11051" lon="6.29565">
        <ele>6.87</ele>
        <time>2017-05-17T13:47:29Z</time>
      </trkpt>
      <trkpt lat="43.11043" lon="6.29556">
        <ele>7.83</ele>
        <time>2017-05-17T13:47:44Z</time>
      </trkpt>
      <trkpt lat="43.11039" lon="6.2955">
        <ele>8.31</ele>
        <time>2017-05-17T13:47:57Z</time>
      </trkpt>
      <trkpt lat="43.11035" lon="6.29539">
        <ele>11.19</ele>
        <time>2017-05-17T13:48:10Z</time>
      </trkpt>
      <trkpt lat="43.11029" lon="6.29528">
        <ele>12.63</ele>
        <time>2017-05-17T13:48:21Z</time>
      </trkpt>
      <trkpt lat="43.11023" lon="6.29521">
        <ele>13.6</ele>
        <time>2017-05-17T13:48:32Z</time>
      </trkpt>
      <trkpt lat="43.1102" lon="6.29518">
        <ele>13.12</ele>
        <time>2017-05-17T13:48:35Z</time>
      </trkpt>
      <trkpt lat="43.11012" lon="6.2951">
        <ele>12.15</ele>
        <time>2017-05-17T13:48:44Z</time>
      </trkpt>
      <trkpt lat="43.11006" lon="6.29506">
        <ele>11.67</ele>
        <time>2017-05-17T13:48:52Z</time>
      </trkpt>
      <trkpt lat="43.10996" lon="6.295">
        <ele>13.12</ele>
        <time>2017-05-17T13:49:05Z</time>
      </trkpt>
      <trkpt lat="43.10988" lon="6.29497">
        <ele>13.6</ele>
        <time>2017-05-17T13:49:20Z</time>
      </trkpt>
      <trkpt lat="43.10984" lon="6.29495">
        <ele>15.04</ele>
        <time>2017-05-17T13:49:24Z</time>
      </trkpt>
      <trkpt lat="43.10971" lon="6.29492">
        <ele>16</ele>
        <time>2017-05-17T13:49:38Z</time>
      </trkpt>
      <trkpt lat="43.10967" lon="6.29492">
        <ele>16</ele>
        <time>2017-05-17T13:49:43Z</time>
      </trkpt>
      <trkpt lat="43.10962" lon="6.2949">
        <ele>16</ele>
        <time>2017-05-17T13:49:47Z</time>
      </trkpt>
      <trkpt lat="43.10958" lon="6.29487">
        <ele>17.92</ele>
        <time>2017-05-17T13:49:54Z</time>
      </trkpt>
      <trkpt lat="43.10949" lon="6.29485">
        <ele>13.6</ele>
        <time>2017-05-17T13:50:04Z</time>
      </trkpt>
      <trkpt lat="43.10949" lon="6.29484">
        <ele>21.29</ele>
        <time>2017-05-17T13:50:05Z</time>
      </trkpt>
      <trkpt lat="43.10948" lon="6.29484">
        <ele>18.4</ele>
        <time>2017-05-17T13:50:06Z</time>
      </trkpt>
      <trkpt lat="43.10942" lon="6.2948">
        <ele>16.48</ele>
        <time>2017-05-17T13:50:16Z</time>
      </trkpt>
      <trkpt lat="43.10941" lon="6.29478">
        <ele>20.81</ele>
        <time>2017-05-17T13:50:18Z</time>
      </trkpt>
      <trkpt lat="43.10939" lon="6.29475">
        <ele>21.77</ele>
        <time>2017-05-17T13:50:22Z</time>
      </trkpt>
      <trkpt lat="43.10936" lon="6.29472">
        <ele>22.73</ele>
        <time>2017-05-17T13:50:25Z</time>
      </trkpt>
      <trkpt lat="43.10934" lon="6.29472">
        <ele>22.73</ele>
        <time>2017-05-17T13:50:27Z</time>
      </trkpt>
      <trkpt lat="43.10927" lon="6.29469">
        <ele>23.21</ele>
        <time>2017-05-17T13:50:35Z</time>
      </trkpt>
      <trkpt lat="43.10915" lon="6.29465">
        <ele>23.69</ele>
        <time>2017-05-17T13:50:47Z</time>
      </trkpt>
      <trkpt lat="43.10912" lon="6.29463">
        <ele>24.17</ele>
        <time>2017-05-17T13:50:51Z</time>
      </trkpt>
      <trkpt lat="43.10901" lon="6.29464">
        <ele>24.17</ele>
        <time>2017-05-17T13:51:01Z</time>
      </trkpt>
      <trkpt lat="43.10893" lon="6.29459">
        <ele>23.69</ele>
        <time>2017-05-17T13:51:13Z</time>
      </trkpt>
      <trkpt lat="43.10886" lon="6.29455">
        <ele>20.81</ele>
        <time>2017-05-17T13:51:27Z</time>
      </trkpt>
      <trkpt lat="43.10887" lon="6.29451">
        <ele>20.81</ele>
        <time>2017-05-17T13:51:31Z</time>
      </trkpt>
      <trkpt lat="43.10883" lon="6.29442">
        <ele>18.88</ele>
        <time>2017-05-17T13:51:45Z</time>
      </trkpt>
      <trkpt lat="43.10883" lon="6.29441">
        <ele>19.36</ele>
        <time>2017-05-17T13:51:46Z</time>
      </trkpt>
      <trkpt lat="43.10876" lon="6.29434">
        <ele>17.44</ele>
        <time>2017-05-17T13:51:57Z</time>
      </trkpt>
      <trkpt lat="43.10874" lon="6.2943">
        <ele>16.96</ele>
        <time>2017-05-17T13:52:02Z</time>
      </trkpt>
      <trkpt lat="43.10872" lon="6.29426">
        <ele>16</ele>
        <time>2017-05-17T13:52:07Z</time>
      </trkpt>
      <trkpt lat="43.10871" lon="6.29422">
        <ele>15.04</ele>
        <time>2017-05-17T13:52:12Z</time>
      </trkpt>
      <trkpt lat="43.10868" lon="6.29416">
        <ele>13.6</ele>
        <time>2017-05-17T13:52:20Z</time>
      </trkpt>
      <trkpt lat="43.1086" lon="6.29407">
        <ele>12.15</ele>
        <time>2017-05-17T13:52:32Z</time>
      </trkpt>
      <trkpt lat="43.10855" lon="6.29406">
        <ele>11.19</ele>
        <time>2017-05-17T13:52:45Z</time>
      </trkpt>
      <trkpt lat="43.10852" lon="6.29403">
        <ele>10.23</ele>
        <time>2017-05-17T13:52:58Z</time>
      </trkpt>
      <trkpt lat="43.10852" lon="6.29405">
        <ele>10.71</ele>
        <time>2017-05-17T13:53:15Z</time>
      </trkpt>
      <trkpt lat="43.10851" lon="6.29402">
        <ele>11.19</ele>
        <time>2017-05-17T13:53:33Z</time>
      </trkpt>
      <trkpt lat="43.10851" lon="6.29387">
        <ele>9.75</ele>
        <time>2017-05-17T13:53:44Z</time>
      </trkpt>
      <trkpt lat="43.10857" lon="6.29381">
        <ele>9.75</ele>
        <time>2017-05-17T13:53:54Z</time>
      </trkpt>
      <trkpt lat="43.1087" lon="6.29366">
        <ele>11.19</ele>
        <time>2017-05-17T13:54:10Z</time>
      </trkpt>
      <trkpt lat="43.10872" lon="6.29364">
        <ele>10.71</ele>
        <time>2017-05-17T13:54:11Z</time>
      </trkpt>
      <trkpt lat="43.10875" lon="6.29361">
        <ele>9.75</ele>
        <time>2017-05-17T13:54:13Z</time>
      </trkpt>
      <trkpt lat="43.10894" lon="6.29343">
        <ele>9.75</ele>
        <time>2017-05-17T13:54:30Z</time>
      </trkpt>
      <trkpt lat="43.109" lon="6.2934">
        <ele>9.75</ele>
        <time>2017-05-17T13:54:35Z</time>
      </trkpt>
      <trkpt lat="43.10924" lon="6.29335">
        <ele>10.23</ele>
        <time>2017-05-17T13:54:56Z</time>
      </trkpt>
      <trkpt lat="43.10933" lon="6.29332">
        <ele>9.27</ele>
        <time>2017-05-17T13:55:04Z</time>
      </trkpt>
      <trkpt lat="43.10939" lon="6.29326">
        <ele>9.27</ele>
        <time>2017-05-17T13:55:14Z</time>
      </trkpt>
      <trkpt lat="43.10942" lon="6.29303">
        <ele>8.79</ele>
        <time>2017-05-17T13:55:29Z</time>
      </trkpt>
      <trkpt lat="43.10944" lon="6.29294">
        <ele>8.79</ele>
        <time>2017-05-17T13:55:35Z</time>
      </trkpt>
      <trkpt lat="43.10942" lon="6.29268">
        <ele>8.31</ele>
        <time>2017-05-17T13:55:51Z</time>
      </trkpt>
      <trkpt lat="43.10944" lon="6.29255">
        <ele>7.83</ele>
        <time>2017-05-17T13:55:58Z</time>
      </trkpt>
      <trkpt lat="43.10943" lon="6.29246">
        <ele>7.83</ele>
        <time>2017-05-17T13:56:04Z</time>
      </trkpt>
      <trkpt lat="43.10942" lon="6.29235">
        <ele>7.83</ele>
        <time>2017-05-17T13:56:11Z</time>
      </trkpt>
      <trkpt lat="43.10938" lon="6.29228">
        <ele>7.83</ele>
        <time>2017-05-17T13:56:16Z</time>
      </trkpt>
      <trkpt lat="43.10936" lon="6.29221">
        <ele>7.83</ele>
        <time>2017-05-17T13:56:21Z</time>
      </trkpt>
      <trkpt lat="43.10933" lon="6.29206">
        <ele>7.35</ele>
        <time>2017-05-17T13:56:31Z</time>
      </trkpt>
      <trkpt lat="43.10934" lon="6.29204">
        <ele>6.87</ele>
        <time>2017-05-17T13:56:33Z</time>
      </trkpt>
      <trkpt lat="43.10945" lon="6.29194">
        <ele>5.91</ele>
        <time>2017-05-17T13:56:45Z</time>
      </trkpt>
      <trkpt lat="43.1095" lon="6.2918">
        <ele>5.91</ele>
        <time>2017-05-17T13:56:54Z</time>
      </trkpt>
      <trkpt lat="43.10947" lon="6.29175">
        <ele>6.39</ele>
        <time>2017-05-17T13:56:58Z</time>
      </trkpt>
      <trkpt lat="43.1094" lon="6.29174">
        <ele>5.91</ele>
        <time>2017-05-17T13:57:05Z</time>
      </trkpt>
      <trkpt lat="43.10936" lon="6.29167">
        <ele>4.94</ele>
        <time>2017-05-17T13:57:14Z</time>
      </trkpt>
      <trkpt lat="43.10933" lon="6.29148">
        <ele>3.98</ele>
        <time>2017-05-17T13:57:25Z</time>
      </trkpt>
      <trkpt lat="43.10931" lon="6.29135">
        <ele>3.5</ele>
        <time>2017-05-17T13:57:36Z</time>
      </trkpt>
      <trkpt lat="43.1093" lon="6.29134">
        <ele>3.02</ele>
        <time>2017-05-17T13:57:38Z</time>
      </trkpt>
      <trkpt lat="43.10929" lon="6.2913">
        <ele>2.54</ele>
        <time>2017-05-17T13:57:41Z</time>
      </trkpt>
      <trkpt lat="43.10934" lon="6.29118">
        <ele>5.42</ele>
        <time>2017-05-17T13:57:53Z</time>
      </trkpt>
      <trkpt lat="43.10935" lon="6.29117">
        <ele>4.46</ele>
        <time>2017-05-17T13:57:54Z</time>
      </trkpt>
      <trkpt lat="43.10936" lon="6.29115">
        <ele>4.46</ele>
        <time>2017-05-17T13:57:56Z</time>
      </trkpt>
      <trkpt lat="43.10937" lon="6.29108">
        <ele>5.42</ele>
        <time>2017-05-17T13:58:07Z</time>
      </trkpt>
      <trkpt lat="43.10937" lon="6.29106">
        <ele>5.91</ele>
        <time>2017-05-17T13:58:09Z</time>
      </trkpt>
      <trkpt lat="43.10937" lon="6.29099">
        <ele>5.42</ele>
        <time>2017-05-17T13:58:16Z</time>
      </trkpt>
      <trkpt lat="43.1093" lon="6.2909">
        <ele>8.79</ele>
        <time>2017-05-17T13:58:33Z</time>
      </trkpt>
      <trkpt lat="43.10927" lon="6.29087">
        <ele>9.75</ele>
        <time>2017-05-17T13:58:39Z</time>
      </trkpt>
      <trkpt lat="43.10925" lon="6.29084">
        <ele>9.75</ele>
        <time>2017-05-17T13:58:43Z</time>
      </trkpt>
      <trkpt lat="43.10921" lon="6.29077">
        <ele>10.71</ele>
        <time>2017-05-17T13:58:55Z</time>
      </trkpt>
      <trkpt lat="43.10921" lon="6.29072">
        <ele>6.39</ele>
        <time>2017-05-17T13:59:01Z</time>
      </trkpt>
      <trkpt lat="43.1092" lon="6.29072">
        <ele>16</ele>
        <time>2017-05-17T13:59:02Z</time>
      </trkpt>
      <trkpt lat="43.1092" lon="6.29071">
        <ele>11.19</ele>
        <time>2017-05-17T13:59:03Z</time>
      </trkpt>
      <trkpt lat="43.10913" lon="6.29065">
        <ele>14.08</ele>
        <time>2017-05-17T13:59:15Z</time>
      </trkpt>
      <trkpt lat="43.10906" lon="6.29056">
        <ele>16</ele>
        <time>2017-05-17T13:59:29Z</time>
      </trkpt>
      <trkpt lat="43.10903" lon="6.29051">
        <ele>16.96</ele>
        <time>2017-05-17T13:59:42Z</time>
      </trkpt>
      <trkpt lat="43.10899" lon="6.29043">
        <ele>17.44</ele>
        <time>2017-05-17T13:59:53Z</time>
      </trkpt>
      <trkpt lat="43.10895" lon="6.2904">
        <ele>17.92</ele>
        <time>2017-05-17T14:00:07Z</time>
      </trkpt>
      <trkpt lat="43.10894" lon="6.29034">
        <ele>20.81</ele>
        <time>2017-05-17T14:00:21Z</time>
      </trkpt>
      <trkpt lat="43.10894" lon="6.29034">
        <ele>15.52</ele>
        <time>2017-05-17T14:00:22Z</time>
      </trkpt>
      <trkpt lat="43.10894" lon="6.29034">
        <ele>23.69</ele>
        <time>2017-05-17T14:00:23Z</time>
      </trkpt>
      <trkpt lat="43.10894" lon="6.29034">
        <ele>23.69</ele>
        <time>2017-05-17T14:00:24Z</time>
      </trkpt>
      <trkpt lat="43.10894" lon="6.29034">
        <ele>19.84</ele>
        <time>2017-05-17T14:00:25Z</time>
      </trkpt>
      <trkpt lat="43.10892" lon="6.29032">
        <ele>23.21</ele>
        <time>2017-05-17T14:00:29Z</time>
      </trkpt>
      <trkpt lat="43.10892" lon="6.29027">
        <ele>23.21</ele>
        <time>2017-05-17T14:00:37Z</time>
      </trkpt>
      <trkpt lat="43.10891" lon="6.29021">
        <ele>27.53</ele>
        <time>2017-05-17T14:00:46Z</time>
      </trkpt>
      <trkpt lat="43.1089" lon="6.2902">
        <ele>21.77</ele>
        <time>2017-05-17T14:00:48Z</time>
      </trkpt>
      <trkpt lat="43.1089" lon="6.29019">
        <ele>27.53</ele>
        <time>2017-05-17T14:00:49Z</time>
      </trkpt>
      <trkpt lat="43.1089" lon="6.29018">
        <ele>24.17</ele>
        <time>2017-05-17T14:00:50Z</time>
      </trkpt>
      <trkpt lat="43.10891" lon="6.29016">
        <ele>26.09</ele>
        <time>2017-05-17T14:00:52Z</time>
      </trkpt>
      <trkpt lat="43.10892" lon="6.29016">
        <ele>26.57</ele>
        <time>2017-05-17T14:00:54Z</time>
      </trkpt>
      <trkpt lat="43.10895" lon="6.29014">
        <ele>25.13</ele>
        <time>2017-05-17T14:01:11Z</time>
      </trkpt>
      <trkpt lat="43.10903" lon="6.29004">
        <ele>25.61</ele>
        <time>2017-05-17T14:01:26Z</time>
      </trkpt>
      <trkpt lat="43.10906" lon="6.29002">
        <ele>25.13</ele>
        <time>2017-05-17T14:01:29Z</time>
      </trkpt>
      <trkpt lat="43.10908" lon="6.28999">
        <ele>24.17</ele>
        <time>2017-05-17T14:01:34Z</time>
      </trkpt>
      <trkpt lat="43.10918" lon="6.28986">
        <ele>24.17</ele>
        <time>2017-05-17T14:01:47Z</time>
      </trkpt>
      <trkpt lat="43.10925" lon="6.2897">
        <ele>22.25</ele>
        <time>2017-05-17T14:01:59Z</time>
      </trkpt>
      <trkpt lat="43.10929" lon="6.28964">
        <ele>22.73</ele>
        <time>2017-05-17T14:02:04Z</time>
      </trkpt>
      <trkpt lat="43.10939" lon="6.28953">
        <ele>21.29</ele>
        <time>2017-05-17T14:02:17Z</time>
      </trkpt>
      <trkpt lat="43.10944" lon="6.28952">
        <ele>20.32</ele>
        <time>2017-05-17T14:02:22Z</time>
      </trkpt>
      <trkpt lat="43.10951" lon="6.28952">
        <ele>19.84</ele>
        <time>2017-05-17T14:02:28Z</time>
      </trkpt>
      <trkpt lat="43.10959" lon="6.28952">
        <ele>18.88</ele>
        <time>2017-05-17T14:02:40Z</time>
      </trkpt>
      <trkpt lat="43.10963" lon="6.28945">
        <ele>19.84</ele>
        <time>2017-05-17T14:02:53Z</time>
      </trkpt>
      <trkpt lat="43.10967" lon="6.28938">
        <ele>20.32</ele>
        <time>2017-05-17T14:03:07Z</time>
      </trkpt>
      <trkpt lat="43.10967" lon="6.28938">
        <ele>21.29</ele>
        <time>2017-05-17T14:03:08Z</time>
      </trkpt>
      <trkpt lat="43.10967" lon="6.28934">
        <ele>21.29</ele>
        <time>2017-05-17T14:03:11Z</time>
      </trkpt>
      <trkpt lat="43.1097" lon="6.28921">
        <ele>22.25</ele>
        <time>2017-05-17T14:03:21Z</time>
      </trkpt>
      <trkpt lat="43.10974" lon="6.28918">
        <ele>22.25</ele>
        <time>2017-05-17T14:03:25Z</time>
      </trkpt>
      <trkpt lat="43.10982" lon="6.28909">
        <ele>23.69</ele>
        <time>2017-05-17T14:03:35Z</time>
      </trkpt>
      <trkpt lat="43.10988" lon="6.28901">
        <ele>24.17</ele>
        <time>2017-05-17T14:03:45Z</time>
      </trkpt>
      <trkpt lat="43.10989" lon="6.28887">
        <ele>26.09</ele>
        <time>2017-05-17T14:03:57Z</time>
      </trkpt>
      <trkpt lat="43.10986" lon="6.28876">
        <ele>26.09</ele>
        <time>2017-05-17T14:04:05Z</time>
      </trkpt>
      <trkpt lat="43.10992" lon="6.28865">
        <ele>26.57</ele>
        <time>2017-05-17T14:04:16Z</time>
      </trkpt>
      <trkpt lat="43.10995" lon="6.28859">
        <ele>28.02</ele>
        <time>2017-05-17T14:04:22Z</time>
      </trkpt>
      <trkpt lat="43.10996" lon="6.28854">
        <ele>27.53</ele>
        <time>2017-05-17T14:04:28Z</time>
      </trkpt>
      <trkpt lat="43.10998" lon="6.28854">
        <ele>27.05</ele>
        <time>2017-05-17T14:04:30Z</time>
      </trkpt>
      <trkpt lat="43.11003" lon="6.28851">
        <ele>26.57</ele>
        <time>2017-05-17T14:04:36Z</time>
      </trkpt>
      <trkpt lat="43.11012" lon="6.28835">
        <ele>26.57</ele>
        <time>2017-05-17T14:04:49Z</time>
      </trkpt>
      <trkpt lat="43.11021" lon="6.28828">
        <ele>28.5</ele>
        <time>2017-05-17T14:05:02Z</time>
      </trkpt>
      <trkpt lat="43.11022" lon="6.28825">
        <ele>27.53</ele>
        <time>2017-05-17T14:05:04Z</time>
      </trkpt>
      <trkpt lat="43.11022" lon="6.28817">
        <ele>27.53</ele>
        <time>2017-05-17T14:05:09Z</time>
      </trkpt>
      <trkpt lat="43.11025" lon="6.28812">
        <ele>27.53</ele>
        <time>2017-05-17T14:05:14Z</time>
      </trkpt>
      <trkpt lat="43.11029" lon="6.28797">
        <ele>28.98</ele>
        <time>2017-05-17T14:05:24Z</time>
      </trkpt>
      <trkpt lat="43.11032" lon="6.28792">
        <ele>29.46</ele>
        <time>2017-05-17T14:05:34Z</time>
      </trkpt>
      <trkpt lat="43.11036" lon="6.28784">
        <ele>31.38</ele>
        <time>2017-05-17T14:05:44Z</time>
      </trkpt>
      <trkpt lat="43.11039" lon="6.28778">
        <ele>30.42</ele>
        <time>2017-05-17T14:05:50Z</time>
      </trkpt>
      <trkpt lat="43.1104" lon="6.28773">
        <ele>30.9</ele>
        <time>2017-05-17T14:05:53Z</time>
      </trkpt>
      <trkpt lat="43.1104" lon="6.28761">
        <ele>29.46</ele>
        <time>2017-05-17T14:06:05Z</time>
      </trkpt>
      <trkpt lat="43.1104" lon="6.28754">
        <ele>28.02</ele>
        <time>2017-05-17T14:06:13Z</time>
      </trkpt>
      <trkpt lat="43.11042" lon="6.28742">
        <ele>26.09</ele>
        <time>2017-05-17T14:06:24Z</time>
      </trkpt>
      <trkpt lat="43.11049" lon="6.2874">
        <ele>27.53</ele>
        <time>2017-05-17T14:06:35Z</time>
      </trkpt>
      <trkpt lat="43.11054" lon="6.28731">
        <ele>27.53</ele>
        <time>2017-05-17T14:06:50Z</time>
      </trkpt>
      <trkpt lat="43.11055" lon="6.28728">
        <ele>26.09</ele>
        <time>2017-05-17T14:07:06Z</time>
      </trkpt>
      <trkpt lat="43.11055" lon="6.28727">
        <ele>25.61</ele>
        <time>2017-05-17T14:07:08Z</time>
      </trkpt>
      <trkpt lat="43.11061" lon="6.28719">
        <ele>24.65</ele>
        <time>2017-05-17T14:07:18Z</time>
      </trkpt>
      <trkpt lat="43.11065" lon="6.28711">
        <ele>23.21</ele>
        <time>2017-05-17T14:07:29Z</time>
      </trkpt>
      <trkpt lat="43.11068" lon="6.28704">
        <ele>21.29</ele>
        <time>2017-05-17T14:07:41Z</time>
      </trkpt>
      <trkpt lat="43.11069" lon="6.28703">
        <ele>20.81</ele>
        <time>2017-05-17T14:07:43Z</time>
      </trkpt>
      <trkpt lat="43.11071" lon="6.28697">
        <ele>20.32</ele>
        <time>2017-05-17T14:07:48Z</time>
      </trkpt>
      <trkpt lat="43.11076" lon="6.28693">
        <ele>18.4</ele>
        <time>2017-05-17T14:08:04Z</time>
      </trkpt>
      <trkpt lat="43.11079" lon="6.28687">
        <ele>17.44</ele>
        <time>2017-05-17T14:08:15Z</time>
      </trkpt>
      <trkpt lat="43.11081" lon="6.28683">
        <ele>17.44</ele>
        <time>2017-05-17T14:08:19Z</time>
      </trkpt>
      <trkpt lat="43.11091" lon="6.28686">
        <ele>16.48</ele>
        <time>2017-05-17T14:08:30Z</time>
      </trkpt>
      <trkpt lat="43.11094" lon="6.28686">
        <ele>16.48</ele>
        <time>2017-05-17T14:08:32Z</time>
      </trkpt>
      <trkpt lat="43.11098" lon="6.28687">
        <ele>16.96</ele>
        <time>2017-05-17T14:08:36Z</time>
      </trkpt>
      <trkpt lat="43.11106" lon="6.2869">
        <ele>20.81</ele>
        <time>2017-05-17T14:08:46Z</time>
      </trkpt>
      <trkpt lat="43.11112" lon="6.28693">
        <ele>19.36</ele>
        <time>2017-05-17T14:08:51Z</time>
      </trkpt>
      <trkpt lat="43.1112" lon="6.28698">
        <ele>19.84</ele>
        <time>2017-05-17T14:09:01Z</time>
      </trkpt>
      <trkpt lat="43.11124" lon="6.28696">
        <ele>19.36</ele>
        <time>2017-05-17T14:09:06Z</time>
      </trkpt>
      <trkpt lat="43.11129" lon="6.28696">
        <ele>17.92</ele>
        <time>2017-05-17T14:09:11Z</time>
      </trkpt>
      <trkpt lat="43.11138" lon="6.28706">
        <ele>20.32</ele>
        <time>2017-05-17T14:09:22Z</time>
      </trkpt>
      <trkpt lat="43.11139" lon="6.2871">
        <ele>19.36</ele>
        <time>2017-05-17T14:09:25Z</time>
      </trkpt>
      <trkpt lat="43.11142" lon="6.28712">
        <ele>19.36</ele>
        <time>2017-05-17T14:09:29Z</time>
      </trkpt>
      <trkpt lat="43.11148" lon="6.28716">
        <ele>18.4</ele>
        <time>2017-05-17T14:09:35Z</time>
      </trkpt>
      <trkpt lat="43.11151" lon="6.2872">
        <ele>16.96</ele>
        <time>2017-05-17T14:09:40Z</time>
      </trkpt>
      <trkpt lat="43.11151" lon="6.28731">
        <ele>16</ele>
        <time>2017-05-17T14:09:52Z</time>
      </trkpt>
      <trkpt lat="43.11157" lon="6.28741">
        <ele>14.08</ele>
        <time>2017-05-17T14:10:03Z</time>
      </trkpt>
      <trkpt lat="43.11163" lon="6.28751">
        <ele>12.63</ele>
        <time>2017-05-17T14:10:14Z</time>
      </trkpt>
      <trkpt lat="43.11166" lon="6.28762">
        <ele>10.23</ele>
        <time>2017-05-17T14:10:26Z</time>
      </trkpt>
      <trkpt lat="43.11165" lon="6.28765">
        <ele>9.75</ele>
        <time>2017-05-17T14:10:29Z</time>
      </trkpt>
      <trkpt lat="43.11159" lon="6.28776">
        <ele>8.31</ele>
        <time>2017-05-17T14:10:39Z</time>
      </trkpt>
      <trkpt lat="43.11157" lon="6.28788">
        <ele>6.87</ele>
        <time>2017-05-17T14:10:51Z</time>
      </trkpt>
      <trkpt lat="43.11161" lon="6.28793">
        <ele>5.91</ele>
        <time>2017-05-17T14:10:55Z</time>
      </trkpt>
      <trkpt lat="43.11165" lon="6.28798">
        <ele>4.46</ele>
        <time>2017-05-17T14:11:05Z</time>
      </trkpt>
      <trkpt lat="43.11166" lon="6.2881">
        <ele>3.5</ele>
        <time>2017-05-17T14:11:18Z</time>
      </trkpt>
      <trkpt lat="43.11169" lon="6.28811">
        <ele>3.5</ele>
        <time>2017-05-17T14:11:21Z</time>
      </trkpt>
      <trkpt lat="43.11182" lon="6.28823">
        <ele>2.06</ele>
        <time>2017-05-17T14:11:33Z</time>
      </trkpt>
      <trkpt lat="43.11187" lon="6.28826">
        <ele>2.06</ele>
        <time>2017-05-17T14:11:37Z</time>
      </trkpt>
      <trkpt lat="43.11193" lon="6.28833">
        <ele>1.58</ele>
        <time>2017-05-17T14:11:45Z</time>
      </trkpt>
      <trkpt lat="43.11199" lon="6.28838">
        <ele>2.06</ele>
        <time>2017-05-17T14:11:51Z</time>
      </trkpt>
      <trkpt lat="43.11204" lon="6.28843">
        <ele>2.06</ele>
        <time>2017-05-17T14:11:56Z</time>
      </trkpt>
      <trkpt lat="43.11206" lon="6.28844">
        <ele>2.06</ele>
        <time>2017-05-17T14:11:58Z</time>
      </trkpt>
      <trkpt lat="43.11223" lon="6.28854">
        <ele>2.06</ele>
        <time>2017-05-17T14:12:11Z</time>
      </trkpt>
      <trkpt lat="43.1124" lon="6.2886">
        <ele>2.06</ele>
        <time>2017-05-17T14:12:23Z</time>
      </trkpt>
      <trkpt lat="43.11255" lon="6.28864">
        <ele>2.06</ele>
        <time>2017-05-17T14:12:34Z</time>
      </trkpt>
      <trkpt lat="43.11259" lon="6.28864">
        <ele>2.06</ele>
        <time>2017-05-17T14:12:37Z</time>
      </trkpt>
      <trkpt lat="43.11271" lon="6.28867">
        <ele>0.62</ele>
        <time>2017-05-17T14:12:48Z</time>
      </trkpt>
      <trkpt lat="43.11278" lon="6.28866">
        <ele>2.06</ele>
        <time>2017-05-17T14:12:59Z</time>
      </trkpt>
      <trkpt lat="43.11286" lon="6.28869">
        <ele>2.54</ele>
        <time>2017-05-17T14:13:11Z</time>
      </trkpt>
      <trkpt lat="43.11287" lon="6.2887">
        <ele>3.5</ele>
        <time>2017-05-17T14:13:13Z</time>
      </trkpt>
      <trkpt lat="43.11289" lon="6.2887">
        <ele>6.39</ele>
        <time>2017-05-17T14:13:15Z</time>
      </trkpt>
      <trkpt lat="43.11292" lon="6.28871">
        <ele>1.1</ele>
        <time>2017-05-17T14:13:19Z</time>
      </trkpt>
      <trkpt lat="43.11293" lon="6.28871">
        <ele>5.91</ele>
        <time>2017-05-17T14:13:20Z</time>
      </trkpt>
      <trkpt lat="43.11294" lon="6.2887">
        <ele>4.46</ele>
        <time>2017-05-17T14:13:22Z</time>
      </trkpt>
      <trkpt lat="43.11306" lon="6.2886">
        <ele>3.5</ele>
        <time>2017-05-17T14:13:34Z</time>
      </trkpt>
      <trkpt lat="43.11308" lon="6.28858">
        <ele>3.98</ele>
        <time>2017-05-17T14:13:38Z</time>
      </trkpt>
      <trkpt lat="43.11311" lon="6.28858">
        <ele>3.02</ele>
        <time>2017-05-17T14:13:41Z</time>
      </trkpt>
      <trkpt lat="43.1132" lon="6.28863">
        <ele>2.54</ele>
        <time>2017-05-17T14:13:52Z</time>
      </trkpt>
      <trkpt lat="43.11322" lon="6.28865">
        <ele>3.5</ele>
        <time>2017-05-17T14:13:56Z</time>
      </trkpt>
      <trkpt lat="43.11332" lon="6.28872">
        <ele>1.58</ele>
        <time>2017-05-17T14:14:08Z</time>
      </trkpt>
      <trkpt lat="43.11346" lon="6.28877">
        <ele>2.54</ele>
        <time>2017-05-17T14:14:18Z</time>
      </trkpt>
      <trkpt lat="43.11359" lon="6.28877">
        <ele>2.06</ele>
        <time>2017-05-17T14:14:29Z</time>
      </trkpt>
      <trkpt lat="43.11364" lon="6.28877">
        <ele>2.54</ele>
        <time>2017-05-17T14:14:32Z</time>
      </trkpt>
      <trkpt lat="43.1138" lon="6.2887">
        <ele>2.06</ele>
        <time>2017-05-17T14:14:46Z</time>
      </trkpt>
      <trkpt lat="43.11398" lon="6.28863">
        <ele>1.58</ele>
        <time>2017-05-17T14:14:59Z</time>
      </trkpt>
      <trkpt lat="43.11409" lon="6.28857">
        <ele>1.58</ele>
        <time>2017-05-17T14:15:10Z</time>
      </trkpt>
      <trkpt lat="43.11421" lon="6.28848">
        <ele>2.06</ele>
        <time>2017-05-17T14:15:21Z</time>
      </trkpt>
      <trkpt lat="43.11432" lon="6.28842">
        <ele>2.54</ele>
        <time>2017-05-17T14:15:31Z</time>
      </trkpt>
      <trkpt lat="43.11434" lon="6.28839">
        <ele>3.02</ele>
        <time>2017-05-17T14:15:34Z</time>
      </trkpt>
      <trkpt lat="43.11447" lon="6.28829">
        <ele>3.02</ele>
        <time>2017-05-17T14:15:46Z</time>
      </trkpt>
      <trkpt lat="43.11449" lon="6.28827">
        <ele>2.06</ele>
        <time>2017-05-17T14:15:48Z</time>
      </trkpt>
      <trkpt lat="43.11461" lon="6.28815">
        <ele>2.54</ele>
        <time>2017-05-17T14:16:00Z</time>
      </trkpt>
      <trkpt lat="43.11472" lon="6.28802">
        <ele>2.54</ele>
        <time>2017-05-17T14:16:13Z</time>
      </trkpt>
      <trkpt lat="43.11482" lon="6.2879">
        <ele>2.54</ele>
        <time>2017-05-17T14:16:24Z</time>
      </trkpt>
      <trkpt lat="43.11488" lon="6.28782">
        <ele>2.54</ele>
        <time>2017-05-17T14:16:32Z</time>
      </trkpt>
      <trkpt lat="43.1149" lon="6.2878">
        <ele>3.02</ele>
        <time>2017-05-17T14:16:34Z</time>
      </trkpt>
      <trkpt lat="43.11493" lon="6.28775">
        <ele>2.54</ele>
        <time>2017-05-17T14:16:39Z</time>
      </trkpt>
      <trkpt lat="43.11498" lon="6.28769">
        <ele>3.02</ele>
        <time>2017-05-17T14:16:44Z</time>
      </trkpt>
      <trkpt lat="43.11509" lon="6.28756">
        <ele>2.54</ele>
        <time>2017-05-17T14:16:55Z</time>
      </trkpt>
      <trkpt lat="43.11518" lon="6.28742">
        <ele>2.54</ele>
        <time>2017-05-17T14:17:06Z</time>
      </trkpt>
      <trkpt lat="43.11529" lon="6.28728">
        <ele>3.02</ele>
        <time>2017-05-17T14:17:18Z</time>
      </trkpt>
      <trkpt lat="43.11537" lon="6.28714">
        <ele>2.06</ele>
        <time>2017-05-17T14:17:27Z</time>
      </trkpt>
      <trkpt lat="43.11546" lon="6.28699">
        <ele>2.54</ele>
        <time>2017-05-17T14:17:39Z</time>
      </trkpt>
      <trkpt lat="43.11553" lon="6.28684">
        <ele>2.06</ele>
        <time>2017-05-17T14:17:49Z</time>
      </trkpt>
      <trkpt lat="43.11559" lon="6.28666">
        <ele>2.54</ele>
        <time>2017-05-17T14:18:01Z</time>
      </trkpt>
      <trkpt lat="43.11566" lon="6.28651">
        <ele>2.54</ele>
        <time>2017-05-17T14:18:11Z</time>
      </trkpt>
      <trkpt lat="43.11572" lon="6.28634">
        <ele>2.54</ele>
        <time>2017-05-17T14:18:22Z</time>
      </trkpt>
      <trkpt lat="43.11576" lon="6.28616">
        <ele>2.06</ele>
        <time>2017-05-17T14:18:33Z</time>
      </trkpt>
      <trkpt lat="43.11578" lon="6.28597">
        <ele>2.06</ele>
        <time>2017-05-17T14:18:44Z</time>
      </trkpt>
      <trkpt lat="43.1158" lon="6.28577">
        <ele>2.54</ele>
        <time>2017-05-17T14:18:56Z</time>
      </trkpt>
      <trkpt lat="43.11581" lon="6.2856">
        <ele>2.06</ele>
        <time>2017-05-17T14:19:06Z</time>
      </trkpt>
      <trkpt lat="43.1158" lon="6.28538">
        <ele>2.54</ele>
        <time>2017-05-17T14:19:19Z</time>
      </trkpt>
      <trkpt lat="43.11577" lon="6.2852">
        <ele>2.54</ele>
        <time>2017-05-17T14:19:31Z</time>
      </trkpt>
      <trkpt lat="43.11575" lon="6.28502">
        <ele>2.06</ele>
        <time>2017-05-17T14:19:41Z</time>
      </trkpt>
      <trkpt lat="43.11575" lon="6.28494">
        <ele>2.54</ele>
        <time>2017-05-17T14:19:49Z</time>
      </trkpt>
      <trkpt lat="43.11575" lon="6.28485">
        <ele>3.5</ele>
        <time>2017-05-17T14:20:01Z</time>
      </trkpt>
      <trkpt lat="43.11575" lon="6.28483">
        <ele>3.02</ele>
        <time>2017-05-17T14:20:03Z</time>
      </trkpt>
      <trkpt lat="43.11576" lon="6.28482">
        <ele>4.46</ele>
        <time>2017-05-17T14:20:05Z</time>
      </trkpt>
      <trkpt lat="43.11576" lon="6.28481">
        <ele>3.98</ele>
        <time>2017-05-17T14:20:07Z</time>
      </trkpt>
      <trkpt lat="43.11577" lon="6.28476">
        <ele>4.94</ele>
        <time>2017-05-17T14:20:19Z</time>
      </trkpt>
      <trkpt lat="43.11577" lon="6.28475">
        <ele>5.91</ele>
        <time>2017-05-17T14:20:23Z</time>
      </trkpt>
      <trkpt lat="43.11575" lon="6.28467">
        <ele>6.87</ele>
        <time>2017-05-17T14:20:34Z</time>
      </trkpt>
      <trkpt lat="43.11574" lon="6.28462">
        <ele>7.35</ele>
        <time>2017-05-17T14:20:44Z</time>
      </trkpt>
      <trkpt lat="43.11575" lon="6.28459">
        <ele>7.83</ele>
        <time>2017-05-17T14:20:46Z</time>
      </trkpt>
      <trkpt lat="43.11574" lon="6.28458">
        <ele>5.91</ele>
        <time>2017-05-17T14:20:47Z</time>
      </trkpt>
      <trkpt lat="43.11575" lon="6.28456">
        <ele>11.19</ele>
        <time>2017-05-17T14:20:49Z</time>
      </trkpt>
      <trkpt lat="43.11575" lon="6.28455">
        <ele>8.79</ele>
        <time>2017-05-17T14:20:50Z</time>
      </trkpt>
      <trkpt lat="43.11574" lon="6.28452">
        <ele>10.71</ele>
        <time>2017-05-17T14:20:54Z</time>
      </trkpt>
      <trkpt lat="43.11574" lon="6.28448">
        <ele>10.71</ele>
        <time>2017-05-17T14:20:58Z</time>
      </trkpt>
      <trkpt lat="43.11573" lon="6.28445">
        <ele>10.23</ele>
        <time>2017-05-17T14:21:00Z</time>
      </trkpt>
      <trkpt lat="43.11571" lon="6.28441">
        <ele>9.27</ele>
        <time>2017-05-17T14:21:03Z</time>
      </trkpt>
      <trkpt lat="43.11568" lon="6.28434">
        <ele>10.71</ele>
        <time>2017-05-17T14:21:08Z</time>
      </trkpt>
      <trkpt lat="43.11563" lon="6.28417">
        <ele>11.67</ele>
        <time>2017-05-17T14:21:19Z</time>
      </trkpt>
      <trkpt lat="43.11558" lon="6.28402">
        <ele>10.23</ele>
        <time>2017-05-17T14:21:30Z</time>
      </trkpt>
      <trkpt lat="43.11558" lon="6.28401">
        <ele>10.23</ele>
        <time>2017-05-17T14:21:31Z</time>
      </trkpt>
      <trkpt lat="43.11557" lon="6.28386">
        <ele>9.75</ele>
        <time>2017-05-17T14:21:42Z</time>
      </trkpt>
      <trkpt lat="43.11557" lon="6.2838">
        <ele>9.27</ele>
        <time>2017-05-17T14:21:46Z</time>
      </trkpt>
      <trkpt lat="43.11564" lon="6.28361">
        <ele>8.79</ele>
        <time>2017-05-17T14:21:58Z</time>
      </trkpt>
      <trkpt lat="43.11565" lon="6.28358">
        <ele>8.79</ele>
        <time>2017-05-17T14:22:01Z</time>
      </trkpt>
      <trkpt lat="43.11569" lon="6.28341">
        <ele>8.31</ele>
        <time>2017-05-17T14:22:11Z</time>
      </trkpt>
      <trkpt lat="43.11569" lon="6.28329">
        <ele>8.79</ele>
        <time>2017-05-17T14:22:18Z</time>
      </trkpt>
      <trkpt lat="43.11575" lon="6.28313">
        <ele>8.79</ele>
        <time>2017-05-17T14:22:30Z</time>
      </trkpt>
      <trkpt lat="43.11586" lon="6.28309">
        <ele>8.79</ele>
        <time>2017-05-17T14:22:41Z</time>
      </trkpt>
      <trkpt lat="43.1159" lon="6.28308">
        <ele>10.71</ele>
        <time>2017-05-17T14:22:46Z</time>
      </trkpt>
      <trkpt lat="43.11599" lon="6.28307">
        <ele>8.31</ele>
        <time>2017-05-17T14:22:57Z</time>
      </trkpt>
      <trkpt lat="43.1161" lon="6.28303">
        <ele>11.67</ele>
        <time>2017-05-17T14:23:09Z</time>
      </trkpt>
      <trkpt lat="43.11614" lon="6.28301">
        <ele>11.19</ele>
        <time>2017-05-17T14:23:13Z</time>
      </trkpt>
      <trkpt lat="43.11627" lon="6.28296">
        <ele>11.19</ele>
        <time>2017-05-17T14:23:24Z</time>
      </trkpt>
      <trkpt lat="43.1163" lon="6.28295">
        <ele>11.19</ele>
        <time>2017-05-17T14:23:28Z</time>
      </trkpt>
      <trkpt lat="43.11635" lon="6.2829">
        <ele>11.67</ele>
        <time>2017-05-17T14:23:34Z</time>
      </trkpt>
      <trkpt lat="43.1164" lon="6.28288">
        <ele>10.71</ele>
        <time>2017-05-17T14:23:39Z</time>
      </trkpt>
      <trkpt lat="43.11644" lon="6.28288">
        <ele>11.19</ele>
        <time>2017-05-17T14:23:42Z</time>
      </trkpt>
      <trkpt lat="43.11647" lon="6.28287">
        <ele>11.19</ele>
        <time>2017-05-17T14:23:44Z</time>
      </trkpt>
      <trkpt lat="43.1165" lon="6.28287">
        <ele>10.23</ele>
        <time>2017-05-17T14:23:47Z</time>
      </trkpt>
      <trkpt lat="43.11656" lon="6.28286">
        <ele>10.71</ele>
        <time>2017-05-17T14:23:52Z</time>
      </trkpt>
      <trkpt lat="43.11665" lon="6.28291">
        <ele>9.75</ele>
        <time>2017-05-17T14:24:03Z</time>
      </trkpt>
      <trkpt lat="43.11669" lon="6.28296">
        <ele>8.79</ele>
        <time>2017-05-17T14:24:10Z</time>
      </trkpt>
      <trkpt lat="43.11673" lon="6.28304">
        <ele>7.35</ele>
        <time>2017-05-17T14:24:19Z</time>
      </trkpt>
      <trkpt lat="43.11682" lon="6.28308">
        <ele>6.87</ele>
        <time>2017-05-17T14:24:32Z</time>
      </trkpt>
      <trkpt lat="43.11687" lon="6.2831">
        <ele>6.39</ele>
        <time>2017-05-17T14:24:39Z</time>
      </trkpt>
      <trkpt lat="43.11696" lon="6.28307">
        <ele>4.94</ele>
        <time>2017-05-17T14:24:50Z</time>
      </trkpt>
      <trkpt lat="43.11696" lon="6.28306">
        <ele>5.42</ele>
        <time>2017-05-17T14:24:51Z</time>
      </trkpt>
      <trkpt lat="43.11701" lon="6.28296">
        <ele>6.87</ele>
        <time>2017-05-17T14:25:04Z</time>
      </trkpt>
      <trkpt lat="43.11708" lon="6.28292">
        <ele>6.87</ele>
        <time>2017-05-17T14:25:17Z</time>
      </trkpt>
      <trkpt lat="43.11719" lon="6.28278">
        <ele>6.39</ele>
        <time>2017-05-17T14:25:32Z</time>
      </trkpt>
      <trkpt lat="43.1172" lon="6.28278">
        <ele>9.75</ele>
        <time>2017-05-17T14:25:33Z</time>
      </trkpt>
      <trkpt lat="43.11721" lon="6.28277">
        <ele>8.31</ele>
        <time>2017-05-17T14:25:34Z</time>
      </trkpt>
      <trkpt lat="43.11724" lon="6.28259">
        <ele>8.79</ele>
        <time>2017-05-17T14:25:44Z</time>
      </trkpt>
      <trkpt lat="43.11727" lon="6.2824">
        <ele>9.27</ele>
        <time>2017-05-17T14:25:54Z</time>
      </trkpt>
      <trkpt lat="43.11728" lon="6.28233">
        <ele>9.27</ele>
        <time>2017-05-17T14:25:58Z</time>
      </trkpt>
      <trkpt lat="43.11729" lon="6.2823">
        <ele>9.27</ele>
        <time>2017-05-17T14:26:00Z</time>
      </trkpt>
      <trkpt lat="43.1173" lon="6.28214">
        <ele>9.27</ele>
        <time>2017-05-17T14:26:11Z</time>
      </trkpt>
      <trkpt lat="43.11729" lon="6.28204">
        <ele>8.79</ele>
        <time>2017-05-17T14:26:20Z</time>
      </trkpt>
      <trkpt lat="43.1173" lon="6.28197">
        <ele>9.27</ele>
        <time>2017-05-17T14:26:27Z</time>
      </trkpt>
      <trkpt lat="43.11731" lon="6.28193">
        <ele>9.27</ele>
        <time>2017-05-17T14:26:31Z</time>
      </trkpt>
      <trkpt lat="43.1173" lon="6.28189">
        <ele>9.27</ele>
        <time>2017-05-17T14:26:35Z</time>
      </trkpt>
      <trkpt lat="43.11727" lon="6.28183">
        <ele>8.79</ele>
        <time>2017-05-17T14:26:39Z</time>
      </trkpt>
      <trkpt lat="43.11727" lon="6.28173">
        <ele>8.79</ele>
        <time>2017-05-17T14:26:45Z</time>
      </trkpt>
      <trkpt lat="43.1173" lon="6.28168">
        <ele>8.31</ele>
        <time>2017-05-17T14:26:49Z</time>
      </trkpt>
      <trkpt lat="43.11732" lon="6.28156">
        <ele>7.83</ele>
        <time>2017-05-17T14:26:59Z</time>
      </trkpt>
      <trkpt lat="43.11729" lon="6.28151">
        <ele>8.31</ele>
        <time>2017-05-17T14:27:20Z</time>
      </trkpt>
      <trkpt lat="43.11728" lon="6.28151">
        <ele>8.31</ele>
        <time>2017-05-17T14:27:39Z</time>
      </trkpt>
      <trkpt lat="43.11727" lon="6.2815">
        <ele>8.31</ele>
        <time>2017-05-17T14:28:08Z</time>
      </trkpt>
      <trkpt lat="43.11728" lon="6.28151">
        <ele>8.31</ele>
        <time>2017-05-17T14:28:29Z</time>
      </trkpt>
      <trkpt lat="43.11727" lon="6.28152">
        <ele>8.31</ele>
        <time>2017-05-17T14:28:48Z</time>
      </trkpt>
      <trkpt lat="43.11726" lon="6.28153">
        <ele>8.31</ele>
        <time>2017-05-17T14:29:16Z</time>
      </trkpt>
      <trkpt lat="43.11727" lon="6.28151">
        <ele>8.31</ele>
        <time>2017-05-17T14:29:39Z</time>
      </trkpt>
      <trkpt lat="43.11727" lon="6.2815">
        <ele>8.79</ele>
        <time>2017-05-17T14:30:06Z</time>
      </trkpt>
      <trkpt lat="43.11726" lon="6.28151">
        <ele>9.27</ele>
        <time>2017-05-17T14:30:36Z</time>
      </trkpt>
      <trkpt lat="43.11727" lon="6.28149">
        <ele>9.27</ele>
        <time>2017-05-17T14:31:12Z</time>
      </trkpt>
      <trkpt lat="43.11727" lon="6.28149">
        <ele>9.27</ele>
        <time>2017-05-17T14:31:50Z</time>
      </trkpt>
      <trkpt lat="43.11728" lon="6.28151">
        <ele>8.79</ele>
        <time>2017-05-17T14:32:08Z</time>
      </trkpt>
      <trkpt lat="43.11728" lon="6.2815">
        <ele>8.79</ele>
        <time>2017-05-17T14:32:11Z</time>
      </trkpt>
      <trkpt lat="43.11725" lon="6.28143">
        <ele>8.79</ele>
        <time>2017-05-17T14:32:17Z</time>
      </trkpt>
      <trkpt lat="43.11713" lon="6.28129">
        <ele>9.27</ele>
        <time>2017-05-17T14:32:30Z</time>
      </trkpt>
      <trkpt lat="43.11712" lon="6.28114">
        <ele>10.71</ele>
        <time>2017-05-17T14:32:41Z</time>
      </trkpt>
      <trkpt lat="43.11713" lon="6.281">
        <ele>10.23</ele>
        <time>2017-05-17T14:32:51Z</time>
      </trkpt>
      <trkpt lat="43.11712" lon="6.28089">
        <ele>10.71</ele>
        <time>2017-05-17T14:33:00Z</time>
      </trkpt>
      <trkpt lat="43.11713" lon="6.28078">
        <ele>12.15</ele>
        <time>2017-05-17T14:33:10Z</time>
      </trkpt>
      <trkpt lat="43.11713" lon="6.28064">
        <ele>12.63</ele>
        <time>2017-05-17T14:33:21Z</time>
      </trkpt>
      <trkpt lat="43.11713" lon="6.28046">
        <ele>13.12</ele>
        <time>2017-05-17T14:33:31Z</time>
      </trkpt>
      <trkpt lat="43.11711" lon="6.28038">
        <ele>13.12</ele>
        <time>2017-05-17T14:33:37Z</time>
      </trkpt>
      <trkpt lat="43.117" lon="6.28026">
        <ele>13.6</ele>
        <time>2017-05-17T14:33:49Z</time>
      </trkpt>
      <trkpt lat="43.11695" lon="6.28023">
        <ele>13.6</ele>
        <time>2017-05-17T14:33:53Z</time>
      </trkpt>
      <trkpt lat="43.11685" lon="6.28018">
        <ele>14.08</ele>
        <time>2017-05-17T14:34:03Z</time>
      </trkpt>
      <trkpt lat="43.11679" lon="6.28015">
        <ele>14.56</ele>
        <time>2017-05-17T14:34:09Z</time>
      </trkpt>
      <trkpt lat="43.11672" lon="6.28009">
        <ele>15.04</ele>
        <time>2017-05-17T14:34:17Z</time>
      </trkpt>
      <trkpt lat="43.11669" lon="6.28006">
        <ele>15.52</ele>
        <time>2017-05-17T14:34:21Z</time>
      </trkpt>
      <trkpt lat="43.11666" lon="6.28002">
        <ele>16</ele>
        <time>2017-05-17T14:34:25Z</time>
      </trkpt>
      <trkpt lat="43.11662" lon="6.27988">
        <ele>16.48</ele>
        <time>2017-05-17T14:34:36Z</time>
      </trkpt>
      <trkpt lat="43.11662" lon="6.27986">
        <ele>16</ele>
        <time>2017-05-17T14:34:38Z</time>
      </trkpt>
      <trkpt lat="43.11667" lon="6.27971">
        <ele>16.48</ele>
        <time>2017-05-17T14:34:49Z</time>
      </trkpt>
      <trkpt lat="43.11672" lon="6.27964">
        <ele>16.48</ele>
        <time>2017-05-17T14:34:55Z</time>
      </trkpt>
      <trkpt lat="43.11683" lon="6.27954">
        <ele>16.96</ele>
        <time>2017-05-17T14:35:08Z</time>
      </trkpt>
      <trkpt lat="43.11694" lon="6.27946">
        <ele>16.96</ele>
        <time>2017-05-17T14:35:19Z</time>
      </trkpt>
      <trkpt lat="43.117" lon="6.27942">
        <ele>16.96</ele>
        <time>2017-05-17T14:35:26Z</time>
      </trkpt>
      <trkpt lat="43.1171" lon="6.27933">
        <ele>16.96</ele>
        <time>2017-05-17T14:35:38Z</time>
      </trkpt>
      <trkpt lat="43.11711" lon="6.27932">
        <ele>16.96</ele>
        <time>2017-05-17T14:35:39Z</time>
      </trkpt>
      <trkpt lat="43.1172" lon="6.27922">
        <ele>15.52</ele>
        <time>2017-05-17T14:35:51Z</time>
      </trkpt>
      <trkpt lat="43.11722" lon="6.27918">
        <ele>15.04</ele>
        <time>2017-05-17T14:36:07Z</time>
      </trkpt>
      <trkpt lat="43.11722" lon="6.27916">
        <ele>14.56</ele>
        <time>2017-05-17T14:36:10Z</time>
      </trkpt>
      <trkpt lat="43.11718" lon="6.27905">
        <ele>13.6</ele>
        <time>2017-05-17T14:36:23Z</time>
      </trkpt>
      <trkpt lat="43.11717" lon="6.27899">
        <ele>12.63</ele>
        <time>2017-05-17T14:36:29Z</time>
      </trkpt>
      <trkpt lat="43.11715" lon="6.27892">
        <ele>11.67</ele>
        <time>2017-05-17T14:36:37Z</time>
      </trkpt>
      <trkpt lat="43.11716" lon="6.27887">
        <ele>11.19</ele>
        <time>2017-05-17T14:36:42Z</time>
      </trkpt>
      <trkpt lat="43.11717" lon="6.27876">
        <ele>10.23</ele>
        <time>2017-05-17T14:36:51Z</time>
      </trkpt>
      <trkpt lat="43.11723" lon="6.27875">
        <ele>9.75</ele>
        <time>2017-05-17T14:36:57Z</time>
      </trkpt>
      <trkpt lat="43.11725" lon="6.27877">
        <ele>9.27</ele>
        <time>2017-05-17T14:37:00Z</time>
      </trkpt>
      <trkpt lat="43.11727" lon="6.27879">
        <ele>9.27</ele>
        <time>2017-05-17T14:37:04Z</time>
      </trkpt>
      <trkpt lat="43.1173" lon="6.27879">
        <ele>9.27</ele>
        <time>2017-05-17T14:37:08Z</time>
      </trkpt>
      <trkpt lat="43.11733" lon="6.27883">
        <ele>8.79</ele>
        <time>2017-05-17T14:37:11Z</time>
      </trkpt>
      <trkpt lat="43.11736" lon="6.27885">
        <ele>8.79</ele>
        <time>2017-05-17T14:37:14Z</time>
      </trkpt>
      <trkpt lat="43.11742" lon="6.27888">
        <ele>8.31</ele>
        <time>2017-05-17T14:37:20Z</time>
      </trkpt>
      <trkpt lat="43.11747" lon="6.27897">
        <ele>8.31</ele>
        <time>2017-05-17T14:37:30Z</time>
      </trkpt>
      <trkpt lat="43.11755" lon="6.27901">
        <ele>8.31</ele>
        <time>2017-05-17T14:37:41Z</time>
      </trkpt>
      <trkpt lat="43.11769" lon="6.27911">
        <ele>7.35</ele>
        <time>2017-05-17T14:37:55Z</time>
      </trkpt>
      <trkpt lat="43.1177" lon="6.27912">
        <ele>6.39</ele>
        <time>2017-05-17T14:37:56Z</time>
      </trkpt>
      <trkpt lat="43.11775" lon="6.27908">
        <ele>5.91</ele>
        <time>2017-05-17T14:38:02Z</time>
      </trkpt>
      <trkpt lat="43.11783" lon="6.27908">
        <ele>5.42</ele>
        <time>2017-05-17T14:38:07Z</time>
      </trkpt>
      <trkpt lat="43.11794" lon="6.27896">
        <ele>4.46</ele>
        <time>2017-05-17T14:38:18Z</time>
      </trkpt>
      <trkpt lat="43.11804" lon="6.27883">
        <ele>4.94</ele>
        <time>2017-05-17T14:38:29Z</time>
      </trkpt>
      <trkpt lat="43.11813" lon="6.27868">
        <ele>4.46</ele>
        <time>2017-05-17T14:38:39Z</time>
      </trkpt>
      <trkpt lat="43.11819" lon="6.27851">
        <ele>4.94</ele>
        <time>2017-05-17T14:38:49Z</time>
      </trkpt>
      <trkpt lat="43.11819" lon="6.27844">
        <ele>4.94</ele>
        <time>2017-05-17T14:38:54Z</time>
      </trkpt>
      <trkpt lat="43.11822" lon="6.27838">
        <ele>5.42</ele>
        <time>2017-05-17T14:38:59Z</time>
      </trkpt>
      <trkpt lat="43.11823" lon="6.2783">
        <ele>4.46</ele>
        <time>2017-05-17T14:39:10Z</time>
      </trkpt>
      <trkpt lat="43.11826" lon="6.27828">
        <ele>7.35</ele>
        <time>2017-05-17T14:39:22Z</time>
      </trkpt>
      <trkpt lat="43.11827" lon="6.27826">
        <ele>8.79</ele>
        <time>2017-05-17T14:39:25Z</time>
      </trkpt>
      <trkpt lat="43.11827" lon="6.27824">
        <ele>7.83</ele>
        <time>2017-05-17T14:39:30Z</time>
      </trkpt>
      <trkpt lat="43.11827" lon="6.27819">
        <ele>9.27</ele>
        <time>2017-05-17T14:39:37Z</time>
      </trkpt>
      <trkpt lat="43.11828" lon="6.27817">
        <ele>9.27</ele>
        <time>2017-05-17T14:39:40Z</time>
      </trkpt>
      <trkpt lat="43.11828" lon="6.27815">
        <ele>11.19</ele>
        <time>2017-05-17T14:39:42Z</time>
      </trkpt>
      <trkpt lat="43.11828" lon="6.27809">
        <ele>11.67</ele>
        <time>2017-05-17T14:39:46Z</time>
      </trkpt>
      <trkpt lat="43.11827" lon="6.27806">
        <ele>12.15</ele>
        <time>2017-05-17T14:39:49Z</time>
      </trkpt>
      <trkpt lat="43.11823" lon="6.27797">
        <ele>11.67</ele>
        <time>2017-05-17T14:39:57Z</time>
      </trkpt>
      <trkpt lat="43.11824" lon="6.27793">
        <ele>11.67</ele>
        <time>2017-05-17T14:40:00Z</time>
      </trkpt>
      <trkpt lat="43.11831" lon="6.27782">
        <ele>11.67</ele>
        <time>2017-05-17T14:40:11Z</time>
      </trkpt>
      <trkpt lat="43.11832" lon="6.27774">
        <ele>11.67</ele>
        <time>2017-05-17T14:40:18Z</time>
      </trkpt>
      <trkpt lat="43.11828" lon="6.27762">
        <ele>9.75</ele>
        <time>2017-05-17T14:40:31Z</time>
      </trkpt>
      <trkpt lat="43.11829" lon="6.27762">
        <ele>10.23</ele>
        <time>2017-05-17T14:40:32Z</time>
      </trkpt>
      <trkpt lat="43.11834" lon="6.27754">
        <ele>9.27</ele>
        <time>2017-05-17T14:40:45Z</time>
      </trkpt>
      <trkpt lat="43.11836" lon="6.27751">
        <ele>9.27</ele>
        <time>2017-05-17T14:40:49Z</time>
      </trkpt>
      <trkpt lat="43.1184" lon="6.27752">
        <ele>8.31</ele>
        <time>2017-05-17T14:40:54Z</time>
      </trkpt>
      <trkpt lat="43.11844" lon="6.27763">
        <ele>9.75</ele>
        <time>2017-05-17T14:41:05Z</time>
      </trkpt>
      <trkpt lat="43.11844" lon="6.27769">
        <ele>9.75</ele>
        <time>2017-05-17T14:41:12Z</time>
      </trkpt>
      <trkpt lat="43.11843" lon="6.27776">
        <ele>11.19</ele>
        <time>2017-05-17T14:41:19Z</time>
      </trkpt>
      <trkpt lat="43.11843" lon="6.2778">
        <ele>11.19</ele>
        <time>2017-05-17T14:41:22Z</time>
      </trkpt>
      <trkpt lat="43.11857" lon="6.27783">
        <ele>11.19</ele>
        <time>2017-05-17T14:41:34Z</time>
      </trkpt>
      <trkpt lat="43.11871" lon="6.27787">
        <ele>10.71</ele>
        <time>2017-05-17T14:41:46Z</time>
      </trkpt>
      <trkpt lat="43.11887" lon="6.27791">
        <ele>10.71</ele>
        <time>2017-05-17T14:41:58Z</time>
      </trkpt>
      <trkpt lat="43.11896" lon="6.27792">
        <ele>9.27</ele>
        <time>2017-05-17T14:42:09Z</time>
      </trkpt>
      <trkpt lat="43.11907" lon="6.2779">
        <ele>8.31</ele>
        <time>2017-05-17T14:42:20Z</time>
      </trkpt>
      <trkpt lat="43.11909" lon="6.27792">
        <ele>8.31</ele>
        <time>2017-05-17T14:42:25Z</time>
      </trkpt>
      <trkpt lat="43.1192" lon="6.27804">
        <ele>7.83</ele>
        <time>2017-05-17T14:42:37Z</time>
      </trkpt>
      <trkpt lat="43.11924" lon="6.27805">
        <ele>7.35</ele>
        <time>2017-05-17T14:42:40Z</time>
      </trkpt>
      <trkpt lat="43.11928" lon="6.27804">
        <ele>6.87</ele>
        <time>2017-05-17T14:42:43Z</time>
      </trkpt>
      <trkpt lat="43.11935" lon="6.27799">
        <ele>5.42</ele>
        <time>2017-05-17T14:42:54Z</time>
      </trkpt>
      <trkpt lat="43.1195" lon="6.27788">
        <ele>4.94</ele>
        <time>2017-05-17T14:43:07Z</time>
      </trkpt>
      <trkpt lat="43.11952" lon="6.27787">
        <ele>4.94</ele>
        <time>2017-05-17T14:43:09Z</time>
      </trkpt>
      <trkpt lat="43.11957" lon="6.27786">
        <ele>4.94</ele>
        <time>2017-05-17T14:43:13Z</time>
      </trkpt>
      <trkpt lat="43.11972" lon="6.27774">
        <ele>4.94</ele>
        <time>2017-05-17T14:43:26Z</time>
      </trkpt>
      <trkpt lat="43.11982" lon="6.27763">
        <ele>4.94</ele>
        <time>2017-05-17T14:43:37Z</time>
      </trkpt>
      <trkpt lat="43.11987" lon="6.27757">
        <ele>4.94</ele>
        <time>2017-05-17T14:43:42Z</time>
      </trkpt>
      <trkpt lat="43.11994" lon="6.27749">
        <ele>4.46</ele>
        <time>2017-05-17T14:43:49Z</time>
      </trkpt>
      <trkpt lat="43.12004" lon="6.27732">
        <ele>4.94</ele>
        <time>2017-05-17T14:44:02Z</time>
      </trkpt>
      <trkpt lat="43.12014" lon="6.27718">
        <ele>4.94</ele>
        <time>2017-05-17T14:44:12Z</time>
      </trkpt>
      <trkpt lat="43.12014" lon="6.27718">
        <ele>4.94</ele>
        <time>2017-05-17T14:44:13Z</time>
      </trkpt>
      <trkpt lat="43.12016" lon="6.27716">
        <ele>4.94</ele>
        <time>2017-05-17T14:44:16Z</time>
      </trkpt>
      <trkpt lat="43.12026" lon="6.27704">
        <ele>4.94</ele>
        <time>2017-05-17T14:44:26Z</time>
      </trkpt>
      <trkpt lat="43.12036" lon="6.27692">
        <ele>4.94</ele>
        <time>2017-05-17T14:44:37Z</time>
      </trkpt>
      <trkpt lat="43.12041" lon="6.27686">
        <ele>4.94</ele>
        <time>2017-05-17T14:44:42Z</time>
      </trkpt>
      <trkpt lat="43.1205" lon="6.27672">
        <ele>4.46</ele>
        <time>2017-05-17T14:44:53Z</time>
      </trkpt>
      <trkpt lat="43.12059" lon="6.27659">
        <ele>4.94</ele>
        <time>2017-05-17T14:45:04Z</time>
      </trkpt>
      <trkpt lat="43.12066" lon="6.27645">
        <ele>4.46</ele>
        <time>2017-05-17T14:45:14Z</time>
      </trkpt>
      <trkpt lat="43.12068" lon="6.27642">
        <ele>4.94</ele>
        <time>2017-05-17T14:45:17Z</time>
      </trkpt>
      <trkpt lat="43.1207" lon="6.27637">
        <ele>4.46</ele>
        <time>2017-05-17T14:45:21Z</time>
      </trkpt>
      <trkpt lat="43.12076" lon="6.27624">
        <ele>4.46</ele>
        <time>2017-05-17T14:45:32Z</time>
      </trkpt>
      <trkpt lat="43.12081" lon="6.27614">
        <ele>4.94</ele>
        <time>2017-05-17T14:45:40Z</time>
      </trkpt>
      <trkpt lat="43.12082" lon="6.2761">
        <ele>4.94</ele>
        <time>2017-05-17T14:45:43Z</time>
      </trkpt>
      <trkpt lat="43.12084" lon="6.27605">
        <ele>4.46</ele>
        <time>2017-05-17T14:45:47Z</time>
      </trkpt>
      <trkpt lat="43.12087" lon="6.27595">
        <ele>5.42</ele>
        <time>2017-05-17T14:45:56Z</time>
      </trkpt>
      <trkpt lat="43.12094" lon="6.2758">
        <ele>4.94</ele>
        <time>2017-05-17T14:46:07Z</time>
      </trkpt>
      <trkpt lat="43.12098" lon="6.2757">
        <ele>4.94</ele>
        <time>2017-05-17T14:46:14Z</time>
      </trkpt>
      <trkpt lat="43.12103" lon="6.2755">
        <ele>4.94</ele>
        <time>2017-05-17T14:46:26Z</time>
      </trkpt>
      <trkpt lat="43.12107" lon="6.27532">
        <ele>4.94</ele>
        <time>2017-05-17T14:46:38Z</time>
      </trkpt>
      <trkpt lat="43.12107" lon="6.27527">
        <ele>4.94</ele>
        <time>2017-05-17T14:46:41Z</time>
      </trkpt>
      <trkpt lat="43.12107" lon="6.27507">
        <ele>4.94</ele>
        <time>2017-05-17T14:46:53Z</time>
      </trkpt>
      <trkpt lat="43.12109" lon="6.27487">
        <ele>4.94</ele>
        <time>2017-05-17T14:47:05Z</time>
      </trkpt>
      <trkpt lat="43.12111" lon="6.27473">
        <ele>5.42</ele>
        <time>2017-05-17T14:47:14Z</time>
      </trkpt>
      <trkpt lat="43.12116" lon="6.27456">
        <ele>5.42</ele>
        <time>2017-05-17T14:47:25Z</time>
      </trkpt>
      <trkpt lat="43.1212" lon="6.27445">
        <ele>4.94</ele>
        <time>2017-05-17T14:47:32Z</time>
      </trkpt>
      <trkpt lat="43.12125" lon="6.27424">
        <ele>5.91</ele>
        <time>2017-05-17T14:47:44Z</time>
      </trkpt>
      <trkpt lat="43.12127" lon="6.27406">
        <ele>4.94</ele>
        <time>2017-05-17T14:47:55Z</time>
      </trkpt>
      <trkpt lat="43.12127" lon="6.27402">
        <ele>5.42</ele>
        <time>2017-05-17T14:47:58Z</time>
      </trkpt>
      <trkpt lat="43.12128" lon="6.27391">
        <ele>5.42</ele>
        <time>2017-05-17T14:48:04Z</time>
      </trkpt>
      <trkpt lat="43.12128" lon="6.2737">
        <ele>5.42</ele>
        <time>2017-05-17T14:48:16Z</time>
      </trkpt>
      <trkpt lat="43.12128" lon="6.27367">
        <ele>5.42</ele>
        <time>2017-05-17T14:48:18Z</time>
      </trkpt>
      <trkpt lat="43.12127" lon="6.27343">
        <ele>5.42</ele>
        <time>2017-05-17T14:48:31Z</time>
      </trkpt>
      <trkpt lat="43.12127" lon="6.2732">
        <ele>5.42</ele>
        <time>2017-05-17T14:48:43Z</time>
      </trkpt>
      <trkpt lat="43.12128" lon="6.27301">
        <ele>5.42</ele>
        <time>2017-05-17T14:48:55Z</time>
      </trkpt>
      <trkpt lat="43.12129" lon="6.27278">
        <ele>5.42</ele>
        <time>2017-05-17T14:49:07Z</time>
      </trkpt>
      <trkpt lat="43.12128" lon="6.27261">
        <ele>5.91</ele>
        <time>2017-05-17T14:49:18Z</time>
      </trkpt>
      <trkpt lat="43.12129" lon="6.27248">
        <ele>5.42</ele>
        <time>2017-05-17T14:49:25Z</time>
      </trkpt>
      <trkpt lat="43.12128" lon="6.27235">
        <ele>5.91</ele>
        <time>2017-05-17T14:49:32Z</time>
      </trkpt>
      <trkpt lat="43.12128" lon="6.27215">
        <ele>5.42</ele>
        <time>2017-05-17T14:49:44Z</time>
      </trkpt>
      <trkpt lat="43.12127" lon="6.27211">
        <ele>5.42</ele>
        <time>2017-05-17T14:49:47Z</time>
      </trkpt>
      <trkpt lat="43.12126" lon="6.27204">
        <ele>5.42</ele>
        <time>2017-05-17T14:49:51Z</time>
      </trkpt>
      <trkpt lat="43.12126" lon="6.27198">
        <ele>5.42</ele>
        <time>2017-05-17T14:49:54Z</time>
      </trkpt>
      <trkpt lat="43.12125" lon="6.27179">
        <ele>5.42</ele>
        <time>2017-05-17T14:50:07Z</time>
      </trkpt>
      <trkpt lat="43.12124" lon="6.27171">
        <ele>5.42</ele>
        <time>2017-05-17T14:50:17Z</time>
      </trkpt>
      <trkpt lat="43.12122" lon="6.27161">
        <ele>5.91</ele>
        <time>2017-05-17T14:50:23Z</time>
      </trkpt>
      <trkpt lat="43.12122" lon="6.27153">
        <ele>5.91</ele>
        <time>2017-05-17T14:50:27Z</time>
      </trkpt>
      <trkpt lat="43.12122" lon="6.27131">
        <ele>4.94</ele>
        <time>2017-05-17T14:50:39Z</time>
      </trkpt>
      <trkpt lat="43.12122" lon="6.27112">
        <ele>5.42</ele>
        <time>2017-05-17T14:50:51Z</time>
      </trkpt>
      <trkpt lat="43.12123" lon="6.27092">
        <ele>4.94</ele>
        <time>2017-05-17T14:51:02Z</time>
      </trkpt>
      <trkpt lat="43.12123" lon="6.27083">
        <ele>5.42</ele>
        <time>2017-05-17T14:51:07Z</time>
      </trkpt>
      <trkpt lat="43.12123" lon="6.27076">
        <ele>4.94</ele>
        <time>2017-05-17T14:51:11Z</time>
      </trkpt>
      <trkpt lat="43.12123" lon="6.27053">
        <ele>4.94</ele>
        <time>2017-05-17T14:51:23Z</time>
      </trkpt>
      <trkpt lat="43.12123" lon="6.27053">
        <ele>4.46</ele>
        <time>2017-05-17T14:51:24Z</time>
      </trkpt>
      <trkpt lat="43.12124" lon="6.27039">
        <ele>5.42</ele>
        <time>2017-05-17T14:51:32Z</time>
      </trkpt>
      <trkpt lat="43.12123" lon="6.27017">
        <ele>4.94</ele>
        <time>2017-05-17T14:51:44Z</time>
      </trkpt>
      <trkpt lat="43.12122" lon="6.26994">
        <ele>4.94</ele>
        <time>2017-05-17T14:51:56Z</time>
      </trkpt>
      <trkpt lat="43.1212" lon="6.26974">
        <ele>4.94</ele>
        <time>2017-05-17T14:52:08Z</time>
      </trkpt>
      <trkpt lat="43.12118" lon="6.26956">
        <ele>4.94</ele>
        <time>2017-05-17T14:52:18Z</time>
      </trkpt>
      <trkpt lat="43.12117" lon="6.26941">
        <ele>4.94</ele>
        <time>2017-05-17T14:52:28Z</time>
      </trkpt>
      <trkpt lat="43.12115" lon="6.26929">
        <ele>4.94</ele>
        <time>2017-05-17T14:52:35Z</time>
      </trkpt>
      <trkpt lat="43.12114" lon="6.2691">
        <ele>4.94</ele>
        <time>2017-05-17T14:52:47Z</time>
      </trkpt>
      <trkpt lat="43.12114" lon="6.26907">
        <ele>4.94</ele>
        <time>2017-05-17T14:52:49Z</time>
      </trkpt>
      <trkpt lat="43.12115" lon="6.26903">
        <ele>4.46</ele>
        <time>2017-05-17T14:52:53Z</time>
      </trkpt>
      <trkpt lat="43.12118" lon="6.26899">
        <ele>5.42</ele>
        <time>2017-05-17T14:52:58Z</time>
      </trkpt>
      <trkpt lat="43.12119" lon="6.26896">
        <ele>5.42</ele>
        <time>2017-05-17T14:53:11Z</time>
      </trkpt>
      <trkpt lat="43.12119" lon="6.26895">
        <ele>6.87</ele>
        <time>2017-05-17T14:53:38Z</time>
      </trkpt>
      <trkpt lat="43.12119" lon="6.26892">
        <ele>6.39</ele>
        <time>2017-05-17T14:54:07Z</time>
      </trkpt>
      <trkpt lat="43.12119" lon="6.26894">
        <ele>6.39</ele>
        <time>2017-05-17T14:54:38Z</time>
      </trkpt>
      <trkpt lat="43.12119" lon="6.26893">
        <ele>5.42</ele>
        <time>2017-05-17T14:54:42Z</time>
      </trkpt>
      <trkpt lat="43.1212" lon="6.26894">
        <ele>5.91</ele>
        <time>2017-05-17T14:55:05Z</time>
      </trkpt>
      <trkpt lat="43.12119" lon="6.26889">
        <ele>6.39</ele>
        <time>2017-05-17T14:55:24Z</time>
      </trkpt>
      <trkpt lat="43.1212" lon="6.26885">
        <ele>5.91</ele>
        <time>2017-05-17T14:55:28Z</time>
      </trkpt>
      <trkpt lat="43.12121" lon="6.26876">
        <ele>6.39</ele>
        <time>2017-05-17T14:55:39Z</time>
      </trkpt>
      <trkpt lat="43.12122" lon="6.26874">
        <ele>7.35</ele>
        <time>2017-05-17T14:55:43Z</time>
      </trkpt>
      <trkpt lat="43.12122" lon="6.26871">
        <ele>8.31</ele>
        <time>2017-05-17T14:55:47Z</time>
      </trkpt>
      <trkpt lat="43.1212" lon="6.26864">
        <ele>8.31</ele>
        <time>2017-05-17T14:55:52Z</time>
      </trkpt>
      <trkpt lat="43.12118" lon="6.2686">
        <ele>8.31</ele>
        <time>2017-05-17T14:55:56Z</time>
      </trkpt>
      <trkpt lat="43.12118" lon="6.26843">
        <ele>9.27</ele>
        <time>2017-05-17T14:56:09Z</time>
      </trkpt>
      <trkpt lat="43.12112" lon="6.26835">
        <ele>10.23</ele>
        <time>2017-05-17T14:56:19Z</time>
      </trkpt>
      <trkpt lat="43.12112" lon="6.26835">
        <ele>10.23</ele>
        <time>2017-05-17T14:56:20Z</time>
      </trkpt>
      <trkpt lat="43.12103" lon="6.26823">
        <ele>9.75</ele>
        <time>2017-05-17T14:56:30Z</time>
      </trkpt>
      <trkpt lat="43.12102" lon="6.26822">
        <ele>9.75</ele>
        <time>2017-05-17T14:56:31Z</time>
      </trkpt>
      <trkpt lat="43.12096" lon="6.26813">
        <ele>12.15</ele>
        <time>2017-05-17T14:56:42Z</time>
      </trkpt>
      <trkpt lat="43.12095" lon="6.26808">
        <ele>12.63</ele>
        <time>2017-05-17T14:56:48Z</time>
      </trkpt>
      <trkpt lat="43.12093" lon="6.26805">
        <ele>13.12</ele>
        <time>2017-05-17T14:56:51Z</time>
      </trkpt>
      <trkpt lat="43.12086" lon="6.26795">
        <ele>14.56</ele>
        <time>2017-05-17T14:57:03Z</time>
      </trkpt>
      <trkpt lat="43.12079" lon="6.26788">
        <ele>14.56</ele>
        <time>2017-05-17T14:57:13Z</time>
      </trkpt>
      <trkpt lat="43.12074" lon="6.26782">
        <ele>13.12</ele>
        <time>2017-05-17T14:57:25Z</time>
      </trkpt>
      <trkpt lat="43.1207" lon="6.26779">
        <ele>11.67</ele>
        <time>2017-05-17T14:57:37Z</time>
      </trkpt>
      <trkpt lat="43.12069" lon="6.26775">
        <ele>10.23</ele>
        <time>2017-05-17T14:57:48Z</time>
      </trkpt>
      <trkpt lat="43.1207" lon="6.26768">
        <ele>9.75</ele>
        <time>2017-05-17T14:57:52Z</time>
      </trkpt>
      <trkpt lat="43.12068" lon="6.26761">
        <ele>8.31</ele>
        <time>2017-05-17T14:57:59Z</time>
      </trkpt>
      <trkpt lat="43.12066" lon="6.26752">
        <ele>7.35</ele>
        <time>2017-05-17T14:58:12Z</time>
      </trkpt>
      <trkpt lat="43.12064" lon="6.26743">
        <ele>5.91</ele>
        <time>2017-05-17T14:58:24Z</time>
      </trkpt>
      <trkpt lat="43.12063" lon="6.26737">
        <ele>6.87</ele>
        <time>2017-05-17T14:58:33Z</time>
      </trkpt>
      <trkpt lat="43.1206" lon="6.26731">
        <ele>6.87</ele>
        <time>2017-05-17T14:58:46Z</time>
      </trkpt>
      <trkpt lat="43.12055" lon="6.26728">
        <ele>7.35</ele>
        <time>2017-05-17T14:58:56Z</time>
      </trkpt>
      <trkpt lat="43.1205" lon="6.26724">
        <ele>9.27</ele>
        <time>2017-05-17T14:59:08Z</time>
      </trkpt>
      <trkpt lat="43.12051" lon="6.26719">
        <ele>11.67</ele>
        <time>2017-05-17T14:59:18Z</time>
      </trkpt>
      <trkpt lat="43.12052" lon="6.26717">
        <ele>11.67</ele>
        <time>2017-05-17T14:59:21Z</time>
      </trkpt>
      <trkpt lat="43.12055" lon="6.2671">
        <ele>13.6</ele>
        <time>2017-05-17T14:59:32Z</time>
      </trkpt>
      <trkpt lat="43.12055" lon="6.26707">
        <ele>14.56</ele>
        <time>2017-05-17T14:59:42Z</time>
      </trkpt>
      <trkpt lat="43.12061" lon="6.26708">
        <ele>15.52</ele>
        <time>2017-05-17T14:59:54Z</time>
      </trkpt>
      <trkpt lat="43.12064" lon="6.26702">
        <ele>16.96</ele>
        <time>2017-05-17T15:00:01Z</time>
      </trkpt>
      <trkpt lat="43.12069" lon="6.26694">
        <ele>17.44</ele>
        <time>2017-05-17T15:00:08Z</time>
      </trkpt>
      <trkpt lat="43.12073" lon="6.26695">
        <ele>18.88</ele>
        <time>2017-05-17T15:00:17Z</time>
      </trkpt>
      <trkpt lat="43.12076" lon="6.26693">
        <ele>19.36</ele>
        <time>2017-05-17T15:00:23Z</time>
      </trkpt>
      <trkpt lat="43.12078" lon="6.26692">
        <ele>20.81</ele>
        <time>2017-05-17T15:00:26Z</time>
      </trkpt>
      <trkpt lat="43.12079" lon="6.2669">
        <ele>21.29</ele>
        <time>2017-05-17T15:00:30Z</time>
      </trkpt>
      <trkpt lat="43.12083" lon="6.26682">
        <ele>21.77</ele>
        <time>2017-05-17T15:00:42Z</time>
      </trkpt>
      <trkpt lat="43.12088" lon="6.26678">
        <ele>21.29</ele>
        <time>2017-05-17T15:00:57Z</time>
      </trkpt>
      <trkpt lat="43.1209" lon="6.26674">
        <ele>20.81</ele>
        <time>2017-05-17T15:01:01Z</time>
      </trkpt>
      <trkpt lat="43.12092" lon="6.26671">
        <ele>20.81</ele>
        <time>2017-05-17T15:01:04Z</time>
      </trkpt>
      <trkpt lat="43.12094" lon="6.2667">
        <ele>21.29</ele>
        <time>2017-05-17T15:01:06Z</time>
      </trkpt>
      <trkpt lat="43.12102" lon="6.26661">
        <ele>19.84</ele>
        <time>2017-05-17T15:01:17Z</time>
      </trkpt>
      <trkpt lat="43.12105" lon="6.26656">
        <ele>19.36</ele>
        <time>2017-05-17T15:01:23Z</time>
      </trkpt>
      <trkpt lat="43.12108" lon="6.26651">
        <ele>19.36</ele>
        <time>2017-05-17T15:01:28Z</time>
      </trkpt>
      <trkpt lat="43.12112" lon="6.26643">
        <ele>18.4</ele>
        <time>2017-05-17T15:01:35Z</time>
      </trkpt>
      <trkpt lat="43.12124" lon="6.26635">
        <ele>17.44</ele>
        <time>2017-05-17T15:01:46Z</time>
      </trkpt>
      <trkpt lat="43.1213" lon="6.26628">
        <ele>16</ele>
        <time>2017-05-17T15:01:55Z</time>
      </trkpt>
      <trkpt lat="43.12132" lon="6.26627">
        <ele>16</ele>
        <time>2017-05-17T15:01:57Z</time>
      </trkpt>
      <trkpt lat="43.1214" lon="6.26623">
        <ele>15.04</ele>
        <time>2017-05-17T15:02:04Z</time>
      </trkpt>
      <trkpt lat="43.12142" lon="6.2662">
        <ele>14.56</ele>
        <time>2017-05-17T15:02:08Z</time>
      </trkpt>
      <trkpt lat="43.12145" lon="6.26613">
        <ele>13.12</ele>
        <time>2017-05-17T15:02:22Z</time>
      </trkpt>
      <trkpt lat="43.12142" lon="6.26608">
        <ele>10.71</ele>
        <time>2017-05-17T15:02:35Z</time>
      </trkpt>
      <trkpt lat="43.12141" lon="6.26602">
        <ele>7.83</ele>
        <time>2017-05-17T15:02:45Z</time>
      </trkpt>
      <trkpt lat="43.1214" lon="6.26598">
        <ele>7.35</ele>
        <time>2017-05-17T15:02:49Z</time>
      </trkpt>
      <trkpt lat="43.12137" lon="6.26589">
        <ele>6.87</ele>
        <time>2017-05-17T15:02:57Z</time>
      </trkpt>
      <trkpt lat="43.12134" lon="6.26573">
        <ele>6.39</ele>
        <time>2017-05-17T15:03:07Z</time>
      </trkpt>
      <trkpt lat="43.12134" lon="6.26571">
        <ele>6.39</ele>
        <time>2017-05-17T15:03:09Z</time>
      </trkpt>
      <trkpt lat="43.12131" lon="6.26554">
        <ele>6.39</ele>
        <time>2017-05-17T15:03:20Z</time>
      </trkpt>
      <trkpt lat="43.12131" lon="6.26535">
        <ele>5.91</ele>
        <time>2017-05-17T15:03:32Z</time>
      </trkpt>
      <trkpt lat="43.12132" lon="6.26534">
        <ele>5.42</ele>
        <time>2017-05-17T15:03:33Z</time>
      </trkpt>
      <trkpt lat="43.12132" lon="6.26514">
        <ele>5.42</ele>
        <time>2017-05-17T15:03:45Z</time>
      </trkpt>
      <trkpt lat="43.12132" lon="6.26495">
        <ele>5.91</ele>
        <time>2017-05-17T15:03:57Z</time>
      </trkpt>
      <trkpt lat="43.12131" lon="6.2648">
        <ele>5.42</ele>
        <time>2017-05-17T15:04:07Z</time>
      </trkpt>
      <trkpt lat="43.12131" lon="6.26461">
        <ele>5.42</ele>
        <time>2017-05-17T15:04:18Z</time>
      </trkpt>
      <trkpt lat="43.1213" lon="6.26444">
        <ele>5.91</ele>
        <time>2017-05-17T15:04:28Z</time>
      </trkpt>
      <trkpt lat="43.12131" lon="6.26425">
        <ele>5.91</ele>
        <time>2017-05-17T15:04:40Z</time>
      </trkpt>
      <trkpt lat="43.12131" lon="6.26424">
        <ele>6.39</ele>
        <time>2017-05-17T15:04:41Z</time>
      </trkpt>
      <trkpt lat="43.12131" lon="6.26409">
        <ele>6.39</ele>
        <time>2017-05-17T15:04:51Z</time>
      </trkpt>
      <trkpt lat="43.12132" lon="6.26402">
        <ele>6.39</ele>
        <time>2017-05-17T15:04:56Z</time>
      </trkpt>
      <trkpt lat="43.12133" lon="6.26394">
        <ele>6.39</ele>
        <time>2017-05-17T15:05:01Z</time>
      </trkpt>
      <trkpt lat="43.12137" lon="6.2638">
        <ele>6.87</ele>
        <time>2017-05-17T15:05:12Z</time>
      </trkpt>
      <trkpt lat="43.1214" lon="6.26372">
        <ele>6.39</ele>
        <time>2017-05-17T15:05:20Z</time>
      </trkpt>
      <trkpt lat="43.1214" lon="6.26364">
        <ele>6.39</ele>
        <time>2017-05-17T15:05:25Z</time>
      </trkpt>
      <trkpt lat="43.12141" lon="6.26349">
        <ele>5.91</ele>
        <time>2017-05-17T15:05:36Z</time>
      </trkpt>
      <trkpt lat="43.12141" lon="6.26333">
        <ele>6.39</ele>
        <time>2017-05-17T15:05:46Z</time>
      </trkpt>
      <trkpt lat="43.12142" lon="6.26322">
        <ele>6.39</ele>
        <time>2017-05-17T15:05:53Z</time>
      </trkpt>
      <trkpt lat="43.12142" lon="6.26305">
        <ele>6.39</ele>
        <time>2017-05-17T15:06:05Z</time>
      </trkpt>
      <trkpt lat="43.12143" lon="6.26283">
        <ele>6.39</ele>
        <time>2017-05-17T15:06:17Z</time>
      </trkpt>
      <trkpt lat="43.12144" lon="6.26268">
        <ele>6.39</ele>
        <time>2017-05-17T15:06:27Z</time>
      </trkpt>
      <trkpt lat="43.12143" lon="6.2626">
        <ele>5.91</ele>
        <time>2017-05-17T15:06:31Z</time>
      </trkpt>
      <trkpt lat="43.12144" lon="6.26247">
        <ele>5.91</ele>
        <time>2017-05-17T15:06:40Z</time>
      </trkpt>
      <trkpt lat="43.12149" lon="6.26229">
        <ele>5.91</ele>
        <time>2017-05-17T15:06:51Z</time>
      </trkpt>
      <trkpt lat="43.12149" lon="6.26213">
        <ele>5.91</ele>
        <time>2017-05-17T15:07:01Z</time>
      </trkpt>
      <trkpt lat="43.12149" lon="6.26195">
        <ele>5.42</ele>
        <time>2017-05-17T15:07:12Z</time>
      </trkpt>
      <trkpt lat="43.12149" lon="6.26178">
        <ele>5.42</ele>
        <time>2017-05-17T15:07:22Z</time>
      </trkpt>
      <trkpt lat="43.12148" lon="6.26158">
        <ele>5.91</ele>
        <time>2017-05-17T15:07:34Z</time>
      </trkpt>
      <trkpt lat="43.12147" lon="6.26143">
        <ele>5.91</ele>
        <time>2017-05-17T15:07:44Z</time>
      </trkpt>
      <trkpt lat="43.12146" lon="6.26141">
        <ele>5.91</ele>
        <time>2017-05-17T15:07:45Z</time>
      </trkpt>
      <trkpt lat="43.12147" lon="6.26139">
        <ele>6.39</ele>
        <time>2017-05-17T15:07:46Z</time>
      </trkpt>
      <trkpt lat="43.12147" lon="6.26137">
        <ele>6.39</ele>
        <time>2017-05-17T15:07:47Z</time>
      </trkpt>
      <trkpt lat="43.12146" lon="6.26135">
        <ele>6.39</ele>
        <time>2017-05-17T15:07:48Z</time>
      </trkpt>
      <trkpt lat="43.12146" lon="6.26132">
        <ele>5.91</ele>
        <time>2017-05-17T15:07:51Z</time>
      </trkpt>
      <trkpt lat="43.12146" lon="6.2613">
        <ele>5.91</ele>
        <time>2017-05-17T15:07:52Z</time>
      </trkpt>
      <trkpt lat="43.12146" lon="6.26128">
        <ele>6.39</ele>
        <time>2017-05-17T15:07:53Z</time>
      </trkpt>
      <trkpt lat="43.12146" lon="6.26126">
        <ele>5.91</ele>
        <time>2017-05-17T15:07:54Z</time>
      </trkpt>
      <trkpt lat="43.12146" lon="6.26122">
        <ele>5.91</ele>
        <time>2017-05-17T15:07:57Z</time>
      </trkpt>
      <trkpt lat="43.12146" lon="6.26121">
        <ele>5.91</ele>
        <time>2017-05-17T15:07:58Z</time>
      </trkpt>
      <trkpt lat="43.12146" lon="6.26118">
        <ele>6.39</ele>
        <time>2017-05-17T15:07:59Z</time>
      </trkpt>
      <trkpt lat="43.12146" lon="6.26117">
        <ele>6.39</ele>
        <time>2017-05-17T15:08:00Z</time>
      </trkpt>
      <trkpt lat="43.12145" lon="6.26102">
        <ele>6.39</ele>
        <time>2017-05-17T15:08:10Z</time>
      </trkpt>
      <trkpt lat="43.12143" lon="6.26087">
        <ele>6.87</ele>
        <time>2017-05-17T15:08:20Z</time>
      </trkpt>
      <trkpt lat="43.12141" lon="6.26069">
        <ele>6.39</ele>
        <time>2017-05-17T15:08:31Z</time>
      </trkpt>
      <trkpt lat="43.12138" lon="6.26052">
        <ele>6.39</ele>
        <time>2017-05-17T15:08:42Z</time>
      </trkpt>
      <trkpt lat="43.12137" lon="6.26045">
        <ele>6.87</ele>
        <time>2017-05-17T15:08:47Z</time>
      </trkpt>
      <trkpt lat="43.12131" lon="6.26024">
        <ele>6.39</ele>
        <time>2017-05-17T15:09:00Z</time>
      </trkpt>
      <trkpt lat="43.12129" lon="6.26009">
        <ele>5.91</ele>
        <time>2017-05-17T15:09:10Z</time>
      </trkpt>
      <trkpt lat="43.12124" lon="6.26002">
        <ele>5.91</ele>
        <time>2017-05-17T15:09:16Z</time>
      </trkpt>
      <trkpt lat="43.12128" lon="6.25988">
        <ele>6.39</ele>
        <time>2017-05-17T15:09:27Z</time>
      </trkpt>
      <trkpt lat="43.12133" lon="6.2598">
        <ele>6.39</ele>
        <time>2017-05-17T15:09:37Z</time>
      </trkpt>
      <trkpt lat="43.12138" lon="6.25978">
        <ele>6.39</ele>
        <time>2017-05-17T15:09:42Z</time>
      </trkpt>
      <trkpt lat="43.12139" lon="6.25976">
        <ele>6.39</ele>
        <time>2017-05-17T15:09:44Z</time>
      </trkpt>
      <trkpt lat="43.1214" lon="6.25964">
        <ele>5.91</ele>
        <time>2017-05-17T15:09:51Z</time>
      </trkpt>
      <trkpt lat="43.12148" lon="6.25954">
        <ele>5.91</ele>
        <time>2017-05-17T15:10:04Z</time>
      </trkpt>
      <trkpt lat="43.12151" lon="6.25942">
        <ele>5.91</ele>
        <time>2017-05-17T15:10:16Z</time>
      </trkpt>
      <trkpt lat="43.12147" lon="6.25937">
        <ele>5.91</ele>
        <time>2017-05-17T15:10:37Z</time>
      </trkpt>
      <trkpt lat="43.12147" lon="6.25935">
        <ele>6.39</ele>
        <time>2017-05-17T15:10:57Z</time>
      </trkpt>
      <trkpt lat="43.12148" lon="6.25936">
        <ele>6.87</ele>
        <time>2017-05-17T15:11:14Z</time>
      </trkpt>
    </trkseg>
  </trk>
</gpx>